<?xml version="1.0" encoding="UTF-8" standalone="no" ?>
<gpx xmlns="http://www.topografix.com/GPX/1/1" xmlns:xsi="http://www.w3.org/2001/XMLSchema-instance" xsi:schemaLocation="http://www.topografix.com/GPX/1/1 http://www.topografix.com/GPX/1/1/gpx.xsd" version="1.1" creator="VisuGPX - https://www.visugpx.com">
  <metadata>
    <name>150107ROBMinots</name>
    <desc><![CDATA[Bravo belle prestation]]></desc>
  </metadata>
  <trk>
    <name><![CDATA[150107ROBMinots]]></name>
    <trkseg>
      <trkpt lat="43.41579" lon="6.07038">
        <ele>218.42678833008</ele>
        <time>2015-01-07T12:40:51Z</time>
      </trkpt>
      <trkpt lat="43.41579" lon="6.07038">
        <ele>218.42620849609</ele>
        <time>2015-01-07T12:40:53Z</time>
      </trkpt>
      <trkpt lat="43.41579" lon="6.07039">
        <ele>218.42562866211</ele>
        <time>2015-01-07T12:40:55Z</time>
      </trkpt>
      <trkpt lat="43.41579" lon="6.0704">
        <ele>218.41076660156</ele>
        <time>2015-01-07T12:40:57Z</time>
      </trkpt>
      <trkpt lat="43.41579" lon="6.07043">
        <ele>218.38900756836</ele>
        <time>2015-01-07T12:40:59Z</time>
      </trkpt>
      <trkpt lat="43.4158" lon="6.07045">
        <ele>218.3752746582</ele>
        <time>2015-01-07T12:41:00Z</time>
      </trkpt>
      <trkpt lat="43.4158" lon="6.07048">
        <ele>218.34266662598</ele>
        <time>2015-01-07T12:41:01Z</time>
      </trkpt>
      <trkpt lat="43.4158" lon="6.07054">
        <ele>218.28086853027</ele>
        <time>2015-01-07T12:41:03Z</time>
      </trkpt>
      <trkpt lat="43.41581" lon="6.07061">
        <ele>218.20706176758</ele>
        <time>2015-01-07T12:41:05Z</time>
      </trkpt>
      <trkpt lat="43.41581" lon="6.07064">
        <ele>218.18188476562</ele>
        <time>2015-01-07T12:41:06Z</time>
      </trkpt>
      <trkpt lat="43.41582" lon="6.07068">
        <ele>218.14181518555</ele>
        <time>2015-01-07T12:41:07Z</time>
      </trkpt>
      <trkpt lat="43.41583" lon="6.07077">
        <ele>218.07029724121</ele>
        <time>2015-01-07T12:41:09Z</time>
      </trkpt>
      <trkpt lat="43.41584" lon="6.07085">
        <ele>218.00720214844</ele>
        <time>2015-01-07T12:41:11Z</time>
      </trkpt>
      <trkpt lat="43.41585" lon="6.07093">
        <ele>218.03466796875</ele>
        <time>2015-01-07T12:41:13Z</time>
      </trkpt>
      <trkpt lat="43.41585" lon="6.07096">
        <ele>218.04382324219</ele>
        <time>2015-01-07T12:41:14Z</time>
      </trkpt>
      <trkpt lat="43.41585" lon="6.07098">
        <ele>218.04382324219</ele>
        <time>2015-01-07T12:41:15Z</time>
      </trkpt>
      <trkpt lat="43.41586" lon="6.07102">
        <ele>218.05297851562</ele>
        <time>2015-01-07T12:41:17Z</time>
      </trkpt>
      <trkpt lat="43.41586" lon="6.07107">
        <ele>218.0712890625</ele>
        <time>2015-01-07T12:41:19Z</time>
      </trkpt>
      <trkpt lat="43.41586" lon="6.07109">
        <ele>218.0712890625</ele>
        <time>2015-01-07T12:41:20Z</time>
      </trkpt>
      <trkpt lat="43.41586" lon="6.07111">
        <ele>218.05297851562</ele>
        <time>2015-01-07T12:41:21Z</time>
      </trkpt>
      <trkpt lat="43.41583" lon="6.07113">
        <ele>217.98889160156</ele>
        <time>2015-01-07T12:41:23Z</time>
      </trkpt>
      <trkpt lat="43.41581" lon="6.07114">
        <ele>217.94311523438</ele>
        <time>2015-01-07T12:41:24Z</time>
      </trkpt>
      <trkpt lat="43.41579" lon="6.07114">
        <ele>217.88818359375</ele>
        <time>2015-01-07T12:41:25Z</time>
      </trkpt>
      <trkpt lat="43.41575" lon="6.07116">
        <ele>217.79663085938</ele>
        <time>2015-01-07T12:41:27Z</time>
      </trkpt>
      <trkpt lat="43.41571" lon="6.07119">
        <ele>217.71423339844</ele>
        <time>2015-01-07T12:41:29Z</time>
      </trkpt>
      <trkpt lat="43.41568" lon="6.0712">
        <ele>217.6318359375</ele>
        <time>2015-01-07T12:41:31Z</time>
      </trkpt>
      <trkpt lat="43.41562" lon="6.0712">
        <ele>217.49450683594</ele>
        <time>2015-01-07T12:41:33Z</time>
      </trkpt>
      <trkpt lat="43.41559" lon="6.0712">
        <ele>217.42126464844</ele>
        <time>2015-01-07T12:41:34Z</time>
      </trkpt>
      <trkpt lat="43.41557" lon="6.0712">
        <ele>217.35717773438</ele>
        <time>2015-01-07T12:41:35Z</time>
      </trkpt>
      <trkpt lat="43.41553" lon="6.0712">
        <ele>217.28393554688</ele>
        <time>2015-01-07T12:41:36Z</time>
      </trkpt>
      <trkpt lat="43.41551" lon="6.07118">
        <ele>217.22900390625</ele>
        <time>2015-01-07T12:41:37Z</time>
      </trkpt>
      <trkpt lat="43.41549" lon="6.07111">
        <ele>217.16491699219</ele>
        <time>2015-01-07T12:41:39Z</time>
      </trkpt>
      <trkpt lat="43.41547" lon="6.07104">
        <ele>217.13745117188</ele>
        <time>2015-01-07T12:41:41Z</time>
      </trkpt>
      <trkpt lat="43.41546" lon="6.07096">
        <ele>217.10998535156</ele>
        <time>2015-01-07T12:41:43Z</time>
      </trkpt>
      <trkpt lat="43.41545" lon="6.07089">
        <ele>217.08251953125</ele>
        <time>2015-01-07T12:41:45Z</time>
      </trkpt>
      <trkpt lat="43.41543" lon="6.07082">
        <ele>217.0397644043</ele>
        <time>2015-01-07T12:41:47Z</time>
      </trkpt>
      <trkpt lat="43.41538" lon="6.07078">
        <ele>216.96994018555</ele>
        <time>2015-01-07T12:41:49Z</time>
      </trkpt>
      <trkpt lat="43.41535" lon="6.07077">
        <ele>216.90643310547</ele>
        <time>2015-01-07T12:41:50Z</time>
      </trkpt>
      <trkpt lat="43.41531" lon="6.07077">
        <ele>216.80630493164</ele>
        <time>2015-01-07T12:41:51Z</time>
      </trkpt>
      <trkpt lat="43.41522" lon="6.0708">
        <ele>216.57913208008</ele>
        <time>2015-01-07T12:41:53Z</time>
      </trkpt>
      <trkpt lat="43.41518" lon="6.07081">
        <ele>216.46011352539</ele>
        <time>2015-01-07T12:41:54Z</time>
      </trkpt>
      <trkpt lat="43.41513" lon="6.07083">
        <ele>216.33135986328</ele>
        <time>2015-01-07T12:41:55Z</time>
      </trkpt>
      <trkpt lat="43.4151" lon="6.07084">
        <ele>216.23107910156</ele>
        <time>2015-01-07T12:41:56Z</time>
      </trkpt>
      <trkpt lat="43.41505" lon="6.07084">
        <ele>216.13037109375</ele>
        <time>2015-01-07T12:41:57Z</time>
      </trkpt>
      <trkpt lat="43.41497" lon="6.07084">
        <ele>215.93811035156</ele>
        <time>2015-01-07T12:41:59Z</time>
      </trkpt>
      <trkpt lat="43.41494" lon="6.07083">
        <ele>215.86262512207</ele>
        <time>2015-01-07T12:42:00Z</time>
      </trkpt>
      <trkpt lat="43.4149" lon="6.07081">
        <ele>215.79376220703</ele>
        <time>2015-01-07T12:42:01Z</time>
      </trkpt>
      <trkpt lat="43.41487" lon="6.07079">
        <ele>215.7389831543</ele>
        <time>2015-01-07T12:42:02Z</time>
      </trkpt>
      <trkpt lat="43.41483" lon="6.07078">
        <ele>215.67243957519</ele>
        <time>2015-01-07T12:42:03Z</time>
      </trkpt>
      <trkpt lat="43.41477" lon="6.07076">
        <ele>215.55435180664</ele>
        <time>2015-01-07T12:42:05Z</time>
      </trkpt>
      <trkpt lat="43.41473" lon="6.07076">
        <ele>215.47131347656</ele>
        <time>2015-01-07T12:42:07Z</time>
      </trkpt>
      <trkpt lat="43.4147" lon="6.07076">
        <ele>215.41320800781</ele>
        <time>2015-01-07T12:42:09Z</time>
      </trkpt>
      <trkpt lat="43.41468" lon="6.07075">
        <ele>215.38453674316</ele>
        <time>2015-01-07T12:42:11Z</time>
      </trkpt>
      <trkpt lat="43.41467" lon="6.07073">
        <ele>215.37240600586</ele>
        <time>2015-01-07T12:42:13Z</time>
      </trkpt>
      <trkpt lat="43.41465" lon="6.07071">
        <ele>215.38148498535</ele>
        <time>2015-01-07T12:42:15Z</time>
      </trkpt>
      <trkpt lat="43.41466" lon="6.07066">
        <ele>215.47392272949</ele>
        <time>2015-01-07T12:42:17Z</time>
      </trkpt>
      <trkpt lat="43.41469" lon="6.07061">
        <ele>215.62754821777</ele>
        <time>2015-01-07T12:42:19Z</time>
      </trkpt>
      <trkpt lat="43.41472" lon="6.07054">
        <ele>215.79411315918</ele>
        <time>2015-01-07T12:42:21Z</time>
      </trkpt>
      <trkpt lat="43.41476" lon="6.07046">
        <ele>216.00044250488</ele>
        <time>2015-01-07T12:42:23Z</time>
      </trkpt>
      <trkpt lat="43.41478" lon="6.07041">
        <ele>216.10557556152</ele>
        <time>2015-01-07T12:42:24Z</time>
      </trkpt>
      <trkpt lat="43.41479" lon="6.07036">
        <ele>216.20819091797</ele>
        <time>2015-01-07T12:42:25Z</time>
      </trkpt>
      <trkpt lat="43.41483" lon="6.07029">
        <ele>216.37088012695</ele>
        <time>2015-01-07T12:42:27Z</time>
      </trkpt>
      <trkpt lat="43.41485" lon="6.07022">
        <ele>216.51443481445</ele>
        <time>2015-01-07T12:42:29Z</time>
      </trkpt>
      <trkpt lat="43.41487" lon="6.07018">
        <ele>216.59259033203</ele>
        <time>2015-01-07T12:42:30Z</time>
      </trkpt>
      <trkpt lat="43.41488" lon="6.07014">
        <ele>216.67291259766</ele>
        <time>2015-01-07T12:42:31Z</time>
      </trkpt>
      <trkpt lat="43.41492" lon="6.07005">
        <ele>216.82907104492</ele>
        <time>2015-01-07T12:42:33Z</time>
      </trkpt>
      <trkpt lat="43.41493" lon="6.06995">
        <ele>216.97171020508</ele>
        <time>2015-01-07T12:42:35Z</time>
      </trkpt>
      <trkpt lat="43.41492" lon="6.0699">
        <ele>217.02722167969</ele>
        <time>2015-01-07T12:42:36Z</time>
      </trkpt>
      <trkpt lat="43.41492" lon="6.06985">
        <ele>217.08099365234</ele>
        <time>2015-01-07T12:42:37Z</time>
      </trkpt>
      <trkpt lat="43.41489" lon="6.06975">
        <ele>217.16226196289</ele>
        <time>2015-01-07T12:42:39Z</time>
      </trkpt>
      <trkpt lat="43.41484" lon="6.06966">
        <ele>217.21374511719</ele>
        <time>2015-01-07T12:42:41Z</time>
      </trkpt>
      <trkpt lat="43.41479" lon="6.06957">
        <ele>217.26525878906</ele>
        <time>2015-01-07T12:42:43Z</time>
      </trkpt>
      <trkpt lat="43.41475" lon="6.06949">
        <ele>217.31159973144</ele>
        <time>2015-01-07T12:42:45Z</time>
      </trkpt>
      <trkpt lat="43.4147" lon="6.0694">
        <ele>217.35165405273</ele>
        <time>2015-01-07T12:42:47Z</time>
      </trkpt>
      <trkpt lat="43.41465" lon="6.06933">
        <ele>217.38198852539</ele>
        <time>2015-01-07T12:42:49Z</time>
      </trkpt>
      <trkpt lat="43.41463" lon="6.06929">
        <ele>217.41230773926</ele>
        <time>2015-01-07T12:42:50Z</time>
      </trkpt>
      <trkpt lat="43.41463" lon="6.06926">
        <ele>217.44320678711</ele>
        <time>2015-01-07T12:42:51Z</time>
      </trkpt>
      <trkpt lat="43.41466" lon="6.06922">
        <ele>217.52674865723</ele>
        <time>2015-01-07T12:42:53Z</time>
      </trkpt>
      <trkpt lat="43.4147" lon="6.06918">
        <ele>217.63375854492</ele>
        <time>2015-01-07T12:42:55Z</time>
      </trkpt>
      <trkpt lat="43.41472" lon="6.06914">
        <ele>217.70736694336</ele>
        <time>2015-01-07T12:42:57Z</time>
      </trkpt>
      <trkpt lat="43.41473" lon="6.06912">
        <ele>217.74655151367</ele>
        <time>2015-01-07T12:42:59Z</time>
      </trkpt>
      <trkpt lat="43.41474" lon="6.0691">
        <ele>217.79734802246</ele>
        <time>2015-01-07T12:43:01Z</time>
      </trkpt>
      <trkpt lat="43.41476" lon="6.06905">
        <ele>217.89294433594</ele>
        <time>2015-01-07T12:43:03Z</time>
      </trkpt>
      <trkpt lat="43.41475" lon="6.06899">
        <ele>217.97285461426</ele>
        <time>2015-01-07T12:43:05Z</time>
      </trkpt>
      <trkpt lat="43.41475" lon="6.06887">
        <ele>218.16053771973</ele>
        <time>2015-01-07T12:43:09Z</time>
      </trkpt>
      <trkpt lat="43.41475" lon="6.06883">
        <ele>218.22581481934</ele>
        <time>2015-01-07T12:43:10Z</time>
      </trkpt>
      <trkpt lat="43.41476" lon="6.06879">
        <ele>218.28546142578</ele>
        <time>2015-01-07T12:43:11Z</time>
      </trkpt>
      <trkpt lat="43.41476" lon="6.06876">
        <ele>218.34164428711</ele>
        <time>2015-01-07T12:43:12Z</time>
      </trkpt>
      <trkpt lat="43.41475" lon="6.06868">
        <ele>218.46015930176</ele>
        <time>2015-01-07T12:43:14Z</time>
      </trkpt>
      <trkpt lat="43.41473" lon="6.06855">
        <ele>218.65603637695</ele>
        <time>2015-01-07T12:43:17Z</time>
      </trkpt>
      <trkpt lat="43.41475" lon="6.06845">
        <ele>218.81268310547</ele>
        <time>2015-01-07T12:43:19Z</time>
      </trkpt>
      <trkpt lat="43.41476" lon="6.06837">
        <ele>218.94706726074</ele>
        <time>2015-01-07T12:43:21Z</time>
      </trkpt>
      <trkpt lat="43.41479" lon="6.06829">
        <ele>219.01411437988</ele>
        <time>2015-01-07T12:43:23Z</time>
      </trkpt>
      <trkpt lat="43.41483" lon="6.06819">
        <ele>219.03544616699</ele>
        <time>2015-01-07T12:43:25Z</time>
      </trkpt>
      <trkpt lat="43.41486" lon="6.06809">
        <ele>219.04808044434</ele>
        <time>2015-01-07T12:43:27Z</time>
      </trkpt>
      <trkpt lat="43.41489" lon="6.06798">
        <ele>219.05554199219</ele>
        <time>2015-01-07T12:43:29Z</time>
      </trkpt>
      <trkpt lat="43.41491" lon="6.06788">
        <ele>219.05712890625</ele>
        <time>2015-01-07T12:43:31Z</time>
      </trkpt>
      <trkpt lat="43.41493" lon="6.06776">
        <ele>219.05899047852</ele>
        <time>2015-01-07T12:43:33Z</time>
      </trkpt>
      <trkpt lat="43.41495" lon="6.06762">
        <ele>219.05389404297</ele>
        <time>2015-01-07T12:43:35Z</time>
      </trkpt>
      <trkpt lat="43.41495" lon="6.06747">
        <ele>219.05841064453</ele>
        <time>2015-01-07T12:43:37Z</time>
      </trkpt>
      <trkpt lat="43.41496" lon="6.06732">
        <ele>219.05383300781</ele>
        <time>2015-01-07T12:43:39Z</time>
      </trkpt>
      <trkpt lat="43.41497" lon="6.06716">
        <ele>219.04010009766</ele>
        <time>2015-01-07T12:43:41Z</time>
      </trkpt>
      <trkpt lat="43.41497" lon="6.067">
        <ele>219.03552246094</ele>
        <time>2015-01-07T12:43:43Z</time>
      </trkpt>
      <trkpt lat="43.41498" lon="6.06693">
        <ele>219.0263671875</ele>
        <time>2015-01-07T12:43:44Z</time>
      </trkpt>
      <trkpt lat="43.41498" lon="6.06685">
        <ele>219.02178955078</ele>
        <time>2015-01-07T12:43:45Z</time>
      </trkpt>
      <trkpt lat="43.415" lon="6.06669">
        <ele>219.00347900391</ele>
        <time>2015-01-07T12:43:47Z</time>
      </trkpt>
      <trkpt lat="43.41502" lon="6.06653">
        <ele>219.02786254883</ele>
        <time>2015-01-07T12:43:49Z</time>
      </trkpt>
      <trkpt lat="43.41505" lon="6.06638">
        <ele>219.07536315918</ele>
        <time>2015-01-07T12:43:51Z</time>
      </trkpt>
      <trkpt lat="43.41508" lon="6.06614">
        <ele>219.15809631348</ele>
        <time>2015-01-07T12:43:54Z</time>
      </trkpt>
      <trkpt lat="43.41509" lon="6.06607">
        <ele>219.19071960449</ele>
        <time>2015-01-07T12:43:55Z</time>
      </trkpt>
      <trkpt lat="43.41512" lon="6.06592">
        <ele>219.26223754883</ele>
        <time>2015-01-07T12:43:57Z</time>
      </trkpt>
      <trkpt lat="43.41514" lon="6.06578">
        <ele>219.38691711426</ele>
        <time>2015-01-07T12:43:59Z</time>
      </trkpt>
      <trkpt lat="43.41516" lon="6.06565">
        <ele>219.55465698242</ele>
        <time>2015-01-07T12:44:01Z</time>
      </trkpt>
      <trkpt lat="43.41518" lon="6.06554">
        <ele>219.70053100586</ele>
        <time>2015-01-07T12:44:03Z</time>
      </trkpt>
      <trkpt lat="43.4152" lon="6.06543">
        <ele>219.83943176269</ele>
        <time>2015-01-07T12:44:05Z</time>
      </trkpt>
      <trkpt lat="43.4152" lon="6.06538">
        <ele>219.90049743652</ele>
        <time>2015-01-07T12:44:06Z</time>
      </trkpt>
      <trkpt lat="43.41521" lon="6.06533">
        <ele>219.96125793457</ele>
        <time>2015-01-07T12:44:07Z</time>
      </trkpt>
      <trkpt lat="43.41523" lon="6.06523">
        <ele>220.0850982666</ele>
        <time>2015-01-07T12:44:09Z</time>
      </trkpt>
      <trkpt lat="43.41526" lon="6.06513">
        <ele>220.20256042481</ele>
        <time>2015-01-07T12:44:11Z</time>
      </trkpt>
      <trkpt lat="43.4153" lon="6.06505">
        <ele>220.32695007324</ele>
        <time>2015-01-07T12:44:13Z</time>
      </trkpt>
      <trkpt lat="43.41534" lon="6.06497">
        <ele>220.42031860352</ele>
        <time>2015-01-07T12:44:15Z</time>
      </trkpt>
      <trkpt lat="43.41538" lon="6.0649">
        <ele>220.51066589356</ele>
        <time>2015-01-07T12:44:17Z</time>
      </trkpt>
      <trkpt lat="43.41542" lon="6.06483">
        <ele>220.60942077637</ele>
        <time>2015-01-07T12:44:19Z</time>
      </trkpt>
      <trkpt lat="43.41544" lon="6.06479">
        <ele>220.65789794922</ele>
        <time>2015-01-07T12:44:20Z</time>
      </trkpt>
      <trkpt lat="43.41545" lon="6.06476">
        <ele>220.69917297363</ele>
        <time>2015-01-07T12:44:21Z</time>
      </trkpt>
      <trkpt lat="43.41545" lon="6.06466">
        <ele>220.76568603516</ele>
        <time>2015-01-07T12:44:23Z</time>
      </trkpt>
      <trkpt lat="43.41545" lon="6.06456">
        <ele>220.82585144043</ele>
        <time>2015-01-07T12:44:25Z</time>
      </trkpt>
      <trkpt lat="43.41545" lon="6.06446">
        <ele>220.8896484375</ele>
        <time>2015-01-07T12:44:27Z</time>
      </trkpt>
      <trkpt lat="43.41546" lon="6.06436">
        <ele>220.97241210938</ele>
        <time>2015-01-07T12:44:29Z</time>
      </trkpt>
      <trkpt lat="43.41548" lon="6.06426">
        <ele>221.08140563965</ele>
        <time>2015-01-07T12:44:31Z</time>
      </trkpt>
      <trkpt lat="43.4155" lon="6.06417">
        <ele>221.19921875</ele>
        <time>2015-01-07T12:44:33Z</time>
      </trkpt>
      <trkpt lat="43.41553" lon="6.06398">
        <ele>221.58563232422</ele>
        <time>2015-01-07T12:44:37Z</time>
      </trkpt>
      <trkpt lat="43.41555" lon="6.06389">
        <ele>221.75924682617</ele>
        <time>2015-01-07T12:44:39Z</time>
      </trkpt>
      <trkpt lat="43.41557" lon="6.06381">
        <ele>221.92672729492</ele>
        <time>2015-01-07T12:44:41Z</time>
      </trkpt>
      <trkpt lat="43.4156" lon="6.06365">
        <ele>222.22384643555</ele>
        <time>2015-01-07T12:44:45Z</time>
      </trkpt>
      <trkpt lat="43.4156" lon="6.06361">
        <ele>222.29417419434</ele>
        <time>2015-01-07T12:44:46Z</time>
      </trkpt>
      <trkpt lat="43.41562" lon="6.06358">
        <ele>222.36451721191</ele>
        <time>2015-01-07T12:44:47Z</time>
      </trkpt>
      <trkpt lat="43.41564" lon="6.06351">
        <ele>222.50668334961</ele>
        <time>2015-01-07T12:44:49Z</time>
      </trkpt>
      <trkpt lat="43.41568" lon="6.06345">
        <ele>222.63900756836</ele>
        <time>2015-01-07T12:44:51Z</time>
      </trkpt>
      <trkpt lat="43.4157" lon="6.06343">
        <ele>222.71098327637</ele>
        <time>2015-01-07T12:44:52Z</time>
      </trkpt>
      <trkpt lat="43.41576" lon="6.06331">
        <ele>222.98442077637</ele>
        <time>2015-01-07T12:44:56Z</time>
      </trkpt>
      <trkpt lat="43.41578" lon="6.06329">
        <ele>223.09362792969</ele>
        <time>2015-01-07T12:44:57Z</time>
      </trkpt>
      <trkpt lat="43.4158" lon="6.06326">
        <ele>223.21772766113</ele>
        <time>2015-01-07T12:44:58Z</time>
      </trkpt>
      <trkpt lat="43.41582" lon="6.06323">
        <ele>223.33824157715</ele>
        <time>2015-01-07T12:44:59Z</time>
      </trkpt>
      <trkpt lat="43.41585" lon="6.06317">
        <ele>223.70948791504</ele>
        <time>2015-01-07T12:45:01Z</time>
      </trkpt>
      <trkpt lat="43.41587" lon="6.0631">
        <ele>224.11454772949</ele>
        <time>2015-01-07T12:45:03Z</time>
      </trkpt>
      <trkpt lat="43.41587" lon="6.06306">
        <ele>224.30123901367</ele>
        <time>2015-01-07T12:45:04Z</time>
      </trkpt>
      <trkpt lat="43.41588" lon="6.06302">
        <ele>224.48962402344</ele>
        <time>2015-01-07T12:45:05Z</time>
      </trkpt>
      <trkpt lat="43.41587" lon="6.06295">
        <ele>224.68971252441</ele>
        <time>2015-01-07T12:45:07Z</time>
      </trkpt>
      <trkpt lat="43.41586" lon="6.06288">
        <ele>224.85264587402</ele>
        <time>2015-01-07T12:45:09Z</time>
      </trkpt>
      <trkpt lat="43.41586" lon="6.06275">
        <ele>225.27613830566</ele>
        <time>2015-01-07T12:45:13Z</time>
      </trkpt>
      <trkpt lat="43.41587" lon="6.06272">
        <ele>225.43962097168</ele>
        <time>2015-01-07T12:45:14Z</time>
      </trkpt>
      <trkpt lat="43.41592" lon="6.06266">
        <ele>226.00793457031</ele>
        <time>2015-01-07T12:45:17Z</time>
      </trkpt>
      <trkpt lat="43.41596" lon="6.06262">
        <ele>226.37455749512</ele>
        <time>2015-01-07T12:45:19Z</time>
      </trkpt>
      <trkpt lat="43.41599" lon="6.06259">
        <ele>226.64196777344</ele>
        <time>2015-01-07T12:45:21Z</time>
      </trkpt>
      <trkpt lat="43.416" lon="6.06257">
        <ele>226.74499511719</ele>
        <time>2015-01-07T12:45:22Z</time>
      </trkpt>
      <trkpt lat="43.416" lon="6.06256">
        <ele>226.83242797852</ele>
        <time>2015-01-07T12:45:23Z</time>
      </trkpt>
      <trkpt lat="43.416" lon="6.06256">
        <ele>226.83538818359</ele>
        <time>2015-01-07T12:45:25Z</time>
      </trkpt>
      <trkpt lat="43.416" lon="6.06256">
        <ele>226.81034851074</ele>
        <time>2015-01-07T12:45:27Z</time>
      </trkpt>
      <trkpt lat="43.416" lon="6.06256">
        <ele>226.81034851074</ele>
        <time>2015-01-07T12:45:31Z</time>
      </trkpt>
      <trkpt lat="43.416" lon="6.06256">
        <ele>226.81182861328</ele>
        <time>2015-01-07T12:45:33Z</time>
      </trkpt>
      <trkpt lat="43.416" lon="6.06256">
        <ele>226.81182861328</ele>
        <time>2015-01-07T12:45:37Z</time>
      </trkpt>
      <trkpt lat="43.41601" lon="6.06253">
        <ele>226.99139404297</ele>
        <time>2015-01-07T12:45:40Z</time>
      </trkpt>
      <trkpt lat="43.41602" lon="6.06251">
        <ele>227.06442260742</ele>
        <time>2015-01-07T12:45:41Z</time>
      </trkpt>
      <trkpt lat="43.41603" lon="6.06247">
        <ele>227.22764587402</ele>
        <time>2015-01-07T12:45:43Z</time>
      </trkpt>
      <trkpt lat="43.41604" lon="6.06242">
        <ele>227.4542388916</ele>
        <time>2015-01-07T12:45:45Z</time>
      </trkpt>
      <trkpt lat="43.41605" lon="6.06238">
        <ele>227.59957885742</ele>
        <time>2015-01-07T12:45:46Z</time>
      </trkpt>
      <trkpt lat="43.41606" lon="6.06236">
        <ele>227.71516418457</ele>
        <time>2015-01-07T12:45:47Z</time>
      </trkpt>
      <trkpt lat="43.41607" lon="6.0623">
        <ele>227.8994140625</ele>
        <time>2015-01-07T12:45:49Z</time>
      </trkpt>
      <trkpt lat="43.41607" lon="6.06226">
        <ele>227.98181152344</ele>
        <time>2015-01-07T12:45:51Z</time>
      </trkpt>
      <trkpt lat="43.41606" lon="6.06225">
        <ele>227.97608947754</ele>
        <time>2015-01-07T12:45:52Z</time>
      </trkpt>
      <trkpt lat="43.41606" lon="6.06223">
        <ele>228.01042175293</ele>
        <time>2015-01-07T12:45:53Z</time>
      </trkpt>
      <trkpt lat="43.41606" lon="6.0622">
        <ele>228.09396362305</ele>
        <time>2015-01-07T12:45:55Z</time>
      </trkpt>
      <trkpt lat="43.41607" lon="6.06216">
        <ele>228.24845886231</ele>
        <time>2015-01-07T12:45:57Z</time>
      </trkpt>
      <trkpt lat="43.41607" lon="6.06214">
        <ele>228.29995727539</ele>
        <time>2015-01-07T12:45:58Z</time>
      </trkpt>
      <trkpt lat="43.41605" lon="6.06207">
        <ele>228.32170104981</ele>
        <time>2015-01-07T12:46:01Z</time>
      </trkpt>
      <trkpt lat="43.41602" lon="6.06201">
        <ele>228.31941223144</ele>
        <time>2015-01-07T12:46:03Z</time>
      </trkpt>
      <trkpt lat="43.41601" lon="6.06197">
        <ele>228.34115600586</ele>
        <time>2015-01-07T12:46:04Z</time>
      </trkpt>
      <trkpt lat="43.416" lon="6.06193">
        <ele>228.37777709961</ele>
        <time>2015-01-07T12:46:05Z</time>
      </trkpt>
      <trkpt lat="43.41599" lon="6.06183">
        <ele>228.54371643066</ele>
        <time>2015-01-07T12:46:07Z</time>
      </trkpt>
      <trkpt lat="43.41602" lon="6.06173">
        <ele>228.99690246582</ele>
        <time>2015-01-07T12:46:09Z</time>
      </trkpt>
      <trkpt lat="43.41608" lon="6.06163">
        <ele>229.53747558594</ele>
        <time>2015-01-07T12:46:11Z</time>
      </trkpt>
      <trkpt lat="43.41612" lon="6.06158">
        <ele>229.79902648926</ele>
        <time>2015-01-07T12:46:12Z</time>
      </trkpt>
      <trkpt lat="43.41616" lon="6.06154">
        <ele>230.03211975098</ele>
        <time>2015-01-07T12:46:13Z</time>
      </trkpt>
      <trkpt lat="43.41619" lon="6.06151">
        <ele>230.27813720703</ele>
        <time>2015-01-07T12:46:14Z</time>
      </trkpt>
      <trkpt lat="43.41623" lon="6.06147">
        <ele>230.47480773926</ele>
        <time>2015-01-07T12:46:15Z</time>
      </trkpt>
      <trkpt lat="43.41628" lon="6.06138">
        <ele>230.85554504394</ele>
        <time>2015-01-07T12:46:18Z</time>
      </trkpt>
      <trkpt lat="43.41629" lon="6.06135">
        <ele>230.91262817383</ele>
        <time>2015-01-07T12:46:19Z</time>
      </trkpt>
      <trkpt lat="43.41629" lon="6.06129">
        <ele>230.96832275391</ele>
        <time>2015-01-07T12:46:21Z</time>
      </trkpt>
      <trkpt lat="43.41626" lon="6.06119">
        <ele>230.83781433106</ele>
        <time>2015-01-07T12:46:23Z</time>
      </trkpt>
      <trkpt lat="43.41622" lon="6.06107">
        <ele>230.69374084473</ele>
        <time>2015-01-07T12:46:25Z</time>
      </trkpt>
      <trkpt lat="43.41619" lon="6.06095">
        <ele>230.64079284668</ele>
        <time>2015-01-07T12:46:27Z</time>
      </trkpt>
      <trkpt lat="43.41618" lon="6.06081">
        <ele>230.67489624023</ele>
        <time>2015-01-07T12:46:29Z</time>
      </trkpt>
      <trkpt lat="43.41619" lon="6.06067">
        <ele>230.78300476074</ele>
        <time>2015-01-07T12:46:31Z</time>
      </trkpt>
      <trkpt lat="43.41619" lon="6.0606">
        <ele>230.83587646484</ele>
        <time>2015-01-07T12:46:32Z</time>
      </trkpt>
      <trkpt lat="43.41621" lon="6.06041">
        <ele>231.0597076416</ele>
        <time>2015-01-07T12:46:35Z</time>
      </trkpt>
      <trkpt lat="43.41623" lon="6.06028">
        <ele>231.23481750488</ele>
        <time>2015-01-07T12:46:37Z</time>
      </trkpt>
      <trkpt lat="43.41624" lon="6.06016">
        <ele>231.36938476562</ele>
        <time>2015-01-07T12:46:39Z</time>
      </trkpt>
      <trkpt lat="43.41625" lon="6.0601">
        <ele>231.45072937012</ele>
        <time>2015-01-07T12:46:40Z</time>
      </trkpt>
      <trkpt lat="43.41626" lon="6.06004">
        <ele>231.53140258789</ele>
        <time>2015-01-07T12:46:41Z</time>
      </trkpt>
      <trkpt lat="43.41628" lon="6.05992">
        <ele>231.65014648438</ele>
        <time>2015-01-07T12:46:43Z</time>
      </trkpt>
      <trkpt lat="43.41629" lon="6.05981">
        <ele>231.74169921875</ele>
        <time>2015-01-07T12:46:45Z</time>
      </trkpt>
      <trkpt lat="43.41631" lon="6.0597">
        <ele>231.83325195312</ele>
        <time>2015-01-07T12:46:47Z</time>
      </trkpt>
      <trkpt lat="43.41632" lon="6.0596">
        <ele>231.90191650391</ele>
        <time>2015-01-07T12:46:49Z</time>
      </trkpt>
      <trkpt lat="43.41633" lon="6.05949">
        <ele>231.97058105469</ele>
        <time>2015-01-07T12:46:51Z</time>
      </trkpt>
      <trkpt lat="43.41634" lon="6.05939">
        <ele>232.06213378906</ele>
        <time>2015-01-07T12:46:53Z</time>
      </trkpt>
      <trkpt lat="43.41636" lon="6.05928">
        <ele>232.13079833984</ele>
        <time>2015-01-07T12:46:55Z</time>
      </trkpt>
      <trkpt lat="43.41637" lon="6.05918">
        <ele>232.19946289062</ele>
        <time>2015-01-07T12:46:57Z</time>
      </trkpt>
      <trkpt lat="43.41638" lon="6.05907">
        <ele>232.26812744141</ele>
        <time>2015-01-07T12:46:59Z</time>
      </trkpt>
      <trkpt lat="43.41639" lon="6.05897">
        <ele>232.33679199219</ele>
        <time>2015-01-07T12:47:01Z</time>
      </trkpt>
      <trkpt lat="43.4164" lon="6.05886">
        <ele>232.40545654297</ele>
        <time>2015-01-07T12:47:03Z</time>
      </trkpt>
      <trkpt lat="43.4164" lon="6.05875">
        <ele>232.42834472656</ele>
        <time>2015-01-07T12:47:05Z</time>
      </trkpt>
      <trkpt lat="43.41642" lon="6.0586">
        <ele>232.49700927734</ele>
        <time>2015-01-07T12:47:08Z</time>
      </trkpt>
      <trkpt lat="43.41642" lon="6.05855">
        <ele>232.51989746094</ele>
        <time>2015-01-07T12:47:09Z</time>
      </trkpt>
      <trkpt lat="43.41645" lon="6.0581">
        <ele>232.77601623535</ele>
        <time>2015-01-07T12:47:17Z</time>
      </trkpt>
      <trkpt lat="43.41645" lon="6.05804">
        <ele>232.81655883789</ele>
        <time>2015-01-07T12:47:18Z</time>
      </trkpt>
      <trkpt lat="43.41646" lon="6.05798">
        <ele>232.85629272461</ele>
        <time>2015-01-07T12:47:19Z</time>
      </trkpt>
      <trkpt lat="43.41646" lon="6.05786">
        <ele>232.91110229492</ele>
        <time>2015-01-07T12:47:21Z</time>
      </trkpt>
      <trkpt lat="43.41647" lon="6.05762">
        <ele>233.00228881836</ele>
        <time>2015-01-07T12:47:25Z</time>
      </trkpt>
      <trkpt lat="43.41646" lon="6.0575">
        <ele>233.01733398438</ele>
        <time>2015-01-07T12:47:27Z</time>
      </trkpt>
      <trkpt lat="43.41646" lon="6.05738">
        <ele>232.9990234375</ele>
        <time>2015-01-07T12:47:29Z</time>
      </trkpt>
      <trkpt lat="43.41645" lon="6.05726">
        <ele>232.96240234375</ele>
        <time>2015-01-07T12:47:31Z</time>
      </trkpt>
      <trkpt lat="43.41643" lon="6.05688">
        <ele>232.87084960938</ele>
        <time>2015-01-07T12:47:37Z</time>
      </trkpt>
      <trkpt lat="43.41642" lon="6.05675">
        <ele>232.83422851562</ele>
        <time>2015-01-07T12:47:39Z</time>
      </trkpt>
      <trkpt lat="43.41641" lon="6.05661">
        <ele>232.82771301269</ele>
        <time>2015-01-07T12:47:41Z</time>
      </trkpt>
      <trkpt lat="43.4164" lon="6.05645">
        <ele>232.96102905273</ele>
        <time>2015-01-07T12:47:43Z</time>
      </trkpt>
      <trkpt lat="43.41638" lon="6.0563">
        <ele>233.05487060547</ele>
        <time>2015-01-07T12:47:45Z</time>
      </trkpt>
      <trkpt lat="43.41637" lon="6.05622">
        <ele>233.11381530762</ele>
        <time>2015-01-07T12:47:46Z</time>
      </trkpt>
      <trkpt lat="43.41636" lon="6.05614">
        <ele>233.14929199219</ele>
        <time>2015-01-07T12:47:47Z</time>
      </trkpt>
      <trkpt lat="43.41633" lon="6.05599">
        <ele>233.20709228516</ele>
        <time>2015-01-07T12:47:49Z</time>
      </trkpt>
      <trkpt lat="43.41631" lon="6.05584">
        <ele>233.27346801758</ele>
        <time>2015-01-07T12:47:51Z</time>
      </trkpt>
      <trkpt lat="43.41628" lon="6.05569">
        <ele>233.23425292969</ele>
        <time>2015-01-07T12:47:53Z</time>
      </trkpt>
      <trkpt lat="43.41621" lon="6.05539">
        <ele>233.11869812012</ele>
        <time>2015-01-07T12:47:57Z</time>
      </trkpt>
      <trkpt lat="43.41619" lon="6.05531">
        <ele>233.09320068359</ele>
        <time>2015-01-07T12:47:58Z</time>
      </trkpt>
      <trkpt lat="43.41617" lon="6.05523">
        <ele>233.05435180664</ele>
        <time>2015-01-07T12:47:59Z</time>
      </trkpt>
      <trkpt lat="43.41609" lon="6.05494">
        <ele>233.00436401367</ele>
        <time>2015-01-07T12:48:03Z</time>
      </trkpt>
      <trkpt lat="43.41605" lon="6.05479">
        <ele>233.02725219727</ele>
        <time>2015-01-07T12:48:05Z</time>
      </trkpt>
      <trkpt lat="43.41592" lon="6.05436">
        <ele>233.09533691406</ele>
        <time>2015-01-07T12:48:11Z</time>
      </trkpt>
      <trkpt lat="43.41579" lon="6.05393">
        <ele>233.12852478027</ele>
        <time>2015-01-07T12:48:17Z</time>
      </trkpt>
      <trkpt lat="43.41574" lon="6.05379">
        <ele>233.12451171875</ele>
        <time>2015-01-07T12:48:19Z</time>
      </trkpt>
      <trkpt lat="43.41569" lon="6.05365">
        <ele>233.09704589844</ele>
        <time>2015-01-07T12:48:21Z</time>
      </trkpt>
      <trkpt lat="43.41557" lon="6.05337">
        <ele>232.98947143555</ele>
        <time>2015-01-07T12:48:25Z</time>
      </trkpt>
      <trkpt lat="43.41548" lon="6.05308">
        <ele>233.01924133301</ele>
        <time>2015-01-07T12:48:29Z</time>
      </trkpt>
      <trkpt lat="43.41544" lon="6.05294">
        <ele>233.04498291016</ele>
        <time>2015-01-07T12:48:31Z</time>
      </trkpt>
      <trkpt lat="43.41535" lon="6.05266">
        <ele>233.07760620117</ele>
        <time>2015-01-07T12:48:35Z</time>
      </trkpt>
      <trkpt lat="43.4153" lon="6.05252">
        <ele>233.04841613769</ele>
        <time>2015-01-07T12:48:37Z</time>
      </trkpt>
      <trkpt lat="43.41527" lon="6.05246">
        <ele>233.03010559082</ele>
        <time>2015-01-07T12:48:38Z</time>
      </trkpt>
      <trkpt lat="43.41525" lon="6.0524">
        <ele>233.02151489258</ele>
        <time>2015-01-07T12:48:39Z</time>
      </trkpt>
      <trkpt lat="43.41519" lon="6.05227">
        <ele>232.95056152344</ele>
        <time>2015-01-07T12:48:41Z</time>
      </trkpt>
      <trkpt lat="43.41513" lon="6.05214">
        <ele>232.88876342773</ele>
        <time>2015-01-07T12:48:43Z</time>
      </trkpt>
      <trkpt lat="43.41507" lon="6.05201">
        <ele>232.82238769531</ele>
        <time>2015-01-07T12:48:45Z</time>
      </trkpt>
      <trkpt lat="43.41504" lon="6.05195">
        <ele>232.79263305664</ele>
        <time>2015-01-07T12:48:46Z</time>
      </trkpt>
      <trkpt lat="43.41501" lon="6.05189">
        <ele>232.76745605469</ele>
        <time>2015-01-07T12:48:47Z</time>
      </trkpt>
      <trkpt lat="43.41496" lon="6.05177">
        <ele>232.67987060547</ele>
        <time>2015-01-07T12:48:49Z</time>
      </trkpt>
      <trkpt lat="43.41496" lon="6.05167">
        <ele>232.82006835938</ele>
        <time>2015-01-07T12:48:51Z</time>
      </trkpt>
      <trkpt lat="43.41501" lon="6.05161">
        <ele>233.16380310059</ele>
        <time>2015-01-07T12:48:53Z</time>
      </trkpt>
      <trkpt lat="43.41504" lon="6.0516">
        <ele>233.28804016113</ele>
        <time>2015-01-07T12:48:54Z</time>
      </trkpt>
      <trkpt lat="43.41507" lon="6.05159">
        <ele>233.42126464844</ele>
        <time>2015-01-07T12:48:55Z</time>
      </trkpt>
      <trkpt lat="43.41513" lon="6.05157">
        <ele>233.67413330078</ele>
        <time>2015-01-07T12:48:57Z</time>
      </trkpt>
      <trkpt lat="43.41519" lon="6.05155">
        <ele>233.92781066894</ele>
        <time>2015-01-07T12:48:59Z</time>
      </trkpt>
      <trkpt lat="43.41526" lon="6.05155">
        <ele>234.17936706543</ele>
        <time>2015-01-07T12:49:01Z</time>
      </trkpt>
      <trkpt lat="43.41533" lon="6.05155">
        <ele>234.40534973144</ele>
        <time>2015-01-07T12:49:03Z</time>
      </trkpt>
      <trkpt lat="43.41538" lon="6.05154">
        <ele>234.59976196289</ele>
        <time>2015-01-07T12:49:05Z</time>
      </trkpt>
      <trkpt lat="43.41541" lon="6.05154">
        <ele>234.69357299805</ele>
        <time>2015-01-07T12:49:06Z</time>
      </trkpt>
      <trkpt lat="43.41543" lon="6.05154">
        <ele>234.76321411133</ele>
        <time>2015-01-07T12:49:07Z</time>
      </trkpt>
      <trkpt lat="43.41546" lon="6.05154">
        <ele>234.86512756348</ele>
        <time>2015-01-07T12:49:09Z</time>
      </trkpt>
      <trkpt lat="43.41548" lon="6.05155">
        <ele>234.93940734863</ele>
        <time>2015-01-07T12:49:11Z</time>
      </trkpt>
      <trkpt lat="43.4155" lon="6.05155">
        <ele>235.00555419922</ele>
        <time>2015-01-07T12:49:13Z</time>
      </trkpt>
      <trkpt lat="43.41553" lon="6.05155">
        <ele>235.09468078613</ele>
        <time>2015-01-07T12:49:15Z</time>
      </trkpt>
      <trkpt lat="43.41555" lon="6.05156">
        <ele>235.15933227539</ele>
        <time>2015-01-07T12:49:17Z</time>
      </trkpt>
      <trkpt lat="43.41557" lon="6.05156">
        <ele>235.22680664062</ele>
        <time>2015-01-07T12:49:19Z</time>
      </trkpt>
      <trkpt lat="43.4156" lon="6.05157">
        <ele>235.31089782715</ele>
        <time>2015-01-07T12:49:21Z</time>
      </trkpt>
      <trkpt lat="43.41566" lon="6.05158">
        <ele>235.48796081543</ele>
        <time>2015-01-07T12:49:25Z</time>
      </trkpt>
      <trkpt lat="43.41569" lon="6.05159">
        <ele>235.58335876465</ele>
        <time>2015-01-07T12:49:27Z</time>
      </trkpt>
      <trkpt lat="43.41572" lon="6.0516">
        <ele>235.69537353516</ele>
        <time>2015-01-07T12:49:29Z</time>
      </trkpt>
      <trkpt lat="43.41576" lon="6.0516">
        <ele>235.80609130859</ele>
        <time>2015-01-07T12:49:31Z</time>
      </trkpt>
      <trkpt lat="43.41579" lon="6.05161">
        <ele>235.91690063477</ele>
        <time>2015-01-07T12:49:33Z</time>
      </trkpt>
      <trkpt lat="43.41581" lon="6.05161">
        <ele>235.97872924805</ele>
        <time>2015-01-07T12:49:34Z</time>
      </trkpt>
      <trkpt lat="43.41584" lon="6.05162">
        <ele>236.07063293457</ele>
        <time>2015-01-07T12:49:36Z</time>
      </trkpt>
      <trkpt lat="43.4159" lon="6.05163">
        <ele>236.19880676269</ele>
        <time>2015-01-07T12:49:39Z</time>
      </trkpt>
      <trkpt lat="43.41593" lon="6.05163">
        <ele>236.27490234375</ele>
        <time>2015-01-07T12:49:41Z</time>
      </trkpt>
      <trkpt lat="43.41597" lon="6.05164">
        <ele>236.36932373047</ele>
        <time>2015-01-07T12:49:44Z</time>
      </trkpt>
      <trkpt lat="43.41599" lon="6.05164">
        <ele>236.40307617188</ele>
        <time>2015-01-07T12:49:45Z</time>
      </trkpt>
      <trkpt lat="43.41602" lon="6.05165">
        <ele>236.45973205566</ele>
        <time>2015-01-07T12:49:47Z</time>
      </trkpt>
      <trkpt lat="43.41604" lon="6.05165">
        <ele>236.52496337891</ele>
        <time>2015-01-07T12:49:49Z</time>
      </trkpt>
      <trkpt lat="43.41607" lon="6.05165">
        <ele>236.59820556641</ele>
        <time>2015-01-07T12:49:51Z</time>
      </trkpt>
      <trkpt lat="43.4161" lon="6.05165">
        <ele>236.66516113281</ele>
        <time>2015-01-07T12:49:53Z</time>
      </trkpt>
      <trkpt lat="43.41615" lon="6.05166">
        <ele>236.75784301758</ele>
        <time>2015-01-07T12:49:55Z</time>
      </trkpt>
      <trkpt lat="43.41618" lon="6.05166">
        <ele>236.8459777832</ele>
        <time>2015-01-07T12:49:57Z</time>
      </trkpt>
      <trkpt lat="43.41631" lon="6.05168">
        <ele>237.1223449707</ele>
        <time>2015-01-07T12:50:03Z</time>
      </trkpt>
      <trkpt lat="43.41635" lon="6.05168">
        <ele>237.21905517578</ele>
        <time>2015-01-07T12:50:05Z</time>
      </trkpt>
      <trkpt lat="43.41639" lon="6.05168">
        <ele>237.32205200195</ele>
        <time>2015-01-07T12:50:07Z</time>
      </trkpt>
      <trkpt lat="43.41641" lon="6.05169">
        <ele>237.3649597168</ele>
        <time>2015-01-07T12:50:08Z</time>
      </trkpt>
      <trkpt lat="43.41644" lon="6.05169">
        <ele>237.41703796387</ele>
        <time>2015-01-07T12:50:09Z</time>
      </trkpt>
      <trkpt lat="43.41648" lon="6.05169">
        <ele>237.52461242676</ele>
        <time>2015-01-07T12:50:11Z</time>
      </trkpt>
      <trkpt lat="43.4165" lon="6.05169">
        <ele>237.58010864258</ele>
        <time>2015-01-07T12:50:12Z</time>
      </trkpt>
      <trkpt lat="43.41653" lon="6.05169">
        <ele>237.63333129883</ele>
        <time>2015-01-07T12:50:13Z</time>
      </trkpt>
      <trkpt lat="43.41655" lon="6.05169">
        <ele>237.68882751465</ele>
        <time>2015-01-07T12:50:14Z</time>
      </trkpt>
      <trkpt lat="43.41661" lon="6.05168">
        <ele>237.84962463379</ele>
        <time>2015-01-07T12:50:17Z</time>
      </trkpt>
      <trkpt lat="43.41663" lon="6.05167">
        <ele>237.90168762207</ele>
        <time>2015-01-07T12:50:18Z</time>
      </trkpt>
      <trkpt lat="43.41665" lon="6.05167">
        <ele>237.9560546875</ele>
        <time>2015-01-07T12:50:19Z</time>
      </trkpt>
      <trkpt lat="43.41669" lon="6.05164">
        <ele>238.1530456543</ele>
        <time>2015-01-07T12:50:21Z</time>
      </trkpt>
      <trkpt lat="43.41674" lon="6.05157">
        <ele>238.59790039062</ele>
        <time>2015-01-07T12:50:25Z</time>
      </trkpt>
      <trkpt lat="43.41677" lon="6.05152">
        <ele>238.81930541992</ele>
        <time>2015-01-07T12:50:27Z</time>
      </trkpt>
      <trkpt lat="43.4168" lon="6.05148">
        <ele>239.0691986084</ele>
        <time>2015-01-07T12:50:29Z</time>
      </trkpt>
      <trkpt lat="43.41687" lon="6.05141">
        <ele>239.62075805664</ele>
        <time>2015-01-07T12:50:33Z</time>
      </trkpt>
      <trkpt lat="43.41691" lon="6.05138">
        <ele>239.8967590332</ele>
        <time>2015-01-07T12:50:35Z</time>
      </trkpt>
      <trkpt lat="43.41695" lon="6.05134">
        <ele>240.2080078125</ele>
        <time>2015-01-07T12:50:37Z</time>
      </trkpt>
      <trkpt lat="43.41699" lon="6.0513">
        <ele>240.54159545898</ele>
        <time>2015-01-07T12:50:39Z</time>
      </trkpt>
      <trkpt lat="43.41703" lon="6.05126">
        <ele>240.87557983398</ele>
        <time>2015-01-07T12:50:41Z</time>
      </trkpt>
      <trkpt lat="43.41709" lon="6.05122">
        <ele>241.32354736328</ele>
        <time>2015-01-07T12:50:44Z</time>
      </trkpt>
      <trkpt lat="43.41711" lon="6.05121">
        <ele>241.47023010254</ele>
        <time>2015-01-07T12:50:45Z</time>
      </trkpt>
      <trkpt lat="43.41714" lon="6.05119">
        <ele>241.76631164551</ele>
        <time>2015-01-07T12:50:47Z</time>
      </trkpt>
      <trkpt lat="43.41718" lon="6.05117">
        <ele>242.06671142578</ele>
        <time>2015-01-07T12:50:49Z</time>
      </trkpt>
      <trkpt lat="43.41721" lon="6.05115">
        <ele>242.30679321289</ele>
        <time>2015-01-07T12:50:51Z</time>
      </trkpt>
      <trkpt lat="43.41725" lon="6.05113">
        <ele>242.57620239258</ele>
        <time>2015-01-07T12:50:53Z</time>
      </trkpt>
      <trkpt lat="43.41728" lon="6.05111">
        <ele>242.82646179199</ele>
        <time>2015-01-07T12:50:55Z</time>
      </trkpt>
      <trkpt lat="43.41729" lon="6.05111">
        <ele>242.93826293945</ele>
        <time>2015-01-07T12:50:56Z</time>
      </trkpt>
      <trkpt lat="43.41731" lon="6.05111">
        <ele>243.06298828125</ele>
        <time>2015-01-07T12:50:57Z</time>
      </trkpt>
      <trkpt lat="43.41735" lon="6.05114">
        <ele>243.23417663574</ele>
        <time>2015-01-07T12:50:59Z</time>
      </trkpt>
      <trkpt lat="43.41735" lon="6.05116">
        <ele>243.2335357666</ele>
        <time>2015-01-07T12:51:00Z</time>
      </trkpt>
      <trkpt lat="43.41736" lon="6.05119">
        <ele>243.19741821289</ele>
        <time>2015-01-07T12:51:01Z</time>
      </trkpt>
      <trkpt lat="43.41736" lon="6.05122">
        <ele>243.12725830078</ele>
        <time>2015-01-07T12:51:02Z</time>
      </trkpt>
      <trkpt lat="43.41736" lon="6.05126">
        <ele>243.05290222168</ele>
        <time>2015-01-07T12:51:03Z</time>
      </trkpt>
      <trkpt lat="43.41735" lon="6.05133">
        <ele>242.86167907715</ele>
        <time>2015-01-07T12:51:05Z</time>
      </trkpt>
      <trkpt lat="43.41735" lon="6.05141">
        <ele>242.65876770019</ele>
        <time>2015-01-07T12:51:07Z</time>
      </trkpt>
      <trkpt lat="43.41735" lon="6.05149">
        <ele>242.51593017578</ele>
        <time>2015-01-07T12:51:09Z</time>
      </trkpt>
      <trkpt lat="43.41735" lon="6.05157">
        <ele>242.33731079102</ele>
        <time>2015-01-07T12:51:11Z</time>
      </trkpt>
      <trkpt lat="43.41736" lon="6.05165">
        <ele>242.20776367188</ele>
        <time>2015-01-07T12:51:13Z</time>
      </trkpt>
      <trkpt lat="43.4174" lon="6.05175">
        <ele>242.32940673828</ele>
        <time>2015-01-07T12:51:16Z</time>
      </trkpt>
      <trkpt lat="43.41743" lon="6.05177">
        <ele>242.44270324707</ele>
        <time>2015-01-07T12:51:17Z</time>
      </trkpt>
      <trkpt lat="43.41748" lon="6.0518">
        <ele>242.69848632812</ele>
        <time>2015-01-07T12:51:19Z</time>
      </trkpt>
      <trkpt lat="43.41752" lon="6.05182">
        <ele>243.0842590332</ele>
        <time>2015-01-07T12:51:21Z</time>
      </trkpt>
      <trkpt lat="43.41758" lon="6.05183">
        <ele>243.71368408203</ele>
        <time>2015-01-07T12:51:23Z</time>
      </trkpt>
      <trkpt lat="43.41763" lon="6.05183">
        <ele>244.30477905273</ele>
        <time>2015-01-07T12:51:25Z</time>
      </trkpt>
      <trkpt lat="43.41767" lon="6.05184">
        <ele>244.84893798828</ele>
        <time>2015-01-07T12:51:27Z</time>
      </trkpt>
      <trkpt lat="43.41772" lon="6.05184">
        <ele>245.39538574219</ele>
        <time>2015-01-07T12:51:29Z</time>
      </trkpt>
      <trkpt lat="43.41779" lon="6.05185">
        <ele>246.30520629883</ele>
        <time>2015-01-07T12:51:33Z</time>
      </trkpt>
      <trkpt lat="43.41783" lon="6.05184">
        <ele>246.72004699707</ele>
        <time>2015-01-07T12:51:35Z</time>
      </trkpt>
      <trkpt lat="43.41787" lon="6.05185">
        <ele>247.21672058106</ele>
        <time>2015-01-07T12:51:37Z</time>
      </trkpt>
      <trkpt lat="43.41795" lon="6.05186">
        <ele>248.12365722656</ele>
        <time>2015-01-07T12:51:41Z</time>
      </trkpt>
      <trkpt lat="43.41799" lon="6.05186">
        <ele>248.67184448242</ele>
        <time>2015-01-07T12:51:43Z</time>
      </trkpt>
      <trkpt lat="43.41803" lon="6.05186">
        <ele>249.17594909668</ele>
        <time>2015-01-07T12:51:45Z</time>
      </trkpt>
      <trkpt lat="43.41808" lon="6.05186">
        <ele>249.67491149902</ele>
        <time>2015-01-07T12:51:47Z</time>
      </trkpt>
      <trkpt lat="43.41812" lon="6.05187">
        <ele>250.21563720703</ele>
        <time>2015-01-07T12:51:49Z</time>
      </trkpt>
      <trkpt lat="43.41817" lon="6.05187">
        <ele>250.76095581055</ele>
        <time>2015-01-07T12:51:51Z</time>
      </trkpt>
      <trkpt lat="43.41827" lon="6.05188">
        <ele>251.99005126953</ele>
        <time>2015-01-07T12:51:55Z</time>
      </trkpt>
      <trkpt lat="43.4183" lon="6.05188">
        <ele>252.35455322266</ele>
        <time>2015-01-07T12:51:56Z</time>
      </trkpt>
      <trkpt lat="43.41833" lon="6.05188">
        <ele>252.67727661133</ele>
        <time>2015-01-07T12:51:57Z</time>
      </trkpt>
      <trkpt lat="43.4184" lon="6.05188">
        <ele>253.25372314453</ele>
        <time>2015-01-07T12:51:59Z</time>
      </trkpt>
      <trkpt lat="43.41848" lon="6.05186">
        <ele>253.95401000977</ele>
        <time>2015-01-07T12:52:01Z</time>
      </trkpt>
      <trkpt lat="43.41851" lon="6.05186">
        <ele>254.21073913574</ele>
        <time>2015-01-07T12:52:02Z</time>
      </trkpt>
      <trkpt lat="43.41854" lon="6.05185">
        <ele>254.49617004394</ele>
        <time>2015-01-07T12:52:03Z</time>
      </trkpt>
      <trkpt lat="43.41861" lon="6.05184">
        <ele>255.07902526856</ele>
        <time>2015-01-07T12:52:05Z</time>
      </trkpt>
      <trkpt lat="43.41868" lon="6.05182">
        <ele>255.67626953125</ele>
        <time>2015-01-07T12:52:07Z</time>
      </trkpt>
      <trkpt lat="43.41871" lon="6.05181">
        <ele>255.94271850586</ele>
        <time>2015-01-07T12:52:08Z</time>
      </trkpt>
      <trkpt lat="43.41875" lon="6.0518">
        <ele>256.23706054688</ele>
        <time>2015-01-07T12:52:09Z</time>
      </trkpt>
      <trkpt lat="43.41877" lon="6.05178">
        <ele>256.48251342773</ele>
        <time>2015-01-07T12:52:10Z</time>
      </trkpt>
      <trkpt lat="43.4188" lon="6.05177">
        <ele>256.6940612793</ele>
        <time>2015-01-07T12:52:11Z</time>
      </trkpt>
      <trkpt lat="43.41884" lon="6.05175">
        <ele>257.12231445312</ele>
        <time>2015-01-07T12:52:13Z</time>
      </trkpt>
      <trkpt lat="43.41886" lon="6.05175">
        <ele>257.27661132812</ele>
        <time>2015-01-07T12:52:14Z</time>
      </trkpt>
      <trkpt lat="43.41888" lon="6.05175">
        <ele>257.46429443359</ele>
        <time>2015-01-07T12:52:15Z</time>
      </trkpt>
      <trkpt lat="43.41893" lon="6.05175">
        <ele>257.84536743164</ele>
        <time>2015-01-07T12:52:17Z</time>
      </trkpt>
      <trkpt lat="43.41902" lon="6.05175">
        <ele>258.60894775391</ele>
        <time>2015-01-07T12:52:21Z</time>
      </trkpt>
      <trkpt lat="43.41904" lon="6.05173">
        <ele>258.82513427734</ele>
        <time>2015-01-07T12:52:22Z</time>
      </trkpt>
      <trkpt lat="43.41907" lon="6.05173">
        <ele>259.02163696289</ele>
        <time>2015-01-07T12:52:23Z</time>
      </trkpt>
      <trkpt lat="43.41912" lon="6.05176">
        <ele>259.3603515625</ele>
        <time>2015-01-07T12:52:25Z</time>
      </trkpt>
      <trkpt lat="43.41911" lon="6.05176">
        <ele>259.32553100586</ele>
        <time>2015-01-07T12:52:26Z</time>
      </trkpt>
      <trkpt lat="43.41913" lon="6.05179">
        <ele>259.41696166992</ele>
        <time>2015-01-07T12:52:27Z</time>
      </trkpt>
      <trkpt lat="43.4192" lon="6.05178">
        <ele>259.73519897461</ele>
        <time>2015-01-07T12:52:29Z</time>
      </trkpt>
      <trkpt lat="43.41924" lon="6.05172">
        <ele>259.8740234375</ele>
        <time>2015-01-07T12:52:31Z</time>
      </trkpt>
      <trkpt lat="43.41929" lon="6.05165">
        <ele>260.0578918457</ele>
        <time>2015-01-07T12:52:33Z</time>
      </trkpt>
      <trkpt lat="43.41932" lon="6.05161">
        <ele>260.19076538086</ele>
        <time>2015-01-07T12:52:34Z</time>
      </trkpt>
      <trkpt lat="43.41935" lon="6.05157">
        <ele>260.31887817383</ele>
        <time>2015-01-07T12:52:35Z</time>
      </trkpt>
      <trkpt lat="43.4194" lon="6.05153">
        <ele>260.52758789062</ele>
        <time>2015-01-07T12:52:37Z</time>
      </trkpt>
      <trkpt lat="43.41942" lon="6.0515">
        <ele>260.64770507812</ele>
        <time>2015-01-07T12:52:38Z</time>
      </trkpt>
      <trkpt lat="43.41945" lon="6.05148">
        <ele>260.75021362305</ele>
        <time>2015-01-07T12:52:39Z</time>
      </trkpt>
      <trkpt lat="43.41952" lon="6.05145">
        <ele>260.9826965332</ele>
        <time>2015-01-07T12:52:41Z</time>
      </trkpt>
      <trkpt lat="43.41961" lon="6.05141">
        <ele>261.25018310547</ele>
        <time>2015-01-07T12:52:43Z</time>
      </trkpt>
      <trkpt lat="43.41967" lon="6.05139">
        <ele>261.48306274414</ele>
        <time>2015-01-07T12:52:45Z</time>
      </trkpt>
      <trkpt lat="43.41973" lon="6.05137">
        <ele>261.68496704102</ele>
        <time>2015-01-07T12:52:47Z</time>
      </trkpt>
      <trkpt lat="43.4198" lon="6.05136">
        <ele>261.84396362305</ele>
        <time>2015-01-07T12:52:49Z</time>
      </trkpt>
      <trkpt lat="43.41985" lon="6.05135">
        <ele>261.98120117188</ele>
        <time>2015-01-07T12:52:51Z</time>
      </trkpt>
      <trkpt lat="43.41992" lon="6.05134">
        <ele>262.17144775391</ele>
        <time>2015-01-07T12:52:53Z</time>
      </trkpt>
      <trkpt lat="43.41999" lon="6.05133">
        <ele>262.43157958984</ele>
        <time>2015-01-07T12:52:55Z</time>
      </trkpt>
      <trkpt lat="43.42005" lon="6.0513">
        <ele>262.71176147461</ele>
        <time>2015-01-07T12:52:57Z</time>
      </trkpt>
      <trkpt lat="43.42011" lon="6.05129">
        <ele>262.93637084961</ele>
        <time>2015-01-07T12:52:59Z</time>
      </trkpt>
      <trkpt lat="43.42014" lon="6.05128">
        <ele>263.02822875977</ele>
        <time>2015-01-07T12:53:00Z</time>
      </trkpt>
      <trkpt lat="43.42017" lon="6.05128">
        <ele>263.11019897461</ele>
        <time>2015-01-07T12:53:01Z</time>
      </trkpt>
      <trkpt lat="43.42023" lon="6.05126">
        <ele>263.35427856445</ele>
        <time>2015-01-07T12:53:03Z</time>
      </trkpt>
      <trkpt lat="43.4203" lon="6.05124">
        <ele>263.64450073242</ele>
        <time>2015-01-07T12:53:05Z</time>
      </trkpt>
      <trkpt lat="43.42038" lon="6.05121">
        <ele>263.97930908203</ele>
        <time>2015-01-07T12:53:07Z</time>
      </trkpt>
      <trkpt lat="43.42044" lon="6.0512">
        <ele>264.21551513672</ele>
        <time>2015-01-07T12:53:09Z</time>
      </trkpt>
      <trkpt lat="43.4205" lon="6.05119">
        <ele>264.39810180664</ele>
        <time>2015-01-07T12:53:11Z</time>
      </trkpt>
      <trkpt lat="43.42053" lon="6.05118">
        <ele>264.51275634766</ele>
        <time>2015-01-07T12:53:12Z</time>
      </trkpt>
      <trkpt lat="43.42056" lon="6.05118">
        <ele>264.60894775391</ele>
        <time>2015-01-07T12:53:13Z</time>
      </trkpt>
      <trkpt lat="43.42062" lon="6.05117">
        <ele>264.79525756836</ele>
        <time>2015-01-07T12:53:15Z</time>
      </trkpt>
      <trkpt lat="43.42068" lon="6.05115">
        <ele>265.01391601562</ele>
        <time>2015-01-07T12:53:17Z</time>
      </trkpt>
      <trkpt lat="43.42074" lon="6.05115">
        <ele>265.14801025391</ele>
        <time>2015-01-07T12:53:19Z</time>
      </trkpt>
      <trkpt lat="43.4208" lon="6.05116">
        <ele>265.17150878906</ele>
        <time>2015-01-07T12:53:21Z</time>
      </trkpt>
      <trkpt lat="43.42086" lon="6.05117">
        <ele>265.44677734375</ele>
        <time>2015-01-07T12:53:23Z</time>
      </trkpt>
      <trkpt lat="43.42092" lon="6.05118">
        <ele>266.12313842773</ele>
        <time>2015-01-07T12:53:25Z</time>
      </trkpt>
      <trkpt lat="43.42098" lon="6.05118">
        <ele>266.83551025391</ele>
        <time>2015-01-07T12:53:27Z</time>
      </trkpt>
      <trkpt lat="43.42104" lon="6.05118">
        <ele>267.52215576172</ele>
        <time>2015-01-07T12:53:29Z</time>
      </trkpt>
      <trkpt lat="43.42109" lon="6.05118">
        <ele>268.21282958984</ele>
        <time>2015-01-07T12:53:31Z</time>
      </trkpt>
      <trkpt lat="43.42115" lon="6.05118">
        <ele>268.84567260742</ele>
        <time>2015-01-07T12:53:33Z</time>
      </trkpt>
      <trkpt lat="43.42119" lon="6.05119">
        <ele>269.26510620117</ele>
        <time>2015-01-07T12:53:35Z</time>
      </trkpt>
      <trkpt lat="43.42123" lon="6.05121">
        <ele>269.61642456055</ele>
        <time>2015-01-07T12:53:37Z</time>
      </trkpt>
      <trkpt lat="43.42127" lon="6.05123">
        <ele>269.9677734375</ele>
        <time>2015-01-07T12:53:39Z</time>
      </trkpt>
      <trkpt lat="43.42131" lon="6.05125">
        <ele>270.20751953125</ele>
        <time>2015-01-07T12:53:41Z</time>
      </trkpt>
      <trkpt lat="43.42133" lon="6.05125">
        <ele>270.39636230469</ele>
        <time>2015-01-07T12:53:42Z</time>
      </trkpt>
      <trkpt lat="43.42134" lon="6.05125">
        <ele>270.5817565918</ele>
        <time>2015-01-07T12:53:43Z</time>
      </trkpt>
      <trkpt lat="43.42134" lon="6.05124">
        <ele>270.68759155273</ele>
        <time>2015-01-07T12:53:45Z</time>
      </trkpt>
      <trkpt lat="43.42134" lon="6.05124">
        <ele>270.74938964844</ele>
        <time>2015-01-07T12:53:46Z</time>
      </trkpt>
      <trkpt lat="43.42134" lon="6.05124">
        <ele>270.73739624023</ele>
        <time>2015-01-07T12:53:47Z</time>
      </trkpt>
      <trkpt lat="43.42134" lon="6.05124">
        <ele>270.72137451172</ele>
        <time>2015-01-07T12:53:49Z</time>
      </trkpt>
      <trkpt lat="43.42134" lon="6.05124">
        <ele>270.67559814453</ele>
        <time>2015-01-07T12:53:53Z</time>
      </trkpt>
      <trkpt lat="43.42134" lon="6.05124">
        <ele>270.67156982422</ele>
        <time>2015-01-07T12:53:55Z</time>
      </trkpt>
      <trkpt lat="43.42134" lon="6.05124">
        <ele>270.65957641602</ele>
        <time>2015-01-07T12:53:58Z</time>
      </trkpt>
      <trkpt lat="43.42134" lon="6.05124">
        <ele>270.6555480957</ele>
        <time>2015-01-07T12:53:59Z</time>
      </trkpt>
      <trkpt lat="43.42134" lon="6.05124">
        <ele>270.66357421875</ele>
        <time>2015-01-07T12:54:01Z</time>
      </trkpt>
      <trkpt lat="43.42134" lon="6.05124">
        <ele>270.66757202148</ele>
        <time>2015-01-07T12:54:03Z</time>
      </trkpt>
      <trkpt lat="43.42134" lon="6.05124">
        <ele>270.75341796875</ele>
        <time>2015-01-07T12:54:06Z</time>
      </trkpt>
      <trkpt lat="43.42134" lon="6.05124">
        <ele>270.74139404297</ele>
        <time>2015-01-07T12:54:09Z</time>
      </trkpt>
      <trkpt lat="43.42134" lon="6.05124">
        <ele>270.71734619141</ele>
        <time>2015-01-07T12:54:11Z</time>
      </trkpt>
      <trkpt lat="43.42134" lon="6.05124">
        <ele>270.7053527832</ele>
        <time>2015-01-07T12:54:13Z</time>
      </trkpt>
      <trkpt lat="43.42134" lon="6.05125">
        <ele>270.66928100586</ele>
        <time>2015-01-07T12:54:15Z</time>
      </trkpt>
      <trkpt lat="43.42134" lon="6.05125">
        <ele>270.64126586914</ele>
        <time>2015-01-07T12:54:17Z</time>
      </trkpt>
      <trkpt lat="43.42134" lon="6.05125">
        <ele>270.64926147461</ele>
        <time>2015-01-07T12:54:19Z</time>
      </trkpt>
      <trkpt lat="43.42134" lon="6.05124">
        <ele>270.63952636719</ele>
        <time>2015-01-07T12:54:25Z</time>
      </trkpt>
      <trkpt lat="43.42134" lon="6.05124">
        <ele>270.68530273438</ele>
        <time>2015-01-07T12:54:27Z</time>
      </trkpt>
      <trkpt lat="43.42134" lon="6.05125">
        <ele>270.62350463867</ele>
        <time>2015-01-07T12:54:29Z</time>
      </trkpt>
      <trkpt lat="43.42134" lon="6.05125">
        <ele>270.66128540039</ele>
        <time>2015-01-07T12:54:31Z</time>
      </trkpt>
      <trkpt lat="43.42134" lon="6.05125">
        <ele>270.65325927734</ele>
        <time>2015-01-07T12:54:32Z</time>
      </trkpt>
      <trkpt lat="43.42134" lon="6.05125">
        <ele>270.65325927734</ele>
        <time>2015-01-07T12:54:33Z</time>
      </trkpt>
      <trkpt lat="43.42134" lon="6.05125">
        <ele>270.64126586914</ele>
        <time>2015-01-07T12:54:35Z</time>
      </trkpt>
      <trkpt lat="43.42134" lon="6.05125">
        <ele>270.63723754883</ele>
        <time>2015-01-07T12:54:47Z</time>
      </trkpt>
      <trkpt lat="43.42134" lon="6.05125">
        <ele>270.64526367188</ele>
        <time>2015-01-07T12:54:53Z</time>
      </trkpt>
      <trkpt lat="43.42134" lon="6.05125">
        <ele>270.64526367188</ele>
        <time>2015-01-07T12:54:57Z</time>
      </trkpt>
      <trkpt lat="43.42134" lon="6.05125">
        <ele>270.65325927734</ele>
        <time>2015-01-07T12:55:05Z</time>
      </trkpt>
      <trkpt lat="43.42134" lon="6.05125">
        <ele>270.65325927734</ele>
        <time>2015-01-07T12:55:25Z</time>
      </trkpt>
      <trkpt lat="43.42134" lon="6.05125">
        <ele>270.65325927734</ele>
        <time>2015-01-07T12:55:29Z</time>
      </trkpt>
      <trkpt lat="43.42133" lon="6.05125">
        <ele>270.44213867188</ele>
        <time>2015-01-07T12:55:31Z</time>
      </trkpt>
      <trkpt lat="43.42133" lon="6.05126">
        <ele>270.32824707031</ele>
        <time>2015-01-07T12:55:32Z</time>
      </trkpt>
      <trkpt lat="43.42132" lon="6.05128">
        <ele>270.09423828125</ele>
        <time>2015-01-07T12:55:33Z</time>
      </trkpt>
      <trkpt lat="43.42134" lon="6.05133">
        <ele>269.85275268555</ele>
        <time>2015-01-07T12:55:35Z</time>
      </trkpt>
      <trkpt lat="43.42134" lon="6.05135">
        <ele>269.75604248047</ele>
        <time>2015-01-07T12:55:36Z</time>
      </trkpt>
      <trkpt lat="43.42137" lon="6.05139">
        <ele>269.7262878418</ele>
        <time>2015-01-07T12:55:38Z</time>
      </trkpt>
      <trkpt lat="43.42138" lon="6.05141">
        <ele>269.71942138672</ele>
        <time>2015-01-07T12:55:39Z</time>
      </trkpt>
      <trkpt lat="43.42141" lon="6.05145">
        <ele>269.7314453125</ele>
        <time>2015-01-07T12:55:41Z</time>
      </trkpt>
      <trkpt lat="43.42144" lon="6.05149">
        <ele>269.77493286133</ele>
        <time>2015-01-07T12:55:43Z</time>
      </trkpt>
      <trkpt lat="43.42147" lon="6.05154">
        <ele>269.78637695312</ele>
        <time>2015-01-07T12:55:45Z</time>
      </trkpt>
      <trkpt lat="43.42151" lon="6.05158">
        <ele>269.81784057617</ele>
        <time>2015-01-07T12:55:47Z</time>
      </trkpt>
      <trkpt lat="43.42155" lon="6.05162">
        <ele>270.02899169922</ele>
        <time>2015-01-07T12:55:49Z</time>
      </trkpt>
      <trkpt lat="43.42159" lon="6.05165">
        <ele>270.2721862793</ele>
        <time>2015-01-07T12:55:51Z</time>
      </trkpt>
      <trkpt lat="43.42164" lon="6.05168">
        <ele>270.72451782227</ele>
        <time>2015-01-07T12:55:53Z</time>
      </trkpt>
      <trkpt lat="43.4217" lon="6.05171">
        <ele>271.56118774414</ele>
        <time>2015-01-07T12:55:55Z</time>
      </trkpt>
      <trkpt lat="43.42175" lon="6.05174">
        <ele>272.35229492188</ele>
        <time>2015-01-07T12:55:57Z</time>
      </trkpt>
      <trkpt lat="43.42179" lon="6.05176">
        <ele>272.81298828125</ele>
        <time>2015-01-07T12:55:58Z</time>
      </trkpt>
      <trkpt lat="43.42188" lon="6.05182">
        <ele>274.01007080078</ele>
        <time>2015-01-07T12:56:01Z</time>
      </trkpt>
      <trkpt lat="43.42193" lon="6.05186">
        <ele>274.74044799805</ele>
        <time>2015-01-07T12:56:03Z</time>
      </trkpt>
      <trkpt lat="43.42196" lon="6.05187">
        <ele>275.10650634766</ele>
        <time>2015-01-07T12:56:04Z</time>
      </trkpt>
      <trkpt lat="43.42199" lon="6.05189">
        <ele>275.46447753906</ele>
        <time>2015-01-07T12:56:05Z</time>
      </trkpt>
      <trkpt lat="43.42205" lon="6.05191">
        <ele>276.06890869141</ele>
        <time>2015-01-07T12:56:07Z</time>
      </trkpt>
      <trkpt lat="43.42211" lon="6.05194">
        <ele>276.73016357422</ele>
        <time>2015-01-07T12:56:09Z</time>
      </trkpt>
      <trkpt lat="43.42219" lon="6.05198">
        <ele>277.6220703125</ele>
        <time>2015-01-07T12:56:12Z</time>
      </trkpt>
      <trkpt lat="43.42221" lon="6.05201">
        <ele>277.86584472656</ele>
        <time>2015-01-07T12:56:13Z</time>
      </trkpt>
      <trkpt lat="43.42226" lon="6.05208">
        <ele>278.30435180664</ele>
        <time>2015-01-07T12:56:15Z</time>
      </trkpt>
      <trkpt lat="43.4223" lon="6.05213">
        <ele>278.69839477539</ele>
        <time>2015-01-07T12:56:17Z</time>
      </trkpt>
      <trkpt lat="43.42234" lon="6.05217">
        <ele>279.09078979492</ele>
        <time>2015-01-07T12:56:19Z</time>
      </trkpt>
      <trkpt lat="43.42241" lon="6.05218">
        <ele>279.59576416016</ele>
        <time>2015-01-07T12:56:21Z</time>
      </trkpt>
      <trkpt lat="43.42247" lon="6.05219">
        <ele>280.09503173828</ele>
        <time>2015-01-07T12:56:23Z</time>
      </trkpt>
      <trkpt lat="43.42249" lon="6.05219">
        <ele>280.31607055664</ele>
        <time>2015-01-07T12:56:24Z</time>
      </trkpt>
      <trkpt lat="43.42252" lon="6.05219">
        <ele>280.47613525391</ele>
        <time>2015-01-07T12:56:25Z</time>
      </trkpt>
      <trkpt lat="43.42257" lon="6.05218">
        <ele>280.73120117188</ele>
        <time>2015-01-07T12:56:27Z</time>
      </trkpt>
      <trkpt lat="43.42263" lon="6.05218">
        <ele>281.01507568359</ele>
        <time>2015-01-07T12:56:29Z</time>
      </trkpt>
      <trkpt lat="43.42269" lon="6.05219">
        <ele>281.30551147461</ele>
        <time>2015-01-07T12:56:31Z</time>
      </trkpt>
      <trkpt lat="43.42274" lon="6.05219">
        <ele>281.5325012207</ele>
        <time>2015-01-07T12:56:33Z</time>
      </trkpt>
      <trkpt lat="43.42276" lon="6.05219">
        <ele>281.62686157227</ele>
        <time>2015-01-07T12:56:34Z</time>
      </trkpt>
      <trkpt lat="43.42279" lon="6.0522">
        <ele>281.73159790039</ele>
        <time>2015-01-07T12:56:35Z</time>
      </trkpt>
      <trkpt lat="43.42284" lon="6.05221">
        <ele>281.86889648438</ele>
        <time>2015-01-07T12:56:37Z</time>
      </trkpt>
      <trkpt lat="43.42289" lon="6.05223">
        <ele>281.98104858398</ele>
        <time>2015-01-07T12:56:39Z</time>
      </trkpt>
      <trkpt lat="43.42294" lon="6.05225">
        <ele>282.09075927734</ele>
        <time>2015-01-07T12:56:41Z</time>
      </trkpt>
      <trkpt lat="43.42299" lon="6.05226">
        <ele>282.1360168457</ele>
        <time>2015-01-07T12:56:43Z</time>
      </trkpt>
      <trkpt lat="43.42308" lon="6.05229">
        <ele>282.21081542969</ele>
        <time>2015-01-07T12:56:47Z</time>
      </trkpt>
      <trkpt lat="43.42315" lon="6.0523">
        <ele>282.34045410156</ele>
        <time>2015-01-07T12:56:50Z</time>
      </trkpt>
      <trkpt lat="43.42318" lon="6.0523">
        <ele>282.37557983398</ele>
        <time>2015-01-07T12:56:51Z</time>
      </trkpt>
      <trkpt lat="43.42326" lon="6.05232">
        <ele>282.35687255859</ele>
        <time>2015-01-07T12:56:55Z</time>
      </trkpt>
      <trkpt lat="43.42333" lon="6.05234">
        <ele>282.25009155273</ele>
        <time>2015-01-07T12:56:58Z</time>
      </trkpt>
      <trkpt lat="43.42335" lon="6.05235">
        <ele>282.23037719727</ele>
        <time>2015-01-07T12:56:59Z</time>
      </trkpt>
      <trkpt lat="43.42337" lon="6.05236">
        <ele>282.22286987305</ele>
        <time>2015-01-07T12:57:00Z</time>
      </trkpt>
      <trkpt lat="43.42343" lon="6.05237">
        <ele>282.32376098633</ele>
        <time>2015-01-07T12:57:03Z</time>
      </trkpt>
      <trkpt lat="43.42347" lon="6.05236">
        <ele>282.58911132812</ele>
        <time>2015-01-07T12:57:05Z</time>
      </trkpt>
      <trkpt lat="43.42351" lon="6.05235">
        <ele>282.95639038086</ele>
        <time>2015-01-07T12:57:07Z</time>
      </trkpt>
      <trkpt lat="43.42359" lon="6.05233">
        <ele>283.58529663086</ele>
        <time>2015-01-07T12:57:11Z</time>
      </trkpt>
      <trkpt lat="43.42363" lon="6.05232">
        <ele>284.05575561523</ele>
        <time>2015-01-07T12:57:13Z</time>
      </trkpt>
      <trkpt lat="43.42367" lon="6.05231">
        <ele>284.45324707031</ele>
        <time>2015-01-07T12:57:15Z</time>
      </trkpt>
      <trkpt lat="43.42371" lon="6.05231">
        <ele>284.61270141602</ele>
        <time>2015-01-07T12:57:17Z</time>
      </trkpt>
      <trkpt lat="43.42373" lon="6.05231">
        <ele>284.7529296875</ele>
        <time>2015-01-07T12:57:18Z</time>
      </trkpt>
      <trkpt lat="43.42375" lon="6.0523">
        <ele>284.87512207031</ele>
        <time>2015-01-07T12:57:19Z</time>
      </trkpt>
      <trkpt lat="43.42379" lon="6.0523">
        <ele>285.10140991211</ele>
        <time>2015-01-07T12:57:21Z</time>
      </trkpt>
      <trkpt lat="43.42384" lon="6.0523">
        <ele>285.43762207031</ele>
        <time>2015-01-07T12:57:23Z</time>
      </trkpt>
      <trkpt lat="43.42394" lon="6.05228">
        <ele>286.40023803711</ele>
        <time>2015-01-07T12:57:27Z</time>
      </trkpt>
      <trkpt lat="43.42399" lon="6.05227">
        <ele>286.8694152832</ele>
        <time>2015-01-07T12:57:29Z</time>
      </trkpt>
      <trkpt lat="43.42405" lon="6.05226">
        <ele>287.28109741211</ele>
        <time>2015-01-07T12:57:31Z</time>
      </trkpt>
      <trkpt lat="43.42409" lon="6.05226">
        <ele>287.64636230469</ele>
        <time>2015-01-07T12:57:33Z</time>
      </trkpt>
      <trkpt lat="43.42411" lon="6.05226">
        <ele>287.77264404297</ele>
        <time>2015-01-07T12:57:34Z</time>
      </trkpt>
      <trkpt lat="43.42413" lon="6.05226">
        <ele>287.84243774414</ele>
        <time>2015-01-07T12:57:35Z</time>
      </trkpt>
      <trkpt lat="43.42418" lon="6.05226">
        <ele>288.10366821289</ele>
        <time>2015-01-07T12:57:37Z</time>
      </trkpt>
      <trkpt lat="43.42423" lon="6.05227">
        <ele>288.6438293457</ele>
        <time>2015-01-07T12:57:39Z</time>
      </trkpt>
      <trkpt lat="43.42426" lon="6.05227">
        <ele>289.00451660156</ele>
        <time>2015-01-07T12:57:40Z</time>
      </trkpt>
      <trkpt lat="43.42428" lon="6.05227">
        <ele>289.35034179688</ele>
        <time>2015-01-07T12:57:41Z</time>
      </trkpt>
      <trkpt lat="43.42433" lon="6.05226">
        <ele>290.11340332031</ele>
        <time>2015-01-07T12:57:43Z</time>
      </trkpt>
      <trkpt lat="43.42437" lon="6.05225">
        <ele>290.88137817383</ele>
        <time>2015-01-07T12:57:45Z</time>
      </trkpt>
      <trkpt lat="43.42446" lon="6.05223">
        <ele>292.67056274414</ele>
        <time>2015-01-07T12:57:49Z</time>
      </trkpt>
      <trkpt lat="43.42451" lon="6.05221">
        <ele>293.70510864258</ele>
        <time>2015-01-07T12:57:51Z</time>
      </trkpt>
      <trkpt lat="43.42455" lon="6.05219">
        <ele>294.74984741211</ele>
        <time>2015-01-07T12:57:53Z</time>
      </trkpt>
      <trkpt lat="43.42456" lon="6.05218">
        <ele>295.09481811523</ele>
        <time>2015-01-07T12:57:54Z</time>
      </trkpt>
      <trkpt lat="43.42458" lon="6.05218">
        <ele>295.38851928711</ele>
        <time>2015-01-07T12:57:55Z</time>
      </trkpt>
      <trkpt lat="43.42461" lon="6.05217">
        <ele>295.79876708984</ele>
        <time>2015-01-07T12:57:57Z</time>
      </trkpt>
      <trkpt lat="43.42466" lon="6.05218">
        <ele>296.24359130859</ele>
        <time>2015-01-07T12:58:00Z</time>
      </trkpt>
      <trkpt lat="43.42467" lon="6.05218">
        <ele>296.3606262207</ele>
        <time>2015-01-07T12:58:01Z</time>
      </trkpt>
      <trkpt lat="43.42473" lon="6.05219">
        <ele>296.912109375</ele>
        <time>2015-01-07T12:58:05Z</time>
      </trkpt>
      <trkpt lat="43.42476" lon="6.05219">
        <ele>297.25164794922</ele>
        <time>2015-01-07T12:58:07Z</time>
      </trkpt>
      <trkpt lat="43.4248" lon="6.0522">
        <ele>297.53118896484</ele>
        <time>2015-01-07T12:58:09Z</time>
      </trkpt>
      <trkpt lat="43.42483" lon="6.05221">
        <ele>297.84411621094</ele>
        <time>2015-01-07T12:58:11Z</time>
      </trkpt>
      <trkpt lat="43.42487" lon="6.05222">
        <ele>297.9557800293</ele>
        <time>2015-01-07T12:58:13Z</time>
      </trkpt>
      <trkpt lat="43.42491" lon="6.05225">
        <ele>297.82565307617</ele>
        <time>2015-01-07T12:58:15Z</time>
      </trkpt>
      <trkpt lat="43.42495" lon="6.05228">
        <ele>297.92712402344</ele>
        <time>2015-01-07T12:58:17Z</time>
      </trkpt>
      <trkpt lat="43.42499" lon="6.05228">
        <ele>298.26040649414</ele>
        <time>2015-01-07T12:58:19Z</time>
      </trkpt>
      <trkpt lat="43.42503" lon="6.05229">
        <ele>298.42965698242</ele>
        <time>2015-01-07T12:58:21Z</time>
      </trkpt>
      <trkpt lat="43.42508" lon="6.05229">
        <ele>298.49975585938</ele>
        <time>2015-01-07T12:58:23Z</time>
      </trkpt>
      <trkpt lat="43.42512" lon="6.05229">
        <ele>298.57302856445</ele>
        <time>2015-01-07T12:58:25Z</time>
      </trkpt>
      <trkpt lat="43.42519" lon="6.05229">
        <ele>298.82443237305</ele>
        <time>2015-01-07T12:58:29Z</time>
      </trkpt>
      <trkpt lat="43.42521" lon="6.05229">
        <ele>298.90472412109</ele>
        <time>2015-01-07T12:58:30Z</time>
      </trkpt>
      <trkpt lat="43.42522" lon="6.05229">
        <ele>298.95755004883</ele>
        <time>2015-01-07T12:58:31Z</time>
      </trkpt>
      <trkpt lat="43.42526" lon="6.05229">
        <ele>299.11694335938</ele>
        <time>2015-01-07T12:58:33Z</time>
      </trkpt>
      <trkpt lat="43.42532" lon="6.05228">
        <ele>299.34191894531</ele>
        <time>2015-01-07T12:58:35Z</time>
      </trkpt>
      <trkpt lat="43.42538" lon="6.05226">
        <ele>299.76263427734</ele>
        <time>2015-01-07T12:58:37Z</time>
      </trkpt>
      <trkpt lat="43.42542" lon="6.05224">
        <ele>300.09133911133</ele>
        <time>2015-01-07T12:58:39Z</time>
      </trkpt>
      <trkpt lat="43.42543" lon="6.05223">
        <ele>300.21649169922</ele>
        <time>2015-01-07T12:58:40Z</time>
      </trkpt>
      <trkpt lat="43.42545" lon="6.05223">
        <ele>300.34307861328</ele>
        <time>2015-01-07T12:58:41Z</time>
      </trkpt>
      <trkpt lat="43.42549" lon="6.05222">
        <ele>300.47750854492</ele>
        <time>2015-01-07T12:58:43Z</time>
      </trkpt>
      <trkpt lat="43.42552" lon="6.05222">
        <ele>300.50604248047</ele>
        <time>2015-01-07T12:58:45Z</time>
      </trkpt>
      <trkpt lat="43.42556" lon="6.05222">
        <ele>300.55804443359</ele>
        <time>2015-01-07T12:58:47Z</time>
      </trkpt>
      <trkpt lat="43.42561" lon="6.05223">
        <ele>300.56539916992</ele>
        <time>2015-01-07T12:58:49Z</time>
      </trkpt>
      <trkpt lat="43.42564" lon="6.05224">
        <ele>300.55169677734</ele>
        <time>2015-01-07T12:58:51Z</time>
      </trkpt>
      <trkpt lat="43.42566" lon="6.05225">
        <ele>300.51928710938</ele>
        <time>2015-01-07T12:58:52Z</time>
      </trkpt>
      <trkpt lat="43.42567" lon="6.05226">
        <ele>300.46331787109</ele>
        <time>2015-01-07T12:58:53Z</time>
      </trkpt>
      <trkpt lat="43.42571" lon="6.05229">
        <ele>300.38381958008</ele>
        <time>2015-01-07T12:58:55Z</time>
      </trkpt>
      <trkpt lat="43.42575" lon="6.05232">
        <ele>300.36807250977</ele>
        <time>2015-01-07T12:58:57Z</time>
      </trkpt>
      <trkpt lat="43.42578" lon="6.05233">
        <ele>300.39877319336</ele>
        <time>2015-01-07T12:58:59Z</time>
      </trkpt>
      <trkpt lat="43.4258" lon="6.05233">
        <ele>300.46908569336</ele>
        <time>2015-01-07T12:59:01Z</time>
      </trkpt>
      <trkpt lat="43.42581" lon="6.05234">
        <ele>300.47860717773</ele>
        <time>2015-01-07T12:59:02Z</time>
      </trkpt>
      <trkpt lat="43.42582" lon="6.05235">
        <ele>300.46496582031</ele>
        <time>2015-01-07T12:59:03Z</time>
      </trkpt>
      <trkpt lat="43.42584" lon="6.05237">
        <ele>300.45074462891</ele>
        <time>2015-01-07T12:59:05Z</time>
      </trkpt>
      <trkpt lat="43.42587" lon="6.0524">
        <ele>300.34375</ele>
        <time>2015-01-07T12:59:07Z</time>
      </trkpt>
      <trkpt lat="43.4259" lon="6.05242">
        <ele>300.27877807617</ele>
        <time>2015-01-07T12:59:09Z</time>
      </trkpt>
      <trkpt lat="43.42593" lon="6.05244">
        <ele>300.18923950195</ele>
        <time>2015-01-07T12:59:11Z</time>
      </trkpt>
      <trkpt lat="43.42594" lon="6.05245">
        <ele>300.1481628418</ele>
        <time>2015-01-07T12:59:12Z</time>
      </trkpt>
      <trkpt lat="43.42599" lon="6.05249">
        <ele>300.02178955078</ele>
        <time>2015-01-07T12:59:15Z</time>
      </trkpt>
      <trkpt lat="43.42603" lon="6.05253">
        <ele>300</ele>
        <time>2015-01-07T12:59:17Z</time>
      </trkpt>
      <trkpt lat="43.42604" lon="6.05254">
        <ele>300</ele>
        <time>2015-01-07T12:59:18Z</time>
      </trkpt>
      <trkpt lat="43.42606" lon="6.05256">
        <ele>300</ele>
        <time>2015-01-07T12:59:19Z</time>
      </trkpt>
      <trkpt lat="43.42612" lon="6.05261">
        <ele>300</ele>
        <time>2015-01-07T12:59:21Z</time>
      </trkpt>
      <trkpt lat="43.42616" lon="6.05264">
        <ele>300</ele>
        <time>2015-01-07T12:59:23Z</time>
      </trkpt>
      <trkpt lat="43.42619" lon="6.05265">
        <ele>300</ele>
        <time>2015-01-07T12:59:25Z</time>
      </trkpt>
      <trkpt lat="43.42623" lon="6.05266">
        <ele>300</ele>
        <time>2015-01-07T12:59:27Z</time>
      </trkpt>
      <trkpt lat="43.42626" lon="6.05268">
        <ele>300</ele>
        <time>2015-01-07T12:59:29Z</time>
      </trkpt>
      <trkpt lat="43.4263" lon="6.05269">
        <ele>300</ele>
        <time>2015-01-07T12:59:31Z</time>
      </trkpt>
      <trkpt lat="43.42632" lon="6.05271">
        <ele>300</ele>
        <time>2015-01-07T12:59:33Z</time>
      </trkpt>
      <trkpt lat="43.42633" lon="6.05271">
        <ele>300</ele>
        <time>2015-01-07T12:59:34Z</time>
      </trkpt>
      <trkpt lat="43.42634" lon="6.05271">
        <ele>300</ele>
        <time>2015-01-07T12:59:35Z</time>
      </trkpt>
      <trkpt lat="43.42634" lon="6.05272">
        <ele>300</ele>
        <time>2015-01-07T12:59:37Z</time>
      </trkpt>
      <trkpt lat="43.42635" lon="6.05272">
        <ele>300</ele>
        <time>2015-01-07T12:59:39Z</time>
      </trkpt>
      <trkpt lat="43.42635" lon="6.05272">
        <ele>300</ele>
        <time>2015-01-07T12:59:41Z</time>
      </trkpt>
      <trkpt lat="43.42635" lon="6.05272">
        <ele>300</ele>
        <time>2015-01-07T12:59:43Z</time>
      </trkpt>
      <trkpt lat="43.42635" lon="6.05272">
        <ele>300</ele>
        <time>2015-01-07T12:59:45Z</time>
      </trkpt>
      <trkpt lat="43.42635" lon="6.05272">
        <ele>300</ele>
        <time>2015-01-07T12:59:47Z</time>
      </trkpt>
      <trkpt lat="43.42635" lon="6.05271">
        <ele>300</ele>
        <time>2015-01-07T12:59:49Z</time>
      </trkpt>
      <trkpt lat="43.42635" lon="6.05271">
        <ele>300</ele>
        <time>2015-01-07T13:00:03Z</time>
      </trkpt>
      <trkpt lat="43.42635" lon="6.05271">
        <ele>300</ele>
        <time>2015-01-07T13:00:11Z</time>
      </trkpt>
      <trkpt lat="43.42635" lon="6.05271">
        <ele>300</ele>
        <time>2015-01-07T13:00:21Z</time>
      </trkpt>
      <trkpt lat="43.42635" lon="6.05271">
        <ele>300</ele>
        <time>2015-01-07T13:00:33Z</time>
      </trkpt>
      <trkpt lat="43.42635" lon="6.05271">
        <ele>300</ele>
        <time>2015-01-07T13:00:35Z</time>
      </trkpt>
      <trkpt lat="43.42635" lon="6.05271">
        <ele>300</ele>
        <time>2015-01-07T13:00:37Z</time>
      </trkpt>
      <trkpt lat="43.42635" lon="6.05271">
        <ele>300</ele>
        <time>2015-01-07T13:00:39Z</time>
      </trkpt>
      <trkpt lat="43.42635" lon="6.05271">
        <ele>300</ele>
        <time>2015-01-07T13:00:42Z</time>
      </trkpt>
      <trkpt lat="43.42635" lon="6.0527">
        <ele>300</ele>
        <time>2015-01-07T13:00:45Z</time>
      </trkpt>
      <trkpt lat="43.42636" lon="6.05269">
        <ele>300</ele>
        <time>2015-01-07T13:00:47Z</time>
      </trkpt>
      <trkpt lat="43.42638" lon="6.05267">
        <ele>300</ele>
        <time>2015-01-07T13:00:49Z</time>
      </trkpt>
      <trkpt lat="43.42642" lon="6.05265">
        <ele>300</ele>
        <time>2015-01-07T13:00:51Z</time>
      </trkpt>
      <trkpt lat="43.42645" lon="6.05263">
        <ele>300</ele>
        <time>2015-01-07T13:00:52Z</time>
      </trkpt>
      <trkpt lat="43.42646" lon="6.05261">
        <ele>300</ele>
        <time>2015-01-07T13:00:53Z</time>
      </trkpt>
      <trkpt lat="43.42649" lon="6.05258">
        <ele>300</ele>
        <time>2015-01-07T13:00:54Z</time>
      </trkpt>
      <trkpt lat="43.42652" lon="6.05256">
        <ele>300</ele>
        <time>2015-01-07T13:00:55Z</time>
      </trkpt>
      <trkpt lat="43.42657" lon="6.05251">
        <ele>300</ele>
        <time>2015-01-07T13:00:57Z</time>
      </trkpt>
      <trkpt lat="43.42665" lon="6.05245">
        <ele>300.06317138672</ele>
        <time>2015-01-07T13:01:00Z</time>
      </trkpt>
      <trkpt lat="43.42667" lon="6.05243">
        <ele>300.10415649414</ele>
        <time>2015-01-07T13:01:01Z</time>
      </trkpt>
      <trkpt lat="43.42672" lon="6.05239">
        <ele>300.28042602539</ele>
        <time>2015-01-07T13:01:03Z</time>
      </trkpt>
      <trkpt lat="43.42677" lon="6.05234">
        <ele>300.46820068359</ele>
        <time>2015-01-07T13:01:05Z</time>
      </trkpt>
      <trkpt lat="43.42679" lon="6.05232">
        <ele>300.5373840332</ele>
        <time>2015-01-07T13:01:06Z</time>
      </trkpt>
      <trkpt lat="43.42681" lon="6.05231">
        <ele>300.5817565918</ele>
        <time>2015-01-07T13:01:07Z</time>
      </trkpt>
      <trkpt lat="43.42684" lon="6.05229">
        <ele>300.67041015625</ele>
        <time>2015-01-07T13:01:09Z</time>
      </trkpt>
      <trkpt lat="43.42687" lon="6.05228">
        <ele>300.74359130859</ele>
        <time>2015-01-07T13:01:11Z</time>
      </trkpt>
      <trkpt lat="43.42689" lon="6.05228">
        <ele>300.77899169922</ele>
        <time>2015-01-07T13:01:12Z</time>
      </trkpt>
      <trkpt lat="43.4269" lon="6.05227">
        <ele>300.80484008789</ele>
        <time>2015-01-07T13:01:13Z</time>
      </trkpt>
      <trkpt lat="43.42691" lon="6.05227">
        <ele>300.82183837891</ele>
        <time>2015-01-07T13:01:15Z</time>
      </trkpt>
      <trkpt lat="43.42692" lon="6.05227">
        <ele>300.84716796875</ele>
        <time>2015-01-07T13:01:17Z</time>
      </trkpt>
      <trkpt lat="43.42692" lon="6.05227">
        <ele>300.85760498047</ele>
        <time>2015-01-07T13:01:19Z</time>
      </trkpt>
      <trkpt lat="43.42691" lon="6.05228">
        <ele>300.84072875977</ele>
        <time>2015-01-07T13:01:21Z</time>
      </trkpt>
      <trkpt lat="43.42691" lon="6.05228">
        <ele>300.84060668945</ele>
        <time>2015-01-07T13:01:23Z</time>
      </trkpt>
      <trkpt lat="43.42691" lon="6.05228">
        <ele>300.8408203125</ele>
        <time>2015-01-07T13:01:25Z</time>
      </trkpt>
      <trkpt lat="43.42691" lon="6.05228">
        <ele>300.8408203125</ele>
        <time>2015-01-07T13:01:27Z</time>
      </trkpt>
      <trkpt lat="43.42692" lon="6.05228">
        <ele>300.84967041016</ele>
        <time>2015-01-07T13:01:29Z</time>
      </trkpt>
      <trkpt lat="43.42692" lon="6.05228">
        <ele>300.84967041016</ele>
        <time>2015-01-07T13:01:35Z</time>
      </trkpt>
      <trkpt lat="43.42692" lon="6.05228">
        <ele>300.84954833984</ele>
        <time>2015-01-07T13:01:41Z</time>
      </trkpt>
      <trkpt lat="43.42692" lon="6.05227">
        <ele>300.84906005859</ele>
        <time>2015-01-07T13:01:45Z</time>
      </trkpt>
      <trkpt lat="43.42692" lon="6.05227">
        <ele>300.84881591797</ele>
        <time>2015-01-07T13:01:51Z</time>
      </trkpt>
      <trkpt lat="43.42692" lon="6.05227">
        <ele>300.84872436523</ele>
        <time>2015-01-07T13:01:54Z</time>
      </trkpt>
      <trkpt lat="43.42692" lon="6.05227">
        <ele>300.84860229492</ele>
        <time>2015-01-07T13:01:55Z</time>
      </trkpt>
      <trkpt lat="43.42692" lon="6.05227">
        <ele>300.84848022461</ele>
        <time>2015-01-07T13:01:57Z</time>
      </trkpt>
      <trkpt lat="43.42692" lon="6.05227">
        <ele>300.85772705078</ele>
        <time>2015-01-07T13:01:59Z</time>
      </trkpt>
      <trkpt lat="43.42692" lon="6.05228">
        <ele>300.85797119141</ele>
        <time>2015-01-07T13:02:03Z</time>
      </trkpt>
      <trkpt lat="43.42692" lon="6.05227">
        <ele>300.85733032227</ele>
        <time>2015-01-07T13:02:09Z</time>
      </trkpt>
      <trkpt lat="43.42692" lon="6.05227">
        <ele>300.85745239258</ele>
        <time>2015-01-07T13:02:12Z</time>
      </trkpt>
      <trkpt lat="43.42692" lon="6.05227">
        <ele>300.85745239258</ele>
        <time>2015-01-07T13:02:13Z</time>
      </trkpt>
      <trkpt lat="43.42693" lon="6.05227">
        <ele>300.8664855957</ele>
        <time>2015-01-07T13:02:15Z</time>
      </trkpt>
      <trkpt lat="43.42693" lon="6.05228">
        <ele>300.8671875</ele>
        <time>2015-01-07T13:02:17Z</time>
      </trkpt>
      <trkpt lat="43.42693" lon="6.05228">
        <ele>300.87707519531</ele>
        <time>2015-01-07T13:02:19Z</time>
      </trkpt>
      <trkpt lat="43.42693" lon="6.05228">
        <ele>300.87707519531</ele>
        <time>2015-01-07T13:02:21Z</time>
      </trkpt>
      <trkpt lat="43.42693" lon="6.05228">
        <ele>300.86703491211</ele>
        <time>2015-01-07T13:02:25Z</time>
      </trkpt>
      <trkpt lat="43.42693" lon="6.05228">
        <ele>300.86676025391</ele>
        <time>2015-01-07T13:02:29Z</time>
      </trkpt>
      <trkpt lat="43.42693" lon="6.05227">
        <ele>300.8664855957</ele>
        <time>2015-01-07T13:02:31Z</time>
      </trkpt>
      <trkpt lat="43.42693" lon="6.05227">
        <ele>300.8752746582</ele>
        <time>2015-01-07T13:02:33Z</time>
      </trkpt>
      <trkpt lat="43.42693" lon="6.05227">
        <ele>300.86636352539</ele>
        <time>2015-01-07T13:02:35Z</time>
      </trkpt>
      <trkpt lat="43.42693" lon="6.05227">
        <ele>300.86636352539</ele>
        <time>2015-01-07T13:02:37Z</time>
      </trkpt>
      <trkpt lat="43.42693" lon="6.05227">
        <ele>300.86663818359</ele>
        <time>2015-01-07T13:02:39Z</time>
      </trkpt>
      <trkpt lat="43.42693" lon="6.05227">
        <ele>300.86663818359</ele>
        <time>2015-01-07T13:02:43Z</time>
      </trkpt>
      <trkpt lat="43.42693" lon="6.05227">
        <ele>300.8662109375</ele>
        <time>2015-01-07T13:02:47Z</time>
      </trkpt>
      <trkpt lat="43.42693" lon="6.05227">
        <ele>300.86608886719</ele>
        <time>2015-01-07T13:02:49Z</time>
      </trkpt>
      <trkpt lat="43.42693" lon="6.05227">
        <ele>300.86608886719</ele>
        <time>2015-01-07T13:02:51Z</time>
      </trkpt>
      <trkpt lat="43.42693" lon="6.05227">
        <ele>300.8655090332</ele>
        <time>2015-01-07T13:02:57Z</time>
      </trkpt>
      <trkpt lat="43.42693" lon="6.05227">
        <ele>300.86538696289</ele>
        <time>2015-01-07T13:02:59Z</time>
      </trkpt>
      <trkpt lat="43.42693" lon="6.05227">
        <ele>300.86511230469</ele>
        <time>2015-01-07T13:03:01Z</time>
      </trkpt>
      <trkpt lat="43.42693" lon="6.05227">
        <ele>300.86483764648</ele>
        <time>2015-01-07T13:03:03Z</time>
      </trkpt>
      <trkpt lat="43.42693" lon="6.05227">
        <ele>300.86483764648</ele>
        <time>2015-01-07T13:03:05Z</time>
      </trkpt>
      <trkpt lat="43.42693" lon="6.05227">
        <ele>300.8645324707</ele>
        <time>2015-01-07T13:03:09Z</time>
      </trkpt>
      <trkpt lat="43.42693" lon="6.05227">
        <ele>300.8645324707</ele>
        <time>2015-01-07T13:03:13Z</time>
      </trkpt>
      <trkpt lat="43.42693" lon="6.05227">
        <ele>300.86483764648</ele>
        <time>2015-01-07T13:03:20Z</time>
      </trkpt>
      <trkpt lat="43.42693" lon="6.05227">
        <ele>300.8645324707</ele>
        <time>2015-01-07T13:03:23Z</time>
      </trkpt>
      <trkpt lat="43.42693" lon="6.05227">
        <ele>300.8645324707</ele>
        <time>2015-01-07T13:03:29Z</time>
      </trkpt>
      <trkpt lat="43.42693" lon="6.05227">
        <ele>300.86468505859</ele>
        <time>2015-01-07T13:03:35Z</time>
      </trkpt>
      <trkpt lat="43.42693" lon="6.05227">
        <ele>300.86483764648</ele>
        <time>2015-01-07T13:03:41Z</time>
      </trkpt>
      <trkpt lat="43.42693" lon="6.05227">
        <ele>300.86468505859</ele>
        <time>2015-01-07T13:03:47Z</time>
      </trkpt>
      <trkpt lat="43.42693" lon="6.05227">
        <ele>300.8649597168</ele>
        <time>2015-01-07T13:03:49Z</time>
      </trkpt>
      <trkpt lat="43.42693" lon="6.05227">
        <ele>300.8649597168</ele>
        <time>2015-01-07T13:03:55Z</time>
      </trkpt>
      <trkpt lat="43.42693" lon="6.05227">
        <ele>300.8642578125</ele>
        <time>2015-01-07T13:04:01Z</time>
      </trkpt>
      <trkpt lat="43.42693" lon="6.05227">
        <ele>300.86413574219</ele>
        <time>2015-01-07T13:04:05Z</time>
      </trkpt>
      <trkpt lat="43.42693" lon="6.05227">
        <ele>300.8639831543</ele>
        <time>2015-01-07T13:04:07Z</time>
      </trkpt>
      <trkpt lat="43.42693" lon="6.05227">
        <ele>300.86511230469</ele>
        <time>2015-01-07T13:04:09Z</time>
      </trkpt>
      <trkpt lat="43.42693" lon="6.05227">
        <ele>300.87435913086</ele>
        <time>2015-01-07T13:04:11Z</time>
      </trkpt>
      <trkpt lat="43.42693" lon="6.05227">
        <ele>300.87466430664</ele>
        <time>2015-01-07T13:04:13Z</time>
      </trkpt>
      <trkpt lat="43.42693" lon="6.05227">
        <ele>300.88354492188</ele>
        <time>2015-01-07T13:04:15Z</time>
      </trkpt>
      <trkpt lat="43.42693" lon="6.05228">
        <ele>300.88452148438</ele>
        <time>2015-01-07T13:04:17Z</time>
      </trkpt>
      <trkpt lat="43.42695" lon="6.05227">
        <ele>300.92663574219</ele>
        <time>2015-01-07T13:04:19Z</time>
      </trkpt>
      <trkpt lat="43.42697" lon="6.05227">
        <ele>300.95864868164</ele>
        <time>2015-01-07T13:04:20Z</time>
      </trkpt>
      <trkpt lat="43.42698" lon="6.05226">
        <ele>300.98977661133</ele>
        <time>2015-01-07T13:04:21Z</time>
      </trkpt>
      <trkpt lat="43.42702" lon="6.05223">
        <ele>301.05834960938</ele>
        <time>2015-01-07T13:04:23Z</time>
      </trkpt>
      <trkpt lat="43.42705" lon="6.05221">
        <ele>301.08221435547</ele>
        <time>2015-01-07T13:04:24Z</time>
      </trkpt>
      <trkpt lat="43.42707" lon="6.05219">
        <ele>301.10205078125</ele>
        <time>2015-01-07T13:04:25Z</time>
      </trkpt>
      <trkpt lat="43.42712" lon="6.05214">
        <ele>301.11413574219</ele>
        <time>2015-01-07T13:04:27Z</time>
      </trkpt>
      <trkpt lat="43.42714" lon="6.05208">
        <ele>301.06976318359</ele>
        <time>2015-01-07T13:04:29Z</time>
      </trkpt>
      <trkpt lat="43.42715" lon="6.05206">
        <ele>301.04425048828</ele>
        <time>2015-01-07T13:04:30Z</time>
      </trkpt>
      <trkpt lat="43.42717" lon="6.05203">
        <ele>301.02331542969</ele>
        <time>2015-01-07T13:04:31Z</time>
      </trkpt>
      <trkpt lat="43.42718" lon="6.05201">
        <ele>300.98318481445</ele>
        <time>2015-01-07T13:04:32Z</time>
      </trkpt>
      <trkpt lat="43.42721" lon="6.05195">
        <ele>300.90374755859</ele>
        <time>2015-01-07T13:04:34Z</time>
      </trkpt>
      <trkpt lat="43.42722" lon="6.05193">
        <ele>300.85159301758</ele>
        <time>2015-01-07T13:04:35Z</time>
      </trkpt>
      <trkpt lat="43.42726" lon="6.05187">
        <ele>300.74493408203</ele>
        <time>2015-01-07T13:04:37Z</time>
      </trkpt>
      <trkpt lat="43.42727" lon="6.05185">
        <ele>300.6901550293</ele>
        <time>2015-01-07T13:04:38Z</time>
      </trkpt>
      <trkpt lat="43.42728" lon="6.05182">
        <ele>300.62777709961</ele>
        <time>2015-01-07T13:04:39Z</time>
      </trkpt>
      <trkpt lat="43.42728" lon="6.05179">
        <ele>300.54568481445</ele>
        <time>2015-01-07T13:04:40Z</time>
      </trkpt>
      <trkpt lat="43.4273" lon="6.05175">
        <ele>300.45562744141</ele>
        <time>2015-01-07T13:04:41Z</time>
      </trkpt>
      <trkpt lat="43.4273" lon="6.05173">
        <ele>300.38208007812</ele>
        <time>2015-01-07T13:04:42Z</time>
      </trkpt>
      <trkpt lat="43.42731" lon="6.0517">
        <ele>300.31826782227</ele>
        <time>2015-01-07T13:04:43Z</time>
      </trkpt>
      <trkpt lat="43.42732" lon="6.05166">
        <ele>300.27221679688</ele>
        <time>2015-01-07T13:04:45Z</time>
      </trkpt>
      <trkpt lat="43.42733" lon="6.05161">
        <ele>300.58471679688</ele>
        <time>2015-01-07T13:04:47Z</time>
      </trkpt>
      <trkpt lat="43.42735" lon="6.05159">
        <ele>300.66851806641</ele>
        <time>2015-01-07T13:04:48Z</time>
      </trkpt>
      <trkpt lat="43.42736" lon="6.05158">
        <ele>300.76821899414</ele>
        <time>2015-01-07T13:04:49Z</time>
      </trkpt>
      <trkpt lat="43.42737" lon="6.05156">
        <ele>300.828125</ele>
        <time>2015-01-07T13:04:50Z</time>
      </trkpt>
      <trkpt lat="43.42737" lon="6.05157">
        <ele>300.81246948242</ele>
        <time>2015-01-07T13:04:51Z</time>
      </trkpt>
      <trkpt lat="43.42738" lon="6.05155">
        <ele>300.89639282227</ele>
        <time>2015-01-07T13:04:53Z</time>
      </trkpt>
      <trkpt lat="43.42741" lon="6.0515">
        <ele>301.16561889648</ele>
        <time>2015-01-07T13:04:57Z</time>
      </trkpt>
      <trkpt lat="43.42742" lon="6.05147">
        <ele>301.32385253906</ele>
        <time>2015-01-07T13:04:59Z</time>
      </trkpt>
      <trkpt lat="43.42744" lon="6.05145">
        <ele>301.44906616211</ele>
        <time>2015-01-07T13:05:01Z</time>
      </trkpt>
      <trkpt lat="43.42746" lon="6.05142">
        <ele>301.6081237793</ele>
        <time>2015-01-07T13:05:03Z</time>
      </trkpt>
      <trkpt lat="43.42747" lon="6.0514">
        <ele>301.69616699219</ele>
        <time>2015-01-07T13:05:05Z</time>
      </trkpt>
      <trkpt lat="43.42749" lon="6.05137">
        <ele>301.81283569336</ele>
        <time>2015-01-07T13:05:07Z</time>
      </trkpt>
      <trkpt lat="43.42751" lon="6.05135">
        <ele>302.11404418945</ele>
        <time>2015-01-07T13:05:09Z</time>
      </trkpt>
      <trkpt lat="43.42752" lon="6.05134">
        <ele>302.34121704102</ele>
        <time>2015-01-07T13:05:10Z</time>
      </trkpt>
      <trkpt lat="43.42753" lon="6.05133">
        <ele>302.67956542969</ele>
        <time>2015-01-07T13:05:11Z</time>
      </trkpt>
      <trkpt lat="43.42754" lon="6.0513">
        <ele>303.18801879883</ele>
        <time>2015-01-07T13:05:13Z</time>
      </trkpt>
      <trkpt lat="43.42755" lon="6.05128">
        <ele>303.41409301758</ele>
        <time>2015-01-07T13:05:14Z</time>
      </trkpt>
      <trkpt lat="43.42756" lon="6.05117">
        <ele>304.19912719727</ele>
        <time>2015-01-07T13:05:19Z</time>
      </trkpt>
      <trkpt lat="43.42756" lon="6.05113">
        <ele>304.37478637695</ele>
        <time>2015-01-07T13:05:21Z</time>
      </trkpt>
      <trkpt lat="43.42754" lon="6.05108">
        <ele>304.3918762207</ele>
        <time>2015-01-07T13:05:23Z</time>
      </trkpt>
      <trkpt lat="43.42751" lon="6.05094">
        <ele>304.59967041016</ele>
        <time>2015-01-07T13:05:29Z</time>
      </trkpt>
      <trkpt lat="43.42751" lon="6.05092">
        <ele>304.74563598633</ele>
        <time>2015-01-07T13:05:30Z</time>
      </trkpt>
      <trkpt lat="43.42751" lon="6.05089">
        <ele>304.89157104492</ele>
        <time>2015-01-07T13:05:31Z</time>
      </trkpt>
      <trkpt lat="43.42751" lon="6.05084">
        <ele>305.20315551758</ele>
        <time>2015-01-07T13:05:33Z</time>
      </trkpt>
      <trkpt lat="43.42752" lon="6.05079">
        <ele>305.6930847168</ele>
        <time>2015-01-07T13:05:35Z</time>
      </trkpt>
      <trkpt lat="43.42752" lon="6.05074">
        <ele>306.1061706543</ele>
        <time>2015-01-07T13:05:37Z</time>
      </trkpt>
      <trkpt lat="43.42753" lon="6.0507">
        <ele>306.62161254883</ele>
        <time>2015-01-07T13:05:39Z</time>
      </trkpt>
      <trkpt lat="43.42754" lon="6.05065">
        <ele>307.20330810547</ele>
        <time>2015-01-07T13:05:41Z</time>
      </trkpt>
      <trkpt lat="43.42756" lon="6.0506">
        <ele>307.82421875</ele>
        <time>2015-01-07T13:05:43Z</time>
      </trkpt>
      <trkpt lat="43.42756" lon="6.05056">
        <ele>308.29766845703</ele>
        <time>2015-01-07T13:05:45Z</time>
      </trkpt>
      <trkpt lat="43.42757" lon="6.05054">
        <ele>308.55548095703</ele>
        <time>2015-01-07T13:05:46Z</time>
      </trkpt>
      <trkpt lat="43.4276" lon="6.05049">
        <ele>309.54296875</ele>
        <time>2015-01-07T13:05:49Z</time>
      </trkpt>
      <trkpt lat="43.42763" lon="6.05045">
        <ele>310.19018554688</ele>
        <time>2015-01-07T13:05:51Z</time>
      </trkpt>
      <trkpt lat="43.42764" lon="6.05041">
        <ele>310.71408081055</ele>
        <time>2015-01-07T13:05:53Z</time>
      </trkpt>
      <trkpt lat="43.42765" lon="6.05036">
        <ele>311.19082641602</ele>
        <time>2015-01-07T13:05:55Z</time>
      </trkpt>
      <trkpt lat="43.42766" lon="6.05034">
        <ele>311.40591430664</ele>
        <time>2015-01-07T13:05:56Z</time>
      </trkpt>
      <trkpt lat="43.42768" lon="6.05028">
        <ele>312.15069580078</ele>
        <time>2015-01-07T13:05:59Z</time>
      </trkpt>
      <trkpt lat="43.42768" lon="6.05023">
        <ele>312.60134887695</ele>
        <time>2015-01-07T13:06:01Z</time>
      </trkpt>
      <trkpt lat="43.42769" lon="6.05018">
        <ele>312.98248291016</ele>
        <time>2015-01-07T13:06:03Z</time>
      </trkpt>
      <trkpt lat="43.42768" lon="6.05013">
        <ele>313.27349853516</ele>
        <time>2015-01-07T13:06:05Z</time>
      </trkpt>
      <trkpt lat="43.42767" lon="6.05007">
        <ele>313.55694580078</ele>
        <time>2015-01-07T13:06:07Z</time>
      </trkpt>
      <trkpt lat="43.42766" lon="6.05003">
        <ele>313.75509643555</ele>
        <time>2015-01-07T13:06:09Z</time>
      </trkpt>
      <trkpt lat="43.42765" lon="6.04998">
        <ele>313.98260498047</ele>
        <time>2015-01-07T13:06:11Z</time>
      </trkpt>
      <trkpt lat="43.42765" lon="6.04992">
        <ele>314.22933959961</ele>
        <time>2015-01-07T13:06:13Z</time>
      </trkpt>
      <trkpt lat="43.42764" lon="6.04986">
        <ele>314.44403076172</ele>
        <time>2015-01-07T13:06:15Z</time>
      </trkpt>
      <trkpt lat="43.42763" lon="6.04981">
        <ele>314.64501953125</ele>
        <time>2015-01-07T13:06:17Z</time>
      </trkpt>
      <trkpt lat="43.42763" lon="6.04976">
        <ele>314.95330810547</ele>
        <time>2015-01-07T13:06:19Z</time>
      </trkpt>
      <trkpt lat="43.42763" lon="6.04971">
        <ele>315.22402954102</ele>
        <time>2015-01-07T13:06:21Z</time>
      </trkpt>
      <trkpt lat="43.42762" lon="6.04966">
        <ele>315.42416381836</ele>
        <time>2015-01-07T13:06:23Z</time>
      </trkpt>
      <trkpt lat="43.42762" lon="6.0496">
        <ele>315.68417358398</ele>
        <time>2015-01-07T13:06:25Z</time>
      </trkpt>
      <trkpt lat="43.42762" lon="6.04957">
        <ele>315.80755615234</ele>
        <time>2015-01-07T13:06:26Z</time>
      </trkpt>
      <trkpt lat="43.42762" lon="6.04955">
        <ele>315.94802856445</ele>
        <time>2015-01-07T13:06:27Z</time>
      </trkpt>
      <trkpt lat="43.42763" lon="6.04946">
        <ele>316.57275390625</ele>
        <time>2015-01-07T13:06:30Z</time>
      </trkpt>
      <trkpt lat="43.42763" lon="6.04943">
        <ele>316.7734375</ele>
        <time>2015-01-07T13:06:31Z</time>
      </trkpt>
      <trkpt lat="43.42763" lon="6.04937">
        <ele>317.05618286133</ele>
        <time>2015-01-07T13:06:33Z</time>
      </trkpt>
      <trkpt lat="43.42762" lon="6.04931">
        <ele>317.3154296875</ele>
        <time>2015-01-07T13:06:35Z</time>
      </trkpt>
      <trkpt lat="43.42761" lon="6.04926">
        <ele>317.52072143555</ele>
        <time>2015-01-07T13:06:37Z</time>
      </trkpt>
      <trkpt lat="43.4276" lon="6.0492">
        <ele>317.71606445312</ele>
        <time>2015-01-07T13:06:39Z</time>
      </trkpt>
      <trkpt lat="43.42759" lon="6.04918">
        <ele>317.78713989258</ele>
        <time>2015-01-07T13:06:40Z</time>
      </trkpt>
      <trkpt lat="43.42758" lon="6.04916">
        <ele>317.80459594727</ele>
        <time>2015-01-07T13:06:41Z</time>
      </trkpt>
      <trkpt lat="43.42758" lon="6.04916">
        <ele>317.7839050293</ele>
        <time>2015-01-07T13:06:44Z</time>
      </trkpt>
      <trkpt lat="43.42758" lon="6.04915">
        <ele>317.79275512695</ele>
        <time>2015-01-07T13:06:47Z</time>
      </trkpt>
      <trkpt lat="43.42758" lon="6.04916">
        <ele>317.78921508789</ele>
        <time>2015-01-07T13:06:50Z</time>
      </trkpt>
      <trkpt lat="43.42757" lon="6.04916">
        <ele>317.74014282227</ele>
        <time>2015-01-07T13:06:53Z</time>
      </trkpt>
      <trkpt lat="43.42757" lon="6.04916">
        <ele>317.73837280273</ele>
        <time>2015-01-07T13:06:55Z</time>
      </trkpt>
      <trkpt lat="43.42757" lon="6.04916">
        <ele>317.73837280273</ele>
        <time>2015-01-07T13:06:59Z</time>
      </trkpt>
      <trkpt lat="43.42757" lon="6.04916">
        <ele>317.73837280273</ele>
        <time>2015-01-07T13:07:01Z</time>
      </trkpt>
      <trkpt lat="43.42757" lon="6.04916">
        <ele>317.7419128418</ele>
        <time>2015-01-07T13:07:03Z</time>
      </trkpt>
      <trkpt lat="43.42757" lon="6.04916">
        <ele>317.74368286133</ele>
        <time>2015-01-07T13:07:05Z</time>
      </trkpt>
      <trkpt lat="43.42757" lon="6.04916">
        <ele>317.74368286133</ele>
        <time>2015-01-07T13:07:08Z</time>
      </trkpt>
      <trkpt lat="43.42757" lon="6.04916">
        <ele>317.74368286133</ele>
        <time>2015-01-07T13:07:11Z</time>
      </trkpt>
      <trkpt lat="43.42757" lon="6.04916">
        <ele>317.75253295898</ele>
        <time>2015-01-07T13:07:15Z</time>
      </trkpt>
      <trkpt lat="43.42757" lon="6.04916">
        <ele>317.75253295898</ele>
        <time>2015-01-07T13:07:17Z</time>
      </trkpt>
      <trkpt lat="43.42758" lon="6.04916">
        <ele>317.79098510742</ele>
        <time>2015-01-07T13:07:21Z</time>
      </trkpt>
      <trkpt lat="43.42757" lon="6.04915">
        <ele>317.75604248047</ele>
        <time>2015-01-07T13:07:25Z</time>
      </trkpt>
      <trkpt lat="43.42757" lon="6.04915">
        <ele>317.75604248047</ele>
        <time>2015-01-07T13:07:29Z</time>
      </trkpt>
      <trkpt lat="43.42757" lon="6.04915">
        <ele>317.75604248047</ele>
        <time>2015-01-07T13:07:31Z</time>
      </trkpt>
      <trkpt lat="43.42757" lon="6.04915">
        <ele>317.75604248047</ele>
        <time>2015-01-07T13:07:34Z</time>
      </trkpt>
      <trkpt lat="43.42757" lon="6.04916">
        <ele>317.75253295898</ele>
        <time>2015-01-07T13:07:35Z</time>
      </trkpt>
      <trkpt lat="43.42757" lon="6.04916">
        <ele>317.75253295898</ele>
        <time>2015-01-07T13:07:39Z</time>
      </trkpt>
      <trkpt lat="43.42757" lon="6.04916">
        <ele>317.75430297852</ele>
        <time>2015-01-07T13:07:43Z</time>
      </trkpt>
      <trkpt lat="43.42758" lon="6.04916">
        <ele>317.78921508789</ele>
        <time>2015-01-07T13:07:45Z</time>
      </trkpt>
      <trkpt lat="43.42757" lon="6.04916">
        <ele>317.75430297852</ele>
        <time>2015-01-07T13:07:46Z</time>
      </trkpt>
      <trkpt lat="43.42757" lon="6.04915">
        <ele>317.75604248047</ele>
        <time>2015-01-07T13:07:50Z</time>
      </trkpt>
      <trkpt lat="43.42758" lon="6.04915">
        <ele>317.79452514648</ele>
        <time>2015-01-07T13:07:53Z</time>
      </trkpt>
      <trkpt lat="43.42757" lon="6.04915">
        <ele>317.75958251953</ele>
        <time>2015-01-07T13:07:55Z</time>
      </trkpt>
      <trkpt lat="43.42758" lon="6.04915">
        <ele>317.79452514648</ele>
        <time>2015-01-07T13:07:56Z</time>
      </trkpt>
      <trkpt lat="43.42758" lon="6.04915">
        <ele>317.80160522461</ele>
        <time>2015-01-07T13:07:59Z</time>
      </trkpt>
      <trkpt lat="43.42758" lon="6.04915">
        <ele>317.85601806641</ele>
        <time>2015-01-07T13:08:01Z</time>
      </trkpt>
      <trkpt lat="43.42759" lon="6.04914">
        <ele>317.99645996094</ele>
        <time>2015-01-07T13:08:02Z</time>
      </trkpt>
      <trkpt lat="43.4276" lon="6.04912">
        <ele>318.13607788086</ele>
        <time>2015-01-07T13:08:03Z</time>
      </trkpt>
      <trkpt lat="43.42762" lon="6.04907">
        <ele>318.47036743164</ele>
        <time>2015-01-07T13:08:05Z</time>
      </trkpt>
      <trkpt lat="43.42763" lon="6.04904">
        <ele>318.72552490234</ele>
        <time>2015-01-07T13:08:06Z</time>
      </trkpt>
      <trkpt lat="43.42764" lon="6.04901">
        <ele>318.95175170898</ele>
        <time>2015-01-07T13:08:07Z</time>
      </trkpt>
      <trkpt lat="43.42767" lon="6.04896">
        <ele>319.37783813477</ele>
        <time>2015-01-07T13:08:09Z</time>
      </trkpt>
      <trkpt lat="43.42769" lon="6.04893">
        <ele>319.78073120117</ele>
        <time>2015-01-07T13:08:11Z</time>
      </trkpt>
      <trkpt lat="43.4277" lon="6.0489">
        <ele>319.98739624023</ele>
        <time>2015-01-07T13:08:12Z</time>
      </trkpt>
      <trkpt lat="43.42772" lon="6.04887">
        <ele>320.21347045898</ele>
        <time>2015-01-07T13:08:13Z</time>
      </trkpt>
      <trkpt lat="43.42772" lon="6.04884">
        <ele>320.36932373047</ele>
        <time>2015-01-07T13:08:14Z</time>
      </trkpt>
      <trkpt lat="43.42773" lon="6.04878">
        <ele>320.75762939453</ele>
        <time>2015-01-07T13:08:16Z</time>
      </trkpt>
      <trkpt lat="43.42775" lon="6.04873">
        <ele>321.18002319336</ele>
        <time>2015-01-07T13:08:18Z</time>
      </trkpt>
      <trkpt lat="43.42776" lon="6.0487">
        <ele>321.41104125977</ele>
        <time>2015-01-07T13:08:19Z</time>
      </trkpt>
      <trkpt lat="43.42778" lon="6.04864">
        <ele>321.82876586914</ele>
        <time>2015-01-07T13:08:21Z</time>
      </trkpt>
      <trkpt lat="43.42781" lon="6.04849">
        <ele>322.72094726562</ele>
        <time>2015-01-07T13:08:27Z</time>
      </trkpt>
      <trkpt lat="43.42781" lon="6.04845">
        <ele>322.93328857422</ele>
        <time>2015-01-07T13:08:29Z</time>
      </trkpt>
      <trkpt lat="43.42782" lon="6.0484">
        <ele>323.15188598633</ele>
        <time>2015-01-07T13:08:31Z</time>
      </trkpt>
      <trkpt lat="43.42781" lon="6.04837">
        <ele>323.14700317383</ele>
        <time>2015-01-07T13:08:33Z</time>
      </trkpt>
      <trkpt lat="43.42779" lon="6.04835">
        <ele>323.08856201172</ele>
        <time>2015-01-07T13:08:35Z</time>
      </trkpt>
      <trkpt lat="43.42778" lon="6.04833">
        <ele>323.06365966797</ele>
        <time>2015-01-07T13:08:36Z</time>
      </trkpt>
      <trkpt lat="43.42778" lon="6.04832">
        <ele>323.06182861328</ele>
        <time>2015-01-07T13:08:37Z</time>
      </trkpt>
      <trkpt lat="43.42775" lon="6.04829">
        <ele>323.00131225586</ele>
        <time>2015-01-07T13:08:39Z</time>
      </trkpt>
      <trkpt lat="43.42773" lon="6.04826">
        <ele>323.00424194336</ele>
        <time>2015-01-07T13:08:41Z</time>
      </trkpt>
      <trkpt lat="43.42772" lon="6.04825">
        <ele>323.03826904297</ele>
        <time>2015-01-07T13:08:42Z</time>
      </trkpt>
      <trkpt lat="43.42771" lon="6.04823">
        <ele>323.03656005859</ele>
        <time>2015-01-07T13:08:43Z</time>
      </trkpt>
      <trkpt lat="43.42769" lon="6.04822">
        <ele>322.96603393555</ele>
        <time>2015-01-07T13:08:45Z</time>
      </trkpt>
      <trkpt lat="43.42769" lon="6.04822">
        <ele>322.89608764648</ele>
        <time>2015-01-07T13:08:47Z</time>
      </trkpt>
      <trkpt lat="43.42769" lon="6.04822">
        <ele>322.91482543945</ele>
        <time>2015-01-07T13:08:49Z</time>
      </trkpt>
      <trkpt lat="43.42769" lon="6.04822">
        <ele>322.91482543945</ele>
        <time>2015-01-07T13:08:50Z</time>
      </trkpt>
      <trkpt lat="43.42769" lon="6.04822">
        <ele>322.93356323242</ele>
        <time>2015-01-07T13:08:53Z</time>
      </trkpt>
      <trkpt lat="43.42769" lon="6.04822">
        <ele>322.93356323242</ele>
        <time>2015-01-07T13:08:56Z</time>
      </trkpt>
      <trkpt lat="43.42769" lon="6.04822">
        <ele>322.94479370117</ele>
        <time>2015-01-07T13:08:59Z</time>
      </trkpt>
      <trkpt lat="43.42768" lon="6.04821">
        <ele>322.93112182617</ele>
        <time>2015-01-07T13:09:00Z</time>
      </trkpt>
      <trkpt lat="43.42767" lon="6.04821">
        <ele>322.82275390625</ele>
        <time>2015-01-07T13:09:01Z</time>
      </trkpt>
      <trkpt lat="43.42765" lon="6.0482">
        <ele>322.74096679688</ele>
        <time>2015-01-07T13:09:03Z</time>
      </trkpt>
      <trkpt lat="43.42764" lon="6.04817">
        <ele>322.74102783203</ele>
        <time>2015-01-07T13:09:05Z</time>
      </trkpt>
      <trkpt lat="43.42761" lon="6.04815">
        <ele>322.69692993164</ele>
        <time>2015-01-07T13:09:07Z</time>
      </trkpt>
      <trkpt lat="43.4276" lon="6.04814">
        <ele>322.66061401367</ele>
        <time>2015-01-07T13:09:08Z</time>
      </trkpt>
      <trkpt lat="43.42759" lon="6.04813">
        <ele>322.60552978516</ele>
        <time>2015-01-07T13:09:09Z</time>
      </trkpt>
      <trkpt lat="43.42757" lon="6.04812">
        <ele>322.43029785156</ele>
        <time>2015-01-07T13:09:11Z</time>
      </trkpt>
      <trkpt lat="43.42755" lon="6.04813">
        <ele>322.26287841797</ele>
        <time>2015-01-07T13:09:13Z</time>
      </trkpt>
      <trkpt lat="43.42751" lon="6.04814">
        <ele>321.68698120117</ele>
        <time>2015-01-07T13:09:17Z</time>
      </trkpt>
      <trkpt lat="43.42749" lon="6.04816">
        <ele>321.55773925781</ele>
        <time>2015-01-07T13:09:19Z</time>
      </trkpt>
      <trkpt lat="43.42749" lon="6.04816">
        <ele>321.54180908203</ele>
        <time>2015-01-07T13:09:20Z</time>
      </trkpt>
      <trkpt lat="43.42749" lon="6.04816">
        <ele>321.52188110352</ele>
        <time>2015-01-07T13:09:21Z</time>
      </trkpt>
      <trkpt lat="43.42749" lon="6.04816">
        <ele>321.54376220703</ele>
        <time>2015-01-07T13:09:23Z</time>
      </trkpt>
      <trkpt lat="43.42748" lon="6.04817">
        <ele>321.59158325195</ele>
        <time>2015-01-07T13:09:25Z</time>
      </trkpt>
      <trkpt lat="43.42744" lon="6.04817">
        <ele>321.87979125977</ele>
        <time>2015-01-07T13:09:27Z</time>
      </trkpt>
      <trkpt lat="43.42741" lon="6.04818">
        <ele>322.08312988281</ele>
        <time>2015-01-07T13:09:28Z</time>
      </trkpt>
      <trkpt lat="43.42738" lon="6.04817">
        <ele>322.45727539062</ele>
        <time>2015-01-07T13:09:29Z</time>
      </trkpt>
      <trkpt lat="43.42731" lon="6.04815">
        <ele>323.21557617188</ele>
        <time>2015-01-07T13:09:31Z</time>
      </trkpt>
      <trkpt lat="43.42728" lon="6.04814">
        <ele>323.54678344727</ele>
        <time>2015-01-07T13:09:32Z</time>
      </trkpt>
      <trkpt lat="43.42727" lon="6.04813">
        <ele>323.77346801758</ele>
        <time>2015-01-07T13:09:33Z</time>
      </trkpt>
      <trkpt lat="43.42722" lon="6.04811">
        <ele>324.23864746094</ele>
        <time>2015-01-07T13:09:35Z</time>
      </trkpt>
      <trkpt lat="43.42718" lon="6.0481">
        <ele>324.76498413086</ele>
        <time>2015-01-07T13:09:37Z</time>
      </trkpt>
      <trkpt lat="43.42716" lon="6.04808">
        <ele>325.00830078125</ele>
        <time>2015-01-07T13:09:38Z</time>
      </trkpt>
      <trkpt lat="43.42714" lon="6.04803">
        <ele>325.54867553711</ele>
        <time>2015-01-07T13:09:41Z</time>
      </trkpt>
      <trkpt lat="43.42714" lon="6.04801">
        <ele>325.62173461914</ele>
        <time>2015-01-07T13:09:42Z</time>
      </trkpt>
      <trkpt lat="43.42714" lon="6.048">
        <ele>325.7705078125</ele>
        <time>2015-01-07T13:09:43Z</time>
      </trkpt>
      <trkpt lat="43.42714" lon="6.04798">
        <ele>325.90573120117</ele>
        <time>2015-01-07T13:09:44Z</time>
      </trkpt>
      <trkpt lat="43.42712" lon="6.04795">
        <ele>326.20495605469</ele>
        <time>2015-01-07T13:09:46Z</time>
      </trkpt>
      <trkpt lat="43.42711" lon="6.04793">
        <ele>326.44018554688</ele>
        <time>2015-01-07T13:09:47Z</time>
      </trkpt>
      <trkpt lat="43.4271" lon="6.04789">
        <ele>326.7841796875</ele>
        <time>2015-01-07T13:09:49Z</time>
      </trkpt>
      <trkpt lat="43.4271" lon="6.04785">
        <ele>327.10629272461</ele>
        <time>2015-01-07T13:09:51Z</time>
      </trkpt>
      <trkpt lat="43.42709" lon="6.04781">
        <ele>327.37567138672</ele>
        <time>2015-01-07T13:09:53Z</time>
      </trkpt>
      <trkpt lat="43.42709" lon="6.0478">
        <ele>327.47705078125</ele>
        <time>2015-01-07T13:09:54Z</time>
      </trkpt>
      <trkpt lat="43.42709" lon="6.04774">
        <ele>327.88244628906</ele>
        <time>2015-01-07T13:09:57Z</time>
      </trkpt>
      <trkpt lat="43.42708" lon="6.0477">
        <ele>328.20178222656</ele>
        <time>2015-01-07T13:09:59Z</time>
      </trkpt>
      <trkpt lat="43.42708" lon="6.04759">
        <ele>328.93444824219</ele>
        <time>2015-01-07T13:10:04Z</time>
      </trkpt>
      <trkpt lat="43.42708" lon="6.04752">
        <ele>329.38848876953</ele>
        <time>2015-01-07T13:10:07Z</time>
      </trkpt>
      <trkpt lat="43.42707" lon="6.0475">
        <ele>329.54940795898</ele>
        <time>2015-01-07T13:10:08Z</time>
      </trkpt>
      <trkpt lat="43.42706" lon="6.04743">
        <ele>330.23712158203</ele>
        <time>2015-01-07T13:10:11Z</time>
      </trkpt>
      <trkpt lat="43.42706" lon="6.04739">
        <ele>330.67938232422</ele>
        <time>2015-01-07T13:10:13Z</time>
      </trkpt>
      <trkpt lat="43.42705" lon="6.04736">
        <ele>330.96636962891</ele>
        <time>2015-01-07T13:10:14Z</time>
      </trkpt>
      <trkpt lat="43.42704" lon="6.04728">
        <ele>331.72860717773</ele>
        <time>2015-01-07T13:10:17Z</time>
      </trkpt>
      <trkpt lat="43.42702" lon="6.04721">
        <ele>332.46740722656</ele>
        <time>2015-01-07T13:10:20Z</time>
      </trkpt>
      <trkpt lat="43.42703" lon="6.04714">
        <ele>333.0690612793</ele>
        <time>2015-01-07T13:10:23Z</time>
      </trkpt>
      <trkpt lat="43.42703" lon="6.04707">
        <ele>333.71490478516</ele>
        <time>2015-01-07T13:10:26Z</time>
      </trkpt>
      <trkpt lat="43.42704" lon="6.047">
        <ele>334.30667114258</ele>
        <time>2015-01-07T13:10:29Z</time>
      </trkpt>
      <trkpt lat="43.42705" lon="6.04694">
        <ele>334.87008666992</ele>
        <time>2015-01-07T13:10:32Z</time>
      </trkpt>
      <trkpt lat="43.42705" lon="6.04692">
        <ele>335.05850219727</ele>
        <time>2015-01-07T13:10:33Z</time>
      </trkpt>
      <trkpt lat="43.42704" lon="6.04684">
        <ele>335.77978515625</ele>
        <time>2015-01-07T13:10:37Z</time>
      </trkpt>
      <trkpt lat="43.42704" lon="6.04676">
        <ele>336.52880859375</ele>
        <time>2015-01-07T13:10:41Z</time>
      </trkpt>
      <trkpt lat="43.42703" lon="6.04671">
        <ele>336.88009643555</ele>
        <time>2015-01-07T13:10:43Z</time>
      </trkpt>
      <trkpt lat="43.42702" lon="6.04667">
        <ele>337.28967285156</ele>
        <time>2015-01-07T13:10:45Z</time>
      </trkpt>
      <trkpt lat="43.42702" lon="6.04662">
        <ele>337.52731323242</ele>
        <time>2015-01-07T13:10:47Z</time>
      </trkpt>
      <trkpt lat="43.42702" lon="6.04658">
        <ele>337.76495361328</ele>
        <time>2015-01-07T13:10:49Z</time>
      </trkpt>
      <trkpt lat="43.42702" lon="6.04656">
        <ele>337.88107299805</ele>
        <time>2015-01-07T13:10:50Z</time>
      </trkpt>
      <trkpt lat="43.42702" lon="6.04654">
        <ele>337.99447631836</ele>
        <time>2015-01-07T13:10:51Z</time>
      </trkpt>
      <trkpt lat="43.42702" lon="6.04649">
        <ele>338.24700927734</ele>
        <time>2015-01-07T13:10:53Z</time>
      </trkpt>
      <trkpt lat="43.42701" lon="6.04645">
        <ele>338.4494934082</ele>
        <time>2015-01-07T13:10:55Z</time>
      </trkpt>
      <trkpt lat="43.42702" lon="6.04639">
        <ele>338.80020141602</ele>
        <time>2015-01-07T13:10:58Z</time>
      </trkpt>
      <trkpt lat="43.42703" lon="6.04629">
        <ele>339.47787475586</ele>
        <time>2015-01-07T13:11:03Z</time>
      </trkpt>
      <trkpt lat="43.42702" lon="6.04624">
        <ele>339.70111083984</ele>
        <time>2015-01-07T13:11:05Z</time>
      </trkpt>
      <trkpt lat="43.42701" lon="6.04615">
        <ele>340.10321044922</ele>
        <time>2015-01-07T13:11:09Z</time>
      </trkpt>
      <trkpt lat="43.427" lon="6.04606">
        <ele>340.56140136719</ele>
        <time>2015-01-07T13:11:13Z</time>
      </trkpt>
      <trkpt lat="43.427" lon="6.04603">
        <ele>340.69537353516</ele>
        <time>2015-01-07T13:11:14Z</time>
      </trkpt>
      <trkpt lat="43.42699" lon="6.04596">
        <ele>340.98864746094</ele>
        <time>2015-01-07T13:11:17Z</time>
      </trkpt>
      <trkpt lat="43.42698" lon="6.04587">
        <ele>341.3932800293</ele>
        <time>2015-01-07T13:11:21Z</time>
      </trkpt>
      <trkpt lat="43.42697" lon="6.04583">
        <ele>341.61099243164</ele>
        <time>2015-01-07T13:11:23Z</time>
      </trkpt>
      <trkpt lat="43.42694" lon="6.0457">
        <ele>342.12121582031</ele>
        <time>2015-01-07T13:11:29Z</time>
      </trkpt>
      <trkpt lat="43.42692" lon="6.04563">
        <ele>342.33532714844</ele>
        <time>2015-01-07T13:11:32Z</time>
      </trkpt>
      <trkpt lat="43.42691" lon="6.04557">
        <ele>342.57510375977</ele>
        <time>2015-01-07T13:11:35Z</time>
      </trkpt>
      <trkpt lat="43.4269" lon="6.04553">
        <ele>342.68377685547</ele>
        <time>2015-01-07T13:11:37Z</time>
      </trkpt>
      <trkpt lat="43.42689" lon="6.04551">
        <ele>342.75952148438</ele>
        <time>2015-01-07T13:11:38Z</time>
      </trkpt>
      <trkpt lat="43.42685" lon="6.0454">
        <ele>342.91937255859</ele>
        <time>2015-01-07T13:11:44Z</time>
      </trkpt>
      <trkpt lat="43.42683" lon="6.04537">
        <ele>342.93853759766</ele>
        <time>2015-01-07T13:11:46Z</time>
      </trkpt>
      <trkpt lat="43.42682" lon="6.04535">
        <ele>342.90524291992</ele>
        <time>2015-01-07T13:11:47Z</time>
      </trkpt>
      <trkpt lat="43.4268" lon="6.04531">
        <ele>342.89535522461</ele>
        <time>2015-01-07T13:11:50Z</time>
      </trkpt>
      <trkpt lat="43.42677" lon="6.04526">
        <ele>342.86560058594</ele>
        <time>2015-01-07T13:11:53Z</time>
      </trkpt>
      <trkpt lat="43.42676" lon="6.04524">
        <ele>342.88201904297</ele>
        <time>2015-01-07T13:11:54Z</time>
      </trkpt>
      <trkpt lat="43.42675" lon="6.04522">
        <ele>342.89715576172</ele>
        <time>2015-01-07T13:11:55Z</time>
      </trkpt>
      <trkpt lat="43.42675" lon="6.04521">
        <ele>342.94116210938</ele>
        <time>2015-01-07T13:11:56Z</time>
      </trkpt>
      <trkpt lat="43.42673" lon="6.04516">
        <ele>342.96896362305</ele>
        <time>2015-01-07T13:11:59Z</time>
      </trkpt>
      <trkpt lat="43.42672" lon="6.04512">
        <ele>343.06549072266</ele>
        <time>2015-01-07T13:12:01Z</time>
      </trkpt>
      <trkpt lat="43.42672" lon="6.04509">
        <ele>343.13571166992</ele>
        <time>2015-01-07T13:12:03Z</time>
      </trkpt>
      <trkpt lat="43.4267" lon="6.04503">
        <ele>343.25103759766</ele>
        <time>2015-01-07T13:12:06Z</time>
      </trkpt>
      <trkpt lat="43.4267" lon="6.04501">
        <ele>343.34774780273</ele>
        <time>2015-01-07T13:12:07Z</time>
      </trkpt>
      <trkpt lat="43.4267" lon="6.04499">
        <ele>343.45568847656</ele>
        <time>2015-01-07T13:12:08Z</time>
      </trkpt>
      <trkpt lat="43.4267" lon="6.04494">
        <ele>343.7412109375</ele>
        <time>2015-01-07T13:12:11Z</time>
      </trkpt>
      <trkpt lat="43.42669" lon="6.04486">
        <ele>344.09429931641</ele>
        <time>2015-01-07T13:12:16Z</time>
      </trkpt>
      <trkpt lat="43.42669" lon="6.0448">
        <ele>344.41329956055</ele>
        <time>2015-01-07T13:12:19Z</time>
      </trkpt>
      <trkpt lat="43.42668" lon="6.04474">
        <ele>344.75979614258</ele>
        <time>2015-01-07T13:12:23Z</time>
      </trkpt>
      <trkpt lat="43.42668" lon="6.04471">
        <ele>344.90478515625</ele>
        <time>2015-01-07T13:12:25Z</time>
      </trkpt>
      <trkpt lat="43.42668" lon="6.04469">
        <ele>345.05554199219</ele>
        <time>2015-01-07T13:12:26Z</time>
      </trkpt>
      <trkpt lat="43.42667" lon="6.04464">
        <ele>345.22518920898</ele>
        <time>2015-01-07T13:12:29Z</time>
      </trkpt>
      <trkpt lat="43.42667" lon="6.0446">
        <ele>345.41226196289</ele>
        <time>2015-01-07T13:12:31Z</time>
      </trkpt>
      <trkpt lat="43.42665" lon="6.04454">
        <ele>345.92886352539</ele>
        <time>2015-01-07T13:12:34Z</time>
      </trkpt>
      <trkpt lat="43.42665" lon="6.04451">
        <ele>346.20419311523</ele>
        <time>2015-01-07T13:12:36Z</time>
      </trkpt>
      <trkpt lat="43.42664" lon="6.04449">
        <ele>346.42654418945</ele>
        <time>2015-01-07T13:12:37Z</time>
      </trkpt>
      <trkpt lat="43.42664" lon="6.04447">
        <ele>346.67691040039</ele>
        <time>2015-01-07T13:12:38Z</time>
      </trkpt>
      <trkpt lat="43.42661" lon="6.04442">
        <ele>347.32919311523</ele>
        <time>2015-01-07T13:12:41Z</time>
      </trkpt>
      <trkpt lat="43.42661" lon="6.04441">
        <ele>347.41958618164</ele>
        <time>2015-01-07T13:12:42Z</time>
      </trkpt>
      <trkpt lat="43.42661" lon="6.04438">
        <ele>347.61865234375</ele>
        <time>2015-01-07T13:12:43Z</time>
      </trkpt>
      <trkpt lat="43.42661" lon="6.04437">
        <ele>347.78363037109</ele>
        <time>2015-01-07T13:12:44Z</time>
      </trkpt>
      <trkpt lat="43.42661" lon="6.04435">
        <ele>347.89358520508</ele>
        <time>2015-01-07T13:12:45Z</time>
      </trkpt>
      <trkpt lat="43.42661" lon="6.04432">
        <ele>347.99673461914</ele>
        <time>2015-01-07T13:12:47Z</time>
      </trkpt>
      <trkpt lat="43.42661" lon="6.04429">
        <ele>348.11712646484</ele>
        <time>2015-01-07T13:12:49Z</time>
      </trkpt>
      <trkpt lat="43.42661" lon="6.04423">
        <ele>348.45883178711</ele>
        <time>2015-01-07T13:12:52Z</time>
      </trkpt>
      <trkpt lat="43.42661" lon="6.04421">
        <ele>348.59439086914</ele>
        <time>2015-01-07T13:12:53Z</time>
      </trkpt>
      <trkpt lat="43.42662" lon="6.04417">
        <ele>348.77209472656</ele>
        <time>2015-01-07T13:12:55Z</time>
      </trkpt>
      <trkpt lat="43.42662" lon="6.04415">
        <ele>348.88806152344</ele>
        <time>2015-01-07T13:12:56Z</time>
      </trkpt>
      <trkpt lat="43.42662" lon="6.04409">
        <ele>349.4267578125</ele>
        <time>2015-01-07T13:12:59Z</time>
      </trkpt>
      <trkpt lat="43.42662" lon="6.04403">
        <ele>349.84219360352</ele>
        <time>2015-01-07T13:13:02Z</time>
      </trkpt>
      <trkpt lat="43.42663" lon="6.04396">
        <ele>350.3180847168</ele>
        <time>2015-01-07T13:13:06Z</time>
      </trkpt>
      <trkpt lat="43.42663" lon="6.04392">
        <ele>350.64953613281</ele>
        <time>2015-01-07T13:13:08Z</time>
      </trkpt>
      <trkpt lat="43.42662" lon="6.04382">
        <ele>351.51245117188</ele>
        <time>2015-01-07T13:13:13Z</time>
      </trkpt>
      <trkpt lat="43.4266" lon="6.04375">
        <ele>352.37438964844</ele>
        <time>2015-01-07T13:13:17Z</time>
      </trkpt>
      <trkpt lat="43.42659" lon="6.04372">
        <ele>352.79895019531</ele>
        <time>2015-01-07T13:13:19Z</time>
      </trkpt>
      <trkpt lat="43.42657" lon="6.04367">
        <ele>353.44302368164</ele>
        <time>2015-01-07T13:13:22Z</time>
      </trkpt>
      <trkpt lat="43.42655" lon="6.0436">
        <ele>354.25262451172</ele>
        <time>2015-01-07T13:13:26Z</time>
      </trkpt>
      <trkpt lat="43.42654" lon="6.04353">
        <ele>354.86779785156</ele>
        <time>2015-01-07T13:13:29Z</time>
      </trkpt>
      <trkpt lat="43.42653" lon="6.04352">
        <ele>355.05163574219</ele>
        <time>2015-01-07T13:13:30Z</time>
      </trkpt>
      <trkpt lat="43.42653" lon="6.04347">
        <ele>355.4928894043</ele>
        <time>2015-01-07T13:13:32Z</time>
      </trkpt>
      <trkpt lat="43.42653" lon="6.04341">
        <ele>355.89483642578</ele>
        <time>2015-01-07T13:13:35Z</time>
      </trkpt>
      <trkpt lat="43.42653" lon="6.04338">
        <ele>356.1559753418</ele>
        <time>2015-01-07T13:13:37Z</time>
      </trkpt>
      <trkpt lat="43.42654" lon="6.0433">
        <ele>356.42459106445</ele>
        <time>2015-01-07T13:13:41Z</time>
      </trkpt>
      <trkpt lat="43.42656" lon="6.04326">
        <ele>356.39443969727</ele>
        <time>2015-01-07T13:13:43Z</time>
      </trkpt>
      <trkpt lat="43.42658" lon="6.04321">
        <ele>356.28173828125</ele>
        <time>2015-01-07T13:13:46Z</time>
      </trkpt>
      <trkpt lat="43.42659" lon="6.04319">
        <ele>356.2392578125</ele>
        <time>2015-01-07T13:13:47Z</time>
      </trkpt>
      <trkpt lat="43.42659" lon="6.04314">
        <ele>356.38861083984</ele>
        <time>2015-01-07T13:13:50Z</time>
      </trkpt>
      <trkpt lat="43.42658" lon="6.0431">
        <ele>356.53405761719</ele>
        <time>2015-01-07T13:13:52Z</time>
      </trkpt>
      <trkpt lat="43.42657" lon="6.04308">
        <ele>356.66864013672</ele>
        <time>2015-01-07T13:13:53Z</time>
      </trkpt>
      <trkpt lat="43.42656" lon="6.04305">
        <ele>356.93887329102</ele>
        <time>2015-01-07T13:13:55Z</time>
      </trkpt>
      <trkpt lat="43.42655" lon="6.04303">
        <ele>357.07968139648</ele>
        <time>2015-01-07T13:13:56Z</time>
      </trkpt>
      <trkpt lat="43.42653" lon="6.04298">
        <ele>357.48718261719</ele>
        <time>2015-01-07T13:13:59Z</time>
      </trkpt>
      <trkpt lat="43.42652" lon="6.04296">
        <ele>357.61505126953</ele>
        <time>2015-01-07T13:14:00Z</time>
      </trkpt>
      <trkpt lat="43.42651" lon="6.04293">
        <ele>357.79364013672</ele>
        <time>2015-01-07T13:14:02Z</time>
      </trkpt>
      <trkpt lat="43.4265" lon="6.04288">
        <ele>358.06475830078</ele>
        <time>2015-01-07T13:14:05Z</time>
      </trkpt>
      <trkpt lat="43.42649" lon="6.04286">
        <ele>358.21499633789</ele>
        <time>2015-01-07T13:14:07Z</time>
      </trkpt>
      <trkpt lat="43.42649" lon="6.04286">
        <ele>358.22052001953</ele>
        <time>2015-01-07T13:14:09Z</time>
      </trkpt>
      <trkpt lat="43.42649" lon="6.04286">
        <ele>358.22329711914</ele>
        <time>2015-01-07T13:14:12Z</time>
      </trkpt>
      <trkpt lat="43.42649" lon="6.04286">
        <ele>358.22467041016</ele>
        <time>2015-01-07T13:14:14Z</time>
      </trkpt>
      <trkpt lat="43.42649" lon="6.04286">
        <ele>358.22467041016</ele>
        <time>2015-01-07T13:14:17Z</time>
      </trkpt>
      <trkpt lat="43.42649" lon="6.04286">
        <ele>358.27243041992</ele>
        <time>2015-01-07T13:14:19Z</time>
      </trkpt>
      <trkpt lat="43.42649" lon="6.04286">
        <ele>358.27105712891</ele>
        <time>2015-01-07T13:14:22Z</time>
      </trkpt>
      <trkpt lat="43.42649" lon="6.04286">
        <ele>358.27105712891</ele>
        <time>2015-01-07T13:14:26Z</time>
      </trkpt>
      <trkpt lat="43.42649" lon="6.04286">
        <ele>358.27105712891</ele>
        <time>2015-01-07T13:14:31Z</time>
      </trkpt>
      <trkpt lat="43.42649" lon="6.04286">
        <ele>358.22604370117</ele>
        <time>2015-01-07T13:14:32Z</time>
      </trkpt>
      <trkpt lat="43.42649" lon="6.04286">
        <ele>358.22467041016</ele>
        <time>2015-01-07T13:14:35Z</time>
      </trkpt>
      <trkpt lat="43.42649" lon="6.04286">
        <ele>358.22467041016</ele>
        <time>2015-01-07T13:14:41Z</time>
      </trkpt>
      <trkpt lat="43.42649" lon="6.04286">
        <ele>358.22467041016</ele>
        <time>2015-01-07T13:15:05Z</time>
      </trkpt>
      <trkpt lat="43.42649" lon="6.04286">
        <ele>358.22467041016</ele>
        <time>2015-01-07T13:15:08Z</time>
      </trkpt>
      <trkpt lat="43.42649" lon="6.04286">
        <ele>358.22467041016</ele>
        <time>2015-01-07T13:15:14Z</time>
      </trkpt>
      <trkpt lat="43.42649" lon="6.04286">
        <ele>358.22741699219</ele>
        <time>2015-01-07T13:15:25Z</time>
      </trkpt>
      <trkpt lat="43.42649" lon="6.04286">
        <ele>358.22741699219</ele>
        <time>2015-01-07T13:15:29Z</time>
      </trkpt>
      <trkpt lat="43.42649" lon="6.04286">
        <ele>358.22741699219</ele>
        <time>2015-01-07T13:15:31Z</time>
      </trkpt>
      <trkpt lat="43.42649" lon="6.04286">
        <ele>358.22741699219</ele>
        <time>2015-01-07T13:15:35Z</time>
      </trkpt>
      <trkpt lat="43.42649" lon="6.04286">
        <ele>358.27383422852</ele>
        <time>2015-01-07T13:15:37Z</time>
      </trkpt>
      <trkpt lat="43.42649" lon="6.04286">
        <ele>358.27383422852</ele>
        <time>2015-01-07T13:15:43Z</time>
      </trkpt>
      <trkpt lat="43.42649" lon="6.04286">
        <ele>358.27520751953</ele>
        <time>2015-01-07T13:16:01Z</time>
      </trkpt>
      <trkpt lat="43.42649" lon="6.04286">
        <ele>358.27520751953</ele>
        <time>2015-01-07T13:16:03Z</time>
      </trkpt>
      <trkpt lat="43.42649" lon="6.04286">
        <ele>358.22882080078</ele>
        <time>2015-01-07T13:16:05Z</time>
      </trkpt>
      <trkpt lat="43.42649" lon="6.04286">
        <ele>358.2301940918</ele>
        <time>2015-01-07T13:16:07Z</time>
      </trkpt>
      <trkpt lat="43.42649" lon="6.04286">
        <ele>358.2301940918</ele>
        <time>2015-01-07T13:16:09Z</time>
      </trkpt>
      <trkpt lat="43.42649" lon="6.04286">
        <ele>358.2301940918</ele>
        <time>2015-01-07T13:16:11Z</time>
      </trkpt>
      <trkpt lat="43.42649" lon="6.04286">
        <ele>358.27520751953</ele>
        <time>2015-01-07T13:16:13Z</time>
      </trkpt>
      <trkpt lat="43.42649" lon="6.04286">
        <ele>358.27383422852</ele>
        <time>2015-01-07T13:16:15Z</time>
      </trkpt>
      <trkpt lat="43.42649" lon="6.04286">
        <ele>358.27383422852</ele>
        <time>2015-01-07T13:16:19Z</time>
      </trkpt>
      <trkpt lat="43.42649" lon="6.04286">
        <ele>358.27798461914</ele>
        <time>2015-01-07T13:16:25Z</time>
      </trkpt>
      <trkpt lat="43.42649" lon="6.04286">
        <ele>358.23294067383</ele>
        <time>2015-01-07T13:16:27Z</time>
      </trkpt>
      <trkpt lat="43.42649" lon="6.04286">
        <ele>358.23294067383</ele>
        <time>2015-01-07T13:16:29Z</time>
      </trkpt>
      <trkpt lat="43.42649" lon="6.04286">
        <ele>358.27935791016</ele>
        <time>2015-01-07T13:16:33Z</time>
      </trkpt>
      <trkpt lat="43.42649" lon="6.04286">
        <ele>358.23571777344</ele>
        <time>2015-01-07T13:16:35Z</time>
      </trkpt>
      <trkpt lat="43.42649" lon="6.04286">
        <ele>358.23571777344</ele>
        <time>2015-01-07T13:16:39Z</time>
      </trkpt>
      <trkpt lat="43.42649" lon="6.04286">
        <ele>358.23986816406</ele>
        <time>2015-01-07T13:16:51Z</time>
      </trkpt>
      <trkpt lat="43.42649" lon="6.04286">
        <ele>358.24261474609</ele>
        <time>2015-01-07T13:16:59Z</time>
      </trkpt>
      <trkpt lat="43.42649" lon="6.04285">
        <ele>358.2453918457</ele>
        <time>2015-01-07T13:17:09Z</time>
      </trkpt>
      <trkpt lat="43.42649" lon="6.04285">
        <ele>358.2453918457</ele>
        <time>2015-01-07T13:17:13Z</time>
      </trkpt>
      <trkpt lat="43.42649" lon="6.04285">
        <ele>358.29183959961</ele>
        <time>2015-01-07T13:17:15Z</time>
      </trkpt>
      <trkpt lat="43.42649" lon="6.04285">
        <ele>358.2453918457</ele>
        <time>2015-01-07T13:17:17Z</time>
      </trkpt>
      <trkpt lat="43.42649" lon="6.04285">
        <ele>358.2453918457</ele>
        <time>2015-01-07T13:17:19Z</time>
      </trkpt>
      <trkpt lat="43.42649" lon="6.04285">
        <ele>358.24398803711</ele>
        <time>2015-01-07T13:17:23Z</time>
      </trkpt>
      <trkpt lat="43.42649" lon="6.04285">
        <ele>358.2453918457</ele>
        <time>2015-01-07T13:17:27Z</time>
      </trkpt>
      <trkpt lat="43.42649" lon="6.04285">
        <ele>358.2453918457</ele>
        <time>2015-01-07T13:17:35Z</time>
      </trkpt>
      <trkpt lat="43.42649" lon="6.04285">
        <ele>358.2453918457</ele>
        <time>2015-01-07T13:17:39Z</time>
      </trkpt>
      <trkpt lat="43.42651" lon="6.04286">
        <ele>358.08142089844</ele>
        <time>2015-01-07T13:17:43Z</time>
      </trkpt>
      <trkpt lat="43.42651" lon="6.04286">
        <ele>357.98733520508</ele>
        <time>2015-01-07T13:17:44Z</time>
      </trkpt>
      <trkpt lat="43.42652" lon="6.04286">
        <ele>357.93692016602</ele>
        <time>2015-01-07T13:17:47Z</time>
      </trkpt>
      <trkpt lat="43.42652" lon="6.04287">
        <ele>357.88787841797</ele>
        <time>2015-01-07T13:17:49Z</time>
      </trkpt>
      <trkpt lat="43.42652" lon="6.04287">
        <ele>357.88787841797</ele>
        <time>2015-01-07T13:17:55Z</time>
      </trkpt>
      <trkpt lat="43.42652" lon="6.04287">
        <ele>357.88787841797</ele>
        <time>2015-01-07T13:18:03Z</time>
      </trkpt>
      <trkpt lat="43.42652" lon="6.04287">
        <ele>357.88653564453</ele>
        <time>2015-01-07T13:18:05Z</time>
      </trkpt>
      <trkpt lat="43.42652" lon="6.04287">
        <ele>357.88653564453</ele>
        <time>2015-01-07T13:18:11Z</time>
      </trkpt>
      <trkpt lat="43.42652" lon="6.04287">
        <ele>357.88787841797</ele>
        <time>2015-01-07T13:18:17Z</time>
      </trkpt>
      <trkpt lat="43.42652" lon="6.04287">
        <ele>357.88519287109</ele>
        <time>2015-01-07T13:18:29Z</time>
      </trkpt>
      <trkpt lat="43.42652" lon="6.04287">
        <ele>357.88653564453</ele>
        <time>2015-01-07T13:18:39Z</time>
      </trkpt>
      <trkpt lat="43.42652" lon="6.04287">
        <ele>357.88787841797</ele>
        <time>2015-01-07T13:18:45Z</time>
      </trkpt>
      <trkpt lat="43.42653" lon="6.04287">
        <ele>357.78189086914</ele>
        <time>2015-01-07T13:18:47Z</time>
      </trkpt>
      <trkpt lat="43.42653" lon="6.04287">
        <ele>357.7805480957</ele>
        <time>2015-01-07T13:18:49Z</time>
      </trkpt>
      <trkpt lat="43.42653" lon="6.04287">
        <ele>357.77920532227</ele>
        <time>2015-01-07T13:18:51Z</time>
      </trkpt>
      <trkpt lat="43.42653" lon="6.04287">
        <ele>357.77920532227</ele>
        <time>2015-01-07T13:18:57Z</time>
      </trkpt>
      <trkpt lat="43.42653" lon="6.04287">
        <ele>357.77789306641</ele>
        <time>2015-01-07T13:19:15Z</time>
      </trkpt>
      <trkpt lat="43.42653" lon="6.04287">
        <ele>357.77789306641</ele>
        <time>2015-01-07T13:19:23Z</time>
      </trkpt>
      <trkpt lat="43.42653" lon="6.04287">
        <ele>357.77655029297</ele>
        <time>2015-01-07T13:19:25Z</time>
      </trkpt>
      <trkpt lat="43.42653" lon="6.04287">
        <ele>357.8161315918</ele>
        <time>2015-01-07T13:19:27Z</time>
      </trkpt>
      <trkpt lat="43.42653" lon="6.04287">
        <ele>357.8161315918</ele>
        <time>2015-01-07T13:19:31Z</time>
      </trkpt>
      <trkpt lat="43.42653" lon="6.04287">
        <ele>357.81744384766</ele>
        <time>2015-01-07T13:19:33Z</time>
      </trkpt>
      <trkpt lat="43.42653" lon="6.04287">
        <ele>357.81744384766</ele>
        <time>2015-01-07T13:19:35Z</time>
      </trkpt>
      <trkpt lat="43.42653" lon="6.04287">
        <ele>357.8161315918</ele>
        <time>2015-01-07T13:19:39Z</time>
      </trkpt>
      <trkpt lat="43.42653" lon="6.04287">
        <ele>357.76989746094</ele>
        <time>2015-01-07T13:19:41Z</time>
      </trkpt>
      <trkpt lat="43.42653" lon="6.04287">
        <ele>357.8161315918</ele>
        <time>2015-01-07T13:19:43Z</time>
      </trkpt>
      <trkpt lat="43.42653" lon="6.04287">
        <ele>357.8161315918</ele>
        <time>2015-01-07T13:19:47Z</time>
      </trkpt>
      <trkpt lat="43.42653" lon="6.04287">
        <ele>357.8161315918</ele>
        <time>2015-01-07T13:19:49Z</time>
      </trkpt>
      <trkpt lat="43.42653" lon="6.04287">
        <ele>357.76989746094</ele>
        <time>2015-01-07T13:19:51Z</time>
      </trkpt>
      <trkpt lat="43.42653" lon="6.04287">
        <ele>357.76989746094</ele>
        <time>2015-01-07T13:19:55Z</time>
      </trkpt>
      <trkpt lat="43.42653" lon="6.04287">
        <ele>357.8161315918</ele>
        <time>2015-01-07T13:19:57Z</time>
      </trkpt>
      <trkpt lat="43.42652" lon="6.04287">
        <ele>357.87176513672</ele>
        <time>2015-01-07T13:19:59Z</time>
      </trkpt>
      <trkpt lat="43.42652" lon="6.04286">
        <ele>357.94906616211</ele>
        <time>2015-01-07T13:20:01Z</time>
      </trkpt>
      <trkpt lat="43.42652" lon="6.04286">
        <ele>357.90536499023</ele>
        <time>2015-01-07T13:20:02Z</time>
      </trkpt>
      <trkpt lat="43.42652" lon="6.04286">
        <ele>357.90670776367</ele>
        <time>2015-01-07T13:20:03Z</time>
      </trkpt>
      <trkpt lat="43.42652" lon="6.04286">
        <ele>357.91610717773</ele>
        <time>2015-01-07T13:20:05Z</time>
      </trkpt>
      <trkpt lat="43.42652" lon="6.04285">
        <ele>357.91879272461</ele>
        <time>2015-01-07T13:20:11Z</time>
      </trkpt>
      <trkpt lat="43.42652" lon="6.04285">
        <ele>357.9228515625</ele>
        <time>2015-01-07T13:20:25Z</time>
      </trkpt>
      <trkpt lat="43.42652" lon="6.04285">
        <ele>357.92419433594</ele>
        <time>2015-01-07T13:20:33Z</time>
      </trkpt>
      <trkpt lat="43.42652" lon="6.04285">
        <ele>357.92687988281</ele>
        <time>2015-01-07T13:20:35Z</time>
      </trkpt>
      <trkpt lat="43.42652" lon="6.04285">
        <ele>357.92687988281</ele>
        <time>2015-01-07T13:20:41Z</time>
      </trkpt>
      <trkpt lat="43.42652" lon="6.04285">
        <ele>357.92822265625</ele>
        <time>2015-01-07T13:20:55Z</time>
      </trkpt>
      <trkpt lat="43.42652" lon="6.04285">
        <ele>357.93225097656</ele>
        <time>2015-01-07T13:20:57Z</time>
      </trkpt>
      <trkpt lat="43.42652" lon="6.04285">
        <ele>357.93225097656</ele>
        <time>2015-01-07T13:21:01Z</time>
      </trkpt>
      <trkpt lat="43.42652" lon="6.04285">
        <ele>357.93225097656</ele>
        <time>2015-01-07T13:21:09Z</time>
      </trkpt>
      <trkpt lat="43.42652" lon="6.04285">
        <ele>357.93225097656</ele>
        <time>2015-01-07T13:21:13Z</time>
      </trkpt>
      <trkpt lat="43.42652" lon="6.04285">
        <ele>357.93225097656</ele>
        <time>2015-01-07T13:21:23Z</time>
      </trkpt>
      <trkpt lat="43.42652" lon="6.04285">
        <ele>357.93225097656</ele>
        <time>2015-01-07T13:21:25Z</time>
      </trkpt>
      <trkpt lat="43.42652" lon="6.04285">
        <ele>357.92956542969</ele>
        <time>2015-01-07T13:21:27Z</time>
      </trkpt>
      <trkpt lat="43.42652" lon="6.04285">
        <ele>357.92956542969</ele>
        <time>2015-01-07T13:21:33Z</time>
      </trkpt>
      <trkpt lat="43.42652" lon="6.04285">
        <ele>357.92553710938</ele>
        <time>2015-01-07T13:22:09Z</time>
      </trkpt>
      <trkpt lat="43.42652" lon="6.04285">
        <ele>357.92553710938</ele>
        <time>2015-01-07T13:22:13Z</time>
      </trkpt>
      <trkpt lat="43.42652" lon="6.04285">
        <ele>357.98550415039</ele>
        <time>2015-01-07T13:22:15Z</time>
      </trkpt>
      <trkpt lat="43.42651" lon="6.04284">
        <ele>358.09487915039</ele>
        <time>2015-01-07T13:22:17Z</time>
      </trkpt>
      <trkpt lat="43.42651" lon="6.04284">
        <ele>358.09625244141</ele>
        <time>2015-01-07T13:22:19Z</time>
      </trkpt>
      <trkpt lat="43.42651" lon="6.04284">
        <ele>358.09759521484</ele>
        <time>2015-01-07T13:22:21Z</time>
      </trkpt>
      <trkpt lat="43.42651" lon="6.04284">
        <ele>358.09759521484</ele>
        <time>2015-01-07T13:22:27Z</time>
      </trkpt>
      <trkpt lat="43.42651" lon="6.04284">
        <ele>358.09625244141</ele>
        <time>2015-01-07T13:22:50Z</time>
      </trkpt>
      <trkpt lat="43.42651" lon="6.04284">
        <ele>358.09759521484</ele>
        <time>2015-01-07T13:22:51Z</time>
      </trkpt>
      <trkpt lat="43.42651" lon="6.04284">
        <ele>358.09759521484</ele>
        <time>2015-01-07T13:22:57Z</time>
      </trkpt>
      <trkpt lat="43.42651" lon="6.04284">
        <ele>358.09487915039</ele>
        <time>2015-01-07T13:23:23Z</time>
      </trkpt>
      <trkpt lat="43.42651" lon="6.04284">
        <ele>358.09353637695</ele>
        <time>2015-01-07T13:23:37Z</time>
      </trkpt>
      <trkpt lat="43.42651" lon="6.04284">
        <ele>358.09353637695</ele>
        <time>2015-01-07T13:23:39Z</time>
      </trkpt>
      <trkpt lat="43.42651" lon="6.04284">
        <ele>358.08673095703</ele>
        <time>2015-01-07T13:23:41Z</time>
      </trkpt>
      <trkpt lat="43.42651" lon="6.04285">
        <ele>358.06497192383</ele>
        <time>2015-01-07T13:23:42Z</time>
      </trkpt>
      <trkpt lat="43.42651" lon="6.04285">
        <ele>358.06225585938</ele>
        <time>2015-01-07T13:23:43Z</time>
      </trkpt>
      <trkpt lat="43.42651" lon="6.04286">
        <ele>358.05682373047</ele>
        <time>2015-01-07T13:23:47Z</time>
      </trkpt>
      <trkpt lat="43.42651" lon="6.04286">
        <ele>358.10189819336</ele>
        <time>2015-01-07T13:23:49Z</time>
      </trkpt>
      <trkpt lat="43.42651" lon="6.04286">
        <ele>358.10189819336</ele>
        <time>2015-01-07T13:23:51Z</time>
      </trkpt>
      <trkpt lat="43.42651" lon="6.04286">
        <ele>358.10052490234</ele>
        <time>2015-01-07T13:23:55Z</time>
      </trkpt>
      <trkpt lat="43.42651" lon="6.04286">
        <ele>358.09918212891</ele>
        <time>2015-01-07T13:23:59Z</time>
      </trkpt>
      <trkpt lat="43.42651" lon="6.04286">
        <ele>358.09918212891</ele>
        <time>2015-01-07T13:24:03Z</time>
      </trkpt>
      <trkpt lat="43.42651" lon="6.04286">
        <ele>358.10052490234</ele>
        <time>2015-01-07T13:24:09Z</time>
      </trkpt>
      <trkpt lat="43.42651" lon="6.04285">
        <ele>358.10464477539</ele>
        <time>2015-01-07T13:24:11Z</time>
      </trkpt>
      <trkpt lat="43.42651" lon="6.04285">
        <ele>358.10598754883</ele>
        <time>2015-01-07T13:24:15Z</time>
      </trkpt>
      <trkpt lat="43.42651" lon="6.04285">
        <ele>358.10736083984</ele>
        <time>2015-01-07T13:24:19Z</time>
      </trkpt>
      <trkpt lat="43.42651" lon="6.04285">
        <ele>358.12100219727</ele>
        <time>2015-01-07T13:24:21Z</time>
      </trkpt>
      <trkpt lat="43.4265" lon="6.04282">
        <ele>358.24838256836</ele>
        <time>2015-01-07T13:24:23Z</time>
      </trkpt>
      <trkpt lat="43.4265" lon="6.04279">
        <ele>358.35113525391</ele>
        <time>2015-01-07T13:24:25Z</time>
      </trkpt>
      <trkpt lat="43.4265" lon="6.04274">
        <ele>358.5207824707</ele>
        <time>2015-01-07T13:24:27Z</time>
      </trkpt>
      <trkpt lat="43.42649" lon="6.04269">
        <ele>358.76583862305</ele>
        <time>2015-01-07T13:24:29Z</time>
      </trkpt>
      <trkpt lat="43.42647" lon="6.04264">
        <ele>359.15255737305</ele>
        <time>2015-01-07T13:24:31Z</time>
      </trkpt>
      <trkpt lat="43.42644" lon="6.04257">
        <ele>359.81057739258</ele>
        <time>2015-01-07T13:24:34Z</time>
      </trkpt>
      <trkpt lat="43.42644" lon="6.04254">
        <ele>359.90835571289</ele>
        <time>2015-01-07T13:24:35Z</time>
      </trkpt>
      <trkpt lat="43.42643" lon="6.04247">
        <ele>360.31500244141</ele>
        <time>2015-01-07T13:24:37Z</time>
      </trkpt>
      <trkpt lat="43.42642" lon="6.04244">
        <ele>360.53256225586</ele>
        <time>2015-01-07T13:24:38Z</time>
      </trkpt>
      <trkpt lat="43.42642" lon="6.04241">
        <ele>360.75048828125</ele>
        <time>2015-01-07T13:24:39Z</time>
      </trkpt>
      <trkpt lat="43.42641" lon="6.04235">
        <ele>361.16027832031</ele>
        <time>2015-01-07T13:24:41Z</time>
      </trkpt>
      <trkpt lat="43.4264" lon="6.04229">
        <ele>361.66696166992</ele>
        <time>2015-01-07T13:24:43Z</time>
      </trkpt>
      <trkpt lat="43.42639" lon="6.04224">
        <ele>362.04281616211</ele>
        <time>2015-01-07T13:24:45Z</time>
      </trkpt>
      <trkpt lat="43.42638" lon="6.04221">
        <ele>362.21624755859</ele>
        <time>2015-01-07T13:24:46Z</time>
      </trkpt>
      <trkpt lat="43.42638" lon="6.04219">
        <ele>362.34039306641</ele>
        <time>2015-01-07T13:24:47Z</time>
      </trkpt>
      <trkpt lat="43.42638" lon="6.04214">
        <ele>362.720703125</ele>
        <time>2015-01-07T13:24:49Z</time>
      </trkpt>
      <trkpt lat="43.42637" lon="6.04208">
        <ele>363.06942749023</ele>
        <time>2015-01-07T13:24:51Z</time>
      </trkpt>
      <trkpt lat="43.42637" lon="6.04205">
        <ele>363.26672363281</ele>
        <time>2015-01-07T13:24:52Z</time>
      </trkpt>
      <trkpt lat="43.42637" lon="6.04203">
        <ele>363.41131591797</ele>
        <time>2015-01-07T13:24:53Z</time>
      </trkpt>
      <trkpt lat="43.42638" lon="6.04192">
        <ele>363.72589111328</ele>
        <time>2015-01-07T13:24:57Z</time>
      </trkpt>
      <trkpt lat="43.42639" lon="6.0419">
        <ele>363.72540283203</ele>
        <time>2015-01-07T13:24:58Z</time>
      </trkpt>
      <trkpt lat="43.42643" lon="6.04185">
        <ele>363.53234863281</ele>
        <time>2015-01-07T13:25:01Z</time>
      </trkpt>
      <trkpt lat="43.42647" lon="6.04177">
        <ele>363.2848815918</ele>
        <time>2015-01-07T13:25:05Z</time>
      </trkpt>
      <trkpt lat="43.42649" lon="6.04173">
        <ele>363.15606689453</ele>
        <time>2015-01-07T13:25:07Z</time>
      </trkpt>
      <trkpt lat="43.42653" lon="6.04165">
        <ele>363.04415893555</ele>
        <time>2015-01-07T13:25:11Z</time>
      </trkpt>
      <trkpt lat="43.42656" lon="6.0416">
        <ele>363.18341064453</ele>
        <time>2015-01-07T13:25:14Z</time>
      </trkpt>
      <trkpt lat="43.42658" lon="6.04154">
        <ele>363.41607666016</ele>
        <time>2015-01-07T13:25:17Z</time>
      </trkpt>
      <trkpt lat="43.4266" lon="6.0415">
        <ele>363.60095214844</ele>
        <time>2015-01-07T13:25:19Z</time>
      </trkpt>
      <trkpt lat="43.42661" lon="6.04145">
        <ele>363.85116577148</ele>
        <time>2015-01-07T13:25:21Z</time>
      </trkpt>
      <trkpt lat="43.42662" lon="6.04141">
        <ele>364.13583374023</ele>
        <time>2015-01-07T13:25:23Z</time>
      </trkpt>
      <trkpt lat="43.42664" lon="6.04136">
        <ele>364.34027099609</ele>
        <time>2015-01-07T13:25:25Z</time>
      </trkpt>
      <trkpt lat="43.42665" lon="6.04132">
        <ele>364.48828125</ele>
        <time>2015-01-07T13:25:27Z</time>
      </trkpt>
      <trkpt lat="43.42667" lon="6.04131">
        <ele>364.45849609375</ele>
        <time>2015-01-07T13:25:28Z</time>
      </trkpt>
      <trkpt lat="43.42673" lon="6.04125">
        <ele>365.17419433594</ele>
        <time>2015-01-07T13:25:33Z</time>
      </trkpt>
      <trkpt lat="43.42675" lon="6.04124">
        <ele>365.37640380859</ele>
        <time>2015-01-07T13:25:35Z</time>
      </trkpt>
      <trkpt lat="43.42678" lon="6.04122">
        <ele>365.5553894043</ele>
        <time>2015-01-07T13:25:37Z</time>
      </trkpt>
      <trkpt lat="43.42679" lon="6.04122">
        <ele>365.6130065918</ele>
        <time>2015-01-07T13:25:38Z</time>
      </trkpt>
      <trkpt lat="43.4268" lon="6.04122">
        <ele>365.65972900391</ele>
        <time>2015-01-07T13:25:39Z</time>
      </trkpt>
      <trkpt lat="43.42686" lon="6.04119">
        <ele>366.0107421875</ele>
        <time>2015-01-07T13:25:43Z</time>
      </trkpt>
      <trkpt lat="43.42688" lon="6.04119">
        <ele>366.09786987305</ele>
        <time>2015-01-07T13:25:44Z</time>
      </trkpt>
      <trkpt lat="43.42691" lon="6.04116">
        <ele>366.40399169922</ele>
        <time>2015-01-07T13:25:47Z</time>
      </trkpt>
      <trkpt lat="43.42693" lon="6.04113">
        <ele>366.62869262695</ele>
        <time>2015-01-07T13:25:49Z</time>
      </trkpt>
      <trkpt lat="43.42694" lon="6.0411">
        <ele>366.88275146484</ele>
        <time>2015-01-07T13:25:51Z</time>
      </trkpt>
      <trkpt lat="43.42695" lon="6.04108">
        <ele>367.00430297852</ele>
        <time>2015-01-07T13:25:52Z</time>
      </trkpt>
      <trkpt lat="43.42695" lon="6.04106">
        <ele>367.15335083008</ele>
        <time>2015-01-07T13:25:53Z</time>
      </trkpt>
      <trkpt lat="43.42696" lon="6.04101">
        <ele>367.49084472656</ele>
        <time>2015-01-07T13:25:55Z</time>
      </trkpt>
      <trkpt lat="43.42696" lon="6.04094">
        <ele>367.95016479492</ele>
        <time>2015-01-07T13:25:57Z</time>
      </trkpt>
      <trkpt lat="43.42696" lon="6.0409">
        <ele>368.23428344727</ele>
        <time>2015-01-07T13:25:58Z</time>
      </trkpt>
      <trkpt lat="43.42695" lon="6.04085">
        <ele>368.54800415039</ele>
        <time>2015-01-07T13:25:59Z</time>
      </trkpt>
      <trkpt lat="43.42694" lon="6.04077">
        <ele>369.37322998047</ele>
        <time>2015-01-07T13:26:01Z</time>
      </trkpt>
      <trkpt lat="43.42694" lon="6.0407">
        <ele>370.08264160156</ele>
        <time>2015-01-07T13:26:03Z</time>
      </trkpt>
      <trkpt lat="43.42694" lon="6.04067">
        <ele>370.35543823242</ele>
        <time>2015-01-07T13:26:04Z</time>
      </trkpt>
      <trkpt lat="43.42695" lon="6.04064">
        <ele>370.62414550781</ele>
        <time>2015-01-07T13:26:05Z</time>
      </trkpt>
      <trkpt lat="43.42697" lon="6.04059">
        <ele>371.14370727539</ele>
        <time>2015-01-07T13:26:07Z</time>
      </trkpt>
      <trkpt lat="43.42698" lon="6.04053">
        <ele>371.63177490234</ele>
        <time>2015-01-07T13:26:09Z</time>
      </trkpt>
      <trkpt lat="43.427" lon="6.04048">
        <ele>372.06146240234</ele>
        <time>2015-01-07T13:26:11Z</time>
      </trkpt>
      <trkpt lat="43.42703" lon="6.04039">
        <ele>372.78726196289</ele>
        <time>2015-01-07T13:26:15Z</time>
      </trkpt>
      <trkpt lat="43.42705" lon="6.04034">
        <ele>373.1201171875</ele>
        <time>2015-01-07T13:26:17Z</time>
      </trkpt>
      <trkpt lat="43.42707" lon="6.04031">
        <ele>373.33236694336</ele>
        <time>2015-01-07T13:26:19Z</time>
      </trkpt>
      <trkpt lat="43.42712" lon="6.04024">
        <ele>373.55627441406</ele>
        <time>2015-01-07T13:26:23Z</time>
      </trkpt>
      <trkpt lat="43.42715" lon="6.04021">
        <ele>373.60028076172</ele>
        <time>2015-01-07T13:26:25Z</time>
      </trkpt>
      <trkpt lat="43.42717" lon="6.04018">
        <ele>373.72702026367</ele>
        <time>2015-01-07T13:26:27Z</time>
      </trkpt>
      <trkpt lat="43.42719" lon="6.04015">
        <ele>373.82211303711</ele>
        <time>2015-01-07T13:26:29Z</time>
      </trkpt>
      <trkpt lat="43.4272" lon="6.04011">
        <ele>373.99716186523</ele>
        <time>2015-01-07T13:26:31Z</time>
      </trkpt>
      <trkpt lat="43.42722" lon="6.04003">
        <ele>374.44677734375</ele>
        <time>2015-01-07T13:26:35Z</time>
      </trkpt>
      <trkpt lat="43.42723" lon="6.04002">
        <ele>374.48046875</ele>
        <time>2015-01-07T13:26:36Z</time>
      </trkpt>
      <trkpt lat="43.42723" lon="6.04">
        <ele>374.64495849609</ele>
        <time>2015-01-07T13:26:37Z</time>
      </trkpt>
      <trkpt lat="43.42724" lon="6.03995">
        <ele>374.95166015625</ele>
        <time>2015-01-07T13:26:39Z</time>
      </trkpt>
      <trkpt lat="43.42725" lon="6.03989">
        <ele>375.35906982422</ele>
        <time>2015-01-07T13:26:41Z</time>
      </trkpt>
      <trkpt lat="43.42727" lon="6.03985">
        <ele>375.5124206543</ele>
        <time>2015-01-07T13:26:43Z</time>
      </trkpt>
      <trkpt lat="43.42728" lon="6.0398">
        <ele>375.79852294922</ele>
        <time>2015-01-07T13:26:45Z</time>
      </trkpt>
      <trkpt lat="43.42729" lon="6.03975">
        <ele>376.11724853516</ele>
        <time>2015-01-07T13:26:47Z</time>
      </trkpt>
      <trkpt lat="43.4273" lon="6.03969">
        <ele>376.50863647461</ele>
        <time>2015-01-07T13:26:49Z</time>
      </trkpt>
      <trkpt lat="43.4273" lon="6.03964">
        <ele>376.98928833008</ele>
        <time>2015-01-07T13:26:51Z</time>
      </trkpt>
      <trkpt lat="43.42729" lon="6.03958">
        <ele>377.53973388672</ele>
        <time>2015-01-07T13:26:53Z</time>
      </trkpt>
      <trkpt lat="43.42728" lon="6.03957">
        <ele>377.78579711914</ele>
        <time>2015-01-07T13:26:54Z</time>
      </trkpt>
      <trkpt lat="43.42727" lon="6.03955">
        <ele>377.99978637695</ele>
        <time>2015-01-07T13:26:55Z</time>
      </trkpt>
      <trkpt lat="43.42725" lon="6.03955">
        <ele>378.15829467773</ele>
        <time>2015-01-07T13:26:56Z</time>
      </trkpt>
      <trkpt lat="43.42723" lon="6.03956">
        <ele>378.30133056641</ele>
        <time>2015-01-07T13:26:57Z</time>
      </trkpt>
      <trkpt lat="43.42719" lon="6.03957">
        <ele>378.59545898438</ele>
        <time>2015-01-07T13:26:59Z</time>
      </trkpt>
      <trkpt lat="43.42712" lon="6.03957">
        <ele>379.23059082031</ele>
        <time>2015-01-07T13:27:03Z</time>
      </trkpt>
      <trkpt lat="43.42709" lon="6.03956">
        <ele>379.66033935547</ele>
        <time>2015-01-07T13:27:05Z</time>
      </trkpt>
      <trkpt lat="43.42706" lon="6.03953">
        <ele>380.20162963867</ele>
        <time>2015-01-07T13:27:07Z</time>
      </trkpt>
      <trkpt lat="43.42705" lon="6.03951">
        <ele>380.42364501953</ele>
        <time>2015-01-07T13:27:08Z</time>
      </trkpt>
      <trkpt lat="43.42703" lon="6.0395">
        <ele>380.69030761719</ele>
        <time>2015-01-07T13:27:09Z</time>
      </trkpt>
      <trkpt lat="43.42701" lon="6.03947">
        <ele>381.16235351562</ele>
        <time>2015-01-07T13:27:11Z</time>
      </trkpt>
      <trkpt lat="43.42698" lon="6.03944">
        <ele>381.68307495117</ele>
        <time>2015-01-07T13:27:13Z</time>
      </trkpt>
      <trkpt lat="43.42695" lon="6.03938">
        <ele>382.47329711914</ele>
        <time>2015-01-07T13:27:17Z</time>
      </trkpt>
      <trkpt lat="43.42693" lon="6.03936">
        <ele>382.8932800293</ele>
        <time>2015-01-07T13:27:19Z</time>
      </trkpt>
      <trkpt lat="43.42693" lon="6.03933">
        <ele>383.14105224609</ele>
        <time>2015-01-07T13:27:21Z</time>
      </trkpt>
      <trkpt lat="43.42693" lon="6.0393">
        <ele>383.35278320312</ele>
        <time>2015-01-07T13:27:23Z</time>
      </trkpt>
      <trkpt lat="43.42694" lon="6.03927">
        <ele>383.50384521484</ele>
        <time>2015-01-07T13:27:25Z</time>
      </trkpt>
      <trkpt lat="43.42694" lon="6.03926">
        <ele>383.58392333984</ele>
        <time>2015-01-07T13:27:26Z</time>
      </trkpt>
      <trkpt lat="43.42694" lon="6.03925">
        <ele>383.720703125</ele>
        <time>2015-01-07T13:27:27Z</time>
      </trkpt>
      <trkpt lat="43.42694" lon="6.03921">
        <ele>384.00393676758</ele>
        <time>2015-01-07T13:27:29Z</time>
      </trkpt>
      <trkpt lat="43.42694" lon="6.03918">
        <ele>384.216796875</ele>
        <time>2015-01-07T13:27:30Z</time>
      </trkpt>
      <trkpt lat="43.42694" lon="6.03917">
        <ele>384.38958740234</ele>
        <time>2015-01-07T13:27:31Z</time>
      </trkpt>
      <trkpt lat="43.42693" lon="6.03914">
        <ele>384.6750793457</ele>
        <time>2015-01-07T13:27:33Z</time>
      </trkpt>
      <trkpt lat="43.42692" lon="6.03912">
        <ele>384.86004638672</ele>
        <time>2015-01-07T13:27:34Z</time>
      </trkpt>
      <trkpt lat="43.42691" lon="6.03911">
        <ele>385.05511474609</ele>
        <time>2015-01-07T13:27:35Z</time>
      </trkpt>
      <trkpt lat="43.42688" lon="6.03907">
        <ele>385.51986694336</ele>
        <time>2015-01-07T13:27:37Z</time>
      </trkpt>
      <trkpt lat="43.42688" lon="6.03906">
        <ele>385.7209777832</ele>
        <time>2015-01-07T13:27:38Z</time>
      </trkpt>
      <trkpt lat="43.42688" lon="6.03904">
        <ele>385.81533813477</ele>
        <time>2015-01-07T13:27:39Z</time>
      </trkpt>
      <trkpt lat="43.42688" lon="6.03903">
        <ele>385.87194824219</ele>
        <time>2015-01-07T13:27:40Z</time>
      </trkpt>
      <trkpt lat="43.42688" lon="6.03903">
        <ele>385.859375</ele>
        <time>2015-01-07T13:27:41Z</time>
      </trkpt>
      <trkpt lat="43.42688" lon="6.03903">
        <ele>385.91912841797</ele>
        <time>2015-01-07T13:27:43Z</time>
      </trkpt>
      <trkpt lat="43.42687" lon="6.03902">
        <ele>386.00457763672</ele>
        <time>2015-01-07T13:27:45Z</time>
      </trkpt>
      <trkpt lat="43.42687" lon="6.03902">
        <ele>386.00143432617</ele>
        <time>2015-01-07T13:27:46Z</time>
      </trkpt>
      <trkpt lat="43.42687" lon="6.03902">
        <ele>386.01718139648</ele>
        <time>2015-01-07T13:27:47Z</time>
      </trkpt>
      <trkpt lat="43.42688" lon="6.03901">
        <ele>386.04180908203</ele>
        <time>2015-01-07T13:27:49Z</time>
      </trkpt>
      <trkpt lat="43.42687" lon="6.039">
        <ele>386.12747192383</ele>
        <time>2015-01-07T13:27:53Z</time>
      </trkpt>
      <trkpt lat="43.42687" lon="6.03899">
        <ele>386.17156982422</ele>
        <time>2015-01-07T13:27:55Z</time>
      </trkpt>
      <trkpt lat="43.42688" lon="6.03896">
        <ele>386.3532409668</ele>
        <time>2015-01-07T13:27:57Z</time>
      </trkpt>
      <trkpt lat="43.42688" lon="6.03892">
        <ele>386.60488891602</ele>
        <time>2015-01-07T13:27:59Z</time>
      </trkpt>
      <trkpt lat="43.42688" lon="6.03888">
        <ele>386.78335571289</ele>
        <time>2015-01-07T13:28:01Z</time>
      </trkpt>
      <trkpt lat="43.4269" lon="6.0388">
        <ele>387.19757080078</ele>
        <time>2015-01-07T13:28:05Z</time>
      </trkpt>
      <trkpt lat="43.42689" lon="6.03878">
        <ele>387.38192749023</ele>
        <time>2015-01-07T13:28:06Z</time>
      </trkpt>
      <trkpt lat="43.4269" lon="6.03876">
        <ele>387.4814453125</ele>
        <time>2015-01-07T13:28:07Z</time>
      </trkpt>
      <trkpt lat="43.42689" lon="6.03871">
        <ele>387.80377197266</ele>
        <time>2015-01-07T13:28:09Z</time>
      </trkpt>
      <trkpt lat="43.4269" lon="6.03868">
        <ele>387.99304199219</ele>
        <time>2015-01-07T13:28:11Z</time>
      </trkpt>
      <trkpt lat="43.4269" lon="6.03864">
        <ele>388.19085693359</ele>
        <time>2015-01-07T13:28:13Z</time>
      </trkpt>
      <trkpt lat="43.4269" lon="6.03862">
        <ele>388.37359619141</ele>
        <time>2015-01-07T13:28:14Z</time>
      </trkpt>
      <trkpt lat="43.42688" lon="6.03856">
        <ele>388.88705444336</ele>
        <time>2015-01-07T13:28:17Z</time>
      </trkpt>
      <trkpt lat="43.42687" lon="6.03852">
        <ele>389.29727172852</ele>
        <time>2015-01-07T13:28:19Z</time>
      </trkpt>
      <trkpt lat="43.42686" lon="6.03848">
        <ele>389.63760375977</ele>
        <time>2015-01-07T13:28:21Z</time>
      </trkpt>
      <trkpt lat="43.42688" lon="6.03845">
        <ele>389.73797607422</ele>
        <time>2015-01-07T13:28:23Z</time>
      </trkpt>
      <trkpt lat="43.42688" lon="6.03843">
        <ele>389.83547973633</ele>
        <time>2015-01-07T13:28:24Z</time>
      </trkpt>
      <trkpt lat="43.42686" lon="6.03842">
        <ele>390.0517578125</ele>
        <time>2015-01-07T13:28:25Z</time>
      </trkpt>
      <trkpt lat="43.42686" lon="6.03839">
        <ele>390.29290771484</ele>
        <time>2015-01-07T13:28:27Z</time>
      </trkpt>
      <trkpt lat="43.42686" lon="6.03837">
        <ele>390.44906616211</ele>
        <time>2015-01-07T13:28:28Z</time>
      </trkpt>
      <trkpt lat="43.42686" lon="6.03836">
        <ele>390.53155517578</ele>
        <time>2015-01-07T13:28:29Z</time>
      </trkpt>
      <trkpt lat="43.42686" lon="6.03835">
        <ele>390.58108520508</ele>
        <time>2015-01-07T13:28:30Z</time>
      </trkpt>
      <trkpt lat="43.42686" lon="6.03831">
        <ele>390.78918457031</ele>
        <time>2015-01-07T13:28:32Z</time>
      </trkpt>
      <trkpt lat="43.42686" lon="6.03829">
        <ele>390.9391784668</ele>
        <time>2015-01-07T13:28:33Z</time>
      </trkpt>
      <trkpt lat="43.42685" lon="6.03828">
        <ele>391.07919311523</ele>
        <time>2015-01-07T13:28:34Z</time>
      </trkpt>
      <trkpt lat="43.42685" lon="6.03826">
        <ele>391.27139282227</ele>
        <time>2015-01-07T13:28:35Z</time>
      </trkpt>
      <trkpt lat="43.42684" lon="6.03823">
        <ele>391.51165771484</ele>
        <time>2015-01-07T13:28:37Z</time>
      </trkpt>
      <trkpt lat="43.42683" lon="6.03822">
        <ele>391.67929077148</ele>
        <time>2015-01-07T13:28:38Z</time>
      </trkpt>
      <trkpt lat="43.42682" lon="6.03821">
        <ele>391.83163452148</ele>
        <time>2015-01-07T13:28:39Z</time>
      </trkpt>
      <trkpt lat="43.4268" lon="6.03818">
        <ele>392.21984863281</ele>
        <time>2015-01-07T13:28:41Z</time>
      </trkpt>
      <trkpt lat="43.4268" lon="6.03817">
        <ele>392.24658203125</ele>
        <time>2015-01-07T13:28:43Z</time>
      </trkpt>
      <trkpt lat="43.4268" lon="6.03817">
        <ele>392.2546081543</ele>
        <time>2015-01-07T13:28:44Z</time>
      </trkpt>
      <trkpt lat="43.4268" lon="6.03817">
        <ele>392.25994873047</ele>
        <time>2015-01-07T13:28:45Z</time>
      </trkpt>
      <trkpt lat="43.4268" lon="6.03817">
        <ele>392.26528930664</ele>
        <time>2015-01-07T13:28:46Z</time>
      </trkpt>
      <trkpt lat="43.4268" lon="6.03817">
        <ele>392.27062988281</ele>
        <time>2015-01-07T13:28:49Z</time>
      </trkpt>
      <trkpt lat="43.4268" lon="6.03817">
        <ele>392.27865600586</ele>
        <time>2015-01-07T13:28:51Z</time>
      </trkpt>
      <trkpt lat="43.42681" lon="6.03817">
        <ele>392.23907470703</ele>
        <time>2015-01-07T13:28:53Z</time>
      </trkpt>
      <trkpt lat="43.4268" lon="6.03816">
        <ele>392.31607055664</ele>
        <time>2015-01-07T13:28:54Z</time>
      </trkpt>
      <trkpt lat="43.4268" lon="6.03816">
        <ele>392.38784790039</ele>
        <time>2015-01-07T13:28:55Z</time>
      </trkpt>
      <trkpt lat="43.42679" lon="6.03815">
        <ele>392.50744628906</ele>
        <time>2015-01-07T13:28:57Z</time>
      </trkpt>
      <trkpt lat="43.42679" lon="6.03815">
        <ele>392.51550292969</ele>
        <time>2015-01-07T13:28:59Z</time>
      </trkpt>
      <trkpt lat="43.42678" lon="6.03815">
        <ele>392.69396972656</ele>
        <time>2015-01-07T13:29:01Z</time>
      </trkpt>
      <trkpt lat="43.42677" lon="6.03814">
        <ele>392.84393310547</ele>
        <time>2015-01-07T13:29:03Z</time>
      </trkpt>
      <trkpt lat="43.42677" lon="6.03813">
        <ele>392.91635131836</ele>
        <time>2015-01-07T13:29:04Z</time>
      </trkpt>
      <trkpt lat="43.42677" lon="6.03813">
        <ele>392.99703979492</ele>
        <time>2015-01-07T13:29:05Z</time>
      </trkpt>
      <trkpt lat="43.42677" lon="6.03812">
        <ele>393.01065063477</ele>
        <time>2015-01-07T13:29:07Z</time>
      </trkpt>
      <trkpt lat="43.42677" lon="6.03813">
        <ele>393.00250244141</ele>
        <time>2015-01-07T13:29:09Z</time>
      </trkpt>
      <trkpt lat="43.42676" lon="6.03813">
        <ele>393.05328369141</ele>
        <time>2015-01-07T13:29:11Z</time>
      </trkpt>
      <trkpt lat="43.42676" lon="6.03813">
        <ele>393.05328369141</ele>
        <time>2015-01-07T13:29:13Z</time>
      </trkpt>
      <trkpt lat="43.42676" lon="6.03813">
        <ele>393.05053710938</ele>
        <time>2015-01-07T13:29:15Z</time>
      </trkpt>
      <trkpt lat="43.42676" lon="6.03813">
        <ele>393.04782104492</ele>
        <time>2015-01-07T13:29:25Z</time>
      </trkpt>
      <trkpt lat="43.42676" lon="6.03813">
        <ele>393.04782104492</ele>
        <time>2015-01-07T13:29:30Z</time>
      </trkpt>
      <trkpt lat="43.42676" lon="6.03813">
        <ele>393.04782104492</ele>
        <time>2015-01-07T13:29:33Z</time>
      </trkpt>
      <trkpt lat="43.42676" lon="6.03812">
        <ele>393.05599975586</ele>
        <time>2015-01-07T13:29:35Z</time>
      </trkpt>
      <trkpt lat="43.42676" lon="6.03812">
        <ele>393.05874633789</ele>
        <time>2015-01-07T13:29:37Z</time>
      </trkpt>
      <trkpt lat="43.42676" lon="6.03811">
        <ele>393.14611816406</ele>
        <time>2015-01-07T13:29:38Z</time>
      </trkpt>
      <trkpt lat="43.42677" lon="6.03808">
        <ele>393.26684570312</ele>
        <time>2015-01-07T13:29:40Z</time>
      </trkpt>
      <trkpt lat="43.42678" lon="6.03806">
        <ele>393.20513916016</ele>
        <time>2015-01-07T13:29:41Z</time>
      </trkpt>
      <trkpt lat="43.42678" lon="6.03802">
        <ele>393.33712768555</ele>
        <time>2015-01-07T13:29:43Z</time>
      </trkpt>
      <trkpt lat="43.42678" lon="6.03799">
        <ele>393.59994506836</ele>
        <time>2015-01-07T13:29:45Z</time>
      </trkpt>
      <trkpt lat="43.42678" lon="6.03797">
        <ele>393.6286315918</ele>
        <time>2015-01-07T13:29:46Z</time>
      </trkpt>
      <trkpt lat="43.42678" lon="6.03796">
        <ele>393.69342041016</ele>
        <time>2015-01-07T13:29:47Z</time>
      </trkpt>
      <trkpt lat="43.42679" lon="6.03795">
        <ele>393.69204711914</ele>
        <time>2015-01-07T13:29:49Z</time>
      </trkpt>
      <trkpt lat="43.42679" lon="6.03795">
        <ele>393.68124389648</ele>
        <time>2015-01-07T13:29:51Z</time>
      </trkpt>
      <trkpt lat="43.42678" lon="6.03795">
        <ele>393.73928833008</ele>
        <time>2015-01-07T13:29:53Z</time>
      </trkpt>
      <trkpt lat="43.42678" lon="6.03795">
        <ele>393.74468994141</ele>
        <time>2015-01-07T13:29:55Z</time>
      </trkpt>
      <trkpt lat="43.42678" lon="6.03795">
        <ele>393.74200439453</ele>
        <time>2015-01-07T13:29:59Z</time>
      </trkpt>
      <trkpt lat="43.42678" lon="6.03795">
        <ele>393.73388671875</ele>
        <time>2015-01-07T13:30:03Z</time>
      </trkpt>
      <trkpt lat="43.42678" lon="6.03795">
        <ele>393.73120117188</ele>
        <time>2015-01-07T13:30:05Z</time>
      </trkpt>
      <trkpt lat="43.42678" lon="6.03795">
        <ele>393.73120117188</ele>
        <time>2015-01-07T13:30:09Z</time>
      </trkpt>
      <trkpt lat="43.42678" lon="6.03795">
        <ele>393.73120117188</ele>
        <time>2015-01-07T13:30:13Z</time>
      </trkpt>
      <trkpt lat="43.42678" lon="6.03795">
        <ele>393.7366027832</ele>
        <time>2015-01-07T13:30:14Z</time>
      </trkpt>
      <trkpt lat="43.42678" lon="6.03795">
        <ele>393.7366027832</ele>
        <time>2015-01-07T13:30:19Z</time>
      </trkpt>
      <trkpt lat="43.42678" lon="6.03795">
        <ele>393.78924560547</ele>
        <time>2015-01-07T13:30:21Z</time>
      </trkpt>
      <trkpt lat="43.42678" lon="6.03795">
        <ele>393.78924560547</ele>
        <time>2015-01-07T13:30:23Z</time>
      </trkpt>
      <trkpt lat="43.42678" lon="6.03795">
        <ele>393.78924560547</ele>
        <time>2015-01-07T13:30:24Z</time>
      </trkpt>
      <trkpt lat="43.42678" lon="6.03795">
        <ele>393.83920288086</ele>
        <time>2015-01-07T13:30:25Z</time>
      </trkpt>
      <trkpt lat="43.42678" lon="6.03795">
        <ele>393.83920288086</ele>
        <time>2015-01-07T13:30:31Z</time>
      </trkpt>
      <trkpt lat="43.42678" lon="6.03795">
        <ele>393.85546875</ele>
        <time>2015-01-07T13:31:19Z</time>
      </trkpt>
      <trkpt lat="43.42678" lon="6.03795">
        <ele>393.85546875</ele>
        <time>2015-01-07T13:31:25Z</time>
      </trkpt>
      <trkpt lat="43.42678" lon="6.03795">
        <ele>393.85818481445</ele>
        <time>2015-01-07T13:31:27Z</time>
      </trkpt>
      <trkpt lat="43.42678" lon="6.03795">
        <ele>393.85818481445</ele>
        <time>2015-01-07T13:31:31Z</time>
      </trkpt>
      <trkpt lat="43.42678" lon="6.03795">
        <ele>393.86358642578</ele>
        <time>2015-01-07T13:31:41Z</time>
      </trkpt>
      <trkpt lat="43.42678" lon="6.03795">
        <ele>393.86630249023</ele>
        <time>2015-01-07T13:31:43Z</time>
      </trkpt>
      <trkpt lat="43.42677" lon="6.03795">
        <ele>393.92175292969</ele>
        <time>2015-01-07T13:31:45Z</time>
      </trkpt>
      <trkpt lat="43.42677" lon="6.03795">
        <ele>393.91360473633</ele>
        <time>2015-01-07T13:31:47Z</time>
      </trkpt>
      <trkpt lat="43.42678" lon="6.03795">
        <ele>393.86087036133</ele>
        <time>2015-01-07T13:31:51Z</time>
      </trkpt>
      <trkpt lat="43.42678" lon="6.03795">
        <ele>393.85818481445</ele>
        <time>2015-01-07T13:31:57Z</time>
      </trkpt>
      <trkpt lat="43.42678" lon="6.03795">
        <ele>393.85546875</ele>
        <time>2015-01-07T13:32:03Z</time>
      </trkpt>
      <trkpt lat="43.42678" lon="6.03795">
        <ele>393.85275268555</ele>
        <time>2015-01-07T13:32:07Z</time>
      </trkpt>
      <trkpt lat="43.42677" lon="6.03795">
        <ele>393.90274047852</ele>
        <time>2015-01-07T13:32:09Z</time>
      </trkpt>
      <trkpt lat="43.42678" lon="6.03795">
        <ele>393.85275268555</ele>
        <time>2015-01-07T13:32:11Z</time>
      </trkpt>
      <trkpt lat="43.42678" lon="6.03795">
        <ele>393.85003662109</ele>
        <time>2015-01-07T13:32:13Z</time>
      </trkpt>
      <trkpt lat="43.42678" lon="6.03795">
        <ele>393.85003662109</ele>
        <time>2015-01-07T13:32:17Z</time>
      </trkpt>
      <trkpt lat="43.42678" lon="6.03795">
        <ele>393.84463500977</ele>
        <time>2015-01-07T13:32:25Z</time>
      </trkpt>
      <trkpt lat="43.42678" lon="6.03795">
        <ele>393.84463500977</ele>
        <time>2015-01-07T13:32:31Z</time>
      </trkpt>
      <trkpt lat="43.42678" lon="6.03795">
        <ele>393.84191894531</ele>
        <time>2015-01-07T13:32:39Z</time>
      </trkpt>
      <trkpt lat="43.42678" lon="6.03796">
        <ele>393.80670166016</ele>
        <time>2015-01-07T13:32:41Z</time>
      </trkpt>
      <trkpt lat="43.42678" lon="6.03796">
        <ele>393.80938720703</ele>
        <time>2015-01-07T13:32:45Z</time>
      </trkpt>
      <trkpt lat="43.42678" lon="6.03796">
        <ele>393.81481933594</ele>
        <time>2015-01-07T13:32:47Z</time>
      </trkpt>
      <trkpt lat="43.42678" lon="6.03796">
        <ele>393.81753540039</ele>
        <time>2015-01-07T13:32:49Z</time>
      </trkpt>
      <trkpt lat="43.42677" lon="6.03796">
        <ele>393.87286376953</ele>
        <time>2015-01-07T13:32:51Z</time>
      </trkpt>
      <trkpt lat="43.42678" lon="6.03796">
        <ele>393.82025146484</ele>
        <time>2015-01-07T13:32:52Z</time>
      </trkpt>
      <trkpt lat="43.42678" lon="6.03796">
        <ele>393.82025146484</ele>
        <time>2015-01-07T13:32:55Z</time>
      </trkpt>
      <trkpt lat="43.42678" lon="6.03796">
        <ele>393.82025146484</ele>
        <time>2015-01-07T13:32:57Z</time>
      </trkpt>
      <trkpt lat="43.42678" lon="6.03794">
        <ele>393.81488037109</ele>
        <time>2015-01-07T13:32:59Z</time>
      </trkpt>
      <trkpt lat="43.4268" lon="6.0379">
        <ele>393.86849975586</ele>
        <time>2015-01-07T13:33:01Z</time>
      </trkpt>
      <trkpt lat="43.42679" lon="6.03788">
        <ele>394.03192138672</ele>
        <time>2015-01-07T13:33:02Z</time>
      </trkpt>
      <trkpt lat="43.42679" lon="6.03786">
        <ele>394.16638183594</ele>
        <time>2015-01-07T13:33:03Z</time>
      </trkpt>
      <trkpt lat="43.4268" lon="6.03782">
        <ele>394.3434753418</ele>
        <time>2015-01-07T13:33:05Z</time>
      </trkpt>
      <trkpt lat="43.4268" lon="6.03778">
        <ele>394.56887817383</ele>
        <time>2015-01-07T13:33:07Z</time>
      </trkpt>
      <trkpt lat="43.42679" lon="6.03774">
        <ele>394.81973266602</ele>
        <time>2015-01-07T13:33:09Z</time>
      </trkpt>
      <trkpt lat="43.42679" lon="6.0377">
        <ele>395.04287719727</ele>
        <time>2015-01-07T13:33:11Z</time>
      </trkpt>
      <trkpt lat="43.4268" lon="6.03769">
        <ele>395.08679199219</ele>
        <time>2015-01-07T13:33:12Z</time>
      </trkpt>
      <trkpt lat="43.4268" lon="6.03767">
        <ele>395.11962890625</ele>
        <time>2015-01-07T13:33:13Z</time>
      </trkpt>
      <trkpt lat="43.4268" lon="6.03767">
        <ele>395.20217895508</ele>
        <time>2015-01-07T13:33:15Z</time>
      </trkpt>
      <trkpt lat="43.4268" lon="6.03765">
        <ele>395.17349243164</ele>
        <time>2015-01-07T13:33:17Z</time>
      </trkpt>
      <trkpt lat="43.42681" lon="6.03764">
        <ele>395.20028686523</ele>
        <time>2015-01-07T13:33:19Z</time>
      </trkpt>
      <trkpt lat="43.42681" lon="6.03762">
        <ele>395.248046875</ele>
        <time>2015-01-07T13:33:21Z</time>
      </trkpt>
      <trkpt lat="43.42681" lon="6.0376">
        <ele>395.38647460938</ele>
        <time>2015-01-07T13:33:23Z</time>
      </trkpt>
      <trkpt lat="43.42682" lon="6.03758">
        <ele>395.42559814453</ele>
        <time>2015-01-07T13:33:25Z</time>
      </trkpt>
      <trkpt lat="43.42682" lon="6.03757">
        <ele>395.5</ele>
        <time>2015-01-07T13:33:26Z</time>
      </trkpt>
      <trkpt lat="43.42682" lon="6.03756">
        <ele>395.55316162109</ele>
        <time>2015-01-07T13:33:27Z</time>
      </trkpt>
      <trkpt lat="43.42682" lon="6.03754">
        <ele>395.63818359375</ele>
        <time>2015-01-07T13:33:29Z</time>
      </trkpt>
      <trkpt lat="43.42682" lon="6.03754">
        <ele>395.65148925781</ele>
        <time>2015-01-07T13:33:31Z</time>
      </trkpt>
      <trkpt lat="43.42682" lon="6.03754">
        <ele>395.65679931641</ele>
        <time>2015-01-07T13:33:33Z</time>
      </trkpt>
      <trkpt lat="43.42682" lon="6.03754">
        <ele>395.6022644043</ele>
        <time>2015-01-07T13:33:35Z</time>
      </trkpt>
      <trkpt lat="43.42682" lon="6.03754">
        <ele>395.5969543457</ele>
        <time>2015-01-07T13:33:37Z</time>
      </trkpt>
      <trkpt lat="43.42682" lon="6.03754">
        <ele>395.60491943359</ele>
        <time>2015-01-07T13:33:39Z</time>
      </trkpt>
      <trkpt lat="43.42683" lon="6.03751">
        <ele>395.62265014648</ele>
        <time>2015-01-07T13:33:41Z</time>
      </trkpt>
      <trkpt lat="43.42683" lon="6.03748">
        <ele>395.65777587891</ele>
        <time>2015-01-07T13:33:43Z</time>
      </trkpt>
      <trkpt lat="43.42683" lon="6.03745">
        <ele>395.68069458008</ele>
        <time>2015-01-07T13:33:45Z</time>
      </trkpt>
      <trkpt lat="43.42684" lon="6.03742">
        <ele>395.59097290039</ele>
        <time>2015-01-07T13:33:47Z</time>
      </trkpt>
      <trkpt lat="43.42685" lon="6.03738">
        <ele>395.50347900391</ele>
        <time>2015-01-07T13:33:49Z</time>
      </trkpt>
      <trkpt lat="43.42685" lon="6.03735">
        <ele>395.529296875</ele>
        <time>2015-01-07T13:33:51Z</time>
      </trkpt>
      <trkpt lat="43.42683" lon="6.03731">
        <ele>395.72344970703</ele>
        <time>2015-01-07T13:33:53Z</time>
      </trkpt>
      <trkpt lat="43.42683" lon="6.03728">
        <ele>395.8030090332</ele>
        <time>2015-01-07T13:33:55Z</time>
      </trkpt>
      <trkpt lat="43.42683" lon="6.03724">
        <ele>395.83361816406</ele>
        <time>2015-01-07T13:33:57Z</time>
      </trkpt>
      <trkpt lat="43.42683" lon="6.0372">
        <ele>395.86209106445</ele>
        <time>2015-01-07T13:33:59Z</time>
      </trkpt>
      <trkpt lat="43.42683" lon="6.03717">
        <ele>395.88711547852</ele>
        <time>2015-01-07T13:34:01Z</time>
      </trkpt>
      <trkpt lat="43.42683" lon="6.03715">
        <ele>395.95877075195</ele>
        <time>2015-01-07T13:34:02Z</time>
      </trkpt>
      <trkpt lat="43.42682" lon="6.03713">
        <ele>396.0322265625</ele>
        <time>2015-01-07T13:34:03Z</time>
      </trkpt>
      <trkpt lat="43.42683" lon="6.0371">
        <ele>395.99298095703</ele>
        <time>2015-01-07T13:34:05Z</time>
      </trkpt>
      <trkpt lat="43.42683" lon="6.03707">
        <ele>395.95489501953</ele>
        <time>2015-01-07T13:34:07Z</time>
      </trkpt>
      <trkpt lat="43.42684" lon="6.03706">
        <ele>395.84170532227</ele>
        <time>2015-01-07T13:34:08Z</time>
      </trkpt>
      <trkpt lat="43.42685" lon="6.03702">
        <ele>395.69338989258</ele>
        <time>2015-01-07T13:34:11Z</time>
      </trkpt>
      <trkpt lat="43.42685" lon="6.03699">
        <ele>395.77352905273</ele>
        <time>2015-01-07T13:34:13Z</time>
      </trkpt>
      <trkpt lat="43.42685" lon="6.03697">
        <ele>395.78561401367</ele>
        <time>2015-01-07T13:34:14Z</time>
      </trkpt>
      <trkpt lat="43.42686" lon="6.03693">
        <ele>395.63388061523</ele>
        <time>2015-01-07T13:34:17Z</time>
      </trkpt>
      <trkpt lat="43.42686" lon="6.03686">
        <ele>395.5495300293</ele>
        <time>2015-01-07T13:34:20Z</time>
      </trkpt>
      <trkpt lat="43.42686" lon="6.03685">
        <ele>395.56005859375</ele>
        <time>2015-01-07T13:34:21Z</time>
      </trkpt>
      <trkpt lat="43.42686" lon="6.03681">
        <ele>395.64660644531</ele>
        <time>2015-01-07T13:34:23Z</time>
      </trkpt>
      <trkpt lat="43.42686" lon="6.03677">
        <ele>395.67074584961</ele>
        <time>2015-01-07T13:34:25Z</time>
      </trkpt>
      <trkpt lat="43.42686" lon="6.03673">
        <ele>395.69519042969</ele>
        <time>2015-01-07T13:34:27Z</time>
      </trkpt>
      <trkpt lat="43.42686" lon="6.03666">
        <ele>395.70755004883</ele>
        <time>2015-01-07T13:34:31Z</time>
      </trkpt>
      <trkpt lat="43.42686" lon="6.03662">
        <ele>395.51626586914</ele>
        <time>2015-01-07T13:34:33Z</time>
      </trkpt>
      <trkpt lat="43.42686" lon="6.03655">
        <ele>395.23355102539</ele>
        <time>2015-01-07T13:34:37Z</time>
      </trkpt>
      <trkpt lat="43.42686" lon="6.03651">
        <ele>395.21160888672</ele>
        <time>2015-01-07T13:34:39Z</time>
      </trkpt>
      <trkpt lat="43.42686" lon="6.03647">
        <ele>395.07739257812</ele>
        <time>2015-01-07T13:34:41Z</time>
      </trkpt>
      <trkpt lat="43.42685" lon="6.03643">
        <ele>394.98083496094</ele>
        <time>2015-01-07T13:34:43Z</time>
      </trkpt>
      <trkpt lat="43.42684" lon="6.03639">
        <ele>395.05081176758</ele>
        <time>2015-01-07T13:34:45Z</time>
      </trkpt>
      <trkpt lat="43.42682" lon="6.03634">
        <ele>395.10757446289</ele>
        <time>2015-01-07T13:34:47Z</time>
      </trkpt>
      <trkpt lat="43.42679" lon="6.03628">
        <ele>395.36383056641</ele>
        <time>2015-01-07T13:34:50Z</time>
      </trkpt>
      <trkpt lat="43.42678" lon="6.03626">
        <ele>395.40185546875</ele>
        <time>2015-01-07T13:34:51Z</time>
      </trkpt>
      <trkpt lat="43.42677" lon="6.03624">
        <ele>395.42233276367</ele>
        <time>2015-01-07T13:34:52Z</time>
      </trkpt>
      <trkpt lat="43.42676" lon="6.03622">
        <ele>395.49719238281</ele>
        <time>2015-01-07T13:34:53Z</time>
      </trkpt>
      <trkpt lat="43.42673" lon="6.03617">
        <ele>395.65405273438</ele>
        <time>2015-01-07T13:34:55Z</time>
      </trkpt>
      <trkpt lat="43.42668" lon="6.03611">
        <ele>396.11227416992</ele>
        <time>2015-01-07T13:34:58Z</time>
      </trkpt>
      <trkpt lat="43.42664" lon="6.03603">
        <ele>396.24798583984</ele>
        <time>2015-01-07T13:35:01Z</time>
      </trkpt>
      <trkpt lat="43.42663" lon="6.03596">
        <ele>396.14343261719</ele>
        <time>2015-01-07T13:35:03Z</time>
      </trkpt>
      <trkpt lat="43.42662" lon="6.03593">
        <ele>396.0276184082</ele>
        <time>2015-01-07T13:35:04Z</time>
      </trkpt>
      <trkpt lat="43.42662" lon="6.03589">
        <ele>395.87661743164</ele>
        <time>2015-01-07T13:35:05Z</time>
      </trkpt>
      <trkpt lat="43.42661" lon="6.03582">
        <ele>395.78506469727</ele>
        <time>2015-01-07T13:35:07Z</time>
      </trkpt>
      <trkpt lat="43.4266" lon="6.03576">
        <ele>395.7734375</ele>
        <time>2015-01-07T13:35:09Z</time>
      </trkpt>
      <trkpt lat="43.42659" lon="6.03571">
        <ele>395.81634521484</ele>
        <time>2015-01-07T13:35:11Z</time>
      </trkpt>
      <trkpt lat="43.42658" lon="6.03568">
        <ele>395.80822753906</ele>
        <time>2015-01-07T13:35:12Z</time>
      </trkpt>
      <trkpt lat="43.42658" lon="6.03566">
        <ele>395.79409790039</ele>
        <time>2015-01-07T13:35:13Z</time>
      </trkpt>
      <trkpt lat="43.42657" lon="6.0356">
        <ele>395.71594238281</ele>
        <time>2015-01-07T13:35:15Z</time>
      </trkpt>
      <trkpt lat="43.42656" lon="6.03554">
        <ele>395.79443359375</ele>
        <time>2015-01-07T13:35:17Z</time>
      </trkpt>
      <trkpt lat="43.42655" lon="6.03549">
        <ele>395.73233032227</ele>
        <time>2015-01-07T13:35:19Z</time>
      </trkpt>
      <trkpt lat="43.42654" lon="6.03543">
        <ele>395.66360473633</ele>
        <time>2015-01-07T13:35:21Z</time>
      </trkpt>
      <trkpt lat="43.42653" lon="6.03536">
        <ele>395.60491943359</ele>
        <time>2015-01-07T13:35:23Z</time>
      </trkpt>
      <trkpt lat="43.42652" lon="6.03531">
        <ele>395.54721069336</ele>
        <time>2015-01-07T13:35:25Z</time>
      </trkpt>
      <trkpt lat="43.42651" lon="6.03528">
        <ele>395.52923583984</ele>
        <time>2015-01-07T13:35:26Z</time>
      </trkpt>
      <trkpt lat="43.42648" lon="6.03517">
        <ele>395.41409301758</ele>
        <time>2015-01-07T13:35:30Z</time>
      </trkpt>
      <trkpt lat="43.42648" lon="6.03515">
        <ele>395.38812255859</ele>
        <time>2015-01-07T13:35:31Z</time>
      </trkpt>
      <trkpt lat="43.42647" lon="6.0351">
        <ele>395.28356933594</ele>
        <time>2015-01-07T13:35:33Z</time>
      </trkpt>
      <trkpt lat="43.42645" lon="6.03505">
        <ele>395.2077331543</ele>
        <time>2015-01-07T13:35:35Z</time>
      </trkpt>
      <trkpt lat="43.42644" lon="6.035">
        <ele>395.09939575195</ele>
        <time>2015-01-07T13:35:37Z</time>
      </trkpt>
      <trkpt lat="43.42643" lon="6.03495">
        <ele>394.75912475586</ele>
        <time>2015-01-07T13:35:39Z</time>
      </trkpt>
      <trkpt lat="43.42641" lon="6.0349">
        <ele>394.4651184082</ele>
        <time>2015-01-07T13:35:41Z</time>
      </trkpt>
      <trkpt lat="43.42638" lon="6.03486">
        <ele>394.21310424805</ele>
        <time>2015-01-07T13:35:43Z</time>
      </trkpt>
      <trkpt lat="43.42635" lon="6.0348">
        <ele>393.89117431641</ele>
        <time>2015-01-07T13:35:45Z</time>
      </trkpt>
      <trkpt lat="43.42632" lon="6.03475">
        <ele>393.59048461914</ele>
        <time>2015-01-07T13:35:47Z</time>
      </trkpt>
      <trkpt lat="43.42627" lon="6.03471">
        <ele>393.51782226562</ele>
        <time>2015-01-07T13:35:49Z</time>
      </trkpt>
      <trkpt lat="43.42621" lon="6.03467">
        <ele>393.37048339844</ele>
        <time>2015-01-07T13:35:51Z</time>
      </trkpt>
      <trkpt lat="43.42614" lon="6.03462">
        <ele>393.18963623047</ele>
        <time>2015-01-07T13:35:53Z</time>
      </trkpt>
      <trkpt lat="43.42606" lon="6.03456">
        <ele>392.99011230469</ele>
        <time>2015-01-07T13:35:55Z</time>
      </trkpt>
      <trkpt lat="43.42603" lon="6.03453">
        <ele>392.80599975586</ele>
        <time>2015-01-07T13:35:56Z</time>
      </trkpt>
      <trkpt lat="43.42598" lon="6.03449">
        <ele>392.59188842773</ele>
        <time>2015-01-07T13:35:57Z</time>
      </trkpt>
      <trkpt lat="43.42595" lon="6.03445">
        <ele>392.37817382812</ele>
        <time>2015-01-07T13:35:58Z</time>
      </trkpt>
      <trkpt lat="43.4259" lon="6.03441">
        <ele>392.15930175781</ele>
        <time>2015-01-07T13:35:59Z</time>
      </trkpt>
      <trkpt lat="43.4258" lon="6.03424">
        <ele>391.01168823242</ele>
        <time>2015-01-07T13:36:03Z</time>
      </trkpt>
      <trkpt lat="43.42574" lon="6.03416">
        <ele>390.69854736328</ele>
        <time>2015-01-07T13:36:05Z</time>
      </trkpt>
      <trkpt lat="43.42569" lon="6.03408">
        <ele>390.30197143555</ele>
        <time>2015-01-07T13:36:07Z</time>
      </trkpt>
      <trkpt lat="43.42567" lon="6.03405">
        <ele>390.14102172852</ele>
        <time>2015-01-07T13:36:08Z</time>
      </trkpt>
      <trkpt lat="43.42566" lon="6.03403">
        <ele>390.11932373047</ele>
        <time>2015-01-07T13:36:09Z</time>
      </trkpt>
      <trkpt lat="43.42561" lon="6.03401">
        <ele>390.27423095703</ele>
        <time>2015-01-07T13:36:11Z</time>
      </trkpt>
      <trkpt lat="43.42559" lon="6.034">
        <ele>390.37316894531</ele>
        <time>2015-01-07T13:36:12Z</time>
      </trkpt>
      <trkpt lat="43.42552" lon="6.03397">
        <ele>390.66998291016</ele>
        <time>2015-01-07T13:36:15Z</time>
      </trkpt>
      <trkpt lat="43.42548" lon="6.03392">
        <ele>390.48968505859</ele>
        <time>2015-01-07T13:36:17Z</time>
      </trkpt>
      <trkpt lat="43.42546" lon="6.03384">
        <ele>389.77624511719</ele>
        <time>2015-01-07T13:36:19Z</time>
      </trkpt>
      <trkpt lat="43.42549" lon="6.03363">
        <ele>387.42175292969</ele>
        <time>2015-01-07T13:36:23Z</time>
      </trkpt>
      <trkpt lat="43.42545" lon="6.03351">
        <ele>386.59906005859</ele>
        <time>2015-01-07T13:36:25Z</time>
      </trkpt>
      <trkpt lat="43.4254" lon="6.0334">
        <ele>385.74185180664</ele>
        <time>2015-01-07T13:36:27Z</time>
      </trkpt>
      <trkpt lat="43.42541" lon="6.03326">
        <ele>384.95446777344</ele>
        <time>2015-01-07T13:36:29Z</time>
      </trkpt>
      <trkpt lat="43.42541" lon="6.03311">
        <ele>384.78076171875</ele>
        <time>2015-01-07T13:36:31Z</time>
      </trkpt>
      <trkpt lat="43.4254" lon="6.03294">
        <ele>384.66540527344</ele>
        <time>2015-01-07T13:36:33Z</time>
      </trkpt>
      <trkpt lat="43.4254" lon="6.03286">
        <ele>384.66305541992</ele>
        <time>2015-01-07T13:36:34Z</time>
      </trkpt>
      <trkpt lat="43.42538" lon="6.03279">
        <ele>384.77249145508</ele>
        <time>2015-01-07T13:36:35Z</time>
      </trkpt>
      <trkpt lat="43.42535" lon="6.03268">
        <ele>385.06872558594</ele>
        <time>2015-01-07T13:36:37Z</time>
      </trkpt>
      <trkpt lat="43.42531" lon="6.03262">
        <ele>385.54254150391</ele>
        <time>2015-01-07T13:36:39Z</time>
      </trkpt>
      <trkpt lat="43.42529" lon="6.0326">
        <ele>385.84628295898</ele>
        <time>2015-01-07T13:36:40Z</time>
      </trkpt>
      <trkpt lat="43.42527" lon="6.03259">
        <ele>386.15710449219</ele>
        <time>2015-01-07T13:36:41Z</time>
      </trkpt>
      <trkpt lat="43.42522" lon="6.03257">
        <ele>386.78848266602</ele>
        <time>2015-01-07T13:36:43Z</time>
      </trkpt>
      <trkpt lat="43.42517" lon="6.03257">
        <ele>387.42105102539</ele>
        <time>2015-01-07T13:36:45Z</time>
      </trkpt>
      <trkpt lat="43.42516" lon="6.03257">
        <ele>387.68856811523</ele>
        <time>2015-01-07T13:36:46Z</time>
      </trkpt>
      <trkpt lat="43.42514" lon="6.03256">
        <ele>387.90405273438</ele>
        <time>2015-01-07T13:36:47Z</time>
      </trkpt>
      <trkpt lat="43.42512" lon="6.03255">
        <ele>388.23709106445</ele>
        <time>2015-01-07T13:36:49Z</time>
      </trkpt>
      <trkpt lat="43.42512" lon="6.03255">
        <ele>388.23376464844</ele>
        <time>2015-01-07T13:36:53Z</time>
      </trkpt>
      <trkpt lat="43.42511" lon="6.03255">
        <ele>388.28692626953</ele>
        <time>2015-01-07T13:36:55Z</time>
      </trkpt>
      <trkpt lat="43.42511" lon="6.03255">
        <ele>388.28625488281</ele>
        <time>2015-01-07T13:36:57Z</time>
      </trkpt>
      <trkpt lat="43.42511" lon="6.03255">
        <ele>388.28625488281</ele>
        <time>2015-01-07T13:37:01Z</time>
      </trkpt>
      <trkpt lat="43.42511" lon="6.03255">
        <ele>388.28625488281</ele>
        <time>2015-01-07T13:37:03Z</time>
      </trkpt>
      <trkpt lat="43.42511" lon="6.03256">
        <ele>388.28356933594</ele>
        <time>2015-01-07T13:37:07Z</time>
      </trkpt>
      <trkpt lat="43.42511" lon="6.03256">
        <ele>388.28219604492</ele>
        <time>2015-01-07T13:37:09Z</time>
      </trkpt>
      <trkpt lat="43.42512" lon="6.03256">
        <ele>388.22982788086</ele>
        <time>2015-01-07T13:37:11Z</time>
      </trkpt>
      <trkpt lat="43.42511" lon="6.03256">
        <ele>388.28286743164</ele>
        <time>2015-01-07T13:37:13Z</time>
      </trkpt>
      <trkpt lat="43.42511" lon="6.03256">
        <ele>388.28286743164</ele>
        <time>2015-01-07T13:37:15Z</time>
      </trkpt>
      <trkpt lat="43.42511" lon="6.03256">
        <ele>388.28356933594</ele>
        <time>2015-01-07T13:37:17Z</time>
      </trkpt>
      <trkpt lat="43.42511" lon="6.03256">
        <ele>388.28491210938</ele>
        <time>2015-01-07T13:37:25Z</time>
      </trkpt>
      <trkpt lat="43.42511" lon="6.03256">
        <ele>388.28491210938</ele>
        <time>2015-01-07T13:37:29Z</time>
      </trkpt>
      <trkpt lat="43.42511" lon="6.03255">
        <ele>388.28558349609</ele>
        <time>2015-01-07T13:37:43Z</time>
      </trkpt>
      <trkpt lat="43.42511" lon="6.03256">
        <ele>388.28491210938</ele>
        <time>2015-01-07T13:37:45Z</time>
      </trkpt>
      <trkpt lat="43.42511" lon="6.03256">
        <ele>388.28491210938</ele>
        <time>2015-01-07T13:37:51Z</time>
      </trkpt>
      <trkpt lat="43.42511" lon="6.03256">
        <ele>388.28424072266</ele>
        <time>2015-01-07T13:37:57Z</time>
      </trkpt>
      <trkpt lat="43.42511" lon="6.03256">
        <ele>388.33734130859</ele>
        <time>2015-01-07T13:37:59Z</time>
      </trkpt>
      <trkpt lat="43.42511" lon="6.03256">
        <ele>388.3366394043</ele>
        <time>2015-01-07T13:38:07Z</time>
      </trkpt>
      <trkpt lat="43.42511" lon="6.03256">
        <ele>388.3359375</ele>
        <time>2015-01-07T13:38:29Z</time>
      </trkpt>
      <trkpt lat="43.42511" lon="6.03256">
        <ele>388.33526611328</ele>
        <time>2015-01-07T13:38:31Z</time>
      </trkpt>
      <trkpt lat="43.42511" lon="6.03256">
        <ele>388.33526611328</ele>
        <time>2015-01-07T13:38:37Z</time>
      </trkpt>
      <trkpt lat="43.42511" lon="6.03256">
        <ele>388.33526611328</ele>
        <time>2015-01-07T13:38:41Z</time>
      </trkpt>
      <trkpt lat="43.42511" lon="6.03256">
        <ele>388.33801269531</ele>
        <time>2015-01-07T13:38:43Z</time>
      </trkpt>
      <trkpt lat="43.42511" lon="6.03255">
        <ele>388.39398193359</ele>
        <time>2015-01-07T13:38:45Z</time>
      </trkpt>
      <trkpt lat="43.42511" lon="6.03255">
        <ele>388.39398193359</ele>
        <time>2015-01-07T13:38:47Z</time>
      </trkpt>
      <trkpt lat="43.42511" lon="6.03255">
        <ele>388.39254760742</ele>
        <time>2015-01-07T13:38:49Z</time>
      </trkpt>
      <trkpt lat="43.42511" lon="6.03255">
        <ele>388.39324951172</ele>
        <time>2015-01-07T13:38:51Z</time>
      </trkpt>
      <trkpt lat="43.42511" lon="6.03255">
        <ele>388.39324951172</ele>
        <time>2015-01-07T13:38:55Z</time>
      </trkpt>
      <trkpt lat="43.42511" lon="6.03255">
        <ele>388.39398193359</ele>
        <time>2015-01-07T13:39:13Z</time>
      </trkpt>
      <trkpt lat="43.42511" lon="6.03255">
        <ele>388.39468383789</ele>
        <time>2015-01-07T13:39:19Z</time>
      </trkpt>
      <trkpt lat="43.42511" lon="6.03255">
        <ele>388.39468383789</ele>
        <time>2015-01-07T13:39:25Z</time>
      </trkpt>
      <trkpt lat="43.42511" lon="6.03255">
        <ele>388.39468383789</ele>
        <time>2015-01-07T13:39:31Z</time>
      </trkpt>
      <trkpt lat="43.42511" lon="6.03255">
        <ele>388.39678955078</ele>
        <time>2015-01-07T13:40:49Z</time>
      </trkpt>
      <trkpt lat="43.42511" lon="6.03255">
        <ele>388.39752197266</ele>
        <time>2015-01-07T13:40:55Z</time>
      </trkpt>
      <trkpt lat="43.4251" lon="6.03255">
        <ele>388.4543762207</ele>
        <time>2015-01-07T13:40:57Z</time>
      </trkpt>
      <trkpt lat="43.4251" lon="6.03255">
        <ele>388.50622558594</ele>
        <time>2015-01-07T13:40:59Z</time>
      </trkpt>
      <trkpt lat="43.4251" lon="6.03255">
        <ele>388.45147705078</ele>
        <time>2015-01-07T13:41:03Z</time>
      </trkpt>
      <trkpt lat="43.4251" lon="6.03255">
        <ele>388.45147705078</ele>
        <time>2015-01-07T13:41:07Z</time>
      </trkpt>
      <trkpt lat="43.4251" lon="6.03255">
        <ele>388.45004272461</ele>
        <time>2015-01-07T13:41:13Z</time>
      </trkpt>
      <trkpt lat="43.4251" lon="6.03255">
        <ele>388.45004272461</ele>
        <time>2015-01-07T13:41:15Z</time>
      </trkpt>
      <trkpt lat="43.42511" lon="6.03255">
        <ele>388.39678955078</ele>
        <time>2015-01-07T13:41:17Z</time>
      </trkpt>
      <trkpt lat="43.42511" lon="6.03255">
        <ele>388.39608764648</ele>
        <time>2015-01-07T13:41:19Z</time>
      </trkpt>
      <trkpt lat="43.42511" lon="6.03255">
        <ele>388.39608764648</ele>
        <time>2015-01-07T13:41:23Z</time>
      </trkpt>
      <trkpt lat="43.42511" lon="6.03255">
        <ele>388.39538574219</ele>
        <time>2015-01-07T13:41:35Z</time>
      </trkpt>
      <trkpt lat="43.42511" lon="6.03255">
        <ele>388.39538574219</ele>
        <time>2015-01-07T13:41:37Z</time>
      </trkpt>
      <trkpt lat="43.4251" lon="6.03255">
        <ele>388.44787597656</ele>
        <time>2015-01-07T13:41:39Z</time>
      </trkpt>
      <trkpt lat="43.4251" lon="6.03256">
        <ele>388.48999023438</ele>
        <time>2015-01-07T13:41:41Z</time>
      </trkpt>
      <trkpt lat="43.4251" lon="6.03256">
        <ele>388.48999023438</ele>
        <time>2015-01-07T13:41:43Z</time>
      </trkpt>
      <trkpt lat="43.4251" lon="6.03256">
        <ele>388.4892578125</ele>
        <time>2015-01-07T13:41:51Z</time>
      </trkpt>
      <trkpt lat="43.4251" lon="6.03256">
        <ele>388.48849487305</ele>
        <time>2015-01-07T13:41:59Z</time>
      </trkpt>
      <trkpt lat="43.4251" lon="6.03256">
        <ele>388.48776245117</ele>
        <time>2015-01-07T13:42:01Z</time>
      </trkpt>
      <trkpt lat="43.42509" lon="6.03257">
        <ele>388.62686157227</ele>
        <time>2015-01-07T13:42:03Z</time>
      </trkpt>
      <trkpt lat="43.42507" lon="6.03259">
        <ele>388.80380249023</ele>
        <time>2015-01-07T13:42:05Z</time>
      </trkpt>
      <trkpt lat="43.42506" lon="6.03261">
        <ele>388.97039794922</ele>
        <time>2015-01-07T13:42:07Z</time>
      </trkpt>
      <trkpt lat="43.42504" lon="6.03263">
        <ele>389.1887512207</ele>
        <time>2015-01-07T13:42:09Z</time>
      </trkpt>
      <trkpt lat="43.42503" lon="6.03264">
        <ele>389.31671142578</ele>
        <time>2015-01-07T13:42:10Z</time>
      </trkpt>
      <trkpt lat="43.42502" lon="6.03266">
        <ele>389.37869262695</ele>
        <time>2015-01-07T13:42:11Z</time>
      </trkpt>
      <trkpt lat="43.42498" lon="6.0327">
        <ele>389.84225463867</ele>
        <time>2015-01-07T13:42:15Z</time>
      </trkpt>
      <trkpt lat="43.42496" lon="6.03273">
        <ele>390.17419433594</ele>
        <time>2015-01-07T13:42:17Z</time>
      </trkpt>
      <trkpt lat="43.42495" lon="6.03274">
        <ele>390.3869934082</ele>
        <time>2015-01-07T13:42:18Z</time>
      </trkpt>
      <trkpt lat="43.42495" lon="6.03275">
        <ele>390.51428222656</ele>
        <time>2015-01-07T13:42:19Z</time>
      </trkpt>
      <trkpt lat="43.42493" lon="6.03279">
        <ele>390.83923339844</ele>
        <time>2015-01-07T13:42:21Z</time>
      </trkpt>
      <trkpt lat="43.42491" lon="6.03282">
        <ele>391.08853149414</ele>
        <time>2015-01-07T13:42:23Z</time>
      </trkpt>
      <trkpt lat="43.4249" lon="6.03284">
        <ele>391.18508911133</ele>
        <time>2015-01-07T13:42:25Z</time>
      </trkpt>
      <trkpt lat="43.4249" lon="6.03285">
        <ele>391.24111938477</ele>
        <time>2015-01-07T13:42:26Z</time>
      </trkpt>
      <trkpt lat="43.4249" lon="6.03287">
        <ele>391.29083251953</ele>
        <time>2015-01-07T13:42:27Z</time>
      </trkpt>
      <trkpt lat="43.42488" lon="6.03291">
        <ele>391.60308837891</ele>
        <time>2015-01-07T13:42:30Z</time>
      </trkpt>
      <trkpt lat="43.42488" lon="6.03291">
        <ele>391.60098266602</ele>
        <time>2015-01-07T13:42:31Z</time>
      </trkpt>
      <trkpt lat="43.42487" lon="6.03291">
        <ele>391.6799621582</ele>
        <time>2015-01-07T13:42:33Z</time>
      </trkpt>
      <trkpt lat="43.42487" lon="6.03291">
        <ele>391.67361450195</ele>
        <time>2015-01-07T13:42:34Z</time>
      </trkpt>
      <trkpt lat="43.42487" lon="6.03291">
        <ele>391.66940307617</ele>
        <time>2015-01-07T13:42:35Z</time>
      </trkpt>
      <trkpt lat="43.42487" lon="6.03291">
        <ele>391.66833496094</ele>
        <time>2015-01-07T13:42:37Z</time>
      </trkpt>
      <trkpt lat="43.42486" lon="6.03292">
        <ele>391.97192382812</ele>
        <time>2015-01-07T13:42:39Z</time>
      </trkpt>
      <trkpt lat="43.42484" lon="6.03294">
        <ele>392.41146850586</ele>
        <time>2015-01-07T13:42:41Z</time>
      </trkpt>
      <trkpt lat="43.42482" lon="6.03296">
        <ele>392.61837768555</ele>
        <time>2015-01-07T13:42:42Z</time>
      </trkpt>
      <trkpt lat="43.42481" lon="6.03297">
        <ele>392.8349609375</ele>
        <time>2015-01-07T13:42:43Z</time>
      </trkpt>
      <trkpt lat="43.42477" lon="6.03301">
        <ele>393.71002197266</ele>
        <time>2015-01-07T13:42:47Z</time>
      </trkpt>
      <trkpt lat="43.42475" lon="6.03304">
        <ele>394.05001831055</ele>
        <time>2015-01-07T13:42:49Z</time>
      </trkpt>
      <trkpt lat="43.42472" lon="6.03307">
        <ele>394.48126220703</ele>
        <time>2015-01-07T13:42:51Z</time>
      </trkpt>
      <trkpt lat="43.4247" lon="6.03308">
        <ele>395.01409912109</ele>
        <time>2015-01-07T13:42:53Z</time>
      </trkpt>
      <trkpt lat="43.42466" lon="6.03313">
        <ele>395.82827758789</ele>
        <time>2015-01-07T13:42:57Z</time>
      </trkpt>
      <trkpt lat="43.42463" lon="6.03314">
        <ele>396.29525756836</ele>
        <time>2015-01-07T13:42:59Z</time>
      </trkpt>
      <trkpt lat="43.42461" lon="6.03315">
        <ele>396.75335693359</ele>
        <time>2015-01-07T13:43:01Z</time>
      </trkpt>
      <trkpt lat="43.42459" lon="6.03316">
        <ele>397.2262878418</ele>
        <time>2015-01-07T13:43:03Z</time>
      </trkpt>
      <trkpt lat="43.42456" lon="6.03316">
        <ele>397.79055786133</ele>
        <time>2015-01-07T13:43:05Z</time>
      </trkpt>
      <trkpt lat="43.42453" lon="6.03317">
        <ele>398.35754394531</ele>
        <time>2015-01-07T13:43:07Z</time>
      </trkpt>
      <trkpt lat="43.42451" lon="6.03317">
        <ele>398.76657104492</ele>
        <time>2015-01-07T13:43:09Z</time>
      </trkpt>
      <trkpt lat="43.4245" lon="6.03316">
        <ele>399.01177978516</ele>
        <time>2015-01-07T13:43:10Z</time>
      </trkpt>
      <trkpt lat="43.42449" lon="6.03316">
        <ele>399.25622558594</ele>
        <time>2015-01-07T13:43:11Z</time>
      </trkpt>
      <trkpt lat="43.42448" lon="6.03316">
        <ele>399.50299072266</ele>
        <time>2015-01-07T13:43:12Z</time>
      </trkpt>
      <trkpt lat="43.42447" lon="6.03317">
        <ele>399.7419128418</ele>
        <time>2015-01-07T13:43:13Z</time>
      </trkpt>
      <trkpt lat="43.42445" lon="6.03317">
        <ele>400.22702026367</ele>
        <time>2015-01-07T13:43:15Z</time>
      </trkpt>
      <trkpt lat="43.42443" lon="6.03317">
        <ele>400.63073730469</ele>
        <time>2015-01-07T13:43:17Z</time>
      </trkpt>
      <trkpt lat="43.4244" lon="6.03317">
        <ele>401.11465454102</ele>
        <time>2015-01-07T13:43:19Z</time>
      </trkpt>
      <trkpt lat="43.42439" lon="6.03318">
        <ele>401.52011108398</ele>
        <time>2015-01-07T13:43:21Z</time>
      </trkpt>
      <trkpt lat="43.42435" lon="6.03318">
        <ele>402.32989501953</ele>
        <time>2015-01-07T13:43:25Z</time>
      </trkpt>
      <trkpt lat="43.42433" lon="6.03318">
        <ele>402.65612792969</ele>
        <time>2015-01-07T13:43:27Z</time>
      </trkpt>
      <trkpt lat="43.42431" lon="6.03319">
        <ele>403.05114746094</ele>
        <time>2015-01-07T13:43:29Z</time>
      </trkpt>
      <trkpt lat="43.4243" lon="6.0332">
        <ele>403.36364746094</ele>
        <time>2015-01-07T13:43:31Z</time>
      </trkpt>
      <trkpt lat="43.42428" lon="6.03321">
        <ele>403.75573730469</ele>
        <time>2015-01-07T13:43:33Z</time>
      </trkpt>
      <trkpt lat="43.42426" lon="6.03322">
        <ele>404.150390625</ele>
        <time>2015-01-07T13:43:35Z</time>
      </trkpt>
      <trkpt lat="43.42425" lon="6.03322">
        <ele>404.39260864258</ele>
        <time>2015-01-07T13:43:36Z</time>
      </trkpt>
      <trkpt lat="43.42424" lon="6.03323">
        <ele>404.63427734375</ele>
        <time>2015-01-07T13:43:37Z</time>
      </trkpt>
      <trkpt lat="43.42422" lon="6.03324">
        <ele>405.03179931641</ele>
        <time>2015-01-07T13:43:39Z</time>
      </trkpt>
      <trkpt lat="43.4242" lon="6.03325">
        <ele>405.42984008789</ele>
        <time>2015-01-07T13:43:41Z</time>
      </trkpt>
      <trkpt lat="43.42418" lon="6.03325">
        <ele>405.83767700195</ele>
        <time>2015-01-07T13:43:43Z</time>
      </trkpt>
      <trkpt lat="43.42416" lon="6.03325">
        <ele>406.07965087891</ele>
        <time>2015-01-07T13:43:45Z</time>
      </trkpt>
      <trkpt lat="43.42414" lon="6.03325">
        <ele>406.01815795898</ele>
        <time>2015-01-07T13:43:47Z</time>
      </trkpt>
      <trkpt lat="43.42413" lon="6.03325">
        <ele>405.97518920898</ele>
        <time>2015-01-07T13:43:48Z</time>
      </trkpt>
      <trkpt lat="43.42413" lon="6.03325">
        <ele>405.94686889648</ele>
        <time>2015-01-07T13:43:49Z</time>
      </trkpt>
      <trkpt lat="43.4241" lon="6.03325">
        <ele>405.85821533203</ele>
        <time>2015-01-07T13:43:51Z</time>
      </trkpt>
      <trkpt lat="43.42408" lon="6.03325">
        <ele>405.77838134766</ele>
        <time>2015-01-07T13:43:53Z</time>
      </trkpt>
      <trkpt lat="43.42407" lon="6.03326">
        <ele>405.71292114258</ele>
        <time>2015-01-07T13:43:55Z</time>
      </trkpt>
      <trkpt lat="43.42406" lon="6.03326">
        <ele>405.67016601562</ele>
        <time>2015-01-07T13:43:56Z</time>
      </trkpt>
      <trkpt lat="43.42405" lon="6.03326">
        <ele>405.63821411133</ele>
        <time>2015-01-07T13:43:57Z</time>
      </trkpt>
      <trkpt lat="43.42401" lon="6.03327">
        <ele>405.47161865234</ele>
        <time>2015-01-07T13:44:01Z</time>
      </trkpt>
      <trkpt lat="43.42399" lon="6.03328">
        <ele>405.39373779297</ele>
        <time>2015-01-07T13:44:03Z</time>
      </trkpt>
      <trkpt lat="43.42397" lon="6.03329">
        <ele>405.31527709961</ele>
        <time>2015-01-07T13:44:05Z</time>
      </trkpt>
      <trkpt lat="43.42395" lon="6.0333">
        <ele>405.23748779297</ele>
        <time>2015-01-07T13:44:07Z</time>
      </trkpt>
      <trkpt lat="43.42393" lon="6.03331">
        <ele>405.16226196289</ele>
        <time>2015-01-07T13:44:09Z</time>
      </trkpt>
      <trkpt lat="43.42389" lon="6.03333">
        <ele>405.01766967773</ele>
        <time>2015-01-07T13:44:13Z</time>
      </trkpt>
      <trkpt lat="43.42386" lon="6.03333">
        <ele>404.90609741211</ele>
        <time>2015-01-07T13:44:16Z</time>
      </trkpt>
      <trkpt lat="43.42385" lon="6.03333">
        <ele>404.86517333984</ele>
        <time>2015-01-07T13:44:17Z</time>
      </trkpt>
      <trkpt lat="43.42383" lon="6.03332">
        <ele>404.78469848633</ele>
        <time>2015-01-07T13:44:19Z</time>
      </trkpt>
      <trkpt lat="43.42381" lon="6.03329">
        <ele>404.73434448242</ele>
        <time>2015-01-07T13:44:21Z</time>
      </trkpt>
      <trkpt lat="43.4238" lon="6.03326">
        <ele>404.68197631836</ele>
        <time>2015-01-07T13:44:23Z</time>
      </trkpt>
      <trkpt lat="43.42378" lon="6.03322">
        <ele>404.62719726562</ele>
        <time>2015-01-07T13:44:25Z</time>
      </trkpt>
      <trkpt lat="43.42378" lon="6.03318">
        <ele>404.6305847168</ele>
        <time>2015-01-07T13:44:27Z</time>
      </trkpt>
      <trkpt lat="43.42379" lon="6.03314">
        <ele>404.66622924805</ele>
        <time>2015-01-07T13:44:29Z</time>
      </trkpt>
      <trkpt lat="43.4238" lon="6.03309">
        <ele>404.72100830078</ele>
        <time>2015-01-07T13:44:31Z</time>
      </trkpt>
      <trkpt lat="43.4238" lon="6.03304">
        <ele>404.72842407227</ele>
        <time>2015-01-07T13:44:33Z</time>
      </trkpt>
      <trkpt lat="43.4238" lon="6.03299">
        <ele>404.71832275391</ele>
        <time>2015-01-07T13:44:35Z</time>
      </trkpt>
      <trkpt lat="43.42379" lon="6.03294">
        <ele>404.68890380859</ele>
        <time>2015-01-07T13:44:37Z</time>
      </trkpt>
      <trkpt lat="43.42378" lon="6.0329">
        <ele>404.638671875</ele>
        <time>2015-01-07T13:44:39Z</time>
      </trkpt>
      <trkpt lat="43.42376" lon="6.03282">
        <ele>404.5673828125</ele>
        <time>2015-01-07T13:44:42Z</time>
      </trkpt>
      <trkpt lat="43.42376" lon="6.03279">
        <ele>404.54879760742</ele>
        <time>2015-01-07T13:44:43Z</time>
      </trkpt>
      <trkpt lat="43.42374" lon="6.03277">
        <ele>404.46969604492</ele>
        <time>2015-01-07T13:44:44Z</time>
      </trkpt>
      <trkpt lat="43.42373" lon="6.03275">
        <ele>404.38879394531</ele>
        <time>2015-01-07T13:44:45Z</time>
      </trkpt>
      <trkpt lat="43.42371" lon="6.03271">
        <ele>404.30368041992</ele>
        <time>2015-01-07T13:44:47Z</time>
      </trkpt>
      <trkpt lat="43.42371" lon="6.03269">
        <ele>404.28091430664</ele>
        <time>2015-01-07T13:44:48Z</time>
      </trkpt>
      <trkpt lat="43.42371" lon="6.03266">
        <ele>404.2780456543</ele>
        <time>2015-01-07T13:44:49Z</time>
      </trkpt>
      <trkpt lat="43.42371" lon="6.0326">
        <ele>404.24951171875</ele>
        <time>2015-01-07T13:44:51Z</time>
      </trkpt>
      <trkpt lat="43.4237" lon="6.03254">
        <ele>404.21923828125</ele>
        <time>2015-01-07T13:44:53Z</time>
      </trkpt>
      <trkpt lat="43.4237" lon="6.03248">
        <ele>404.15350341797</ele>
        <time>2015-01-07T13:44:55Z</time>
      </trkpt>
      <trkpt lat="43.4237" lon="6.03242">
        <ele>404.072265625</ele>
        <time>2015-01-07T13:44:57Z</time>
      </trkpt>
      <trkpt lat="43.4237" lon="6.03237">
        <ele>403.96798706055</ele>
        <time>2015-01-07T13:44:59Z</time>
      </trkpt>
      <trkpt lat="43.4237" lon="6.03232">
        <ele>403.87353515625</ele>
        <time>2015-01-07T13:45:01Z</time>
      </trkpt>
      <trkpt lat="43.42371" lon="6.03227">
        <ele>403.82830810547</ele>
        <time>2015-01-07T13:45:03Z</time>
      </trkpt>
      <trkpt lat="43.42372" lon="6.03216">
        <ele>403.67407226562</ele>
        <time>2015-01-07T13:45:07Z</time>
      </trkpt>
      <trkpt lat="43.42372" lon="6.03205">
        <ele>403.49163818359</ele>
        <time>2015-01-07T13:45:11Z</time>
      </trkpt>
      <trkpt lat="43.42372" lon="6.03199">
        <ele>403.38891601562</ele>
        <time>2015-01-07T13:45:13Z</time>
      </trkpt>
      <trkpt lat="43.42372" lon="6.03193">
        <ele>403.28530883789</ele>
        <time>2015-01-07T13:45:15Z</time>
      </trkpt>
      <trkpt lat="43.42372" lon="6.03188">
        <ele>403.18258666992</ele>
        <time>2015-01-07T13:45:17Z</time>
      </trkpt>
      <trkpt lat="43.42373" lon="6.03172">
        <ele>402.93844604492</ele>
        <time>2015-01-07T13:45:23Z</time>
      </trkpt>
      <trkpt lat="43.42373" lon="6.03166">
        <ele>402.85159301758</ele>
        <time>2015-01-07T13:45:25Z</time>
      </trkpt>
      <trkpt lat="43.42373" lon="6.03161">
        <ele>402.91009521484</ele>
        <time>2015-01-07T13:45:27Z</time>
      </trkpt>
      <trkpt lat="43.42374" lon="6.03155">
        <ele>402.99810791016</ele>
        <time>2015-01-07T13:45:29Z</time>
      </trkpt>
      <trkpt lat="43.42374" lon="6.0315">
        <ele>403.05947875977</ele>
        <time>2015-01-07T13:45:31Z</time>
      </trkpt>
      <trkpt lat="43.42375" lon="6.03144">
        <ele>403.12063598633</ele>
        <time>2015-01-07T13:45:33Z</time>
      </trkpt>
      <trkpt lat="43.42375" lon="6.03129">
        <ele>403.20974731445</ele>
        <time>2015-01-07T13:45:39Z</time>
      </trkpt>
      <trkpt lat="43.42375" lon="6.03125">
        <ele>403.26599121094</ele>
        <time>2015-01-07T13:45:41Z</time>
      </trkpt>
      <trkpt lat="43.42376" lon="6.0312">
        <ele>403.32418823242</ele>
        <time>2015-01-07T13:45:43Z</time>
      </trkpt>
      <trkpt lat="43.42376" lon="6.03118">
        <ele>403.33926391602</ele>
        <time>2015-01-07T13:45:44Z</time>
      </trkpt>
      <trkpt lat="43.42377" lon="6.0311">
        <ele>403.47561645508</ele>
        <time>2015-01-07T13:45:47Z</time>
      </trkpt>
      <trkpt lat="43.42379" lon="6.03106">
        <ele>403.65893554688</ele>
        <time>2015-01-07T13:45:49Z</time>
      </trkpt>
      <trkpt lat="43.42379" lon="6.03103">
        <ele>403.7048034668</ele>
        <time>2015-01-07T13:45:50Z</time>
      </trkpt>
      <trkpt lat="43.42379" lon="6.03101">
        <ele>403.75155639648</ele>
        <time>2015-01-07T13:45:51Z</time>
      </trkpt>
      <trkpt lat="43.42381" lon="6.03097">
        <ele>403.87268066406</ele>
        <time>2015-01-07T13:45:53Z</time>
      </trkpt>
      <trkpt lat="43.42381" lon="6.03093">
        <ele>403.9635925293</ele>
        <time>2015-01-07T13:45:55Z</time>
      </trkpt>
      <trkpt lat="43.42382" lon="6.03088">
        <ele>404.0283203125</ele>
        <time>2015-01-07T13:45:57Z</time>
      </trkpt>
      <trkpt lat="43.42381" lon="6.03083">
        <ele>404.025390625</ele>
        <time>2015-01-07T13:45:59Z</time>
      </trkpt>
      <trkpt lat="43.42382" lon="6.03078">
        <ele>404.02554321289</ele>
        <time>2015-01-07T13:46:01Z</time>
      </trkpt>
      <trkpt lat="43.42382" lon="6.03074">
        <ele>404.02587890625</ele>
        <time>2015-01-07T13:46:03Z</time>
      </trkpt>
      <trkpt lat="43.42382" lon="6.03069">
        <ele>404.0263671875</ele>
        <time>2015-01-07T13:46:05Z</time>
      </trkpt>
      <trkpt lat="43.42383" lon="6.03065">
        <ele>404.05676269531</ele>
        <time>2015-01-07T13:46:07Z</time>
      </trkpt>
      <trkpt lat="43.42385" lon="6.03051">
        <ele>404.13949584961</ele>
        <time>2015-01-07T13:46:13Z</time>
      </trkpt>
      <trkpt lat="43.42386" lon="6.03047">
        <ele>404.16519165039</ele>
        <time>2015-01-07T13:46:15Z</time>
      </trkpt>
      <trkpt lat="43.42386" lon="6.03032">
        <ele>404.02801513672</ele>
        <time>2015-01-07T13:46:20Z</time>
      </trkpt>
      <trkpt lat="43.42386" lon="6.03029">
        <ele>404.00531005859</ele>
        <time>2015-01-07T13:46:21Z</time>
      </trkpt>
      <trkpt lat="43.42386" lon="6.03023">
        <ele>403.95733642578</ele>
        <time>2015-01-07T13:46:23Z</time>
      </trkpt>
      <trkpt lat="43.42386" lon="6.0302">
        <ele>403.93640136719</ele>
        <time>2015-01-07T13:46:24Z</time>
      </trkpt>
      <trkpt lat="43.42385" lon="6.03017">
        <ele>403.85647583008</ele>
        <time>2015-01-07T13:46:25Z</time>
      </trkpt>
      <trkpt lat="43.42384" lon="6.03012">
        <ele>403.70486450195</ele>
        <time>2015-01-07T13:46:27Z</time>
      </trkpt>
      <trkpt lat="43.42382" lon="6.03007">
        <ele>403.53103637695</ele>
        <time>2015-01-07T13:46:29Z</time>
      </trkpt>
      <trkpt lat="43.4238" lon="6.02998">
        <ele>403.35955810547</ele>
        <time>2015-01-07T13:46:33Z</time>
      </trkpt>
      <trkpt lat="43.4238" lon="6.02996">
        <ele>403.34927368164</ele>
        <time>2015-01-07T13:46:34Z</time>
      </trkpt>
      <trkpt lat="43.4238" lon="6.02994">
        <ele>403.30993652344</ele>
        <time>2015-01-07T13:46:35Z</time>
      </trkpt>
      <trkpt lat="43.42379" lon="6.0299">
        <ele>403.20327758789</ele>
        <time>2015-01-07T13:46:37Z</time>
      </trkpt>
      <trkpt lat="43.42379" lon="6.02981">
        <ele>403.18319702148</ele>
        <time>2015-01-07T13:46:41Z</time>
      </trkpt>
      <trkpt lat="43.42379" lon="6.02976">
        <ele>403.18817138672</ele>
        <time>2015-01-07T13:46:43Z</time>
      </trkpt>
      <trkpt lat="43.42379" lon="6.02972">
        <ele>403.16537475586</ele>
        <time>2015-01-07T13:46:45Z</time>
      </trkpt>
      <trkpt lat="43.42379" lon="6.02959">
        <ele>403.09497070312</ele>
        <time>2015-01-07T13:46:51Z</time>
      </trkpt>
      <trkpt lat="43.42381" lon="6.0295">
        <ele>403.16842651367</ele>
        <time>2015-01-07T13:46:55Z</time>
      </trkpt>
      <trkpt lat="43.42382" lon="6.02941">
        <ele>403.24505615234</ele>
        <time>2015-01-07T13:46:59Z</time>
      </trkpt>
      <trkpt lat="43.42383" lon="6.02937">
        <ele>403.28439331055</ele>
        <time>2015-01-07T13:47:01Z</time>
      </trkpt>
      <trkpt lat="43.42385" lon="6.02929">
        <ele>403.37481689453</ele>
        <time>2015-01-07T13:47:04Z</time>
      </trkpt>
      <trkpt lat="43.42387" lon="6.02921">
        <ele>403.49526977539</ele>
        <time>2015-01-07T13:47:07Z</time>
      </trkpt>
      <trkpt lat="43.42388" lon="6.02916">
        <ele>403.60095214844</ele>
        <time>2015-01-07T13:47:09Z</time>
      </trkpt>
      <trkpt lat="43.4239" lon="6.0291">
        <ele>403.70822143555</ele>
        <time>2015-01-07T13:47:11Z</time>
      </trkpt>
      <trkpt lat="43.4239" lon="6.02908">
        <ele>403.76364135742</ele>
        <time>2015-01-07T13:47:12Z</time>
      </trkpt>
      <trkpt lat="43.42391" lon="6.02905">
        <ele>403.81942749023</ele>
        <time>2015-01-07T13:47:13Z</time>
      </trkpt>
      <trkpt lat="43.42393" lon="6.029">
        <ele>403.96530151367</ele>
        <time>2015-01-07T13:47:15Z</time>
      </trkpt>
      <trkpt lat="43.42395" lon="6.02895">
        <ele>404.11328125</ele>
        <time>2015-01-07T13:47:17Z</time>
      </trkpt>
      <trkpt lat="43.42397" lon="6.02889">
        <ele>404.29748535156</ele>
        <time>2015-01-07T13:47:19Z</time>
      </trkpt>
      <trkpt lat="43.424" lon="6.02884">
        <ele>404.48706054688</ele>
        <time>2015-01-07T13:47:21Z</time>
      </trkpt>
      <trkpt lat="43.42402" lon="6.0288">
        <ele>404.67977905273</ele>
        <time>2015-01-07T13:47:23Z</time>
      </trkpt>
      <trkpt lat="43.42403" lon="6.02877">
        <ele>404.74273681641</ele>
        <time>2015-01-07T13:47:24Z</time>
      </trkpt>
      <trkpt lat="43.42404" lon="6.02875">
        <ele>404.87493896484</ele>
        <time>2015-01-07T13:47:25Z</time>
      </trkpt>
      <trkpt lat="43.42407" lon="6.02868">
        <ele>405.10675048828</ele>
        <time>2015-01-07T13:47:27Z</time>
      </trkpt>
      <trkpt lat="43.42409" lon="6.02865">
        <ele>405.27618408203</ele>
        <time>2015-01-07T13:47:28Z</time>
      </trkpt>
      <trkpt lat="43.4241" lon="6.02861">
        <ele>405.41192626953</ele>
        <time>2015-01-07T13:47:29Z</time>
      </trkpt>
      <trkpt lat="43.42414" lon="6.02852">
        <ele>405.72412109375</ele>
        <time>2015-01-07T13:47:31Z</time>
      </trkpt>
      <trkpt lat="43.42418" lon="6.02842">
        <ele>406.0153503418</ele>
        <time>2015-01-07T13:47:33Z</time>
      </trkpt>
      <trkpt lat="43.42423" lon="6.02832">
        <ele>406.08135986328</ele>
        <time>2015-01-07T13:47:35Z</time>
      </trkpt>
      <trkpt lat="43.42425" lon="6.02827">
        <ele>406.11270141602</ele>
        <time>2015-01-07T13:47:36Z</time>
      </trkpt>
      <trkpt lat="43.42426" lon="6.0282">
        <ele>406.15161132812</ele>
        <time>2015-01-07T13:47:37Z</time>
      </trkpt>
      <trkpt lat="43.42431" lon="6.02809">
        <ele>406.26913452148</ele>
        <time>2015-01-07T13:47:39Z</time>
      </trkpt>
      <trkpt lat="43.42434" lon="6.02804">
        <ele>406.3450012207</ele>
        <time>2015-01-07T13:47:40Z</time>
      </trkpt>
      <trkpt lat="43.42435" lon="6.02798">
        <ele>406.40802001953</ele>
        <time>2015-01-07T13:47:41Z</time>
      </trkpt>
      <trkpt lat="43.42434" lon="6.02786">
        <ele>406.44430541992</ele>
        <time>2015-01-07T13:47:43Z</time>
      </trkpt>
      <trkpt lat="43.42433" lon="6.02773">
        <ele>406.47372436523</ele>
        <time>2015-01-07T13:47:45Z</time>
      </trkpt>
      <trkpt lat="43.4244" lon="6.02756">
        <ele>406.81307983398</ele>
        <time>2015-01-07T13:47:48Z</time>
      </trkpt>
      <trkpt lat="43.42443" lon="6.0275">
        <ele>406.93728637695</ele>
        <time>2015-01-07T13:47:49Z</time>
      </trkpt>
      <trkpt lat="43.42445" lon="6.02737">
        <ele>407.02288818359</ele>
        <time>2015-01-07T13:47:51Z</time>
      </trkpt>
      <trkpt lat="43.42445" lon="6.02723">
        <ele>407.00796508789</ele>
        <time>2015-01-07T13:47:53Z</time>
      </trkpt>
      <trkpt lat="43.42444" lon="6.02715">
        <ele>406.96960449219</ele>
        <time>2015-01-07T13:47:54Z</time>
      </trkpt>
      <trkpt lat="43.42443" lon="6.02708">
        <ele>406.94686889648</ele>
        <time>2015-01-07T13:47:55Z</time>
      </trkpt>
      <trkpt lat="43.42444" lon="6.027">
        <ele>406.96557617188</ele>
        <time>2015-01-07T13:47:56Z</time>
      </trkpt>
      <trkpt lat="43.42444" lon="6.02693">
        <ele>406.98696899414</ele>
        <time>2015-01-07T13:47:57Z</time>
      </trkpt>
      <trkpt lat="43.42445" lon="6.02683">
        <ele>407.03552246094</ele>
        <time>2015-01-07T13:47:59Z</time>
      </trkpt>
      <trkpt lat="43.42447" lon="6.02679">
        <ele>407.13858032227</ele>
        <time>2015-01-07T13:48:01Z</time>
      </trkpt>
      <trkpt lat="43.42447" lon="6.02678">
        <ele>407.13900756836</ele>
        <time>2015-01-07T13:48:02Z</time>
      </trkpt>
      <trkpt lat="43.42447" lon="6.02678">
        <ele>407.13888549805</ele>
        <time>2015-01-07T13:48:03Z</time>
      </trkpt>
      <trkpt lat="43.42447" lon="6.02678">
        <ele>407.13888549805</ele>
        <time>2015-01-07T13:48:05Z</time>
      </trkpt>
      <trkpt lat="43.42447" lon="6.02678">
        <ele>407.13882446289</ele>
        <time>2015-01-07T13:48:11Z</time>
      </trkpt>
      <trkpt lat="43.42447" lon="6.02678">
        <ele>407.13882446289</ele>
        <time>2015-01-07T13:48:25Z</time>
      </trkpt>
      <trkpt lat="43.42447" lon="6.02678">
        <ele>407.13888549805</ele>
        <time>2015-01-07T13:48:27Z</time>
      </trkpt>
      <trkpt lat="43.42447" lon="6.02678">
        <ele>407.13888549805</ele>
        <time>2015-01-07T13:48:33Z</time>
      </trkpt>
      <trkpt lat="43.42447" lon="6.02678">
        <ele>407.13891601562</ele>
        <time>2015-01-07T13:48:41Z</time>
      </trkpt>
      <trkpt lat="43.42446" lon="6.02679">
        <ele>407.11294555664</ele>
        <time>2015-01-07T13:48:43Z</time>
      </trkpt>
      <trkpt lat="43.42445" lon="6.02682">
        <ele>407.01086425781</ele>
        <time>2015-01-07T13:48:45Z</time>
      </trkpt>
      <trkpt lat="43.42445" lon="6.02682">
        <ele>407.01086425781</ele>
        <time>2015-01-07T13:48:47Z</time>
      </trkpt>
      <trkpt lat="43.42445" lon="6.02682">
        <ele>407.01086425781</ele>
        <time>2015-01-07T13:48:49Z</time>
      </trkpt>
      <trkpt lat="43.42445" lon="6.02682">
        <ele>407.01086425781</ele>
        <time>2015-01-07T13:48:51Z</time>
      </trkpt>
      <trkpt lat="43.42445" lon="6.02682">
        <ele>407.01086425781</ele>
        <time>2015-01-07T13:48:55Z</time>
      </trkpt>
      <trkpt lat="43.42445" lon="6.02682">
        <ele>407.01083374023</ele>
        <time>2015-01-07T13:50:01Z</time>
      </trkpt>
      <trkpt lat="43.42445" lon="6.02683">
        <ele>407.01083374023</ele>
        <time>2015-01-07T13:50:11Z</time>
      </trkpt>
      <trkpt lat="43.42445" lon="6.02683">
        <ele>407.01080322266</ele>
        <time>2015-01-07T13:51:21Z</time>
      </trkpt>
      <trkpt lat="43.42445" lon="6.02683">
        <ele>407.01080322266</ele>
        <time>2015-01-07T13:51:59Z</time>
      </trkpt>
      <trkpt lat="43.42445" lon="6.02683">
        <ele>407.01080322266</ele>
        <time>2015-01-07T13:52:05Z</time>
      </trkpt>
      <trkpt lat="43.42445" lon="6.02683">
        <ele>407.01080322266</ele>
        <time>2015-01-07T13:52:47Z</time>
      </trkpt>
      <trkpt lat="43.42445" lon="6.02683">
        <ele>407.01080322266</ele>
        <time>2015-01-07T13:52:51Z</time>
      </trkpt>
      <trkpt lat="43.42445" lon="6.02682">
        <ele>407.060546875</ele>
        <time>2015-01-07T13:52:55Z</time>
      </trkpt>
      <trkpt lat="43.42445" lon="6.02682">
        <ele>407.06066894531</ele>
        <time>2015-01-07T13:52:56Z</time>
      </trkpt>
      <trkpt lat="43.42445" lon="6.02682">
        <ele>407.06079101562</ele>
        <time>2015-01-07T13:52:57Z</time>
      </trkpt>
      <trkpt lat="43.42445" lon="6.02682">
        <ele>407.0358581543</ele>
        <time>2015-01-07T13:52:59Z</time>
      </trkpt>
      <trkpt lat="43.42445" lon="6.02682">
        <ele>407.03588867188</ele>
        <time>2015-01-07T13:53:01Z</time>
      </trkpt>
      <trkpt lat="43.42445" lon="6.02682">
        <ele>407.03588867188</ele>
        <time>2015-01-07T13:53:04Z</time>
      </trkpt>
      <trkpt lat="43.42445" lon="6.02682">
        <ele>407.03588867188</ele>
        <time>2015-01-07T13:53:13Z</time>
      </trkpt>
      <trkpt lat="43.42445" lon="6.02682">
        <ele>407.03591918945</ele>
        <time>2015-01-07T13:53:21Z</time>
      </trkpt>
      <trkpt lat="43.42445" lon="6.02682">
        <ele>407.03588867188</ele>
        <time>2015-01-07T13:54:39Z</time>
      </trkpt>
      <trkpt lat="43.42445" lon="6.02682">
        <ele>407.03588867188</ele>
        <time>2015-01-07T13:54:41Z</time>
      </trkpt>
      <trkpt lat="43.42445" lon="6.02681">
        <ele>407.03598022461</ele>
        <time>2015-01-07T13:54:43Z</time>
      </trkpt>
      <trkpt lat="43.42447" lon="6.02678">
        <ele>407.13955688477</ele>
        <time>2015-01-07T13:54:45Z</time>
      </trkpt>
      <trkpt lat="43.4245" lon="6.02672">
        <ele>407.35772705078</ele>
        <time>2015-01-07T13:54:47Z</time>
      </trkpt>
      <trkpt lat="43.42453" lon="6.02664">
        <ele>407.67446899414</ele>
        <time>2015-01-07T13:54:49Z</time>
      </trkpt>
      <trkpt lat="43.42458" lon="6.02654">
        <ele>408.09133911133</ele>
        <time>2015-01-07T13:54:51Z</time>
      </trkpt>
      <trkpt lat="43.4246" lon="6.02644">
        <ele>408.42059326172</ele>
        <time>2015-01-07T13:54:53Z</time>
      </trkpt>
      <trkpt lat="43.42461" lon="6.02639">
        <ele>408.57183837891</ele>
        <time>2015-01-07T13:54:54Z</time>
      </trkpt>
      <trkpt lat="43.42463" lon="6.02635">
        <ele>408.78692626953</ele>
        <time>2015-01-07T13:54:55Z</time>
      </trkpt>
      <trkpt lat="43.42467" lon="6.02626">
        <ele>409.25051879883</ele>
        <time>2015-01-07T13:54:57Z</time>
      </trkpt>
      <trkpt lat="43.42476" lon="6.02615">
        <ele>410.10461425781</ele>
        <time>2015-01-07T13:55:00Z</time>
      </trkpt>
      <trkpt lat="43.42478" lon="6.02612">
        <ele>410.40048217773</ele>
        <time>2015-01-07T13:55:01Z</time>
      </trkpt>
      <trkpt lat="43.42481" lon="6.02608">
        <ele>410.69747924805</ele>
        <time>2015-01-07T13:55:02Z</time>
      </trkpt>
      <trkpt lat="43.42484" lon="6.02606">
        <ele>411.01824951172</ele>
        <time>2015-01-07T13:55:03Z</time>
      </trkpt>
      <trkpt lat="43.42489" lon="6.02603">
        <ele>411.55807495117</ele>
        <time>2015-01-07T13:55:05Z</time>
      </trkpt>
      <trkpt lat="43.42493" lon="6.02602">
        <ele>411.88919067383</ele>
        <time>2015-01-07T13:55:06Z</time>
      </trkpt>
      <trkpt lat="43.42496" lon="6.02601">
        <ele>412.22653198242</ele>
        <time>2015-01-07T13:55:07Z</time>
      </trkpt>
      <trkpt lat="43.42504" lon="6.02598">
        <ele>412.546875</ele>
        <time>2015-01-07T13:55:09Z</time>
      </trkpt>
      <trkpt lat="43.42511" lon="6.02593">
        <ele>412.49038696289</ele>
        <time>2015-01-07T13:55:11Z</time>
      </trkpt>
      <trkpt lat="43.42513" lon="6.02589">
        <ele>412.54397583008</ele>
        <time>2015-01-07T13:55:12Z</time>
      </trkpt>
      <trkpt lat="43.42515" lon="6.02585">
        <ele>412.59994506836</ele>
        <time>2015-01-07T13:55:13Z</time>
      </trkpt>
      <trkpt lat="43.42517" lon="6.0258">
        <ele>412.68627929688</ele>
        <time>2015-01-07T13:55:14Z</time>
      </trkpt>
      <trkpt lat="43.42519" lon="6.02576">
        <ele>412.73840332031</ele>
        <time>2015-01-07T13:55:15Z</time>
      </trkpt>
      <trkpt lat="43.42519" lon="6.02569">
        <ele>412.91940307617</ele>
        <time>2015-01-07T13:55:17Z</time>
      </trkpt>
      <trkpt lat="43.42523" lon="6.02565">
        <ele>412.94451904297</ele>
        <time>2015-01-07T13:55:19Z</time>
      </trkpt>
      <trkpt lat="43.42526" lon="6.02562">
        <ele>412.9694519043</ele>
        <time>2015-01-07T13:55:20Z</time>
      </trkpt>
      <trkpt lat="43.42531" lon="6.02554">
        <ele>413.08181762695</ele>
        <time>2015-01-07T13:55:22Z</time>
      </trkpt>
      <trkpt lat="43.42534" lon="6.0255">
        <ele>413.14141845703</ele>
        <time>2015-01-07T13:55:23Z</time>
      </trkpt>
      <trkpt lat="43.42537" lon="6.02545">
        <ele>413.23980712891</ele>
        <time>2015-01-07T13:55:24Z</time>
      </trkpt>
      <trkpt lat="43.42539" lon="6.0254">
        <ele>413.35546875</ele>
        <time>2015-01-07T13:55:25Z</time>
      </trkpt>
      <trkpt lat="43.42543" lon="6.0253">
        <ele>413.57958984375</ele>
        <time>2015-01-07T13:55:27Z</time>
      </trkpt>
      <trkpt lat="43.42548" lon="6.02522">
        <ele>413.72677612305</ele>
        <time>2015-01-07T13:55:29Z</time>
      </trkpt>
      <trkpt lat="43.42555" lon="6.02516">
        <ele>413.84555053711</ele>
        <time>2015-01-07T13:55:31Z</time>
      </trkpt>
      <trkpt lat="43.42558" lon="6.02506">
        <ele>414.09973144531</ele>
        <time>2015-01-07T13:55:33Z</time>
      </trkpt>
      <trkpt lat="43.42559" lon="6.02502">
        <ele>414.2414855957</ele>
        <time>2015-01-07T13:55:34Z</time>
      </trkpt>
      <trkpt lat="43.42559" lon="6.02496">
        <ele>414.41168212891</ele>
        <time>2015-01-07T13:55:35Z</time>
      </trkpt>
      <trkpt lat="43.4256" lon="6.02487">
        <ele>414.7080078125</ele>
        <time>2015-01-07T13:55:37Z</time>
      </trkpt>
      <trkpt lat="43.42564" lon="6.0248">
        <ele>414.90975952148</ele>
        <time>2015-01-07T13:55:39Z</time>
      </trkpt>
      <trkpt lat="43.42566" lon="6.02472">
        <ele>415.15728759766</ele>
        <time>2015-01-07T13:55:41Z</time>
      </trkpt>
      <trkpt lat="43.42568" lon="6.02463">
        <ele>415.42462158203</ele>
        <time>2015-01-07T13:55:43Z</time>
      </trkpt>
      <trkpt lat="43.4257" lon="6.02454">
        <ele>415.71542358398</ele>
        <time>2015-01-07T13:55:45Z</time>
      </trkpt>
      <trkpt lat="43.42571" lon="6.02444">
        <ele>416.08050537109</ele>
        <time>2015-01-07T13:55:47Z</time>
      </trkpt>
      <trkpt lat="43.42572" lon="6.02432">
        <ele>416.47583007812</ele>
        <time>2015-01-07T13:55:49Z</time>
      </trkpt>
      <trkpt lat="43.42572" lon="6.02426">
        <ele>416.68609619141</ele>
        <time>2015-01-07T13:55:50Z</time>
      </trkpt>
      <trkpt lat="43.42572" lon="6.0242">
        <ele>416.87060546875</ele>
        <time>2015-01-07T13:55:51Z</time>
      </trkpt>
      <trkpt lat="43.42578" lon="6.02403">
        <ele>417.47933959961</ele>
        <time>2015-01-07T13:55:54Z</time>
      </trkpt>
      <trkpt lat="43.42588" lon="6.02386">
        <ele>417.4479675293</ele>
        <time>2015-01-07T13:55:57Z</time>
      </trkpt>
      <trkpt lat="43.42591" lon="6.02381">
        <ele>417.04873657227</ele>
        <time>2015-01-07T13:55:58Z</time>
      </trkpt>
      <trkpt lat="43.42596" lon="6.02376">
        <ele>416.62634277344</ele>
        <time>2015-01-07T13:55:59Z</time>
      </trkpt>
      <trkpt lat="43.42604" lon="6.02368">
        <ele>415.6530456543</ele>
        <time>2015-01-07T13:56:01Z</time>
      </trkpt>
      <trkpt lat="43.42613" lon="6.02363">
        <ele>414.56619262695</ele>
        <time>2015-01-07T13:56:03Z</time>
      </trkpt>
      <trkpt lat="43.42616" lon="6.0236">
        <ele>414.2341003418</ele>
        <time>2015-01-07T13:56:04Z</time>
      </trkpt>
      <trkpt lat="43.42618" lon="6.02356">
        <ele>414.05029296875</ele>
        <time>2015-01-07T13:56:05Z</time>
      </trkpt>
      <trkpt lat="43.4262" lon="6.02347">
        <ele>414.1494140625</ele>
        <time>2015-01-07T13:56:07Z</time>
      </trkpt>
      <trkpt lat="43.42623" lon="6.0234">
        <ele>413.99853515625</ele>
        <time>2015-01-07T13:56:09Z</time>
      </trkpt>
      <trkpt lat="43.42624" lon="6.02337">
        <ele>413.99368286133</ele>
        <time>2015-01-07T13:56:10Z</time>
      </trkpt>
      <trkpt lat="43.42625" lon="6.02336">
        <ele>413.89636230469</ele>
        <time>2015-01-07T13:56:11Z</time>
      </trkpt>
      <trkpt lat="43.42627" lon="6.02332">
        <ele>413.81924438477</ele>
        <time>2015-01-07T13:56:13Z</time>
      </trkpt>
      <trkpt lat="43.42627" lon="6.0233">
        <ele>413.79006958008</ele>
        <time>2015-01-07T13:56:14Z</time>
      </trkpt>
      <trkpt lat="43.42628" lon="6.02328">
        <ele>413.75573730469</ele>
        <time>2015-01-07T13:56:15Z</time>
      </trkpt>
      <trkpt lat="43.4263" lon="6.02323">
        <ele>413.68878173828</ele>
        <time>2015-01-07T13:56:17Z</time>
      </trkpt>
      <trkpt lat="43.42633" lon="6.02316">
        <ele>413.47421264648</ele>
        <time>2015-01-07T13:56:20Z</time>
      </trkpt>
      <trkpt lat="43.42634" lon="6.02313">
        <ele>413.40383911133</ele>
        <time>2015-01-07T13:56:21Z</time>
      </trkpt>
      <trkpt lat="43.42636" lon="6.02295">
        <ele>413.7265625</ele>
        <time>2015-01-07T13:56:27Z</time>
      </trkpt>
      <trkpt lat="43.42637" lon="6.02292">
        <ele>413.79177856445</ele>
        <time>2015-01-07T13:56:28Z</time>
      </trkpt>
      <trkpt lat="43.42636" lon="6.02289">
        <ele>413.95831298828</ele>
        <time>2015-01-07T13:56:29Z</time>
      </trkpt>
      <trkpt lat="43.42636" lon="6.02282">
        <ele>414.25354003906</ele>
        <time>2015-01-07T13:56:31Z</time>
      </trkpt>
      <trkpt lat="43.42635" lon="6.02275">
        <ele>414.60717773438</ele>
        <time>2015-01-07T13:56:33Z</time>
      </trkpt>
      <trkpt lat="43.42636" lon="6.02272">
        <ele>414.66552734375</ele>
        <time>2015-01-07T13:56:34Z</time>
      </trkpt>
      <trkpt lat="43.42636" lon="6.02264">
        <ele>414.96423339844</ele>
        <time>2015-01-07T13:56:37Z</time>
      </trkpt>
      <trkpt lat="43.42637" lon="6.02258">
        <ele>414.98828125</ele>
        <time>2015-01-07T13:56:39Z</time>
      </trkpt>
      <trkpt lat="43.42638" lon="6.02252">
        <ele>414.99169921875</ele>
        <time>2015-01-07T13:56:41Z</time>
      </trkpt>
      <trkpt lat="43.4264" lon="6.02244">
        <ele>415.08084106445</ele>
        <time>2015-01-07T13:56:43Z</time>
      </trkpt>
      <trkpt lat="43.42643" lon="6.02235">
        <ele>414.98654174805</ele>
        <time>2015-01-07T13:56:45Z</time>
      </trkpt>
      <trkpt lat="43.42649" lon="6.02228">
        <ele>414.45230102539</ele>
        <time>2015-01-07T13:56:47Z</time>
      </trkpt>
      <trkpt lat="43.42656" lon="6.02221">
        <ele>413.6340637207</ele>
        <time>2015-01-07T13:56:49Z</time>
      </trkpt>
      <trkpt lat="43.4266" lon="6.02216">
        <ele>413.20425415039</ele>
        <time>2015-01-07T13:56:50Z</time>
      </trkpt>
      <trkpt lat="43.42664" lon="6.02211">
        <ele>412.76818847656</ele>
        <time>2015-01-07T13:56:51Z</time>
      </trkpt>
      <trkpt lat="43.42669" lon="6.02206">
        <ele>412.25653076172</ele>
        <time>2015-01-07T13:56:52Z</time>
      </trkpt>
      <trkpt lat="43.42675" lon="6.022">
        <ele>411.58551025391</ele>
        <time>2015-01-07T13:56:53Z</time>
      </trkpt>
      <trkpt lat="43.4268" lon="6.02196">
        <ele>410.91149902344</ele>
        <time>2015-01-07T13:56:54Z</time>
      </trkpt>
      <trkpt lat="43.42685" lon="6.02193">
        <ele>410.22192382812</ele>
        <time>2015-01-07T13:56:55Z</time>
      </trkpt>
      <trkpt lat="43.42694" lon="6.02188">
        <ele>409.10955810547</ele>
        <time>2015-01-07T13:56:57Z</time>
      </trkpt>
      <trkpt lat="43.42701" lon="6.0218">
        <ele>408.19223022461</ele>
        <time>2015-01-07T13:56:59Z</time>
      </trkpt>
      <trkpt lat="43.42709" lon="6.02168">
        <ele>407.43075561523</ele>
        <time>2015-01-07T13:57:01Z</time>
      </trkpt>
      <trkpt lat="43.42713" lon="6.02163">
        <ele>406.84725952148</ele>
        <time>2015-01-07T13:57:02Z</time>
      </trkpt>
      <trkpt lat="43.42716" lon="6.02159">
        <ele>406.34451293945</ele>
        <time>2015-01-07T13:57:03Z</time>
      </trkpt>
      <trkpt lat="43.42719" lon="6.02158">
        <ele>405.87057495117</ele>
        <time>2015-01-07T13:57:04Z</time>
      </trkpt>
      <trkpt lat="43.4272" lon="6.02159">
        <ele>405.74185180664</ele>
        <time>2015-01-07T13:57:05Z</time>
      </trkpt>
      <trkpt lat="43.4272" lon="6.02159">
        <ele>405.79760742188</ele>
        <time>2015-01-07T13:57:06Z</time>
      </trkpt>
      <trkpt lat="43.4272" lon="6.02159">
        <ele>405.80053710938</ele>
        <time>2015-01-07T13:57:07Z</time>
      </trkpt>
      <trkpt lat="43.4272" lon="6.02159">
        <ele>405.80096435547</ele>
        <time>2015-01-07T13:57:09Z</time>
      </trkpt>
      <trkpt lat="43.4272" lon="6.02159">
        <ele>405.79971313477</ele>
        <time>2015-01-07T13:57:11Z</time>
      </trkpt>
      <trkpt lat="43.4272" lon="6.02159">
        <ele>405.79971313477</ele>
        <time>2015-01-07T13:57:13Z</time>
      </trkpt>
      <trkpt lat="43.4272" lon="6.02159">
        <ele>405.74020385742</ele>
        <time>2015-01-07T13:57:15Z</time>
      </trkpt>
      <trkpt lat="43.4272" lon="6.02159">
        <ele>405.74020385742</ele>
        <time>2015-01-07T13:57:17Z</time>
      </trkpt>
      <trkpt lat="43.4272" lon="6.0216">
        <ele>405.67498779297</ele>
        <time>2015-01-07T13:57:19Z</time>
      </trkpt>
      <trkpt lat="43.42721" lon="6.0216">
        <ele>405.61389160156</ele>
        <time>2015-01-07T13:57:21Z</time>
      </trkpt>
      <trkpt lat="43.42721" lon="6.0216">
        <ele>405.61471557617</ele>
        <time>2015-01-07T13:57:27Z</time>
      </trkpt>
      <trkpt lat="43.42721" lon="6.0216">
        <ele>405.61349487305</ele>
        <time>2015-01-07T13:57:31Z</time>
      </trkpt>
      <trkpt lat="43.42721" lon="6.0216">
        <ele>405.61349487305</ele>
        <time>2015-01-07T13:57:33Z</time>
      </trkpt>
      <trkpt lat="43.42721" lon="6.0216">
        <ele>405.55364990234</ele>
        <time>2015-01-07T13:57:36Z</time>
      </trkpt>
      <trkpt lat="43.42721" lon="6.0216">
        <ele>405.55325317383</ele>
        <time>2015-01-07T13:57:39Z</time>
      </trkpt>
      <trkpt lat="43.42721" lon="6.0216">
        <ele>405.55166625977</ele>
        <time>2015-01-07T13:57:46Z</time>
      </trkpt>
      <trkpt lat="43.42721" lon="6.0216">
        <ele>405.55126953125</ele>
        <time>2015-01-07T13:57:47Z</time>
      </trkpt>
      <trkpt lat="43.42721" lon="6.0216">
        <ele>405.55087280273</ele>
        <time>2015-01-07T13:57:49Z</time>
      </trkpt>
      <trkpt lat="43.42721" lon="6.02162">
        <ele>405.59786987305</ele>
        <time>2015-01-07T13:57:53Z</time>
      </trkpt>
      <trkpt lat="43.42721" lon="6.02163">
        <ele>405.58462524414</ele>
        <time>2015-01-07T13:57:57Z</time>
      </trkpt>
      <trkpt lat="43.42722" lon="6.02166">
        <ele>405.38262939453</ele>
        <time>2015-01-07T13:57:59Z</time>
      </trkpt>
      <trkpt lat="43.42722" lon="6.02168">
        <ele>405.34982299805</ele>
        <time>2015-01-07T13:58:00Z</time>
      </trkpt>
      <trkpt lat="43.42722" lon="6.0217">
        <ele>405.23431396484</ele>
        <time>2015-01-07T13:58:01Z</time>
      </trkpt>
      <trkpt lat="43.42725" lon="6.02175">
        <ele>404.65963745117</ele>
        <time>2015-01-07T13:58:03Z</time>
      </trkpt>
      <trkpt lat="43.42727" lon="6.02179">
        <ele>404.26547241211</ele>
        <time>2015-01-07T13:58:04Z</time>
      </trkpt>
      <trkpt lat="43.4273" lon="6.02182">
        <ele>403.7102355957</ele>
        <time>2015-01-07T13:58:05Z</time>
      </trkpt>
      <trkpt lat="43.42737" lon="6.02186">
        <ele>402.5094909668</ele>
        <time>2015-01-07T13:58:07Z</time>
      </trkpt>
      <trkpt lat="43.42741" lon="6.02187">
        <ele>401.81936645508</ele>
        <time>2015-01-07T13:58:08Z</time>
      </trkpt>
      <trkpt lat="43.42746" lon="6.0219">
        <ele>401.11856079102</ele>
        <time>2015-01-07T13:58:09Z</time>
      </trkpt>
      <trkpt lat="43.42753" lon="6.02195">
        <ele>400.2868347168</ele>
        <time>2015-01-07T13:58:11Z</time>
      </trkpt>
      <trkpt lat="43.42756" lon="6.02198">
        <ele>400.19046020508</ele>
        <time>2015-01-07T13:58:12Z</time>
      </trkpt>
      <trkpt lat="43.4276" lon="6.02202">
        <ele>400.0927734375</ele>
        <time>2015-01-07T13:58:13Z</time>
      </trkpt>
      <trkpt lat="43.42763" lon="6.02206">
        <ele>399.98486328125</ele>
        <time>2015-01-07T13:58:14Z</time>
      </trkpt>
      <trkpt lat="43.42765" lon="6.0221">
        <ele>399.86923217773</ele>
        <time>2015-01-07T13:58:15Z</time>
      </trkpt>
      <trkpt lat="43.42768" lon="6.02219">
        <ele>399.67147827148</ele>
        <time>2015-01-07T13:58:17Z</time>
      </trkpt>
      <trkpt lat="43.42771" lon="6.02224">
        <ele>399.53790283203</ele>
        <time>2015-01-07T13:58:19Z</time>
      </trkpt>
      <trkpt lat="43.42772" lon="6.02229">
        <ele>399.44241333008</ele>
        <time>2015-01-07T13:58:21Z</time>
      </trkpt>
      <trkpt lat="43.42772" lon="6.02231">
        <ele>399.40139770508</ele>
        <time>2015-01-07T13:58:22Z</time>
      </trkpt>
      <trkpt lat="43.42773" lon="6.02233">
        <ele>399.35491943359</ele>
        <time>2015-01-07T13:58:23Z</time>
      </trkpt>
      <trkpt lat="43.42774" lon="6.02236">
        <ele>399.28948974609</ele>
        <time>2015-01-07T13:58:25Z</time>
      </trkpt>
      <trkpt lat="43.42775" lon="6.02238">
        <ele>399.24542236328</ele>
        <time>2015-01-07T13:58:26Z</time>
      </trkpt>
      <trkpt lat="43.42778" lon="6.02243">
        <ele>399.13854980469</ele>
        <time>2015-01-07T13:58:28Z</time>
      </trkpt>
      <trkpt lat="43.4278" lon="6.02246">
        <ele>399.08465576172</ele>
        <time>2015-01-07T13:58:29Z</time>
      </trkpt>
      <trkpt lat="43.42782" lon="6.0225">
        <ele>399.00918579102</ele>
        <time>2015-01-07T13:58:31Z</time>
      </trkpt>
      <trkpt lat="43.42784" lon="6.02254">
        <ele>398.79022216797</ele>
        <time>2015-01-07T13:58:33Z</time>
      </trkpt>
      <trkpt lat="43.42788" lon="6.02258">
        <ele>398.50805664062</ele>
        <time>2015-01-07T13:58:35Z</time>
      </trkpt>
      <trkpt lat="43.42791" lon="6.02263">
        <ele>398.24841308594</ele>
        <time>2015-01-07T13:58:37Z</time>
      </trkpt>
      <trkpt lat="43.42794" lon="6.02267">
        <ele>397.99172973633</ele>
        <time>2015-01-07T13:58:39Z</time>
      </trkpt>
      <trkpt lat="43.42794" lon="6.02267">
        <ele>397.95910644531</ele>
        <time>2015-01-07T13:58:41Z</time>
      </trkpt>
      <trkpt lat="43.42795" lon="6.02267">
        <ele>397.94079589844</ele>
        <time>2015-01-07T13:58:43Z</time>
      </trkpt>
      <trkpt lat="43.42796" lon="6.02268">
        <ele>397.90972900391</ele>
        <time>2015-01-07T13:58:45Z</time>
      </trkpt>
      <trkpt lat="43.42796" lon="6.02268">
        <ele>397.91555786133</ele>
        <time>2015-01-07T13:58:47Z</time>
      </trkpt>
      <trkpt lat="43.42796" lon="6.02268">
        <ele>397.88150024414</ele>
        <time>2015-01-07T13:58:49Z</time>
      </trkpt>
      <trkpt lat="43.42796" lon="6.02268">
        <ele>397.88150024414</ele>
        <time>2015-01-07T13:58:55Z</time>
      </trkpt>
      <trkpt lat="43.42796" lon="6.02268">
        <ele>397.88732910156</ele>
        <time>2015-01-07T13:59:17Z</time>
      </trkpt>
      <trkpt lat="43.42796" lon="6.02268">
        <ele>397.88732910156</ele>
        <time>2015-01-07T13:59:19Z</time>
      </trkpt>
      <trkpt lat="43.42796" lon="6.02268">
        <ele>397.88442993164</ele>
        <time>2015-01-07T13:59:27Z</time>
      </trkpt>
      <trkpt lat="43.42796" lon="6.02269">
        <ele>397.8581237793</ele>
        <time>2015-01-07T14:00:53Z</time>
      </trkpt>
      <trkpt lat="43.42795" lon="6.02268">
        <ele>397.90588378906</ele>
        <time>2015-01-07T14:01:27Z</time>
      </trkpt>
      <trkpt lat="43.42794" lon="6.02269">
        <ele>397.87503051758</ele>
        <time>2015-01-07T14:01:28Z</time>
      </trkpt>
      <trkpt lat="43.42794" lon="6.02271">
        <ele>397.74395751953</ele>
        <time>2015-01-07T14:01:34Z</time>
      </trkpt>
      <trkpt lat="43.42789" lon="6.0228">
        <ele>397.23669433594</ele>
        <time>2015-01-07T14:01:38Z</time>
      </trkpt>
      <trkpt lat="43.42786" lon="6.02289">
        <ele>396.69934082031</ele>
        <time>2015-01-07T14:01:41Z</time>
      </trkpt>
      <trkpt lat="43.42786" lon="6.02293">
        <ele>396.46755981445</ele>
        <time>2015-01-07T14:01:42Z</time>
      </trkpt>
      <trkpt lat="43.42794" lon="6.02297">
        <ele>396.15023803711</ele>
        <time>2015-01-07T14:01:45Z</time>
      </trkpt>
      <trkpt lat="43.42805" lon="6.023">
        <ele>395.79647827148</ele>
        <time>2015-01-07T14:01:48Z</time>
      </trkpt>
      <trkpt lat="43.42808" lon="6.02305">
        <ele>395.47085571289</ele>
        <time>2015-01-07T14:01:49Z</time>
      </trkpt>
      <trkpt lat="43.42805" lon="6.02322">
        <ele>394.41323852539</ele>
        <time>2015-01-07T14:01:52Z</time>
      </trkpt>
      <trkpt lat="43.42803" lon="6.02328">
        <ele>394.09588623047</ele>
        <time>2015-01-07T14:01:53Z</time>
      </trkpt>
      <trkpt lat="43.42801" lon="6.02334">
        <ele>393.72503662109</ele>
        <time>2015-01-07T14:01:54Z</time>
      </trkpt>
      <trkpt lat="43.42794" lon="6.02346">
        <ele>392.97094726562</ele>
        <time>2015-01-07T14:01:56Z</time>
      </trkpt>
      <trkpt lat="43.42789" lon="6.02356">
        <ele>392.43334960938</ele>
        <time>2015-01-07T14:01:58Z</time>
      </trkpt>
      <trkpt lat="43.42789" lon="6.02362">
        <ele>392.03530883789</ele>
        <time>2015-01-07T14:01:59Z</time>
      </trkpt>
      <trkpt lat="43.42789" lon="6.02368">
        <ele>391.56585693359</ele>
        <time>2015-01-07T14:02:00Z</time>
      </trkpt>
      <trkpt lat="43.42791" lon="6.02375">
        <ele>391.06927490234</ele>
        <time>2015-01-07T14:02:01Z</time>
      </trkpt>
      <trkpt lat="43.42793" lon="6.0238">
        <ele>390.58743286133</ele>
        <time>2015-01-07T14:02:02Z</time>
      </trkpt>
      <trkpt lat="43.42794" lon="6.02386">
        <ele>390.09338378906</ele>
        <time>2015-01-07T14:02:03Z</time>
      </trkpt>
      <trkpt lat="43.42796" lon="6.02392">
        <ele>389.55676269531</ele>
        <time>2015-01-07T14:02:04Z</time>
      </trkpt>
      <trkpt lat="43.42801" lon="6.02405">
        <ele>388.23150634766</ele>
        <time>2015-01-07T14:02:06Z</time>
      </trkpt>
      <trkpt lat="43.42802" lon="6.02419">
        <ele>387.12530517578</ele>
        <time>2015-01-07T14:02:08Z</time>
      </trkpt>
      <trkpt lat="43.42802" lon="6.02426">
        <ele>386.78170776367</ele>
        <time>2015-01-07T14:02:09Z</time>
      </trkpt>
      <trkpt lat="43.428" lon="6.02449">
        <ele>385.67138671875</ele>
        <time>2015-01-07T14:02:12Z</time>
      </trkpt>
      <trkpt lat="43.42802" lon="6.02456">
        <ele>385.21279907227</ele>
        <time>2015-01-07T14:02:13Z</time>
      </trkpt>
      <trkpt lat="43.42804" lon="6.02476">
        <ele>383.98825073242</ele>
        <time>2015-01-07T14:02:16Z</time>
      </trkpt>
      <trkpt lat="43.42801" lon="6.02491">
        <ele>383.43502807617</ele>
        <time>2015-01-07T14:02:18Z</time>
      </trkpt>
      <trkpt lat="43.42799" lon="6.02498">
        <ele>383.15286254883</ele>
        <time>2015-01-07T14:02:19Z</time>
      </trkpt>
      <trkpt lat="43.42797" lon="6.02505">
        <ele>383.06732177734</ele>
        <time>2015-01-07T14:02:20Z</time>
      </trkpt>
      <trkpt lat="43.42797" lon="6.02519">
        <ele>382.82751464844</ele>
        <time>2015-01-07T14:02:23Z</time>
      </trkpt>
      <trkpt lat="43.4281" lon="6.02526">
        <ele>382.00177001953</ele>
        <time>2015-01-07T14:02:26Z</time>
      </trkpt>
      <trkpt lat="43.4283" lon="6.02526">
        <ele>380.86416625977</ele>
        <time>2015-01-07T14:02:30Z</time>
      </trkpt>
      <trkpt lat="43.42836" lon="6.02534">
        <ele>380.63751220703</ele>
        <time>2015-01-07T14:02:32Z</time>
      </trkpt>
      <trkpt lat="43.42843" lon="6.02545">
        <ele>380.62350463867</ele>
        <time>2015-01-07T14:02:34Z</time>
      </trkpt>
      <trkpt lat="43.42855" lon="6.02555">
        <ele>380.68646240234</ele>
        <time>2015-01-07T14:02:37Z</time>
      </trkpt>
      <trkpt lat="43.42861" lon="6.02564">
        <ele>380.63748168945</ele>
        <time>2015-01-07T14:02:39Z</time>
      </trkpt>
      <trkpt lat="43.42868" lon="6.02575">
        <ele>380.56127929688</ele>
        <time>2015-01-07T14:02:41Z</time>
      </trkpt>
      <trkpt lat="43.42872" lon="6.0258">
        <ele>380.52429199219</ele>
        <time>2015-01-07T14:02:42Z</time>
      </trkpt>
      <trkpt lat="43.42876" lon="6.02586">
        <ele>380.35043334961</ele>
        <time>2015-01-07T14:02:43Z</time>
      </trkpt>
      <trkpt lat="43.4288" lon="6.02591">
        <ele>380.03729248047</ele>
        <time>2015-01-07T14:02:44Z</time>
      </trkpt>
      <trkpt lat="43.42883" lon="6.02595">
        <ele>379.78289794922</ele>
        <time>2015-01-07T14:02:45Z</time>
      </trkpt>
      <trkpt lat="43.42884" lon="6.02597">
        <ele>379.63125610352</ele>
        <time>2015-01-07T14:02:46Z</time>
      </trkpt>
      <trkpt lat="43.42887" lon="6.02602">
        <ele>379.25744628906</ele>
        <time>2015-01-07T14:02:48Z</time>
      </trkpt>
      <trkpt lat="43.42889" lon="6.0261">
        <ele>378.67953491211</ele>
        <time>2015-01-07T14:02:50Z</time>
      </trkpt>
      <trkpt lat="43.42889" lon="6.02614">
        <ele>378.36392211914</ele>
        <time>2015-01-07T14:02:51Z</time>
      </trkpt>
      <trkpt lat="43.4289" lon="6.02623">
        <ele>377.59155273438</ele>
        <time>2015-01-07T14:02:53Z</time>
      </trkpt>
      <trkpt lat="43.42892" lon="6.02628">
        <ele>377.13549804688</ele>
        <time>2015-01-07T14:02:54Z</time>
      </trkpt>
      <trkpt lat="43.42894" lon="6.02632">
        <ele>376.73336791992</ele>
        <time>2015-01-07T14:02:55Z</time>
      </trkpt>
      <trkpt lat="43.42895" lon="6.02637">
        <ele>376.3313293457</ele>
        <time>2015-01-07T14:02:56Z</time>
      </trkpt>
      <trkpt lat="43.42896" lon="6.0264">
        <ele>376.02255249023</ele>
        <time>2015-01-07T14:02:57Z</time>
      </trkpt>
      <trkpt lat="43.42895" lon="6.02644">
        <ele>375.7333984375</ele>
        <time>2015-01-07T14:02:58Z</time>
      </trkpt>
      <trkpt lat="43.42896" lon="6.02655">
        <ele>374.72360229492</ele>
        <time>2015-01-07T14:03:01Z</time>
      </trkpt>
      <trkpt lat="43.429" lon="6.02662">
        <ele>373.80892944336</ele>
        <time>2015-01-07T14:03:03Z</time>
      </trkpt>
      <trkpt lat="43.42906" lon="6.0267">
        <ele>372.57168579102</ele>
        <time>2015-01-07T14:03:06Z</time>
      </trkpt>
      <trkpt lat="43.42909" lon="6.02672">
        <ele>372.16027832031</ele>
        <time>2015-01-07T14:03:07Z</time>
      </trkpt>
      <trkpt lat="43.42914" lon="6.02677">
        <ele>371.33239746094</ele>
        <time>2015-01-07T14:03:10Z</time>
      </trkpt>
      <trkpt lat="43.42915" lon="6.02677">
        <ele>371.20663452148</ele>
        <time>2015-01-07T14:03:11Z</time>
      </trkpt>
      <trkpt lat="43.42918" lon="6.02681">
        <ele>370.72793579102</ele>
        <time>2015-01-07T14:03:13Z</time>
      </trkpt>
      <trkpt lat="43.42921" lon="6.02685">
        <ele>370.38201904297</ele>
        <time>2015-01-07T14:03:14Z</time>
      </trkpt>
      <trkpt lat="43.42921" lon="6.0269">
        <ele>369.91333007812</ele>
        <time>2015-01-07T14:03:15Z</time>
      </trkpt>
      <trkpt lat="43.42921" lon="6.02699">
        <ele>369.00915527344</ele>
        <time>2015-01-07T14:03:17Z</time>
      </trkpt>
      <trkpt lat="43.42924" lon="6.02715">
        <ele>367.44842529297</ele>
        <time>2015-01-07T14:03:21Z</time>
      </trkpt>
      <trkpt lat="43.42924" lon="6.02719">
        <ele>367.08889770508</ele>
        <time>2015-01-07T14:03:22Z</time>
      </trkpt>
      <trkpt lat="43.42928" lon="6.02728">
        <ele>366.21493530273</ele>
        <time>2015-01-07T14:03:25Z</time>
      </trkpt>
      <trkpt lat="43.4293" lon="6.0273">
        <ele>365.99285888672</ele>
        <time>2015-01-07T14:03:26Z</time>
      </trkpt>
      <trkpt lat="43.42936" lon="6.02734">
        <ele>365.58724975586</ele>
        <time>2015-01-07T14:03:28Z</time>
      </trkpt>
      <trkpt lat="43.42941" lon="6.02742">
        <ele>364.6999206543</ele>
        <time>2015-01-07T14:03:30Z</time>
      </trkpt>
      <trkpt lat="43.42944" lon="6.02746">
        <ele>364.15295410156</ele>
        <time>2015-01-07T14:03:31Z</time>
      </trkpt>
      <trkpt lat="43.42954" lon="6.02761">
        <ele>363.45355224609</ele>
        <time>2015-01-07T14:03:34Z</time>
      </trkpt>
      <trkpt lat="43.42957" lon="6.02765">
        <ele>363.34387207031</ele>
        <time>2015-01-07T14:03:35Z</time>
      </trkpt>
      <trkpt lat="43.42959" lon="6.02769">
        <ele>363.24771118164</ele>
        <time>2015-01-07T14:03:36Z</time>
      </trkpt>
      <trkpt lat="43.42965" lon="6.02777">
        <ele>362.97970581055</ele>
        <time>2015-01-07T14:03:38Z</time>
      </trkpt>
      <trkpt lat="43.42969" lon="6.02781">
        <ele>362.80804443359</ele>
        <time>2015-01-07T14:03:39Z</time>
      </trkpt>
      <trkpt lat="43.42977" lon="6.02796">
        <ele>362.23254394531</ele>
        <time>2015-01-07T14:03:42Z</time>
      </trkpt>
      <trkpt lat="43.42979" lon="6.02801">
        <ele>362.03784179688</ele>
        <time>2015-01-07T14:03:43Z</time>
      </trkpt>
      <trkpt lat="43.42981" lon="6.02807">
        <ele>361.81771850586</ele>
        <time>2015-01-07T14:03:44Z</time>
      </trkpt>
      <trkpt lat="43.42982" lon="6.0281">
        <ele>361.68014526367</ele>
        <time>2015-01-07T14:03:45Z</time>
      </trkpt>
      <trkpt lat="43.42982" lon="6.02814">
        <ele>361.57901000977</ele>
        <time>2015-01-07T14:03:46Z</time>
      </trkpt>
      <trkpt lat="43.42982" lon="6.02817">
        <ele>361.46405029297</ele>
        <time>2015-01-07T14:03:47Z</time>
      </trkpt>
      <trkpt lat="43.42988" lon="6.02848">
        <ele>360.55853271484</ele>
        <time>2015-01-07T14:03:54Z</time>
      </trkpt>
      <trkpt lat="43.42991" lon="6.0286">
        <ele>360.20205688477</ele>
        <time>2015-01-07T14:03:57Z</time>
      </trkpt>
      <trkpt lat="43.42999" lon="6.02865">
        <ele>359.66247558594</ele>
        <time>2015-01-07T14:04:00Z</time>
      </trkpt>
      <trkpt lat="43.43003" lon="6.02866">
        <ele>359.58834838867</ele>
        <time>2015-01-07T14:04:01Z</time>
      </trkpt>
      <trkpt lat="43.43015" lon="6.02872">
        <ele>359.45651245117</ele>
        <time>2015-01-07T14:04:04Z</time>
      </trkpt>
      <trkpt lat="43.43021" lon="6.02877">
        <ele>359.34893798828</ele>
        <time>2015-01-07T14:04:06Z</time>
      </trkpt>
      <trkpt lat="43.43037" lon="6.02891">
        <ele>359.00762939453</ele>
        <time>2015-01-07T14:04:11Z</time>
      </trkpt>
      <trkpt lat="43.43039" lon="6.02894">
        <ele>358.93313598633</ele>
        <time>2015-01-07T14:04:12Z</time>
      </trkpt>
      <trkpt lat="43.43041" lon="6.02897">
        <ele>358.86279296875</ele>
        <time>2015-01-07T14:04:13Z</time>
      </trkpt>
      <trkpt lat="43.43044" lon="6.029">
        <ele>358.78170776367</ele>
        <time>2015-01-07T14:04:14Z</time>
      </trkpt>
      <trkpt lat="43.43047" lon="6.02904">
        <ele>358.66522216797</ele>
        <time>2015-01-07T14:04:16Z</time>
      </trkpt>
      <trkpt lat="43.43048" lon="6.02905">
        <ele>358.6393737793</ele>
        <time>2015-01-07T14:04:17Z</time>
      </trkpt>
      <trkpt lat="43.43049" lon="6.02907">
        <ele>358.60424804688</ele>
        <time>2015-01-07T14:04:18Z</time>
      </trkpt>
      <trkpt lat="43.4305" lon="6.02907">
        <ele>358.58981323242</ele>
        <time>2015-01-07T14:04:20Z</time>
      </trkpt>
      <trkpt lat="43.4305" lon="6.02907">
        <ele>358.5830078125</ele>
        <time>2015-01-07T14:04:22Z</time>
      </trkpt>
      <trkpt lat="43.4305" lon="6.02908">
        <ele>358.56610107422</ele>
        <time>2015-01-07T14:04:29Z</time>
      </trkpt>
      <trkpt lat="43.43051" lon="6.02908">
        <ele>358.56109619141</ele>
        <time>2015-01-07T14:04:33Z</time>
      </trkpt>
      <trkpt lat="43.43051" lon="6.02908">
        <ele>358.56018066406</ele>
        <time>2015-01-07T14:04:40Z</time>
      </trkpt>
      <trkpt lat="43.43051" lon="6.02908">
        <ele>358.5583190918</ele>
        <time>2015-01-07T14:04:54Z</time>
      </trkpt>
      <trkpt lat="43.43051" lon="6.02908">
        <ele>358.5583190918</ele>
        <time>2015-01-07T14:05:02Z</time>
      </trkpt>
      <trkpt lat="43.43051" lon="6.02908">
        <ele>358.55648803711</ele>
        <time>2015-01-07T14:05:20Z</time>
      </trkpt>
      <trkpt lat="43.43051" lon="6.02908">
        <ele>358.55004882812</ele>
        <time>2015-01-07T14:05:51Z</time>
      </trkpt>
      <trkpt lat="43.43051" lon="6.02909">
        <ele>358.54360961914</ele>
        <time>2015-01-07T14:05:55Z</time>
      </trkpt>
      <trkpt lat="43.43052" lon="6.0291">
        <ele>358.50189208984</ele>
        <time>2015-01-07T14:05:59Z</time>
      </trkpt>
      <trkpt lat="43.43058" lon="6.02914">
        <ele>358.35131835938</ele>
        <time>2015-01-07T14:06:05Z</time>
      </trkpt>
      <trkpt lat="43.43061" lon="6.02918">
        <ele>358.2399597168</ele>
        <time>2015-01-07T14:06:07Z</time>
      </trkpt>
      <trkpt lat="43.4307" lon="6.0293">
        <ele>357.6552734375</ele>
        <time>2015-01-07T14:06:13Z</time>
      </trkpt>
      <trkpt lat="43.43076" lon="6.02938">
        <ele>357.18322753906</ele>
        <time>2015-01-07T14:06:16Z</time>
      </trkpt>
      <trkpt lat="43.43084" lon="6.02948">
        <ele>356.46731567383</ele>
        <time>2015-01-07T14:06:20Z</time>
      </trkpt>
      <trkpt lat="43.43085" lon="6.02951">
        <ele>356.3056640625</ele>
        <time>2015-01-07T14:06:21Z</time>
      </trkpt>
      <trkpt lat="43.43097" lon="6.02972">
        <ele>354.62213134766</ele>
        <time>2015-01-07T14:06:27Z</time>
      </trkpt>
      <trkpt lat="43.43104" lon="6.0298">
        <ele>353.71759033203</ele>
        <time>2015-01-07T14:06:29Z</time>
      </trkpt>
      <trkpt lat="43.4311" lon="6.02989">
        <ele>352.57565307617</ele>
        <time>2015-01-07T14:06:31Z</time>
      </trkpt>
      <trkpt lat="43.43113" lon="6.02996">
        <ele>351.87393188477</ele>
        <time>2015-01-07T14:06:32Z</time>
      </trkpt>
      <trkpt lat="43.43121" lon="6.03016">
        <ele>349.79095458984</ele>
        <time>2015-01-07T14:06:35Z</time>
      </trkpt>
      <trkpt lat="43.43124" lon="6.03022">
        <ele>349.05386352539</ele>
        <time>2015-01-07T14:06:36Z</time>
      </trkpt>
      <trkpt lat="43.43127" lon="6.03029">
        <ele>348.22100830078</ele>
        <time>2015-01-07T14:06:37Z</time>
      </trkpt>
      <trkpt lat="43.4313" lon="6.03036">
        <ele>347.35095214844</ele>
        <time>2015-01-07T14:06:38Z</time>
      </trkpt>
      <trkpt lat="43.43134" lon="6.03051">
        <ele>345.65866088867</ele>
        <time>2015-01-07T14:06:40Z</time>
      </trkpt>
      <trkpt lat="43.43135" lon="6.03061">
        <ele>344.70162963867</ele>
        <time>2015-01-07T14:06:41Z</time>
      </trkpt>
      <trkpt lat="43.43136" lon="6.0307">
        <ele>343.85427856445</ele>
        <time>2015-01-07T14:06:42Z</time>
      </trkpt>
      <trkpt lat="43.43137" lon="6.03091">
        <ele>342.27731323242</ele>
        <time>2015-01-07T14:06:44Z</time>
      </trkpt>
      <trkpt lat="43.43134" lon="6.03119">
        <ele>341.09045410156</ele>
        <time>2015-01-07T14:06:47Z</time>
      </trkpt>
      <trkpt lat="43.43133" lon="6.03128">
        <ele>340.76965332031</ele>
        <time>2015-01-07T14:06:48Z</time>
      </trkpt>
      <trkpt lat="43.43131" lon="6.03158">
        <ele>339.43280029297</ele>
        <time>2015-01-07T14:06:51Z</time>
      </trkpt>
      <trkpt lat="43.43131" lon="6.03167">
        <ele>338.94790649414</ele>
        <time>2015-01-07T14:06:52Z</time>
      </trkpt>
      <trkpt lat="43.43132" lon="6.03176">
        <ele>338.76348876953</ele>
        <time>2015-01-07T14:06:53Z</time>
      </trkpt>
      <trkpt lat="43.43134" lon="6.03192">
        <ele>338.37921142578</ele>
        <time>2015-01-07T14:06:56Z</time>
      </trkpt>
      <trkpt lat="43.43134" lon="6.03194">
        <ele>338.36019897461</ele>
        <time>2015-01-07T14:06:57Z</time>
      </trkpt>
      <trkpt lat="43.43134" lon="6.032">
        <ele>338.32183837891</ele>
        <time>2015-01-07T14:06:59Z</time>
      </trkpt>
      <trkpt lat="43.43134" lon="6.03206">
        <ele>338.271484375</ele>
        <time>2015-01-07T14:07:02Z</time>
      </trkpt>
      <trkpt lat="43.43133" lon="6.03209">
        <ele>338.33319091797</ele>
        <time>2015-01-07T14:07:03Z</time>
      </trkpt>
      <trkpt lat="43.43133" lon="6.0321">
        <ele>338.39791870117</ele>
        <time>2015-01-07T14:07:04Z</time>
      </trkpt>
      <trkpt lat="43.43132" lon="6.03217">
        <ele>338.43408203125</ele>
        <time>2015-01-07T14:07:07Z</time>
      </trkpt>
      <trkpt lat="43.43132" lon="6.0322">
        <ele>338.41821289062</ele>
        <time>2015-01-07T14:07:08Z</time>
      </trkpt>
      <trkpt lat="43.43132" lon="6.03224">
        <ele>338.47402954102</ele>
        <time>2015-01-07T14:07:10Z</time>
      </trkpt>
      <trkpt lat="43.43131" lon="6.03228">
        <ele>338.61773681641</ele>
        <time>2015-01-07T14:07:16Z</time>
      </trkpt>
      <trkpt lat="43.43131" lon="6.03228">
        <ele>338.6174621582</ele>
        <time>2015-01-07T14:07:19Z</time>
      </trkpt>
      <trkpt lat="43.43131" lon="6.03228">
        <ele>338.61669921875</ele>
        <time>2015-01-07T14:07:22Z</time>
      </trkpt>
      <trkpt lat="43.43131" lon="6.03228">
        <ele>338.61566162109</ele>
        <time>2015-01-07T14:07:27Z</time>
      </trkpt>
      <trkpt lat="43.43131" lon="6.03228">
        <ele>338.61566162109</ele>
        <time>2015-01-07T14:07:37Z</time>
      </trkpt>
      <trkpt lat="43.43131" lon="6.0323">
        <ele>338.60458374023</ele>
        <time>2015-01-07T14:07:41Z</time>
      </trkpt>
      <trkpt lat="43.43131" lon="6.03235">
        <ele>338.66497802734</ele>
        <time>2015-01-07T14:07:45Z</time>
      </trkpt>
      <trkpt lat="43.43131" lon="6.03236">
        <ele>338.66134643555</ele>
        <time>2015-01-07T14:07:47Z</time>
      </trkpt>
      <trkpt lat="43.43131" lon="6.03236">
        <ele>338.6608581543</ele>
        <time>2015-01-07T14:07:51Z</time>
      </trkpt>
      <trkpt lat="43.43131" lon="6.03236">
        <ele>338.66061401367</ele>
        <time>2015-01-07T14:07:52Z</time>
      </trkpt>
      <trkpt lat="43.43131" lon="6.03236">
        <ele>338.66061401367</ele>
        <time>2015-01-07T14:07:57Z</time>
      </trkpt>
      <trkpt lat="43.43131" lon="6.03236">
        <ele>338.6591796875</ele>
        <time>2015-01-07T14:08:19Z</time>
      </trkpt>
      <trkpt lat="43.43131" lon="6.03236">
        <ele>338.65966796875</ele>
        <time>2015-01-07T14:08:29Z</time>
      </trkpt>
      <trkpt lat="43.43131" lon="6.03236">
        <ele>338.65966796875</ele>
        <time>2015-01-07T14:08:33Z</time>
      </trkpt>
      <trkpt lat="43.43131" lon="6.03239">
        <ele>338.64657592773</ele>
        <time>2015-01-07T14:08:43Z</time>
      </trkpt>
      <trkpt lat="43.4313" lon="6.03243">
        <ele>338.71591186523</ele>
        <time>2015-01-07T14:08:52Z</time>
      </trkpt>
      <trkpt lat="43.4313" lon="6.03245">
        <ele>338.79476928711</ele>
        <time>2015-01-07T14:08:53Z</time>
      </trkpt>
      <trkpt lat="43.43127" lon="6.03265">
        <ele>339.77746582031</ele>
        <time>2015-01-07T14:09:00Z</time>
      </trkpt>
      <trkpt lat="43.43126" lon="6.03295">
        <ele>340.7685546875</ele>
        <time>2015-01-07T14:09:07Z</time>
      </trkpt>
      <trkpt lat="43.43126" lon="6.03316">
        <ele>341.46435546875</ele>
        <time>2015-01-07T14:09:11Z</time>
      </trkpt>
      <trkpt lat="43.43124" lon="6.03341">
        <ele>341.95913696289</ele>
        <time>2015-01-07T14:09:15Z</time>
      </trkpt>
      <trkpt lat="43.43122" lon="6.03369">
        <ele>341.36129760742</ele>
        <time>2015-01-07T14:09:19Z</time>
      </trkpt>
      <trkpt lat="43.4312" lon="6.03391">
        <ele>340.91131591797</ele>
        <time>2015-01-07T14:09:22Z</time>
      </trkpt>
      <trkpt lat="43.43119" lon="6.03427">
        <ele>339.62252807617</ele>
        <time>2015-01-07T14:09:26Z</time>
      </trkpt>
      <trkpt lat="43.43117" lon="6.03446">
        <ele>338.89321899414</ele>
        <time>2015-01-07T14:09:28Z</time>
      </trkpt>
      <trkpt lat="43.43115" lon="6.03456">
        <ele>338.65341186523</ele>
        <time>2015-01-07T14:09:29Z</time>
      </trkpt>
      <trkpt lat="43.43113" lon="6.03465">
        <ele>338.37710571289</ele>
        <time>2015-01-07T14:09:30Z</time>
      </trkpt>
      <trkpt lat="43.4311" lon="6.03492">
        <ele>337.33947753906</ele>
        <time>2015-01-07T14:09:33Z</time>
      </trkpt>
      <trkpt lat="43.4311" lon="6.03501">
        <ele>336.90481567383</ele>
        <time>2015-01-07T14:09:34Z</time>
      </trkpt>
      <trkpt lat="43.43107" lon="6.03547">
        <ele>336.31561279297</ele>
        <time>2015-01-07T14:09:39Z</time>
      </trkpt>
      <trkpt lat="43.43107" lon="6.03564">
        <ele>336.00592041016</ele>
        <time>2015-01-07T14:09:41Z</time>
      </trkpt>
      <trkpt lat="43.43105" lon="6.03572">
        <ele>336.06588745117</ele>
        <time>2015-01-07T14:09:42Z</time>
      </trkpt>
      <trkpt lat="43.43104" lon="6.0358">
        <ele>336.12844848633</ele>
        <time>2015-01-07T14:09:43Z</time>
      </trkpt>
      <trkpt lat="43.43103" lon="6.03598">
        <ele>336.56695556641</ele>
        <time>2015-01-07T14:09:46Z</time>
      </trkpt>
      <trkpt lat="43.43103" lon="6.03602">
        <ele>336.66766357422</ele>
        <time>2015-01-07T14:09:47Z</time>
      </trkpt>
      <trkpt lat="43.43103" lon="6.03625">
        <ele>337.21240234375</ele>
        <time>2015-01-07T14:09:51Z</time>
      </trkpt>
      <trkpt lat="43.43103" lon="6.03631">
        <ele>337.37145996094</ele>
        <time>2015-01-07T14:09:52Z</time>
      </trkpt>
      <trkpt lat="43.43103" lon="6.03659">
        <ele>337.93225097656</ele>
        <time>2015-01-07T14:09:56Z</time>
      </trkpt>
      <trkpt lat="43.43103" lon="6.03671">
        <ele>338.24377441406</ele>
        <time>2015-01-07T14:09:58Z</time>
      </trkpt>
      <trkpt lat="43.43102" lon="6.03677">
        <ele>338.43902587891</ele>
        <time>2015-01-07T14:09:59Z</time>
      </trkpt>
      <trkpt lat="43.43098" lon="6.03695">
        <ele>338.99987792969</ele>
        <time>2015-01-07T14:10:02Z</time>
      </trkpt>
      <trkpt lat="43.43097" lon="6.03706">
        <ele>339.14813232422</ele>
        <time>2015-01-07T14:10:04Z</time>
      </trkpt>
      <trkpt lat="43.43098" lon="6.03727">
        <ele>339.18154907227</ele>
        <time>2015-01-07T14:10:09Z</time>
      </trkpt>
      <trkpt lat="43.43101" lon="6.03728">
        <ele>338.7541809082</ele>
        <time>2015-01-07T14:10:12Z</time>
      </trkpt>
      <trkpt lat="43.43102" lon="6.03729">
        <ele>338.6598815918</ele>
        <time>2015-01-07T14:10:13Z</time>
      </trkpt>
      <trkpt lat="43.43102" lon="6.03729">
        <ele>338.61199951172</ele>
        <time>2015-01-07T14:10:14Z</time>
      </trkpt>
      <trkpt lat="43.43103" lon="6.03728">
        <ele>338.56228637695</ele>
        <time>2015-01-07T14:10:18Z</time>
      </trkpt>
      <trkpt lat="43.43102" lon="6.03728">
        <ele>338.61044311523</ele>
        <time>2015-01-07T14:10:20Z</time>
      </trkpt>
      <trkpt lat="43.43103" lon="6.03728">
        <ele>338.56176757812</ele>
        <time>2015-01-07T14:10:25Z</time>
      </trkpt>
      <trkpt lat="43.43103" lon="6.03728">
        <ele>338.56176757812</ele>
        <time>2015-01-07T14:10:30Z</time>
      </trkpt>
      <trkpt lat="43.43103" lon="6.03728">
        <ele>338.56097412109</ele>
        <time>2015-01-07T14:10:50Z</time>
      </trkpt>
      <trkpt lat="43.43102" lon="6.03728">
        <ele>338.60888671875</ele>
        <time>2015-01-07T14:10:55Z</time>
      </trkpt>
      <trkpt lat="43.43103" lon="6.03728">
        <ele>338.56069946289</ele>
        <time>2015-01-07T14:10:57Z</time>
      </trkpt>
      <trkpt lat="43.43103" lon="6.03728">
        <ele>338.56045532227</ele>
        <time>2015-01-07T14:11:02Z</time>
      </trkpt>
      <trkpt lat="43.43103" lon="6.03728">
        <ele>338.56018066406</ele>
        <time>2015-01-07T14:11:05Z</time>
      </trkpt>
      <trkpt lat="43.43106" lon="6.03729">
        <ele>338.18109130859</ele>
        <time>2015-01-07T14:11:11Z</time>
      </trkpt>
      <trkpt lat="43.43111" lon="6.03736">
        <ele>337.51538085938</ele>
        <time>2015-01-07T14:11:15Z</time>
      </trkpt>
      <trkpt lat="43.43112" lon="6.03738">
        <ele>337.43618774414</ele>
        <time>2015-01-07T14:11:16Z</time>
      </trkpt>
      <trkpt lat="43.43113" lon="6.0374">
        <ele>337.31253051758</ele>
        <time>2015-01-07T14:11:17Z</time>
      </trkpt>
      <trkpt lat="43.43117" lon="6.03749">
        <ele>336.98040771484</ele>
        <time>2015-01-07T14:11:21Z</time>
      </trkpt>
      <trkpt lat="43.43119" lon="6.0375">
        <ele>336.75494384766</ele>
        <time>2015-01-07T14:11:22Z</time>
      </trkpt>
      <trkpt lat="43.43123" lon="6.0375">
        <ele>336.25390625</ele>
        <time>2015-01-07T14:11:24Z</time>
      </trkpt>
      <trkpt lat="43.43126" lon="6.03755">
        <ele>335.86090087891</ele>
        <time>2015-01-07T14:11:26Z</time>
      </trkpt>
      <trkpt lat="43.43125" lon="6.03766">
        <ele>335.88879394531</ele>
        <time>2015-01-07T14:11:30Z</time>
      </trkpt>
      <trkpt lat="43.43124" lon="6.03768">
        <ele>336.03756713867</ele>
        <time>2015-01-07T14:11:31Z</time>
      </trkpt>
      <trkpt lat="43.43124" lon="6.03775">
        <ele>335.95132446289</ele>
        <time>2015-01-07T14:11:33Z</time>
      </trkpt>
      <trkpt lat="43.4313" lon="6.03787">
        <ele>335.33578491211</ele>
        <time>2015-01-07T14:11:37Z</time>
      </trkpt>
      <trkpt lat="43.43134" lon="6.03802">
        <ele>334.951171875</ele>
        <time>2015-01-07T14:11:41Z</time>
      </trkpt>
      <trkpt lat="43.43135" lon="6.03819">
        <ele>334.87719726562</ele>
        <time>2015-01-07T14:11:45Z</time>
      </trkpt>
      <trkpt lat="43.43137" lon="6.03831">
        <ele>334.79949951172</ele>
        <time>2015-01-07T14:11:48Z</time>
      </trkpt>
      <trkpt lat="43.43138" lon="6.0384">
        <ele>334.75750732422</ele>
        <time>2015-01-07T14:11:50Z</time>
      </trkpt>
      <trkpt lat="43.4314" lon="6.03864">
        <ele>334.76052856445</ele>
        <time>2015-01-07T14:11:55Z</time>
      </trkpt>
      <trkpt lat="43.43141" lon="6.03889">
        <ele>334.84158325195</ele>
        <time>2015-01-07T14:12:00Z</time>
      </trkpt>
      <trkpt lat="43.43141" lon="6.03891">
        <ele>334.86441040039</ele>
        <time>2015-01-07T14:12:01Z</time>
      </trkpt>
      <trkpt lat="43.43139" lon="6.03896">
        <ele>334.91622924805</ele>
        <time>2015-01-07T14:12:03Z</time>
      </trkpt>
      <trkpt lat="43.43141" lon="6.03907">
        <ele>334.94583129883</ele>
        <time>2015-01-07T14:12:06Z</time>
      </trkpt>
      <trkpt lat="43.4314" lon="6.0392">
        <ele>335.00225830078</ele>
        <time>2015-01-07T14:12:10Z</time>
      </trkpt>
      <trkpt lat="43.43133" lon="6.03935">
        <ele>334.90072631836</ele>
        <time>2015-01-07T14:12:15Z</time>
      </trkpt>
      <trkpt lat="43.43131" lon="6.03939">
        <ele>334.84759521484</ele>
        <time>2015-01-07T14:12:16Z</time>
      </trkpt>
      <trkpt lat="43.43126" lon="6.03954">
        <ele>334.57495117188</ele>
        <time>2015-01-07T14:12:20Z</time>
      </trkpt>
      <trkpt lat="43.43121" lon="6.03964">
        <ele>334.28448486328</ele>
        <time>2015-01-07T14:12:23Z</time>
      </trkpt>
      <trkpt lat="43.4312" lon="6.03966">
        <ele>334.20623779297</ele>
        <time>2015-01-07T14:12:24Z</time>
      </trkpt>
      <trkpt lat="43.43116" lon="6.03971">
        <ele>333.94320678711</ele>
        <time>2015-01-07T14:12:26Z</time>
      </trkpt>
      <trkpt lat="43.43114" lon="6.03975">
        <ele>333.77920532227</ele>
        <time>2015-01-07T14:12:27Z</time>
      </trkpt>
      <trkpt lat="43.4311" lon="6.03981">
        <ele>333.37152099609</ele>
        <time>2015-01-07T14:12:29Z</time>
      </trkpt>
      <trkpt lat="43.43108" lon="6.03983">
        <ele>333.20004272461</ele>
        <time>2015-01-07T14:12:30Z</time>
      </trkpt>
      <trkpt lat="43.43106" lon="6.0399">
        <ele>332.89749145508</ele>
        <time>2015-01-07T14:12:32Z</time>
      </trkpt>
      <trkpt lat="43.43103" lon="6.03997">
        <ele>332.54202270508</ele>
        <time>2015-01-07T14:12:34Z</time>
      </trkpt>
      <trkpt lat="43.431" lon="6.04003">
        <ele>332.11395263672</ele>
        <time>2015-01-07T14:12:36Z</time>
      </trkpt>
      <trkpt lat="43.43098" lon="6.04006">
        <ele>331.85900878906</ele>
        <time>2015-01-07T14:12:37Z</time>
      </trkpt>
      <trkpt lat="43.43084" lon="6.04021">
        <ele>330.31228637695</ele>
        <time>2015-01-07T14:12:43Z</time>
      </trkpt>
      <trkpt lat="43.43084" lon="6.04023">
        <ele>330.19311523438</ele>
        <time>2015-01-07T14:12:46Z</time>
      </trkpt>
      <trkpt lat="43.43084" lon="6.04023">
        <ele>330.17599487305</ele>
        <time>2015-01-07T14:12:47Z</time>
      </trkpt>
      <trkpt lat="43.43084" lon="6.04024">
        <ele>330.16403198242</ele>
        <time>2015-01-07T14:12:54Z</time>
      </trkpt>
      <trkpt lat="43.43084" lon="6.04024">
        <ele>330.14352416992</ele>
        <time>2015-01-07T14:13:02Z</time>
      </trkpt>
      <trkpt lat="43.43084" lon="6.04025">
        <ele>330.13153076172</ele>
        <time>2015-01-07T14:13:11Z</time>
      </trkpt>
      <trkpt lat="43.43084" lon="6.04029">
        <ele>330.01657104492</ele>
        <time>2015-01-07T14:13:16Z</time>
      </trkpt>
      <trkpt lat="43.43084" lon="6.04039">
        <ele>329.61853027344</ele>
        <time>2015-01-07T14:13:18Z</time>
      </trkpt>
      <trkpt lat="43.43084" lon="6.04054">
        <ele>329.15179443359</ele>
        <time>2015-01-07T14:13:20Z</time>
      </trkpt>
      <trkpt lat="43.43085" lon="6.04063">
        <ele>328.88732910156</ele>
        <time>2015-01-07T14:13:21Z</time>
      </trkpt>
      <trkpt lat="43.43085" lon="6.04071">
        <ele>328.63000488281</ele>
        <time>2015-01-07T14:13:22Z</time>
      </trkpt>
      <trkpt lat="43.43087" lon="6.04101">
        <ele>327.83535766602</ele>
        <time>2015-01-07T14:13:25Z</time>
      </trkpt>
      <trkpt lat="43.43084" lon="6.04119">
        <ele>326.73120117188</ele>
        <time>2015-01-07T14:13:27Z</time>
      </trkpt>
      <trkpt lat="43.43079" lon="6.04137">
        <ele>326.63986206055</ele>
        <time>2015-01-07T14:13:29Z</time>
      </trkpt>
      <trkpt lat="43.43078" lon="6.04144">
        <ele>326.48767089844</ele>
        <time>2015-01-07T14:13:30Z</time>
      </trkpt>
      <trkpt lat="43.43078" lon="6.04151">
        <ele>326.17581176758</ele>
        <time>2015-01-07T14:13:31Z</time>
      </trkpt>
      <trkpt lat="43.43079" lon="6.04159">
        <ele>325.76553344727</ele>
        <time>2015-01-07T14:13:32Z</time>
      </trkpt>
      <trkpt lat="43.43078" lon="6.04184">
        <ele>324.77001953125</ele>
        <time>2015-01-07T14:13:35Z</time>
      </trkpt>
      <trkpt lat="43.43077" lon="6.04193">
        <ele>324.48580932617</ele>
        <time>2015-01-07T14:13:36Z</time>
      </trkpt>
      <trkpt lat="43.43077" lon="6.04203">
        <ele>324.10681152344</ele>
        <time>2015-01-07T14:13:37Z</time>
      </trkpt>
      <trkpt lat="43.43081" lon="6.04218">
        <ele>322.84317016602</ele>
        <time>2015-01-07T14:13:39Z</time>
      </trkpt>
      <trkpt lat="43.43084" lon="6.04226">
        <ele>322.27465820312</ele>
        <time>2015-01-07T14:13:40Z</time>
      </trkpt>
      <trkpt lat="43.43093" lon="6.04253">
        <ele>322.60992431641</ele>
        <time>2015-01-07T14:13:43Z</time>
      </trkpt>
      <trkpt lat="43.43095" lon="6.04263">
        <ele>322.76858520508</ele>
        <time>2015-01-07T14:13:44Z</time>
      </trkpt>
      <trkpt lat="43.43102" lon="6.04303">
        <ele>322.93737792969</ele>
        <time>2015-01-07T14:13:48Z</time>
      </trkpt>
      <trkpt lat="43.43104" lon="6.04312">
        <ele>323.00415039062</ele>
        <time>2015-01-07T14:13:49Z</time>
      </trkpt>
      <trkpt lat="43.43105" lon="6.04322">
        <ele>322.93099975586</ele>
        <time>2015-01-07T14:13:50Z</time>
      </trkpt>
      <trkpt lat="43.43105" lon="6.04332">
        <ele>322.60699462891</ele>
        <time>2015-01-07T14:13:51Z</time>
      </trkpt>
      <trkpt lat="43.43103" lon="6.0435">
        <ele>321.87078857422</ele>
        <time>2015-01-07T14:13:53Z</time>
      </trkpt>
      <trkpt lat="43.431" lon="6.0437">
        <ele>320.81060791016</ele>
        <time>2015-01-07T14:13:55Z</time>
      </trkpt>
      <trkpt lat="43.43091" lon="6.04385">
        <ele>318.9612121582</ele>
        <time>2015-01-07T14:13:57Z</time>
      </trkpt>
      <trkpt lat="43.43083" lon="6.04401">
        <ele>317.41354370117</ele>
        <time>2015-01-07T14:13:59Z</time>
      </trkpt>
      <trkpt lat="43.43078" lon="6.04418">
        <ele>317.21209716797</ele>
        <time>2015-01-07T14:14:01Z</time>
      </trkpt>
      <trkpt lat="43.43073" lon="6.04444">
        <ele>316.79858398438</ele>
        <time>2015-01-07T14:14:04Z</time>
      </trkpt>
      <trkpt lat="43.4307" lon="6.04453">
        <ele>316.6877746582</ele>
        <time>2015-01-07T14:14:05Z</time>
      </trkpt>
      <trkpt lat="43.43069" lon="6.04462">
        <ele>316.53018188477</ele>
        <time>2015-01-07T14:14:06Z</time>
      </trkpt>
      <trkpt lat="43.43064" lon="6.0448">
        <ele>316.22299194336</ele>
        <time>2015-01-07T14:14:08Z</time>
      </trkpt>
      <trkpt lat="43.43063" lon="6.04489">
        <ele>316.04888916016</ele>
        <time>2015-01-07T14:14:09Z</time>
      </trkpt>
      <trkpt lat="43.43061" lon="6.04498">
        <ele>315.86065673828</ele>
        <time>2015-01-07T14:14:10Z</time>
      </trkpt>
      <trkpt lat="43.43057" lon="6.04519">
        <ele>315.50732421875</ele>
        <time>2015-01-07T14:14:12Z</time>
      </trkpt>
      <trkpt lat="43.43052" lon="6.04549">
        <ele>314.97863769531</ele>
        <time>2015-01-07T14:14:15Z</time>
      </trkpt>
      <trkpt lat="43.43048" lon="6.04568">
        <ele>314.64331054688</ele>
        <time>2015-01-07T14:14:17Z</time>
      </trkpt>
      <trkpt lat="43.43046" lon="6.04578">
        <ele>314.46936035156</ele>
        <time>2015-01-07T14:14:18Z</time>
      </trkpt>
      <trkpt lat="43.43044" lon="6.04598">
        <ele>313.84939575195</ele>
        <time>2015-01-07T14:14:20Z</time>
      </trkpt>
      <trkpt lat="43.43046" lon="6.04617">
        <ele>313.06628417969</ele>
        <time>2015-01-07T14:14:22Z</time>
      </trkpt>
      <trkpt lat="43.43054" lon="6.04667">
        <ele>310.74987792969</ele>
        <time>2015-01-07T14:14:27Z</time>
      </trkpt>
      <trkpt lat="43.43056" lon="6.04687">
        <ele>309.98822021484</ele>
        <time>2015-01-07T14:14:29Z</time>
      </trkpt>
      <trkpt lat="43.43058" lon="6.04696">
        <ele>309.58422851562</ele>
        <time>2015-01-07T14:14:30Z</time>
      </trkpt>
      <trkpt lat="43.43059" lon="6.04712">
        <ele>308.97134399414</ele>
        <time>2015-01-07T14:14:32Z</time>
      </trkpt>
      <trkpt lat="43.43057" lon="6.04719">
        <ele>308.86611938477</ele>
        <time>2015-01-07T14:14:33Z</time>
      </trkpt>
      <trkpt lat="43.43054" lon="6.04726">
        <ele>308.85247802734</ele>
        <time>2015-01-07T14:14:34Z</time>
      </trkpt>
      <trkpt lat="43.4305" lon="6.04734">
        <ele>308.87118530273</ele>
        <time>2015-01-07T14:14:35Z</time>
      </trkpt>
      <trkpt lat="43.43043" lon="6.0475">
        <ele>308.93273925781</ele>
        <time>2015-01-07T14:14:37Z</time>
      </trkpt>
      <trkpt lat="43.43029" lon="6.04782">
        <ele>308.38311767578</ele>
        <time>2015-01-07T14:14:41Z</time>
      </trkpt>
      <trkpt lat="43.43026" lon="6.04809">
        <ele>307.30279541016</ele>
        <time>2015-01-07T14:14:44Z</time>
      </trkpt>
      <trkpt lat="43.43025" lon="6.04819">
        <ele>306.88851928711</ele>
        <time>2015-01-07T14:14:45Z</time>
      </trkpt>
      <trkpt lat="43.43024" lon="6.04829">
        <ele>306.44219970703</ele>
        <time>2015-01-07T14:14:46Z</time>
      </trkpt>
      <trkpt lat="43.43025" lon="6.04861">
        <ele>306.31518554688</ele>
        <time>2015-01-07T14:14:50Z</time>
      </trkpt>
      <trkpt lat="43.43028" lon="6.0487">
        <ele>306.13760375977</ele>
        <time>2015-01-07T14:14:52Z</time>
      </trkpt>
      <trkpt lat="43.43035" lon="6.04883">
        <ele>305.59658813477</ele>
        <time>2015-01-07T14:14:54Z</time>
      </trkpt>
      <trkpt lat="43.43044" lon="6.04897">
        <ele>304.83270263672</ele>
        <time>2015-01-07T14:14:56Z</time>
      </trkpt>
      <trkpt lat="43.43056" lon="6.0492">
        <ele>303.67980957031</ele>
        <time>2015-01-07T14:14:59Z</time>
      </trkpt>
      <trkpt lat="43.43065" lon="6.04937">
        <ele>302.71487426758</ele>
        <time>2015-01-07T14:15:01Z</time>
      </trkpt>
      <trkpt lat="43.43087" lon="6.04971">
        <ele>299.65692138672</ele>
        <time>2015-01-07T14:15:05Z</time>
      </trkpt>
      <trkpt lat="43.43105" lon="6.04997">
        <ele>298.61611938477</ele>
        <time>2015-01-07T14:15:08Z</time>
      </trkpt>
      <trkpt lat="43.4311" lon="6.05005">
        <ele>298.29895019531</ele>
        <time>2015-01-07T14:15:09Z</time>
      </trkpt>
      <trkpt lat="43.43121" lon="6.05021">
        <ele>297.47836303711</ele>
        <time>2015-01-07T14:15:11Z</time>
      </trkpt>
      <trkpt lat="43.43135" lon="6.05044">
        <ele>295.51345825195</ele>
        <time>2015-01-07T14:15:14Z</time>
      </trkpt>
      <trkpt lat="43.43143" lon="6.05055">
        <ele>294.12448120117</ele>
        <time>2015-01-07T14:15:16Z</time>
      </trkpt>
      <trkpt lat="43.43151" lon="6.05064">
        <ele>292.64120483398</ele>
        <time>2015-01-07T14:15:18Z</time>
      </trkpt>
      <trkpt lat="43.43156" lon="6.05066">
        <ele>291.9528503418</ele>
        <time>2015-01-07T14:15:19Z</time>
      </trkpt>
      <trkpt lat="43.43161" lon="6.0507">
        <ele>291.07345581055</ele>
        <time>2015-01-07T14:15:20Z</time>
      </trkpt>
      <trkpt lat="43.4317" lon="6.05075">
        <ele>289.41961669922</ele>
        <time>2015-01-07T14:15:22Z</time>
      </trkpt>
      <trkpt lat="43.43176" lon="6.05077">
        <ele>288.67346191406</ele>
        <time>2015-01-07T14:15:23Z</time>
      </trkpt>
      <trkpt lat="43.43189" lon="6.0508">
        <ele>286.89733886719</ele>
        <time>2015-01-07T14:15:25Z</time>
      </trkpt>
      <trkpt lat="43.43204" lon="6.05083">
        <ele>284.95184326172</ele>
        <time>2015-01-07T14:15:27Z</time>
      </trkpt>
      <trkpt lat="43.43219" lon="6.05084">
        <ele>283.34115600586</ele>
        <time>2015-01-07T14:15:29Z</time>
      </trkpt>
      <trkpt lat="43.43225" lon="6.05083">
        <ele>282.72253417969</ele>
        <time>2015-01-07T14:15:30Z</time>
      </trkpt>
      <trkpt lat="43.43239" lon="6.05081">
        <ele>281.3583984375</ele>
        <time>2015-01-07T14:15:32Z</time>
      </trkpt>
      <trkpt lat="43.43255" lon="6.05082">
        <ele>279.60424804688</ele>
        <time>2015-01-07T14:15:34Z</time>
      </trkpt>
      <trkpt lat="43.43264" lon="6.05082">
        <ele>278.60168457031</ele>
        <time>2015-01-07T14:15:35Z</time>
      </trkpt>
      <trkpt lat="43.43282" lon="6.05083">
        <ele>276.58630371094</ele>
        <time>2015-01-07T14:15:37Z</time>
      </trkpt>
      <trkpt lat="43.4329" lon="6.05088">
        <ele>275.50079345703</ele>
        <time>2015-01-07T14:15:38Z</time>
      </trkpt>
      <trkpt lat="43.43297" lon="6.05094">
        <ele>274.47698974609</ele>
        <time>2015-01-07T14:15:39Z</time>
      </trkpt>
      <trkpt lat="43.43304" lon="6.051">
        <ele>273.45986938477</ele>
        <time>2015-01-07T14:15:40Z</time>
      </trkpt>
      <trkpt lat="43.43312" lon="6.05107">
        <ele>272.3291015625</ele>
        <time>2015-01-07T14:15:41Z</time>
      </trkpt>
      <trkpt lat="43.43325" lon="6.05122">
        <ele>270.46276855469</ele>
        <time>2015-01-07T14:15:43Z</time>
      </trkpt>
      <trkpt lat="43.43331" lon="6.05128">
        <ele>269.6354675293</ele>
        <time>2015-01-07T14:15:44Z</time>
      </trkpt>
      <trkpt lat="43.43336" lon="6.05134">
        <ele>268.89016723633</ele>
        <time>2015-01-07T14:15:45Z</time>
      </trkpt>
      <trkpt lat="43.43342" lon="6.05138">
        <ele>268.09658813477</ele>
        <time>2015-01-07T14:15:46Z</time>
      </trkpt>
      <trkpt lat="43.4336" lon="6.05146">
        <ele>266.05883789062</ele>
        <time>2015-01-07T14:15:49Z</time>
      </trkpt>
      <trkpt lat="43.43366" lon="6.05148">
        <ele>265.3313293457</ele>
        <time>2015-01-07T14:15:51Z</time>
      </trkpt>
      <trkpt lat="43.43368" lon="6.05148">
        <ele>265.17300415039</ele>
        <time>2015-01-07T14:15:52Z</time>
      </trkpt>
      <trkpt lat="43.43368" lon="6.05148">
        <ele>265.18295288086</ele>
        <time>2015-01-07T14:15:56Z</time>
      </trkpt>
      <trkpt lat="43.43368" lon="6.05148">
        <ele>265.14672851562</ele>
        <time>2015-01-07T14:16:26Z</time>
      </trkpt>
      <trkpt lat="43.43368" lon="6.05148">
        <ele>265.13558959961</ele>
        <time>2015-01-07T14:17:15Z</time>
      </trkpt>
      <trkpt lat="43.43368" lon="6.05149">
        <ele>265.16677856445</ele>
        <time>2015-01-07T14:17:19Z</time>
      </trkpt>
      <trkpt lat="43.43367" lon="6.05148">
        <ele>265.212890625</ele>
        <time>2015-01-07T14:17:22Z</time>
      </trkpt>
      <trkpt lat="43.43366" lon="6.05147">
        <ele>265.35284423828</ele>
        <time>2015-01-07T14:17:24Z</time>
      </trkpt>
      <trkpt lat="43.43361" lon="6.05146">
        <ele>265.90045166016</ele>
        <time>2015-01-07T14:17:27Z</time>
      </trkpt>
      <trkpt lat="43.43349" lon="6.0514">
        <ele>267.28775024414</ele>
        <time>2015-01-07T14:17:32Z</time>
      </trkpt>
      <trkpt lat="43.43343" lon="6.05135">
        <ele>268.18240356445</ele>
        <time>2015-01-07T14:17:35Z</time>
      </trkpt>
      <trkpt lat="43.43338" lon="6.0513">
        <ele>268.85025024414</ele>
        <time>2015-01-07T14:17:37Z</time>
      </trkpt>
      <trkpt lat="43.43331" lon="6.05123">
        <ele>269.78030395508</ele>
        <time>2015-01-07T14:17:40Z</time>
      </trkpt>
      <trkpt lat="43.43329" lon="6.05121">
        <ele>270.11386108398</ele>
        <time>2015-01-07T14:17:41Z</time>
      </trkpt>
      <trkpt lat="43.4332" lon="6.0511">
        <ele>271.40466308594</ele>
        <time>2015-01-07T14:17:45Z</time>
      </trkpt>
      <trkpt lat="43.43318" lon="6.05108">
        <ele>271.69790649414</ele>
        <time>2015-01-07T14:17:46Z</time>
      </trkpt>
      <trkpt lat="43.43312" lon="6.05101">
        <ele>272.61486816406</ele>
        <time>2015-01-07T14:17:49Z</time>
      </trkpt>
      <trkpt lat="43.43307" lon="6.05097">
        <ele>273.2568359375</ele>
        <time>2015-01-07T14:17:51Z</time>
      </trkpt>
      <trkpt lat="43.433" lon="6.05091">
        <ele>274.29183959961</ele>
        <time>2015-01-07T14:17:55Z</time>
      </trkpt>
      <trkpt lat="43.43291" lon="6.05084">
        <ele>275.54244995117</ele>
        <time>2015-01-07T14:18:00Z</time>
      </trkpt>
      <trkpt lat="43.43286" lon="6.05081">
        <ele>276.24545288086</ele>
        <time>2015-01-07T14:18:02Z</time>
      </trkpt>
      <trkpt lat="43.4328" lon="6.0508">
        <ele>276.94476318359</ele>
        <time>2015-01-07T14:18:04Z</time>
      </trkpt>
      <trkpt lat="43.43269" lon="6.0508">
        <ele>278.23501586914</ele>
        <time>2015-01-07T14:18:08Z</time>
      </trkpt>
      <trkpt lat="43.43258" lon="6.05078">
        <ele>279.60641479492</ele>
        <time>2015-01-07T14:18:12Z</time>
      </trkpt>
      <trkpt lat="43.43255" lon="6.05078">
        <ele>279.94564819336</ele>
        <time>2015-01-07T14:18:13Z</time>
      </trkpt>
      <trkpt lat="43.43253" lon="6.05077">
        <ele>280.25405883789</ele>
        <time>2015-01-07T14:18:14Z</time>
      </trkpt>
      <trkpt lat="43.43243" lon="6.05077">
        <ele>281.32635498047</ele>
        <time>2015-01-07T14:18:19Z</time>
      </trkpt>
      <trkpt lat="43.43242" lon="6.05077">
        <ele>281.53234863281</ele>
        <time>2015-01-07T14:18:20Z</time>
      </trkpt>
      <trkpt lat="43.43228" lon="6.05078">
        <ele>282.94226074219</ele>
        <time>2015-01-07T14:18:26Z</time>
      </trkpt>
      <trkpt lat="43.4322" lon="6.05079">
        <ele>283.65179443359</ele>
        <time>2015-01-07T14:18:29Z</time>
      </trkpt>
      <trkpt lat="43.43214" lon="6.05079">
        <ele>284.32928466797</ele>
        <time>2015-01-07T14:18:32Z</time>
      </trkpt>
      <trkpt lat="43.43202" lon="6.05079">
        <ele>285.62475585938</ele>
        <time>2015-01-07T14:18:39Z</time>
      </trkpt>
      <trkpt lat="43.4319" lon="6.05076">
        <ele>287.23150634766</ele>
        <time>2015-01-07T14:18:46Z</time>
      </trkpt>
      <trkpt lat="43.43176" lon="6.05069">
        <ele>289.34637451172</ele>
        <time>2015-01-07T14:18:54Z</time>
      </trkpt>
      <trkpt lat="43.43164" lon="6.05064">
        <ele>291.21496582031</ele>
        <time>2015-01-07T14:19:01Z</time>
      </trkpt>
      <trkpt lat="43.4316" lon="6.05063">
        <ele>291.72067260742</ele>
        <time>2015-01-07T14:19:04Z</time>
      </trkpt>
      <trkpt lat="43.43158" lon="6.05061">
        <ele>292.05862426758</ele>
        <time>2015-01-07T14:19:07Z</time>
      </trkpt>
      <trkpt lat="43.43158" lon="6.05061">
        <ele>292.11334228516</ele>
        <time>2015-01-07T14:19:11Z</time>
      </trkpt>
      <trkpt lat="43.43158" lon="6.05061">
        <ele>292.13323974609</ele>
        <time>2015-01-07T14:19:14Z</time>
      </trkpt>
      <trkpt lat="43.43157" lon="6.05061">
        <ele>292.20266723633</ele>
        <time>2015-01-07T14:19:23Z</time>
      </trkpt>
      <trkpt lat="43.43157" lon="6.05061">
        <ele>292.20657348633</ele>
        <time>2015-01-07T14:19:24Z</time>
      </trkpt>
      <trkpt lat="43.43157" lon="6.05061">
        <ele>292.20657348633</ele>
        <time>2015-01-07T14:19:30Z</time>
      </trkpt>
      <trkpt lat="43.43156" lon="6.05062">
        <ele>292.19497680664</ele>
        <time>2015-01-07T14:19:56Z</time>
      </trkpt>
      <trkpt lat="43.43156" lon="6.05062">
        <ele>292.22985839844</ele>
        <time>2015-01-07T14:20:00Z</time>
      </trkpt>
      <trkpt lat="43.43156" lon="6.05062">
        <ele>292.33126831055</ele>
        <time>2015-01-07T14:20:03Z</time>
      </trkpt>
      <trkpt lat="43.43156" lon="6.05062">
        <ele>292.28833007812</ele>
        <time>2015-01-07T14:20:04Z</time>
      </trkpt>
      <trkpt lat="43.43156" lon="6.05062">
        <ele>292.28833007812</ele>
        <time>2015-01-07T14:20:14Z</time>
      </trkpt>
      <trkpt lat="43.43156" lon="6.05062">
        <ele>292.23760986328</ele>
        <time>2015-01-07T14:20:17Z</time>
      </trkpt>
      <trkpt lat="43.43155" lon="6.0506">
        <ele>292.51089477539</ele>
        <time>2015-01-07T14:20:22Z</time>
      </trkpt>
      <trkpt lat="43.43155" lon="6.0506">
        <ele>292.57177734375</ele>
        <time>2015-01-07T14:20:25Z</time>
      </trkpt>
      <trkpt lat="43.43155" lon="6.0506">
        <ele>292.57177734375</ele>
        <time>2015-01-07T14:20:27Z</time>
      </trkpt>
      <trkpt lat="43.43155" lon="6.05059">
        <ele>292.57931518555</ele>
        <time>2015-01-07T14:20:28Z</time>
      </trkpt>
      <trkpt lat="43.43155" lon="6.05059">
        <ele>292.58306884766</ele>
        <time>2015-01-07T14:20:30Z</time>
      </trkpt>
      <trkpt lat="43.43153" lon="6.05058">
        <ele>292.91583251953</ele>
        <time>2015-01-07T14:20:32Z</time>
      </trkpt>
      <trkpt lat="43.4315" lon="6.05056">
        <ele>293.35974121094</ele>
        <time>2015-01-07T14:20:34Z</time>
      </trkpt>
      <trkpt lat="43.43148" lon="6.05054">
        <ele>293.68273925781</ele>
        <time>2015-01-07T14:20:36Z</time>
      </trkpt>
      <trkpt lat="43.43145" lon="6.05049">
        <ele>294.39477539062</ele>
        <time>2015-01-07T14:20:39Z</time>
      </trkpt>
      <trkpt lat="43.4314" lon="6.05043">
        <ele>295.22164916992</ele>
        <time>2015-01-07T14:20:42Z</time>
      </trkpt>
      <trkpt lat="43.43137" lon="6.05038">
        <ele>295.74301147461</ele>
        <time>2015-01-07T14:20:44Z</time>
      </trkpt>
      <trkpt lat="43.43131" lon="6.05029">
        <ele>296.55270385742</ele>
        <time>2015-01-07T14:20:48Z</time>
      </trkpt>
      <trkpt lat="43.43128" lon="6.05024">
        <ele>296.93270874023</ele>
        <time>2015-01-07T14:20:50Z</time>
      </trkpt>
      <trkpt lat="43.43127" lon="6.05022">
        <ele>297.103515625</ele>
        <time>2015-01-07T14:20:51Z</time>
      </trkpt>
      <trkpt lat="43.4312" lon="6.05013">
        <ele>297.74984741211</ele>
        <time>2015-01-07T14:20:55Z</time>
      </trkpt>
      <trkpt lat="43.43116" lon="6.05006">
        <ele>298.08004760742</ele>
        <time>2015-01-07T14:20:58Z</time>
      </trkpt>
      <trkpt lat="43.43114" lon="6.05004">
        <ele>298.18496704102</ele>
        <time>2015-01-07T14:20:59Z</time>
      </trkpt>
      <trkpt lat="43.43107" lon="6.04992">
        <ele>298.74655151367</ele>
        <time>2015-01-07T14:21:04Z</time>
      </trkpt>
      <trkpt lat="43.43105" lon="6.04989">
        <ele>298.85806274414</ele>
        <time>2015-01-07T14:21:05Z</time>
      </trkpt>
      <trkpt lat="43.431" lon="6.04982">
        <ele>299.21463012695</ele>
        <time>2015-01-07T14:21:11Z</time>
      </trkpt>
      <trkpt lat="43.431" lon="6.04981">
        <ele>299.22802734375</ele>
        <time>2015-01-07T14:21:19Z</time>
      </trkpt>
      <trkpt lat="43.431" lon="6.04981">
        <ele>299.22802734375</ele>
        <time>2015-01-07T14:21:20Z</time>
      </trkpt>
      <trkpt lat="43.431" lon="6.04982">
        <ele>299.22323608398</ele>
        <time>2015-01-07T14:21:25Z</time>
      </trkpt>
      <trkpt lat="43.431" lon="6.04982">
        <ele>299.22640991211</ele>
        <time>2015-01-07T14:21:35Z</time>
      </trkpt>
      <trkpt lat="43.431" lon="6.04982">
        <ele>299.22640991211</ele>
        <time>2015-01-07T14:21:38Z</time>
      </trkpt>
      <trkpt lat="43.431" lon="6.04981">
        <ele>299.22961425781</ele>
        <time>2015-01-07T14:21:57Z</time>
      </trkpt>
      <trkpt lat="43.431" lon="6.04981">
        <ele>299.23120117188</ele>
        <time>2015-01-07T14:22:02Z</time>
      </trkpt>
      <trkpt lat="43.431" lon="6.04981">
        <ele>299.23120117188</ele>
        <time>2015-01-07T14:22:11Z</time>
      </trkpt>
      <trkpt lat="43.431" lon="6.04981">
        <ele>299.22613525391</ele>
        <time>2015-01-07T14:22:15Z</time>
      </trkpt>
      <trkpt lat="43.431" lon="6.04981">
        <ele>299.23278808594</ele>
        <time>2015-01-07T14:22:24Z</time>
      </trkpt>
      <trkpt lat="43.431" lon="6.04981">
        <ele>299.23278808594</ele>
        <time>2015-01-07T14:22:30Z</time>
      </trkpt>
      <trkpt lat="43.431" lon="6.04981">
        <ele>299.24374389648</ele>
        <time>2015-01-07T14:23:24Z</time>
      </trkpt>
      <trkpt lat="43.431" lon="6.04983">
        <ele>299.16366577148</ele>
        <time>2015-01-07T14:23:49Z</time>
      </trkpt>
      <trkpt lat="43.431" lon="6.04982">
        <ele>299.20211791992</ele>
        <time>2015-01-07T14:24:02Z</time>
      </trkpt>
      <trkpt lat="43.431" lon="6.04982">
        <ele>299.20211791992</ele>
        <time>2015-01-07T14:24:15Z</time>
      </trkpt>
      <trkpt lat="43.431" lon="6.04982">
        <ele>299.20370483398</ele>
        <time>2015-01-07T14:24:17Z</time>
      </trkpt>
      <trkpt lat="43.431" lon="6.04982">
        <ele>299.20370483398</ele>
        <time>2015-01-07T14:24:23Z</time>
      </trkpt>
      <trkpt lat="43.431" lon="6.04982">
        <ele>299.20690917969</ele>
        <time>2015-01-07T14:24:44Z</time>
      </trkpt>
      <trkpt lat="43.431" lon="6.04982">
        <ele>299.21011352539</ele>
        <time>2015-01-07T14:24:50Z</time>
      </trkpt>
      <trkpt lat="43.431" lon="6.04982">
        <ele>299.21331787109</ele>
        <time>2015-01-07T14:25:33Z</time>
      </trkpt>
      <trkpt lat="43.431" lon="6.04982">
        <ele>299.22131347656</ele>
        <time>2015-01-07T14:26:30Z</time>
      </trkpt>
      <trkpt lat="43.431" lon="6.04981">
        <ele>299.22772216797</ele>
        <time>2015-01-07T14:28:23Z</time>
      </trkpt>
      <trkpt lat="43.431" lon="6.04981">
        <ele>299.22613525391</ele>
        <time>2015-01-07T14:28:47Z</time>
      </trkpt>
      <trkpt lat="43.431" lon="6.04981">
        <ele>299.22451782227</ele>
        <time>2015-01-07T14:28:55Z</time>
      </trkpt>
      <trkpt lat="43.431" lon="6.04982">
        <ele>299.20816040039</ele>
        <time>2015-01-07T14:28:58Z</time>
      </trkpt>
      <trkpt lat="43.431" lon="6.04982">
        <ele>299.20977783203</ele>
        <time>2015-01-07T14:29:08Z</time>
      </trkpt>
      <trkpt lat="43.431" lon="6.04982">
        <ele>299.21331787109</ele>
        <time>2015-01-07T14:29:14Z</time>
      </trkpt>
      <trkpt lat="43.431" lon="6.04982">
        <ele>299.19891357422</ele>
        <time>2015-01-07T14:29:21Z</time>
      </trkpt>
      <trkpt lat="43.431" lon="6.04982">
        <ele>299.19891357422</ele>
        <time>2015-01-07T14:29:26Z</time>
      </trkpt>
      <trkpt lat="43.431" lon="6.04982">
        <ele>299.19891357422</ele>
        <time>2015-01-07T14:29:38Z</time>
      </trkpt>
      <trkpt lat="43.43101" lon="6.04983">
        <ele>299.17544555664</ele>
        <time>2015-01-07T14:29:43Z</time>
      </trkpt>
      <trkpt lat="43.43102" lon="6.04984">
        <ele>299.10089111328</ele>
        <time>2015-01-07T14:29:45Z</time>
      </trkpt>
      <trkpt lat="43.43103" lon="6.04986">
        <ele>299.01373291016</ele>
        <time>2015-01-07T14:29:46Z</time>
      </trkpt>
      <trkpt lat="43.43104" lon="6.04989">
        <ele>298.8854675293</ele>
        <time>2015-01-07T14:29:48Z</time>
      </trkpt>
      <trkpt lat="43.43105" lon="6.04992">
        <ele>298.79019165039</ele>
        <time>2015-01-07T14:29:50Z</time>
      </trkpt>
      <trkpt lat="43.43106" lon="6.04995">
        <ele>298.62042236328</ele>
        <time>2015-01-07T14:29:52Z</time>
      </trkpt>
      <trkpt lat="43.43116" lon="6.05011">
        <ele>297.96627807617</ele>
        <time>2015-01-07T14:29:57Z</time>
      </trkpt>
      <trkpt lat="43.43121" lon="6.0502">
        <ele>297.48635864258</ele>
        <time>2015-01-07T14:29:59Z</time>
      </trkpt>
      <trkpt lat="43.43124" lon="6.05025">
        <ele>297.134765625</ele>
        <time>2015-01-07T14:30:00Z</time>
      </trkpt>
      <trkpt lat="43.4313" lon="6.05037">
        <ele>296.32192993164</ele>
        <time>2015-01-07T14:30:02Z</time>
      </trkpt>
      <trkpt lat="43.43132" lon="6.05042">
        <ele>295.87704467773</ele>
        <time>2015-01-07T14:30:03Z</time>
      </trkpt>
      <trkpt lat="43.43138" lon="6.0505">
        <ele>294.94329833984</ele>
        <time>2015-01-07T14:30:05Z</time>
      </trkpt>
      <trkpt lat="43.43144" lon="6.05056">
        <ele>294.02716064453</ele>
        <time>2015-01-07T14:30:07Z</time>
      </trkpt>
      <trkpt lat="43.43163" lon="6.05068">
        <ele>290.95260620117</ele>
        <time>2015-01-07T14:30:12Z</time>
      </trkpt>
      <trkpt lat="43.43167" lon="6.0507">
        <ele>290.220703125</ele>
        <time>2015-01-07T14:30:13Z</time>
      </trkpt>
      <trkpt lat="43.43184" lon="6.05074">
        <ele>288.06005859375</ele>
        <time>2015-01-07T14:30:16Z</time>
      </trkpt>
      <trkpt lat="43.4321" lon="6.05079">
        <ele>284.75500488281</ele>
        <time>2015-01-07T14:30:20Z</time>
      </trkpt>
      <trkpt lat="43.43223" lon="6.05079">
        <ele>283.39086914062</ele>
        <time>2015-01-07T14:30:22Z</time>
      </trkpt>
      <trkpt lat="43.43242" lon="6.05077">
        <ele>281.45452880859</ele>
        <time>2015-01-07T14:30:25Z</time>
      </trkpt>
      <trkpt lat="43.43257" lon="6.05078">
        <ele>279.73361206055</ele>
        <time>2015-01-07T14:30:27Z</time>
      </trkpt>
      <trkpt lat="43.43264" lon="6.05078">
        <ele>278.93627929688</ele>
        <time>2015-01-07T14:30:28Z</time>
      </trkpt>
      <trkpt lat="43.43272" lon="6.05078">
        <ele>278.05197143555</ele>
        <time>2015-01-07T14:30:29Z</time>
      </trkpt>
      <trkpt lat="43.4328" lon="6.0508">
        <ele>277.05102539062</ele>
        <time>2015-01-07T14:30:30Z</time>
      </trkpt>
      <trkpt lat="43.43294" lon="6.05089">
        <ele>275.01763916016</ele>
        <time>2015-01-07T14:30:32Z</time>
      </trkpt>
      <trkpt lat="43.43301" lon="6.05095">
        <ele>274.02026367188</ele>
        <time>2015-01-07T14:30:33Z</time>
      </trkpt>
      <trkpt lat="43.43307" lon="6.05101">
        <ele>273.07122802734</ele>
        <time>2015-01-07T14:30:34Z</time>
      </trkpt>
      <trkpt lat="43.43319" lon="6.05116">
        <ele>271.32409667969</ele>
        <time>2015-01-07T14:30:36Z</time>
      </trkpt>
      <trkpt lat="43.43324" lon="6.05122">
        <ele>270.52313232422</ele>
        <time>2015-01-07T14:30:37Z</time>
      </trkpt>
      <trkpt lat="43.43335" lon="6.05134">
        <ele>269.00238037109</ele>
        <time>2015-01-07T14:30:39Z</time>
      </trkpt>
      <trkpt lat="43.4334" lon="6.05138">
        <ele>268.30822753906</ele>
        <time>2015-01-07T14:30:40Z</time>
      </trkpt>
      <trkpt lat="43.43346" lon="6.05141">
        <ele>267.62670898438</ele>
        <time>2015-01-07T14:30:41Z</time>
      </trkpt>
      <trkpt lat="43.43357" lon="6.05144">
        <ele>266.37579345703</ele>
        <time>2015-01-07T14:30:43Z</time>
      </trkpt>
      <trkpt lat="43.43364" lon="6.05149">
        <ele>265.55288696289</ele>
        <time>2015-01-07T14:30:45Z</time>
      </trkpt>
      <trkpt lat="43.43367" lon="6.05151">
        <ele>265.22088623047</ele>
        <time>2015-01-07T14:30:46Z</time>
      </trkpt>
      <trkpt lat="43.4337" lon="6.05156">
        <ele>264.77526855469</ele>
        <time>2015-01-07T14:30:48Z</time>
      </trkpt>
      <trkpt lat="43.43372" lon="6.05159">
        <ele>264.51022338867</ele>
        <time>2015-01-07T14:30:49Z</time>
      </trkpt>
      <trkpt lat="43.43376" lon="6.05163">
        <ele>264.01354980469</ele>
        <time>2015-01-07T14:30:52Z</time>
      </trkpt>
      <trkpt lat="43.43377" lon="6.05162">
        <ele>263.8876953125</ele>
        <time>2015-01-07T14:30:53Z</time>
      </trkpt>
      <trkpt lat="43.43385" lon="6.05151">
        <ele>263.40911865234</ele>
        <time>2015-01-07T14:30:59Z</time>
      </trkpt>
      <trkpt lat="43.4339" lon="6.05135">
        <ele>263.19519042969</ele>
        <time>2015-01-07T14:31:06Z</time>
      </trkpt>
      <trkpt lat="43.43393" lon="6.05125">
        <ele>263.05487060547</ele>
        <time>2015-01-07T14:31:10Z</time>
      </trkpt>
      <trkpt lat="43.43397" lon="6.05112">
        <ele>262.84164428711</ele>
        <time>2015-01-07T14:31:18Z</time>
      </trkpt>
      <trkpt lat="43.43398" lon="6.0511">
        <ele>262.75161743164</ele>
        <time>2015-01-07T14:31:24Z</time>
      </trkpt>
      <trkpt lat="43.43398" lon="6.0511">
        <ele>262.74996948242</ele>
        <time>2015-01-07T14:31:35Z</time>
      </trkpt>
      <trkpt lat="43.43398" lon="6.0511">
        <ele>262.7483215332</ele>
        <time>2015-01-07T14:31:40Z</time>
      </trkpt>
      <trkpt lat="43.43398" lon="6.0511">
        <ele>262.74914550781</ele>
        <time>2015-01-07T14:32:38Z</time>
      </trkpt>
      <trkpt lat="43.43399" lon="6.0511">
        <ele>262.65444946289</ele>
        <time>2015-01-07T14:33:35Z</time>
      </trkpt>
      <trkpt lat="43.43398" lon="6.05112">
        <ele>262.71038818359</ele>
        <time>2015-01-07T14:33:40Z</time>
      </trkpt>
      <trkpt lat="43.43398" lon="6.05113">
        <ele>262.69802856445</ele>
        <time>2015-01-07T14:33:43Z</time>
      </trkpt>
      <trkpt lat="43.43396" lon="6.05119">
        <ele>262.83346557617</ele>
        <time>2015-01-07T14:33:49Z</time>
      </trkpt>
      <trkpt lat="43.43388" lon="6.05142">
        <ele>263.25466918945</ele>
        <time>2015-01-07T14:33:57Z</time>
      </trkpt>
      <trkpt lat="43.43385" lon="6.0515">
        <ele>263.39297485352</ele>
        <time>2015-01-07T14:33:59Z</time>
      </trkpt>
      <trkpt lat="43.43377" lon="6.05174">
        <ele>263.9499206543</ele>
        <time>2015-01-07T14:34:04Z</time>
      </trkpt>
      <trkpt lat="43.43375" lon="6.0518">
        <ele>264.23553466797</ele>
        <time>2015-01-07T14:34:05Z</time>
      </trkpt>
      <trkpt lat="43.43364" lon="6.05213">
        <ele>265.92486572266</ele>
        <time>2015-01-07T14:34:11Z</time>
      </trkpt>
      <trkpt lat="43.43363" lon="6.05218">
        <ele>266.1803894043</ele>
        <time>2015-01-07T14:34:12Z</time>
      </trkpt>
      <trkpt lat="43.43356" lon="6.05236">
        <ele>267.22064208984</ele>
        <time>2015-01-07T14:34:17Z</time>
      </trkpt>
      <trkpt lat="43.43352" lon="6.05247">
        <ele>267.9397277832</ele>
        <time>2015-01-07T14:34:21Z</time>
      </trkpt>
      <trkpt lat="43.43349" lon="6.05255">
        <ele>268.2314453125</ele>
        <time>2015-01-07T14:34:27Z</time>
      </trkpt>
      <trkpt lat="43.43349" lon="6.05256">
        <ele>268.1770324707</ele>
        <time>2015-01-07T14:34:43Z</time>
      </trkpt>
      <trkpt lat="43.43348" lon="6.05257">
        <ele>268.22756958008</ele>
        <time>2015-01-07T14:34:47Z</time>
      </trkpt>
      <trkpt lat="43.43346" lon="6.05262">
        <ele>268.40408325195</ele>
        <time>2015-01-07T14:34:51Z</time>
      </trkpt>
      <trkpt lat="43.43342" lon="6.0527">
        <ele>268.62808227539</ele>
        <time>2015-01-07T14:34:58Z</time>
      </trkpt>
      <trkpt lat="43.43339" lon="6.05277">
        <ele>268.7541809082</ele>
        <time>2015-01-07T14:35:04Z</time>
      </trkpt>
      <trkpt lat="43.43337" lon="6.05284">
        <ele>268.81225585938</ele>
        <time>2015-01-07T14:35:11Z</time>
      </trkpt>
      <trkpt lat="43.43333" lon="6.05291">
        <ele>269.00482177734</ele>
        <time>2015-01-07T14:35:18Z</time>
      </trkpt>
      <trkpt lat="43.43331" lon="6.05297">
        <ele>269.17791748047</ele>
        <time>2015-01-07T14:35:25Z</time>
      </trkpt>
      <trkpt lat="43.43331" lon="6.05298">
        <ele>269.14178466797</ele>
        <time>2015-01-07T14:35:27Z</time>
      </trkpt>
      <trkpt lat="43.43331" lon="6.05299">
        <ele>269.18127441406</ele>
        <time>2015-01-07T14:35:32Z</time>
      </trkpt>
      <trkpt lat="43.43331" lon="6.05299">
        <ele>269.18127441406</ele>
        <time>2015-01-07T14:35:39Z</time>
      </trkpt>
      <trkpt lat="43.43329" lon="6.05302">
        <ele>269.31643676758</ele>
        <time>2015-01-07T14:35:46Z</time>
      </trkpt>
      <trkpt lat="43.43329" lon="6.05304">
        <ele>269.32955932617</ele>
        <time>2015-01-07T14:35:47Z</time>
      </trkpt>
      <trkpt lat="43.43326" lon="6.05312">
        <ele>269.58346557617</ele>
        <time>2015-01-07T14:35:54Z</time>
      </trkpt>
      <trkpt lat="43.43323" lon="6.0532">
        <ele>269.82257080078</ele>
        <time>2015-01-07T14:36:02Z</time>
      </trkpt>
      <trkpt lat="43.43321" lon="6.05326">
        <ele>269.91519165039</ele>
        <time>2015-01-07T14:36:06Z</time>
      </trkpt>
      <trkpt lat="43.4332" lon="6.05328">
        <ele>270.02499389648</ele>
        <time>2015-01-07T14:36:08Z</time>
      </trkpt>
      <trkpt lat="43.4332" lon="6.05329">
        <ele>270.05230712891</ele>
        <time>2015-01-07T14:36:09Z</time>
      </trkpt>
      <trkpt lat="43.43317" lon="6.05334">
        <ele>270.27087402344</ele>
        <time>2015-01-07T14:36:14Z</time>
      </trkpt>
      <trkpt lat="43.43316" lon="6.05336">
        <ele>270.38186645508</ele>
        <time>2015-01-07T14:36:16Z</time>
      </trkpt>
      <trkpt lat="43.43314" lon="6.05341">
        <ele>270.55810546875</ele>
        <time>2015-01-07T14:36:22Z</time>
      </trkpt>
      <trkpt lat="43.43314" lon="6.05341">
        <ele>270.60272216797</ele>
        <time>2015-01-07T14:36:38Z</time>
      </trkpt>
      <trkpt lat="43.43314" lon="6.05341">
        <ele>270.59814453125</ele>
        <time>2015-01-07T14:36:45Z</time>
      </trkpt>
      <trkpt lat="43.43312" lon="6.05343">
        <ele>270.76867675781</ele>
        <time>2015-01-07T14:36:49Z</time>
      </trkpt>
      <trkpt lat="43.43307" lon="6.05355">
        <ele>271.25506591797</ele>
        <time>2015-01-07T14:36:54Z</time>
      </trkpt>
      <trkpt lat="43.433" lon="6.05366">
        <ele>271.98861694336</ele>
        <time>2015-01-07T14:36:59Z</time>
      </trkpt>
      <trkpt lat="43.43291" lon="6.05385">
        <ele>272.78970336914</ele>
        <time>2015-01-07T14:37:08Z</time>
      </trkpt>
      <trkpt lat="43.4329" lon="6.05389">
        <ele>272.9052734375</ele>
        <time>2015-01-07T14:37:10Z</time>
      </trkpt>
      <trkpt lat="43.43285" lon="6.054">
        <ele>273.4111328125</ele>
        <time>2015-01-07T14:37:15Z</time>
      </trkpt>
      <trkpt lat="43.43281" lon="6.0541">
        <ele>273.66632080078</ele>
        <time>2015-01-07T14:37:20Z</time>
      </trkpt>
      <trkpt lat="43.43277" lon="6.05423">
        <ele>273.86114501953</ele>
        <time>2015-01-07T14:37:26Z</time>
      </trkpt>
      <trkpt lat="43.43275" lon="6.05428">
        <ele>274.0234375</ele>
        <time>2015-01-07T14:37:30Z</time>
      </trkpt>
      <trkpt lat="43.43274" lon="6.05431">
        <ele>274.07305908203</ele>
        <time>2015-01-07T14:37:32Z</time>
      </trkpt>
      <trkpt lat="43.4327" lon="6.05444">
        <ele>274.18804931641</ele>
        <time>2015-01-07T14:37:39Z</time>
      </trkpt>
      <trkpt lat="43.4327" lon="6.05445">
        <ele>274.15173339844</ele>
        <time>2015-01-07T14:37:45Z</time>
      </trkpt>
      <trkpt lat="43.4327" lon="6.05446">
        <ele>274.14227294922</ele>
        <time>2015-01-07T14:37:46Z</time>
      </trkpt>
      <trkpt lat="43.43268" lon="6.0545">
        <ele>274.28002929688</ele>
        <time>2015-01-07T14:37:54Z</time>
      </trkpt>
      <trkpt lat="43.43266" lon="6.05454">
        <ele>274.45892333984</ele>
        <time>2015-01-07T14:37:58Z</time>
      </trkpt>
      <trkpt lat="43.43264" lon="6.05459">
        <ele>274.58639526367</ele>
        <time>2015-01-07T14:38:02Z</time>
      </trkpt>
      <trkpt lat="43.43261" lon="6.05467">
        <ele>274.74737548828</ele>
        <time>2015-01-07T14:38:07Z</time>
      </trkpt>
      <trkpt lat="43.43259" lon="6.05471">
        <ele>274.86074829102</ele>
        <time>2015-01-07T14:38:10Z</time>
      </trkpt>
      <trkpt lat="43.43256" lon="6.05482">
        <ele>274.88195800781</ele>
        <time>2015-01-07T14:38:17Z</time>
      </trkpt>
      <trkpt lat="43.43255" lon="6.05484">
        <ele>274.88958740234</ele>
        <time>2015-01-07T14:38:18Z</time>
      </trkpt>
      <trkpt lat="43.43251" lon="6.05494">
        <ele>275.0403137207</ele>
        <time>2015-01-07T14:38:25Z</time>
      </trkpt>
      <trkpt lat="43.4325" lon="6.05501">
        <ele>274.94903564453</ele>
        <time>2015-01-07T14:38:30Z</time>
      </trkpt>
      <trkpt lat="43.4325" lon="6.05506">
        <ele>275.04257202148</ele>
        <time>2015-01-07T14:38:33Z</time>
      </trkpt>
      <trkpt lat="43.43246" lon="6.05516">
        <ele>275.65118408203</ele>
        <time>2015-01-07T14:38:40Z</time>
      </trkpt>
      <trkpt lat="43.43245" lon="6.05521">
        <ele>275.94592285156</ele>
        <time>2015-01-07T14:38:44Z</time>
      </trkpt>
      <trkpt lat="43.43245" lon="6.05522">
        <ele>276.02047729492</ele>
        <time>2015-01-07T14:38:45Z</time>
      </trkpt>
      <trkpt lat="43.43244" lon="6.05525">
        <ele>276.07345581055</ele>
        <time>2015-01-07T14:38:52Z</time>
      </trkpt>
      <trkpt lat="43.43244" lon="6.05525">
        <ele>276.16174316406</ele>
        <time>2015-01-07T14:38:58Z</time>
      </trkpt>
      <trkpt lat="43.43244" lon="6.05526">
        <ele>276.1611328125</ele>
        <time>2015-01-07T14:39:12Z</time>
      </trkpt>
      <trkpt lat="43.43244" lon="6.05526">
        <ele>276.16052246094</ele>
        <time>2015-01-07T14:40:19Z</time>
      </trkpt>
      <trkpt lat="43.43244" lon="6.05526">
        <ele>276.16052246094</ele>
        <time>2015-01-07T14:40:24Z</time>
      </trkpt>
      <trkpt lat="43.43243" lon="6.05526">
        <ele>276.24325561523</ele>
        <time>2015-01-07T14:40:30Z</time>
      </trkpt>
      <trkpt lat="43.43242" lon="6.05529">
        <ele>276.47421264648</ele>
        <time>2015-01-07T14:40:38Z</time>
      </trkpt>
      <trkpt lat="43.4324" lon="6.05535">
        <ele>276.93634033203</ele>
        <time>2015-01-07T14:40:41Z</time>
      </trkpt>
      <trkpt lat="43.43237" lon="6.05543">
        <ele>277.44708251953</ele>
        <time>2015-01-07T14:40:44Z</time>
      </trkpt>
      <trkpt lat="43.43234" lon="6.05553">
        <ele>278.02777099609</ele>
        <time>2015-01-07T14:40:47Z</time>
      </trkpt>
      <trkpt lat="43.43231" lon="6.05568">
        <ele>278.59411621094</ele>
        <time>2015-01-07T14:40:52Z</time>
      </trkpt>
      <trkpt lat="43.43228" lon="6.05591">
        <ele>278.79193115234</ele>
        <time>2015-01-07T14:40:59Z</time>
      </trkpt>
      <trkpt lat="43.43227" lon="6.05612">
        <ele>278.64889526367</ele>
        <time>2015-01-07T14:41:04Z</time>
      </trkpt>
      <trkpt lat="43.43225" lon="6.05624">
        <ele>278.78393554688</ele>
        <time>2015-01-07T14:41:07Z</time>
      </trkpt>
      <trkpt lat="43.43223" lon="6.05637">
        <ele>278.81939697266</ele>
        <time>2015-01-07T14:41:10Z</time>
      </trkpt>
      <trkpt lat="43.43222" lon="6.05654">
        <ele>278.59509277344</ele>
        <time>2015-01-07T14:41:14Z</time>
      </trkpt>
      <trkpt lat="43.4322" lon="6.05682">
        <ele>278.51843261719</ele>
        <time>2015-01-07T14:41:21Z</time>
      </trkpt>
      <trkpt lat="43.43219" lon="6.05687">
        <ele>278.59283447266</ele>
        <time>2015-01-07T14:41:22Z</time>
      </trkpt>
      <trkpt lat="43.43217" lon="6.05715">
        <ele>278.43487548828</ele>
        <time>2015-01-07T14:41:29Z</time>
      </trkpt>
      <trkpt lat="43.43215" lon="6.05731">
        <ele>278.38339233398</ele>
        <time>2015-01-07T14:41:33Z</time>
      </trkpt>
      <trkpt lat="43.43213" lon="6.0575">
        <ele>278.36312866211</ele>
        <time>2015-01-07T14:41:37Z</time>
      </trkpt>
      <trkpt lat="43.43209" lon="6.0579">
        <ele>278.04037475586</ele>
        <time>2015-01-07T14:41:44Z</time>
      </trkpt>
      <trkpt lat="43.43208" lon="6.05796">
        <ele>278.19451904297</ele>
        <time>2015-01-07T14:41:45Z</time>
      </trkpt>
      <trkpt lat="43.43204" lon="6.05822">
        <ele>278.16616821289</ele>
        <time>2015-01-07T14:41:49Z</time>
      </trkpt>
      <trkpt lat="43.43204" lon="6.05828">
        <ele>278.146484375</ele>
        <time>2015-01-07T14:41:50Z</time>
      </trkpt>
      <trkpt lat="43.43198" lon="6.05858">
        <ele>278.26245117188</ele>
        <time>2015-01-07T14:41:56Z</time>
      </trkpt>
      <trkpt lat="43.43193" lon="6.05888">
        <ele>278.23327636719</ele>
        <time>2015-01-07T14:42:02Z</time>
      </trkpt>
      <trkpt lat="43.43192" lon="6.05893">
        <ele>278.32595825195</ele>
        <time>2015-01-07T14:42:03Z</time>
      </trkpt>
      <trkpt lat="43.43184" lon="6.05916">
        <ele>279.22717285156</ele>
        <time>2015-01-07T14:42:09Z</time>
      </trkpt>
      <trkpt lat="43.43178" lon="6.0594">
        <ele>279.56982421875</ele>
        <time>2015-01-07T14:42:15Z</time>
      </trkpt>
      <trkpt lat="43.43172" lon="6.0597">
        <ele>279.25650024414</ele>
        <time>2015-01-07T14:42:23Z</time>
      </trkpt>
      <trkpt lat="43.43168" lon="6.05982">
        <ele>279.62673950195</ele>
        <time>2015-01-07T14:42:26Z</time>
      </trkpt>
      <trkpt lat="43.43166" lon="6.05989">
        <ele>279.72845458984</ele>
        <time>2015-01-07T14:42:28Z</time>
      </trkpt>
      <trkpt lat="43.43163" lon="6.05996">
        <ele>279.83831787109</ele>
        <time>2015-01-07T14:42:31Z</time>
      </trkpt>
      <trkpt lat="43.43161" lon="6.06005">
        <ele>279.72549438477</ele>
        <time>2015-01-07T14:42:34Z</time>
      </trkpt>
      <trkpt lat="43.43157" lon="6.06027">
        <ele>279.71636962891</ele>
        <time>2015-01-07T14:42:40Z</time>
      </trkpt>
      <trkpt lat="43.43157" lon="6.06031">
        <ele>279.669921875</ele>
        <time>2015-01-07T14:42:41Z</time>
      </trkpt>
      <trkpt lat="43.4315" lon="6.06063">
        <ele>279.91342163086</ele>
        <time>2015-01-07T14:42:50Z</time>
      </trkpt>
      <trkpt lat="43.43146" lon="6.06086">
        <ele>280.12426757812</ele>
        <time>2015-01-07T14:42:56Z</time>
      </trkpt>
      <trkpt lat="43.43139" lon="6.06112">
        <ele>279.98980712891</ele>
        <time>2015-01-07T14:43:02Z</time>
      </trkpt>
      <trkpt lat="43.43139" lon="6.06117">
        <ele>279.85287475586</ele>
        <time>2015-01-07T14:43:03Z</time>
      </trkpt>
      <trkpt lat="43.43132" lon="6.06151">
        <ele>279.18710327148</ele>
        <time>2015-01-07T14:43:09Z</time>
      </trkpt>
      <trkpt lat="43.43127" lon="6.06176">
        <ele>278.44268798828</ele>
        <time>2015-01-07T14:43:14Z</time>
      </trkpt>
      <trkpt lat="43.43126" lon="6.0618">
        <ele>278.39239501953</ele>
        <time>2015-01-07T14:43:15Z</time>
      </trkpt>
      <trkpt lat="43.43125" lon="6.06203">
        <ele>276.84213256836</ele>
        <time>2015-01-07T14:43:20Z</time>
      </trkpt>
      <trkpt lat="43.43126" lon="6.06239">
        <ele>274.0798034668</ele>
        <time>2015-01-07T14:43:27Z</time>
      </trkpt>
      <trkpt lat="43.43127" lon="6.06262">
        <ele>272.45346069336</ele>
        <time>2015-01-07T14:43:31Z</time>
      </trkpt>
      <trkpt lat="43.43128" lon="6.06272">
        <ele>271.69021606445</ele>
        <time>2015-01-07T14:43:33Z</time>
      </trkpt>
      <trkpt lat="43.43129" lon="6.06277">
        <ele>271.29260253906</ele>
        <time>2015-01-07T14:43:34Z</time>
      </trkpt>
      <trkpt lat="43.4313" lon="6.06302">
        <ele>269.68362426758</ele>
        <time>2015-01-07T14:43:39Z</time>
      </trkpt>
      <trkpt lat="43.43134" lon="6.06329">
        <ele>267.60424804688</ele>
        <time>2015-01-07T14:43:44Z</time>
      </trkpt>
      <trkpt lat="43.43134" lon="6.06335">
        <ele>267.29470825195</ele>
        <time>2015-01-07T14:43:45Z</time>
      </trkpt>
      <trkpt lat="43.43138" lon="6.06367">
        <ele>267.30432128906</ele>
        <time>2015-01-07T14:43:50Z</time>
      </trkpt>
      <trkpt lat="43.43139" lon="6.06373">
        <ele>267.30599975586</ele>
        <time>2015-01-07T14:43:51Z</time>
      </trkpt>
      <trkpt lat="43.43142" lon="6.06406">
        <ele>267.45718383789</ele>
        <time>2015-01-07T14:43:56Z</time>
      </trkpt>
      <trkpt lat="43.43142" lon="6.06413">
        <ele>267.55621337891</ele>
        <time>2015-01-07T14:43:57Z</time>
      </trkpt>
      <trkpt lat="43.43145" lon="6.06448">
        <ele>268.35604858398</ele>
        <time>2015-01-07T14:44:03Z</time>
      </trkpt>
      <trkpt lat="43.43147" lon="6.06468">
        <ele>268.77630615234</ele>
        <time>2015-01-07T14:44:07Z</time>
      </trkpt>
      <trkpt lat="43.43148" lon="6.06476">
        <ele>268.90884399414</ele>
        <time>2015-01-07T14:44:09Z</time>
      </trkpt>
      <trkpt lat="43.43149" lon="6.06483">
        <ele>269.06796264648</ele>
        <time>2015-01-07T14:44:12Z</time>
      </trkpt>
      <trkpt lat="43.4315" lon="6.06484">
        <ele>269.04791259766</ele>
        <time>2015-01-07T14:44:14Z</time>
      </trkpt>
      <trkpt lat="43.4315" lon="6.06485">
        <ele>269.08642578125</ele>
        <time>2015-01-07T14:44:18Z</time>
      </trkpt>
      <trkpt lat="43.43149" lon="6.06485">
        <ele>269.15612792969</ele>
        <time>2015-01-07T14:44:24Z</time>
      </trkpt>
      <trkpt lat="43.43149" lon="6.06485">
        <ele>269.1653137207</ele>
        <time>2015-01-07T14:44:33Z</time>
      </trkpt>
      <trkpt lat="43.4315" lon="6.06486">
        <ele>269.11944580078</ele>
        <time>2015-01-07T14:44:45Z</time>
      </trkpt>
      <trkpt lat="43.4315" lon="6.06486">
        <ele>269.12493896484</ele>
        <time>2015-01-07T14:45:05Z</time>
      </trkpt>
      <trkpt lat="43.4315" lon="6.06486">
        <ele>269.12677001953</ele>
        <time>2015-01-07T14:45:07Z</time>
      </trkpt>
      <trkpt lat="43.43149" lon="6.06486">
        <ele>269.18920898438</ele>
        <time>2015-01-07T14:45:11Z</time>
      </trkpt>
      <trkpt lat="43.4315" lon="6.06486">
        <ele>269.13595581055</ele>
        <time>2015-01-07T14:45:21Z</time>
      </trkpt>
      <trkpt lat="43.4315" lon="6.06486">
        <ele>269.13229370117</ele>
        <time>2015-01-07T14:45:39Z</time>
      </trkpt>
      <trkpt lat="43.43149" lon="6.06486">
        <ele>269.18551635742</ele>
        <time>2015-01-07T14:46:04Z</time>
      </trkpt>
      <trkpt lat="43.43149" lon="6.06486">
        <ele>269.18551635742</ele>
        <time>2015-01-07T14:46:09Z</time>
      </trkpt>
      <trkpt lat="43.4315" lon="6.06486">
        <ele>269.13412475586</ele>
        <time>2015-01-07T14:46:20Z</time>
      </trkpt>
      <trkpt lat="43.4315" lon="6.06492">
        <ele>269.34869384766</ele>
        <time>2015-01-07T14:46:27Z</time>
      </trkpt>
      <trkpt lat="43.4315" lon="6.06494">
        <ele>269.36291503906</ele>
        <time>2015-01-07T14:46:28Z</time>
      </trkpt>
      <trkpt lat="43.43151" lon="6.06495">
        <ele>269.24560546875</ele>
        <time>2015-01-07T14:46:29Z</time>
      </trkpt>
      <trkpt lat="43.43155" lon="6.06494">
        <ele>268.67999267578</ele>
        <time>2015-01-07T14:46:32Z</time>
      </trkpt>
      <trkpt lat="43.4315" lon="6.06491">
        <ele>269.33587646484</ele>
        <time>2015-01-07T14:46:36Z</time>
      </trkpt>
      <trkpt lat="43.43139" lon="6.06487">
        <ele>270.76791381836</ele>
        <time>2015-01-07T14:46:43Z</time>
      </trkpt>
      <trkpt lat="43.43138" lon="6.06487">
        <ele>270.91567993164</ele>
        <time>2015-01-07T14:46:44Z</time>
      </trkpt>
      <trkpt lat="43.43137" lon="6.06487">
        <ele>271.14691162109</ele>
        <time>2015-01-07T14:46:45Z</time>
      </trkpt>
      <trkpt lat="43.43135" lon="6.06486">
        <ele>271.36264038086</ele>
        <time>2015-01-07T14:46:46Z</time>
      </trkpt>
      <trkpt lat="43.43133" lon="6.06486">
        <ele>271.7033996582</ele>
        <time>2015-01-07T14:46:48Z</time>
      </trkpt>
      <trkpt lat="43.43129" lon="6.06486">
        <ele>272.30844116211</ele>
        <time>2015-01-07T14:46:51Z</time>
      </trkpt>
      <trkpt lat="43.43127" lon="6.06486">
        <ele>272.54940795898</ele>
        <time>2015-01-07T14:46:52Z</time>
      </trkpt>
      <trkpt lat="43.43124" lon="6.06486">
        <ele>273.07220458984</ele>
        <time>2015-01-07T14:46:54Z</time>
      </trkpt>
      <trkpt lat="43.43123" lon="6.06486">
        <ele>273.23028564453</ele>
        <time>2015-01-07T14:46:55Z</time>
      </trkpt>
      <trkpt lat="43.43119" lon="6.06484">
        <ele>273.75421142578</ele>
        <time>2015-01-07T14:46:59Z</time>
      </trkpt>
      <trkpt lat="43.43119" lon="6.06485">
        <ele>273.83944702148</ele>
        <time>2015-01-07T14:47:00Z</time>
      </trkpt>
      <trkpt lat="43.43118" lon="6.06485">
        <ele>273.96502685547</ele>
        <time>2015-01-07T14:47:01Z</time>
      </trkpt>
      <trkpt lat="43.43118" lon="6.06485">
        <ele>273.97323608398</ele>
        <time>2015-01-07T14:47:02Z</time>
      </trkpt>
      <trkpt lat="43.43118" lon="6.06486">
        <ele>273.98348999023</ele>
        <time>2015-01-07T14:47:04Z</time>
      </trkpt>
      <trkpt lat="43.43118" lon="6.06486">
        <ele>274.0524597168</ele>
        <time>2015-01-07T14:47:12Z</time>
      </trkpt>
      <trkpt lat="43.43118" lon="6.06486">
        <ele>274.05657958984</ele>
        <time>2015-01-07T14:47:22Z</time>
      </trkpt>
      <trkpt lat="43.43117" lon="6.06486">
        <ele>274.17404174805</ele>
        <time>2015-01-07T14:47:31Z</time>
      </trkpt>
      <trkpt lat="43.43117" lon="6.06486">
        <ele>274.16168212891</ele>
        <time>2015-01-07T14:47:35Z</time>
      </trkpt>
      <trkpt lat="43.43117" lon="6.06486">
        <ele>274.16372680664</ele>
        <time>2015-01-07T14:47:38Z</time>
      </trkpt>
      <trkpt lat="43.43116" lon="6.06486">
        <ele>274.23275756836</ele>
        <time>2015-01-07T14:47:44Z</time>
      </trkpt>
      <trkpt lat="43.43116" lon="6.06486">
        <ele>274.23071289062</ele>
        <time>2015-01-07T14:47:45Z</time>
      </trkpt>
      <trkpt lat="43.43116" lon="6.06486">
        <ele>274.23071289062</ele>
        <time>2015-01-07T14:47:47Z</time>
      </trkpt>
      <trkpt lat="43.43116" lon="6.06486">
        <ele>274.23071289062</ele>
        <time>2015-01-07T14:47:49Z</time>
      </trkpt>
      <trkpt lat="43.43115" lon="6.06483">
        <ele>274.32470703125</ele>
        <time>2015-01-07T14:47:54Z</time>
      </trkpt>
      <trkpt lat="43.43114" lon="6.06479">
        <ele>274.36306762695</ele>
        <time>2015-01-07T14:47:56Z</time>
      </trkpt>
      <trkpt lat="43.43112" lon="6.06473">
        <ele>274.3681640625</ele>
        <time>2015-01-07T14:48:00Z</time>
      </trkpt>
      <trkpt lat="43.43111" lon="6.06471">
        <ele>274.36331176758</ele>
        <time>2015-01-07T14:48:01Z</time>
      </trkpt>
      <trkpt lat="43.4311" lon="6.06466">
        <ele>274.34439086914</ele>
        <time>2015-01-07T14:48:04Z</time>
      </trkpt>
      <trkpt lat="43.43107" lon="6.06458">
        <ele>274.47143554688</ele>
        <time>2015-01-07T14:48:08Z</time>
      </trkpt>
      <trkpt lat="43.43105" lon="6.06455">
        <ele>274.59484863281</ele>
        <time>2015-01-07T14:48:13Z</time>
      </trkpt>
      <trkpt lat="43.43104" lon="6.06452">
        <ele>274.60586547852</ele>
        <time>2015-01-07T14:48:21Z</time>
      </trkpt>
      <trkpt lat="43.43104" lon="6.06452">
        <ele>274.59515380859</ele>
        <time>2015-01-07T14:48:24Z</time>
      </trkpt>
      <trkpt lat="43.43103" lon="6.06446">
        <ele>274.548828125</ele>
        <time>2015-01-07T14:48:31Z</time>
      </trkpt>
      <trkpt lat="43.431" lon="6.06437">
        <ele>274.60494995117</ele>
        <time>2015-01-07T14:48:36Z</time>
      </trkpt>
      <trkpt lat="43.43098" lon="6.06434">
        <ele>274.67172241211</ele>
        <time>2015-01-07T14:48:38Z</time>
      </trkpt>
      <trkpt lat="43.43093" lon="6.06423">
        <ele>274.86721801758</ele>
        <time>2015-01-07T14:48:44Z</time>
      </trkpt>
      <trkpt lat="43.43093" lon="6.06421">
        <ele>274.83126831055</ele>
        <time>2015-01-07T14:48:45Z</time>
      </trkpt>
      <trkpt lat="43.43092" lon="6.06412">
        <ele>274.69644165039</ele>
        <time>2015-01-07T14:48:49Z</time>
      </trkpt>
      <trkpt lat="43.43089" lon="6.06394">
        <ele>274.72897338867</ele>
        <time>2015-01-07T14:48:57Z</time>
      </trkpt>
      <trkpt lat="43.43086" lon="6.06381">
        <ele>274.79040527344</ele>
        <time>2015-01-07T14:49:04Z</time>
      </trkpt>
      <trkpt lat="43.43084" lon="6.06376">
        <ele>274.88510131836</ele>
        <time>2015-01-07T14:49:06Z</time>
      </trkpt>
      <trkpt lat="43.43081" lon="6.06366">
        <ele>274.95974731445</ele>
        <time>2015-01-07T14:49:10Z</time>
      </trkpt>
      <trkpt lat="43.43072" lon="6.06355">
        <ele>275.28005981445</ele>
        <time>2015-01-07T14:49:16Z</time>
      </trkpt>
      <trkpt lat="43.43057" lon="6.06349">
        <ele>275.98504638672</ele>
        <time>2015-01-07T14:49:23Z</time>
      </trkpt>
      <trkpt lat="43.43052" lon="6.06346">
        <ele>276.15310668945</ele>
        <time>2015-01-07T14:49:26Z</time>
      </trkpt>
      <trkpt lat="43.43047" lon="6.06344">
        <ele>276.3346862793</ele>
        <time>2015-01-07T14:49:29Z</time>
      </trkpt>
      <trkpt lat="43.43037" lon="6.06334">
        <ele>276.2204284668</ele>
        <time>2015-01-07T14:49:35Z</time>
      </trkpt>
      <trkpt lat="43.43034" lon="6.0632">
        <ele>277.42761230469</ele>
        <time>2015-01-07T14:49:40Z</time>
      </trkpt>
      <trkpt lat="43.43026" lon="6.06313">
        <ele>278.34378051758</ele>
        <time>2015-01-07T14:49:45Z</time>
      </trkpt>
      <trkpt lat="43.43023" lon="6.06314">
        <ele>278.46447753906</ele>
        <time>2015-01-07T14:49:47Z</time>
      </trkpt>
      <trkpt lat="43.43007" lon="6.06313">
        <ele>279.40869140625</ele>
        <time>2015-01-07T14:49:56Z</time>
      </trkpt>
      <trkpt lat="43.42994" lon="6.06311">
        <ele>280.36614990234</ele>
        <time>2015-01-07T14:50:03Z</time>
      </trkpt>
      <trkpt lat="43.42982" lon="6.06305">
        <ele>281.78707885742</ele>
        <time>2015-01-07T14:50:10Z</time>
      </trkpt>
      <trkpt lat="43.42973" lon="6.06309">
        <ele>282.17431640625</ele>
        <time>2015-01-07T14:50:15Z</time>
      </trkpt>
      <trkpt lat="43.42969" lon="6.0631">
        <ele>282.45932006836</ele>
        <time>2015-01-07T14:50:17Z</time>
      </trkpt>
      <trkpt lat="43.42963" lon="6.06307">
        <ele>283.01547241211</ele>
        <time>2015-01-07T14:50:20Z</time>
      </trkpt>
      <trkpt lat="43.42954" lon="6.06299">
        <ele>284.1608581543</ele>
        <time>2015-01-07T14:50:27Z</time>
      </trkpt>
      <trkpt lat="43.42949" lon="6.06293">
        <ele>284.8561706543</ele>
        <time>2015-01-07T14:50:32Z</time>
      </trkpt>
      <trkpt lat="43.42947" lon="6.06292">
        <ele>284.97860717773</ele>
        <time>2015-01-07T14:50:33Z</time>
      </trkpt>
      <trkpt lat="43.42941" lon="6.06287">
        <ele>285.5559387207</ele>
        <time>2015-01-07T14:50:39Z</time>
      </trkpt>
      <trkpt lat="43.42939" lon="6.06287">
        <ele>285.69317626953</ele>
        <time>2015-01-07T14:50:40Z</time>
      </trkpt>
      <trkpt lat="43.42934" lon="6.06287">
        <ele>285.99472045898</ele>
        <time>2015-01-07T14:50:43Z</time>
      </trkpt>
      <trkpt lat="43.42934" lon="6.06287">
        <ele>286.02212524414</ele>
        <time>2015-01-07T14:50:44Z</time>
      </trkpt>
      <trkpt lat="43.42933" lon="6.06288">
        <ele>286.03567504883</ele>
        <time>2015-01-07T14:50:45Z</time>
      </trkpt>
      <trkpt lat="43.42933" lon="6.06289">
        <ele>286.05868530273</ele>
        <time>2015-01-07T14:50:46Z</time>
      </trkpt>
      <trkpt lat="43.42929" lon="6.06292">
        <ele>286.18710327148</ele>
        <time>2015-01-07T14:50:49Z</time>
      </trkpt>
      <trkpt lat="43.42925" lon="6.06295">
        <ele>286.34774780273</ele>
        <time>2015-01-07T14:50:52Z</time>
      </trkpt>
      <trkpt lat="43.42924" lon="6.06297">
        <ele>286.34832763672</ele>
        <time>2015-01-07T14:50:53Z</time>
      </trkpt>
      <trkpt lat="43.42921" lon="6.06301">
        <ele>286.43688964844</ele>
        <time>2015-01-07T14:50:55Z</time>
      </trkpt>
      <trkpt lat="43.42919" lon="6.06304">
        <ele>286.54284667969</ele>
        <time>2015-01-07T14:50:57Z</time>
      </trkpt>
      <trkpt lat="43.42919" lon="6.06305">
        <ele>286.53311157227</ele>
        <time>2015-01-07T14:50:59Z</time>
      </trkpt>
      <trkpt lat="43.42918" lon="6.06305">
        <ele>286.55218505859</ele>
        <time>2015-01-07T14:51:01Z</time>
      </trkpt>
      <trkpt lat="43.42918" lon="6.06305">
        <ele>286.53775024414</ele>
        <time>2015-01-07T14:51:03Z</time>
      </trkpt>
      <trkpt lat="43.42918" lon="6.06305">
        <ele>286.5798034668</ele>
        <time>2015-01-07T14:51:12Z</time>
      </trkpt>
      <trkpt lat="43.42918" lon="6.06305">
        <ele>286.57861328125</ele>
        <time>2015-01-07T14:51:18Z</time>
      </trkpt>
      <trkpt lat="43.42918" lon="6.06305">
        <ele>286.5774230957</ele>
        <time>2015-01-07T14:51:27Z</time>
      </trkpt>
      <trkpt lat="43.42918" lon="6.06305">
        <ele>286.57385253906</ele>
        <time>2015-01-07T14:51:31Z</time>
      </trkpt>
      <trkpt lat="43.42918" lon="6.06306">
        <ele>286.5803527832</ele>
        <time>2015-01-07T14:51:33Z</time>
      </trkpt>
      <trkpt lat="43.42915" lon="6.06309">
        <ele>286.80209350586</ele>
        <time>2015-01-07T14:51:38Z</time>
      </trkpt>
      <trkpt lat="43.42915" lon="6.06309">
        <ele>286.80090332031</ele>
        <time>2015-01-07T14:51:40Z</time>
      </trkpt>
      <trkpt lat="43.42915" lon="6.0631">
        <ele>286.78262329102</ele>
        <time>2015-01-07T14:51:47Z</time>
      </trkpt>
      <trkpt lat="43.42915" lon="6.06311">
        <ele>286.80630493164</ele>
        <time>2015-01-07T14:51:53Z</time>
      </trkpt>
      <trkpt lat="43.42914" lon="6.06312">
        <ele>286.97128295898</ele>
        <time>2015-01-07T14:51:55Z</time>
      </trkpt>
      <trkpt lat="43.42911" lon="6.06313">
        <ele>287.39651489258</ele>
        <time>2015-01-07T14:52:05Z</time>
      </trkpt>
      <trkpt lat="43.42911" lon="6.06313">
        <ele>287.3935546875</ele>
        <time>2015-01-07T14:52:07Z</time>
      </trkpt>
      <trkpt lat="43.42911" lon="6.06314">
        <ele>287.38916015625</ele>
        <time>2015-01-07T14:52:11Z</time>
      </trkpt>
      <trkpt lat="43.42911" lon="6.06314">
        <ele>287.38916015625</ele>
        <time>2015-01-07T14:52:19Z</time>
      </trkpt>
      <trkpt lat="43.42911" lon="6.06314">
        <ele>287.38623046875</ele>
        <time>2015-01-07T14:52:24Z</time>
      </trkpt>
      <trkpt lat="43.4291" lon="6.06314">
        <ele>287.43780517578</ele>
        <time>2015-01-07T14:52:27Z</time>
      </trkpt>
      <trkpt lat="43.4291" lon="6.06314">
        <ele>287.49520874023</ele>
        <time>2015-01-07T14:52:29Z</time>
      </trkpt>
      <trkpt lat="43.42909" lon="6.06314">
        <ele>287.65774536133</ele>
        <time>2015-01-07T14:52:33Z</time>
      </trkpt>
      <trkpt lat="43.42908" lon="6.06314">
        <ele>287.77676391602</ele>
        <time>2015-01-07T14:52:40Z</time>
      </trkpt>
      <trkpt lat="43.42908" lon="6.06314">
        <ele>287.77514648438</ele>
        <time>2015-01-07T14:52:42Z</time>
      </trkpt>
      <trkpt lat="43.42908" lon="6.06314">
        <ele>287.77352905273</ele>
        <time>2015-01-07T14:52:43Z</time>
      </trkpt>
      <trkpt lat="43.42908" lon="6.06314">
        <ele>287.77191162109</ele>
        <time>2015-01-07T14:52:52Z</time>
      </trkpt>
      <trkpt lat="43.42908" lon="6.06315">
        <ele>287.76867675781</ele>
        <time>2015-01-07T14:53:09Z</time>
      </trkpt>
      <trkpt lat="43.42908" lon="6.06315">
        <ele>287.76705932617</ele>
        <time>2015-01-07T14:53:12Z</time>
      </trkpt>
      <trkpt lat="43.42906" lon="6.06316">
        <ele>288.01364135742</ele>
        <time>2015-01-07T14:53:21Z</time>
      </trkpt>
      <trkpt lat="43.42906" lon="6.06316">
        <ele>288.00677490234</ele>
        <time>2015-01-07T14:53:28Z</time>
      </trkpt>
      <trkpt lat="43.42906" lon="6.06316">
        <ele>288.00677490234</ele>
        <time>2015-01-07T14:53:31Z</time>
      </trkpt>
      <trkpt lat="43.42906" lon="6.06316">
        <ele>288.01019287109</ele>
        <time>2015-01-07T14:53:43Z</time>
      </trkpt>
      <trkpt lat="43.42904" lon="6.06316">
        <ele>288.42364501953</ele>
        <time>2015-01-07T14:53:47Z</time>
      </trkpt>
      <trkpt lat="43.42902" lon="6.06316">
        <ele>288.59399414062</ele>
        <time>2015-01-07T14:53:48Z</time>
      </trkpt>
      <trkpt lat="43.42896" lon="6.06317">
        <ele>289.53033447266</ele>
        <time>2015-01-07T14:53:53Z</time>
      </trkpt>
      <trkpt lat="43.42893" lon="6.06318">
        <ele>289.86041259766</ele>
        <time>2015-01-07T14:53:55Z</time>
      </trkpt>
      <trkpt lat="43.42892" lon="6.06319">
        <ele>290.05294799805</ele>
        <time>2015-01-07T14:53:56Z</time>
      </trkpt>
      <trkpt lat="43.4289" lon="6.06319">
        <ele>290.26916503906</ele>
        <time>2015-01-07T14:53:57Z</time>
      </trkpt>
      <trkpt lat="43.42889" lon="6.06319">
        <ele>290.46017456055</ele>
        <time>2015-01-07T14:53:58Z</time>
      </trkpt>
      <trkpt lat="43.42884" lon="6.06318">
        <ele>291.18182373047</ele>
        <time>2015-01-07T14:54:01Z</time>
      </trkpt>
      <trkpt lat="43.42882" lon="6.06318">
        <ele>291.60247802734</ele>
        <time>2015-01-07T14:54:03Z</time>
      </trkpt>
      <trkpt lat="43.42876" lon="6.06316">
        <ele>292.50695800781</ele>
        <time>2015-01-07T14:54:07Z</time>
      </trkpt>
      <trkpt lat="43.4287" lon="6.06313">
        <ele>293.70153808594</ele>
        <time>2015-01-07T14:54:11Z</time>
      </trkpt>
      <trkpt lat="43.42858" lon="6.06312">
        <ele>295.73040771484</ele>
        <time>2015-01-07T14:54:19Z</time>
      </trkpt>
      <trkpt lat="43.42848" lon="6.06317">
        <ele>296.68804931641</ele>
        <time>2015-01-07T14:54:25Z</time>
      </trkpt>
      <trkpt lat="43.42846" lon="6.0632">
        <ele>296.73568725586</ele>
        <time>2015-01-07T14:54:27Z</time>
      </trkpt>
      <trkpt lat="43.42842" lon="6.06324">
        <ele>296.96948242188</ele>
        <time>2015-01-07T14:54:30Z</time>
      </trkpt>
      <trkpt lat="43.42828" lon="6.06336">
        <ele>297.33508300781</ele>
        <time>2015-01-07T14:54:36Z</time>
      </trkpt>
      <trkpt lat="43.4282" lon="6.06343">
        <ele>297.84768676758</ele>
        <time>2015-01-07T14:54:38Z</time>
      </trkpt>
      <trkpt lat="43.42814" lon="6.06344">
        <ele>297.96682739258</ele>
        <time>2015-01-07T14:54:39Z</time>
      </trkpt>
      <trkpt lat="43.42807" lon="6.06341">
        <ele>297.96838378906</ele>
        <time>2015-01-07T14:54:41Z</time>
      </trkpt>
      <trkpt lat="43.42804" lon="6.06339">
        <ele>297.93865966797</ele>
        <time>2015-01-07T14:54:42Z</time>
      </trkpt>
      <trkpt lat="43.42801" lon="6.06338">
        <ele>297.94412231445</ele>
        <time>2015-01-07T14:54:43Z</time>
      </trkpt>
      <trkpt lat="43.42798" lon="6.06336">
        <ele>297.93930053711</ele>
        <time>2015-01-07T14:54:44Z</time>
      </trkpt>
      <trkpt lat="43.42791" lon="6.06335">
        <ele>298.07479858398</ele>
        <time>2015-01-07T14:54:46Z</time>
      </trkpt>
      <trkpt lat="43.42786" lon="6.06335">
        <ele>298.15048217773</ele>
        <time>2015-01-07T14:54:47Z</time>
      </trkpt>
      <trkpt lat="43.42775" lon="6.0633">
        <ele>298.8899230957</ele>
        <time>2015-01-07T14:54:50Z</time>
      </trkpt>
      <trkpt lat="43.4277" lon="6.06329">
        <ele>299.13278198242</ele>
        <time>2015-01-07T14:54:51Z</time>
      </trkpt>
      <trkpt lat="43.42764" lon="6.06329">
        <ele>299.36740112305</ele>
        <time>2015-01-07T14:54:53Z</time>
      </trkpt>
      <trkpt lat="43.42761" lon="6.0633">
        <ele>299.27554321289</ele>
        <time>2015-01-07T14:54:54Z</time>
      </trkpt>
      <trkpt lat="43.42758" lon="6.06331">
        <ele>299.09399414062</ele>
        <time>2015-01-07T14:54:55Z</time>
      </trkpt>
      <trkpt lat="43.42739" lon="6.06339">
        <ele>297.39028930664</ele>
        <time>2015-01-07T14:55:00Z</time>
      </trkpt>
      <trkpt lat="43.42735" lon="6.0634">
        <ele>296.8479309082</ele>
        <time>2015-01-07T14:55:01Z</time>
      </trkpt>
      <trkpt lat="43.42727" lon="6.06342">
        <ele>295.64859008789</ele>
        <time>2015-01-07T14:55:03Z</time>
      </trkpt>
      <trkpt lat="43.42719" lon="6.06342">
        <ele>294.56396484375</ele>
        <time>2015-01-07T14:55:05Z</time>
      </trkpt>
      <trkpt lat="43.42703" lon="6.06336">
        <ele>292.7119140625</ele>
        <time>2015-01-07T14:55:10Z</time>
      </trkpt>
      <trkpt lat="43.42692" lon="6.06332">
        <ele>291.51605224609</ele>
        <time>2015-01-07T14:55:15Z</time>
      </trkpt>
      <trkpt lat="43.42687" lon="6.06331">
        <ele>291.09948730469</ele>
        <time>2015-01-07T14:55:18Z</time>
      </trkpt>
      <trkpt lat="43.42685" lon="6.0633">
        <ele>290.86431884766</ele>
        <time>2015-01-07T14:55:21Z</time>
      </trkpt>
      <trkpt lat="43.42683" lon="6.06331">
        <ele>290.49752807617</ele>
        <time>2015-01-07T14:55:29Z</time>
      </trkpt>
      <trkpt lat="43.42683" lon="6.06332">
        <ele>290.38766479492</ele>
        <time>2015-01-07T14:55:34Z</time>
      </trkpt>
      <trkpt lat="43.42682" lon="6.06332">
        <ele>290.15649414062</ele>
        <time>2015-01-07T14:55:39Z</time>
      </trkpt>
      <trkpt lat="43.42681" lon="6.06333">
        <ele>289.86981201172</ele>
        <time>2015-01-07T14:55:41Z</time>
      </trkpt>
      <trkpt lat="43.42674" lon="6.06346">
        <ele>288.25961303711</ele>
        <time>2015-01-07T14:55:45Z</time>
      </trkpt>
      <trkpt lat="43.42671" lon="6.06352">
        <ele>287.50189208984</ele>
        <time>2015-01-07T14:55:46Z</time>
      </trkpt>
      <trkpt lat="43.42665" lon="6.06367">
        <ele>285.86712646484</ele>
        <time>2015-01-07T14:55:48Z</time>
      </trkpt>
      <trkpt lat="43.42662" lon="6.06375">
        <ele>285.23123168945</ele>
        <time>2015-01-07T14:55:49Z</time>
      </trkpt>
      <trkpt lat="43.42659" lon="6.06382">
        <ele>284.66482543945</ele>
        <time>2015-01-07T14:55:50Z</time>
      </trkpt>
      <trkpt lat="43.42653" lon="6.06394">
        <ele>283.73931884766</ele>
        <time>2015-01-07T14:55:52Z</time>
      </trkpt>
      <trkpt lat="43.42652" lon="6.064">
        <ele>283.34463500977</ele>
        <time>2015-01-07T14:55:54Z</time>
      </trkpt>
      <trkpt lat="43.42652" lon="6.06401">
        <ele>283.30377197266</ele>
        <time>2015-01-07T14:55:56Z</time>
      </trkpt>
      <trkpt lat="43.42651" lon="6.06401">
        <ele>283.29254150391</ele>
        <time>2015-01-07T14:55:57Z</time>
      </trkpt>
      <trkpt lat="43.42652" lon="6.064">
        <ele>283.38037109375</ele>
        <time>2015-01-07T14:56:00Z</time>
      </trkpt>
      <trkpt lat="43.42653" lon="6.06398">
        <ele>283.50341796875</ele>
        <time>2015-01-07T14:56:03Z</time>
      </trkpt>
      <trkpt lat="43.42653" lon="6.06398">
        <ele>283.5188293457</ele>
        <time>2015-01-07T14:56:05Z</time>
      </trkpt>
      <trkpt lat="43.42653" lon="6.06397">
        <ele>283.52911376953</ele>
        <time>2015-01-07T14:56:12Z</time>
      </trkpt>
      <trkpt lat="43.42653" lon="6.06397">
        <ele>283.53167724609</ele>
        <time>2015-01-07T14:56:18Z</time>
      </trkpt>
      <trkpt lat="43.42653" lon="6.06397">
        <ele>283.53939819336</ele>
        <time>2015-01-07T14:57:52Z</time>
      </trkpt>
      <trkpt lat="43.42653" lon="6.06397">
        <ele>283.54196166992</ele>
        <time>2015-01-07T14:58:13Z</time>
      </trkpt>
      <trkpt lat="43.42653" lon="6.06397">
        <ele>283.58728027344</ele>
        <time>2015-01-07T14:58:17Z</time>
      </trkpt>
      <trkpt lat="43.42653" lon="6.06396">
        <ele>283.60531616211</ele>
        <time>2015-01-07T14:58:20Z</time>
      </trkpt>
      <trkpt lat="43.42653" lon="6.06396">
        <ele>283.60272216797</ele>
        <time>2015-01-07T14:58:23Z</time>
      </trkpt>
      <trkpt lat="43.42654" lon="6.06392">
        <ele>283.85989379883</ele>
        <time>2015-01-07T14:58:32Z</time>
      </trkpt>
      <trkpt lat="43.42654" lon="6.0639">
        <ele>283.96621704102</ele>
        <time>2015-01-07T14:58:33Z</time>
      </trkpt>
      <trkpt lat="43.42656" lon="6.06383">
        <ele>284.49792480469</ele>
        <time>2015-01-07T14:58:38Z</time>
      </trkpt>
      <trkpt lat="43.42656" lon="6.06383">
        <ele>284.47250366211</ele>
        <time>2015-01-07T14:58:42Z</time>
      </trkpt>
      <trkpt lat="43.42655" lon="6.06381">
        <ele>284.52807617188</ele>
        <time>2015-01-07T14:58:50Z</time>
      </trkpt>
      <trkpt lat="43.42655" lon="6.06381">
        <ele>284.53591918945</ele>
        <time>2015-01-07T14:58:53Z</time>
      </trkpt>
      <trkpt lat="43.42654" lon="6.06381">
        <ele>284.52410888672</ele>
        <time>2015-01-07T14:58:57Z</time>
      </trkpt>
      <trkpt lat="43.42654" lon="6.06381">
        <ele>284.5319519043</ele>
        <time>2015-01-07T14:59:04Z</time>
      </trkpt>
      <trkpt lat="43.42654" lon="6.0638">
        <ele>284.54760742188</ele>
        <time>2015-01-07T14:59:44Z</time>
      </trkpt>
      <trkpt lat="43.42654" lon="6.0638">
        <ele>284.5397644043</ele>
        <time>2015-01-07T15:00:05Z</time>
      </trkpt>
      <trkpt lat="43.42654" lon="6.06381">
        <ele>284.53454589844</ele>
        <time>2015-01-07T15:00:10Z</time>
      </trkpt>
      <trkpt lat="43.42654" lon="6.06381">
        <ele>284.53454589844</ele>
        <time>2015-01-07T15:00:15Z</time>
      </trkpt>
      <trkpt lat="43.42654" lon="6.0638">
        <ele>284.56323242188</ele>
        <time>2015-01-07T15:01:03Z</time>
      </trkpt>
      <trkpt lat="43.42654" lon="6.0638">
        <ele>284.57107543945</ele>
        <time>2015-01-07T15:01:17Z</time>
      </trkpt>
      <trkpt lat="43.42654" lon="6.0638">
        <ele>284.57107543945</ele>
        <time>2015-01-07T15:01:21Z</time>
      </trkpt>
      <trkpt lat="43.42654" lon="6.0638">
        <ele>284.57107543945</ele>
        <time>2015-01-07T15:01:30Z</time>
      </trkpt>
      <trkpt lat="43.42654" lon="6.0638">
        <ele>284.57629394531</ele>
        <time>2015-01-07T15:04:18Z</time>
      </trkpt>
      <trkpt lat="43.42654" lon="6.0638">
        <ele>284.57366943359</ele>
        <time>2015-01-07T15:04:33Z</time>
      </trkpt>
      <trkpt lat="43.42654" lon="6.0638">
        <ele>284.57629394531</ele>
        <time>2015-01-07T15:04:57Z</time>
      </trkpt>
      <trkpt lat="43.42654" lon="6.0638">
        <ele>284.57107543945</ele>
        <time>2015-01-07T15:05:45Z</time>
      </trkpt>
      <trkpt lat="43.42654" lon="6.0638">
        <ele>284.57366943359</ele>
        <time>2015-01-07T15:06:12Z</time>
      </trkpt>
      <trkpt lat="43.42654" lon="6.0638">
        <ele>284.57366943359</ele>
        <time>2015-01-07T15:06:35Z</time>
      </trkpt>
      <trkpt lat="43.42654" lon="6.0638">
        <ele>284.57629394531</ele>
        <time>2015-01-07T15:06:53Z</time>
      </trkpt>
      <trkpt lat="43.42655" lon="6.0638">
        <ele>284.59872436523</ele>
        <time>2015-01-07T15:07:00Z</time>
      </trkpt>
      <trkpt lat="43.42655" lon="6.0638">
        <ele>284.59753417969</ele>
        <time>2015-01-07T15:07:23Z</time>
      </trkpt>
      <trkpt lat="43.42655" lon="6.0638">
        <ele>284.61178588867</ele>
        <time>2015-01-07T15:07:25Z</time>
      </trkpt>
      <trkpt lat="43.42655" lon="6.06377">
        <ele>284.76354980469</ele>
        <time>2015-01-07T15:07:31Z</time>
      </trkpt>
      <trkpt lat="43.42654" lon="6.06376">
        <ele>284.77716064453</ele>
        <time>2015-01-07T15:07:35Z</time>
      </trkpt>
      <trkpt lat="43.42654" lon="6.06376">
        <ele>284.78497314453</ele>
        <time>2015-01-07T15:07:41Z</time>
      </trkpt>
      <trkpt lat="43.42654" lon="6.06376">
        <ele>284.79281616211</ele>
        <time>2015-01-07T15:07:45Z</time>
      </trkpt>
      <trkpt lat="43.42654" lon="6.06375">
        <ele>284.81369018555</ele>
        <time>2015-01-07T15:07:56Z</time>
      </trkpt>
      <trkpt lat="43.42654" lon="6.06375">
        <ele>284.81890869141</ele>
        <time>2015-01-07T15:08:00Z</time>
      </trkpt>
      <trkpt lat="43.42657" lon="6.06372">
        <ele>285.1862487793</ele>
        <time>2015-01-07T15:08:05Z</time>
      </trkpt>
      <trkpt lat="43.42659" lon="6.0637">
        <ele>285.34671020508</ele>
        <time>2015-01-07T15:08:06Z</time>
      </trkpt>
      <trkpt lat="43.42659" lon="6.06369">
        <ele>285.47085571289</ele>
        <time>2015-01-07T15:08:07Z</time>
      </trkpt>
      <trkpt lat="43.42661" lon="6.06365">
        <ele>285.74395751953</ele>
        <time>2015-01-07T15:08:09Z</time>
      </trkpt>
      <trkpt lat="43.42659" lon="6.06359">
        <ele>286.01303100586</ele>
        <time>2015-01-07T15:08:12Z</time>
      </trkpt>
      <trkpt lat="43.42659" lon="6.06356">
        <ele>286.12289428711</ele>
        <time>2015-01-07T15:08:13Z</time>
      </trkpt>
      <trkpt lat="43.42656" lon="6.06342">
        <ele>286.80169677734</ele>
        <time>2015-01-07T15:08:18Z</time>
      </trkpt>
      <trkpt lat="43.42651" lon="6.06332">
        <ele>287.13702392578</ele>
        <time>2015-01-07T15:08:22Z</time>
      </trkpt>
      <trkpt lat="43.42651" lon="6.0633">
        <ele>287.33135986328</ele>
        <time>2015-01-07T15:08:23Z</time>
      </trkpt>
      <trkpt lat="43.42646" lon="6.06323">
        <ele>288.17535400391</ele>
        <time>2015-01-07T15:08:27Z</time>
      </trkpt>
      <trkpt lat="43.42645" lon="6.06322">
        <ele>288.21951293945</ele>
        <time>2015-01-07T15:08:28Z</time>
      </trkpt>
      <trkpt lat="43.42632" lon="6.06319">
        <ele>287.75595092773</ele>
        <time>2015-01-07T15:08:32Z</time>
      </trkpt>
      <trkpt lat="43.4262" lon="6.06312">
        <ele>288.16571044922</ele>
        <time>2015-01-07T15:08:35Z</time>
      </trkpt>
      <trkpt lat="43.42616" lon="6.06309">
        <ele>288.21649169922</ele>
        <time>2015-01-07T15:08:36Z</time>
      </trkpt>
      <trkpt lat="43.42597" lon="6.06312">
        <ele>286.50988769531</ele>
        <time>2015-01-07T15:08:40Z</time>
      </trkpt>
      <trkpt lat="43.42589" lon="6.06318">
        <ele>284.95846557617</ele>
        <time>2015-01-07T15:08:42Z</time>
      </trkpt>
      <trkpt lat="43.4258" lon="6.06326">
        <ele>283.50814819336</ele>
        <time>2015-01-07T15:08:44Z</time>
      </trkpt>
      <trkpt lat="43.42577" lon="6.0633">
        <ele>283.00030517578</ele>
        <time>2015-01-07T15:08:45Z</time>
      </trkpt>
      <trkpt lat="43.42573" lon="6.06334">
        <ele>282.73840332031</ele>
        <time>2015-01-07T15:08:46Z</time>
      </trkpt>
      <trkpt lat="43.42559" lon="6.06344">
        <ele>283.2780456543</ele>
        <time>2015-01-07T15:08:49Z</time>
      </trkpt>
      <trkpt lat="43.42553" lon="6.06348">
        <ele>283.43807983398</ele>
        <time>2015-01-07T15:08:50Z</time>
      </trkpt>
      <trkpt lat="43.42533" lon="6.06359">
        <ele>283.91461181641</ele>
        <time>2015-01-07T15:08:54Z</time>
      </trkpt>
      <trkpt lat="43.42521" lon="6.06362">
        <ele>284.27151489258</ele>
        <time>2015-01-07T15:08:56Z</time>
      </trkpt>
      <trkpt lat="43.42509" lon="6.06367">
        <ele>284.39834594727</ele>
        <time>2015-01-07T15:08:58Z</time>
      </trkpt>
      <trkpt lat="43.42497" lon="6.06372">
        <ele>284.23834228516</ele>
        <time>2015-01-07T15:09:00Z</time>
      </trkpt>
      <trkpt lat="43.42491" lon="6.06374">
        <ele>284.03707885742</ele>
        <time>2015-01-07T15:09:01Z</time>
      </trkpt>
      <trkpt lat="43.42472" lon="6.06375">
        <ele>283.87045288086</ele>
        <time>2015-01-07T15:09:04Z</time>
      </trkpt>
      <trkpt lat="43.42459" lon="6.06377">
        <ele>283.51629638672</ele>
        <time>2015-01-07T15:09:06Z</time>
      </trkpt>
      <trkpt lat="43.42441" lon="6.06388">
        <ele>282.27932739258</ele>
        <time>2015-01-07T15:09:09Z</time>
      </trkpt>
      <trkpt lat="43.42437" lon="6.06393">
        <ele>281.77703857422</ele>
        <time>2015-01-07T15:09:10Z</time>
      </trkpt>
      <trkpt lat="43.42422" lon="6.06402">
        <ele>280.61050415039</ele>
        <time>2015-01-07T15:09:13Z</time>
      </trkpt>
      <trkpt lat="43.42417" lon="6.06402">
        <ele>280.5729675293</ele>
        <time>2015-01-07T15:09:14Z</time>
      </trkpt>
      <trkpt lat="43.42401" lon="6.06397">
        <ele>280.11721801758</ele>
        <time>2015-01-07T15:09:17Z</time>
      </trkpt>
      <trkpt lat="43.42388" lon="6.06392">
        <ele>279.6867980957</ele>
        <time>2015-01-07T15:09:19Z</time>
      </trkpt>
      <trkpt lat="43.42377" lon="6.06395">
        <ele>278.73861694336</ele>
        <time>2015-01-07T15:09:21Z</time>
      </trkpt>
      <trkpt lat="43.42366" lon="6.06404">
        <ele>277.1318359375</ele>
        <time>2015-01-07T15:09:23Z</time>
      </trkpt>
      <trkpt lat="43.42361" lon="6.0641">
        <ele>276.27053833008</ele>
        <time>2015-01-07T15:09:24Z</time>
      </trkpt>
      <trkpt lat="43.42343" lon="6.06424">
        <ele>274.05776977539</ele>
        <time>2015-01-07T15:09:27Z</time>
      </trkpt>
      <trkpt lat="43.42331" lon="6.06433">
        <ele>272.64239501953</ele>
        <time>2015-01-07T15:09:29Z</time>
      </trkpt>
      <trkpt lat="43.42314" lon="6.06452">
        <ele>270.18298339844</ele>
        <time>2015-01-07T15:09:32Z</time>
      </trkpt>
      <trkpt lat="43.42302" lon="6.06465">
        <ele>268.50909423828</ele>
        <time>2015-01-07T15:09:34Z</time>
      </trkpt>
      <trkpt lat="43.42297" lon="6.06472">
        <ele>267.68414306641</ele>
        <time>2015-01-07T15:09:35Z</time>
      </trkpt>
      <trkpt lat="43.42293" lon="6.06479">
        <ele>266.98208618164</ele>
        <time>2015-01-07T15:09:36Z</time>
      </trkpt>
      <trkpt lat="43.42281" lon="6.06492">
        <ele>265.33184814453</ele>
        <time>2015-01-07T15:09:38Z</time>
      </trkpt>
      <trkpt lat="43.42274" lon="6.06498">
        <ele>264.59051513672</ele>
        <time>2015-01-07T15:09:39Z</time>
      </trkpt>
      <trkpt lat="43.42255" lon="6.06504">
        <ele>263.11682128906</ele>
        <time>2015-01-07T15:09:42Z</time>
      </trkpt>
      <trkpt lat="43.42233" lon="6.065">
        <ele>261.98950195312</ele>
        <time>2015-01-07T15:09:45Z</time>
      </trkpt>
      <trkpt lat="43.42226" lon="6.06499">
        <ele>261.66040039062</ele>
        <time>2015-01-07T15:09:46Z</time>
      </trkpt>
      <trkpt lat="43.42219" lon="6.06499">
        <ele>261.20306396484</ele>
        <time>2015-01-07T15:09:47Z</time>
      </trkpt>
      <trkpt lat="43.42207" lon="6.065">
        <ele>260.41226196289</ele>
        <time>2015-01-07T15:09:49Z</time>
      </trkpt>
      <trkpt lat="43.42201" lon="6.06499">
        <ele>260.11315917969</ele>
        <time>2015-01-07T15:09:50Z</time>
      </trkpt>
      <trkpt lat="43.42196" lon="6.06491">
        <ele>260.15994262695</ele>
        <time>2015-01-07T15:09:52Z</time>
      </trkpt>
      <trkpt lat="43.42193" lon="6.0648">
        <ele>260.47555541992</ele>
        <time>2015-01-07T15:09:54Z</time>
      </trkpt>
      <trkpt lat="43.42191" lon="6.06467">
        <ele>260.90283203125</ele>
        <time>2015-01-07T15:09:56Z</time>
      </trkpt>
      <trkpt lat="43.4219" lon="6.06461">
        <ele>261.06524658203</ele>
        <time>2015-01-07T15:09:57Z</time>
      </trkpt>
      <trkpt lat="43.42183" lon="6.06424">
        <ele>262.03405761719</ele>
        <time>2015-01-07T15:10:02Z</time>
      </trkpt>
      <trkpt lat="43.42179" lon="6.06409">
        <ele>262.35903930664</ele>
        <time>2015-01-07T15:10:04Z</time>
      </trkpt>
      <trkpt lat="43.42172" lon="6.0637">
        <ele>263.15097045898</ele>
        <time>2015-01-07T15:10:09Z</time>
      </trkpt>
      <trkpt lat="43.42168" lon="6.06348">
        <ele>263.55438232422</ele>
        <time>2015-01-07T15:10:12Z</time>
      </trkpt>
      <trkpt lat="43.42161" lon="6.06302">
        <ele>264.85134887695</ele>
        <time>2015-01-07T15:10:19Z</time>
      </trkpt>
      <trkpt lat="43.42157" lon="6.06282">
        <ele>265.3669128418</ele>
        <time>2015-01-07T15:10:23Z</time>
      </trkpt>
      <trkpt lat="43.42158" lon="6.06277">
        <ele>265.62249755859</ele>
        <time>2015-01-07T15:10:24Z</time>
      </trkpt>
      <trkpt lat="43.42159" lon="6.06268">
        <ele>266.17733764648</ele>
        <time>2015-01-07T15:10:26Z</time>
      </trkpt>
      <trkpt lat="43.42159" lon="6.06264">
        <ele>266.31018066406</ele>
        <time>2015-01-07T15:10:27Z</time>
      </trkpt>
      <trkpt lat="43.42158" lon="6.06244">
        <ele>267.14199829102</ele>
        <time>2015-01-07T15:10:32Z</time>
      </trkpt>
      <trkpt lat="43.42157" lon="6.06231">
        <ele>267.56460571289</ele>
        <time>2015-01-07T15:10:36Z</time>
      </trkpt>
      <trkpt lat="43.42157" lon="6.06225">
        <ele>267.77886962891</ele>
        <time>2015-01-07T15:10:38Z</time>
      </trkpt>
      <trkpt lat="43.4215" lon="6.06217">
        <ele>267.20230102539</ele>
        <time>2015-01-07T15:10:44Z</time>
      </trkpt>
      <trkpt lat="43.42143" lon="6.06218">
        <ele>266.24468994141</ele>
        <time>2015-01-07T15:10:48Z</time>
      </trkpt>
      <trkpt lat="43.42139" lon="6.06219">
        <ele>265.60202026367</ele>
        <time>2015-01-07T15:10:50Z</time>
      </trkpt>
      <trkpt lat="43.42127" lon="6.06224">
        <ele>263.76376342773</ele>
        <time>2015-01-07T15:10:54Z</time>
      </trkpt>
      <trkpt lat="43.42119" lon="6.06227">
        <ele>262.54214477539</ele>
        <time>2015-01-07T15:10:56Z</time>
      </trkpt>
      <trkpt lat="43.42111" lon="6.0623">
        <ele>261.31909179688</ele>
        <time>2015-01-07T15:10:59Z</time>
      </trkpt>
      <trkpt lat="43.4211" lon="6.0623">
        <ele>261.15692138672</ele>
        <time>2015-01-07T15:11:00Z</time>
      </trkpt>
      <trkpt lat="43.42107" lon="6.06231">
        <ele>260.64895629883</ele>
        <time>2015-01-07T15:11:04Z</time>
      </trkpt>
      <trkpt lat="43.42107" lon="6.06231">
        <ele>260.64456176758</ele>
        <time>2015-01-07T15:11:06Z</time>
      </trkpt>
      <trkpt lat="43.42107" lon="6.06232">
        <ele>260.64163208008</ele>
        <time>2015-01-07T15:11:09Z</time>
      </trkpt>
      <trkpt lat="43.42106" lon="6.06232">
        <ele>260.58197021484</ele>
        <time>2015-01-07T15:11:16Z</time>
      </trkpt>
      <trkpt lat="43.42097" lon="6.06236">
        <ele>259.15487670898</ele>
        <time>2015-01-07T15:11:20Z</time>
      </trkpt>
      <trkpt lat="43.42079" lon="6.06242">
        <ele>256.88885498047</ele>
        <time>2015-01-07T15:11:24Z</time>
      </trkpt>
      <trkpt lat="43.42073" lon="6.06244">
        <ele>256.41479492188</ele>
        <time>2015-01-07T15:11:25Z</time>
      </trkpt>
      <trkpt lat="43.42067" lon="6.06246">
        <ele>255.89251708984</ele>
        <time>2015-01-07T15:11:26Z</time>
      </trkpt>
      <trkpt lat="43.42055" lon="6.0625">
        <ele>254.96592712402</ele>
        <time>2015-01-07T15:11:28Z</time>
      </trkpt>
      <trkpt lat="43.42043" lon="6.06254">
        <ele>254.01263427734</ele>
        <time>2015-01-07T15:11:30Z</time>
      </trkpt>
      <trkpt lat="43.42015" lon="6.06262">
        <ele>251.93725585938</ele>
        <time>2015-01-07T15:11:34Z</time>
      </trkpt>
      <trkpt lat="43.42002" lon="6.06266">
        <ele>250.92730712891</ele>
        <time>2015-01-07T15:11:36Z</time>
      </trkpt>
      <trkpt lat="43.41994" lon="6.06269">
        <ele>250.26028442383</ele>
        <time>2015-01-07T15:11:37Z</time>
      </trkpt>
      <trkpt lat="43.4198" lon="6.06274">
        <ele>248.85726928711</ele>
        <time>2015-01-07T15:11:39Z</time>
      </trkpt>
      <trkpt lat="43.41963" lon="6.06279">
        <ele>247.27062988281</ele>
        <time>2015-01-07T15:11:41Z</time>
      </trkpt>
      <trkpt lat="43.41956" lon="6.06282">
        <ele>246.59243774414</ele>
        <time>2015-01-07T15:11:42Z</time>
      </trkpt>
      <trkpt lat="43.41933" lon="6.06289">
        <ele>244.44706726074</ele>
        <time>2015-01-07T15:11:45Z</time>
      </trkpt>
      <trkpt lat="43.41919" lon="6.06292">
        <ele>243.17053222656</ele>
        <time>2015-01-07T15:11:47Z</time>
      </trkpt>
      <trkpt lat="43.41911" lon="6.06293">
        <ele>242.7431640625</ele>
        <time>2015-01-07T15:11:48Z</time>
      </trkpt>
      <trkpt lat="43.41895" lon="6.06294">
        <ele>241.97412109375</ele>
        <time>2015-01-07T15:11:50Z</time>
      </trkpt>
      <trkpt lat="43.4188" lon="6.06293">
        <ele>241.22338867188</ele>
        <time>2015-01-07T15:11:52Z</time>
      </trkpt>
      <trkpt lat="43.41871" lon="6.06292">
        <ele>240.82055664062</ele>
        <time>2015-01-07T15:11:53Z</time>
      </trkpt>
      <trkpt lat="43.41854" lon="6.06291">
        <ele>239.99658203125</ele>
        <time>2015-01-07T15:11:55Z</time>
      </trkpt>
      <trkpt lat="43.41836" lon="6.06291">
        <ele>239.13598632812</ele>
        <time>2015-01-07T15:11:57Z</time>
      </trkpt>
      <trkpt lat="43.41819" lon="6.0629">
        <ele>238.29370117188</ele>
        <time>2015-01-07T15:11:59Z</time>
      </trkpt>
      <trkpt lat="43.41811" lon="6.06287">
        <ele>237.9091796875</ele>
        <time>2015-01-07T15:12:00Z</time>
      </trkpt>
      <trkpt lat="43.41795" lon="6.06276">
        <ele>237.1767578125</ele>
        <time>2015-01-07T15:12:02Z</time>
      </trkpt>
      <trkpt lat="43.41773" lon="6.06258">
        <ele>236.09643554688</ele>
        <time>2015-01-07T15:12:05Z</time>
      </trkpt>
      <trkpt lat="43.41756" lon="6.06251">
        <ele>235.30908203125</ele>
        <time>2015-01-07T15:12:07Z</time>
      </trkpt>
      <trkpt lat="43.4173" lon="6.06248">
        <ele>234.08868408203</ele>
        <time>2015-01-07T15:12:10Z</time>
      </trkpt>
      <trkpt lat="43.41721" lon="6.06248">
        <ele>233.65219116211</ele>
        <time>2015-01-07T15:12:11Z</time>
      </trkpt>
      <trkpt lat="43.41695" lon="6.06247">
        <ele>232.42091369629</ele>
        <time>2015-01-07T15:12:14Z</time>
      </trkpt>
      <trkpt lat="43.41672" lon="6.06244">
        <ele>231.39392089844</ele>
        <time>2015-01-07T15:12:17Z</time>
      </trkpt>
      <trkpt lat="43.4164" lon="6.06233">
        <ele>229.80828857422</ele>
        <time>2015-01-07T15:12:22Z</time>
      </trkpt>
      <trkpt lat="43.41636" lon="6.0623">
        <ele>229.63090515137</ele>
        <time>2015-01-07T15:12:23Z</time>
      </trkpt>
      <trkpt lat="43.41628" lon="6.06227">
        <ele>229.2177734375</ele>
        <time>2015-01-07T15:12:26Z</time>
      </trkpt>
      <trkpt lat="43.41614" lon="6.06232">
        <ele>228.26676940918</ele>
        <time>2015-01-07T15:12:32Z</time>
      </trkpt>
      <trkpt lat="43.41612" lon="6.06232">
        <ele>228.14202880859</ele>
        <time>2015-01-07T15:12:33Z</time>
      </trkpt>
      <trkpt lat="43.41609" lon="6.06235">
        <ele>227.87767028809</ele>
        <time>2015-01-07T15:12:36Z</time>
      </trkpt>
      <trkpt lat="43.41608" lon="6.06237">
        <ele>227.80213928223</ele>
        <time>2015-01-07T15:12:37Z</time>
      </trkpt>
      <trkpt lat="43.41608" lon="6.06237">
        <ele>227.8147277832</ele>
        <time>2015-01-07T15:12:39Z</time>
      </trkpt>
      <trkpt lat="43.41608" lon="6.06237">
        <ele>227.81243896484</ele>
        <time>2015-01-07T15:12:40Z</time>
      </trkpt>
      <trkpt lat="43.41608" lon="6.06238">
        <ele>227.78955078125</ele>
        <time>2015-01-07T15:12:42Z</time>
      </trkpt>
      <trkpt lat="43.41608" lon="6.06238">
        <ele>227.79870605469</ele>
        <time>2015-01-07T15:12:43Z</time>
      </trkpt>
      <trkpt lat="43.41607" lon="6.0624">
        <ele>227.6739654541</ele>
        <time>2015-01-07T15:12:47Z</time>
      </trkpt>
      <trkpt lat="43.41605" lon="6.06245">
        <ele>227.45080566406</ele>
        <time>2015-01-07T15:12:49Z</time>
      </trkpt>
      <trkpt lat="43.41602" lon="6.06258">
        <ele>226.88578796387</ele>
        <time>2015-01-07T15:12:53Z</time>
      </trkpt>
      <trkpt lat="43.41597" lon="6.06262">
        <ele>226.42181396484</ele>
        <time>2015-01-07T15:12:55Z</time>
      </trkpt>
      <trkpt lat="43.41589" lon="6.06271">
        <ele>225.6057434082</ele>
        <time>2015-01-07T15:12:58Z</time>
      </trkpt>
      <trkpt lat="43.41588" lon="6.06276">
        <ele>225.39361572266</ele>
        <time>2015-01-07T15:12:59Z</time>
      </trkpt>
      <trkpt lat="43.41587" lon="6.06287">
        <ele>224.96528625488</ele>
        <time>2015-01-07T15:13:01Z</time>
      </trkpt>
      <trkpt lat="43.41586" lon="6.06314">
        <ele>223.88461303711</ele>
        <time>2015-01-07T15:13:06Z</time>
      </trkpt>
      <trkpt lat="43.41576" lon="6.06331">
        <ele>222.99336242676</ele>
        <time>2015-01-07T15:13:09Z</time>
      </trkpt>
      <trkpt lat="43.41572" lon="6.06337">
        <ele>222.81455993652</ele>
        <time>2015-01-07T15:13:10Z</time>
      </trkpt>
      <trkpt lat="43.41564" lon="6.06351">
        <ele>222.51020812988</ele>
        <time>2015-01-07T15:13:12Z</time>
      </trkpt>
      <trkpt lat="43.41561" lon="6.06359">
        <ele>222.33374023438</ele>
        <time>2015-01-07T15:13:13Z</time>
      </trkpt>
      <trkpt lat="43.41558" lon="6.06368">
        <ele>222.16027832031</ele>
        <time>2015-01-07T15:13:14Z</time>
      </trkpt>
      <trkpt lat="43.41557" lon="6.06377">
        <ele>221.98268127441</ele>
        <time>2015-01-07T15:13:15Z</time>
      </trkpt>
      <trkpt lat="43.4155" lon="6.06407">
        <ele>221.36570739746</ele>
        <time>2015-01-07T15:13:18Z</time>
      </trkpt>
      <trkpt lat="43.41549" lon="6.06418">
        <ele>221.15234375</ele>
        <time>2015-01-07T15:13:19Z</time>
      </trkpt>
      <trkpt lat="43.41547" lon="6.06429">
        <ele>221.03341674805</ele>
        <time>2015-01-07T15:13:20Z</time>
      </trkpt>
      <trkpt lat="43.41544" lon="6.06445">
        <ele>220.88282775879</ele>
        <time>2015-01-07T15:13:22Z</time>
      </trkpt>
      <trkpt lat="43.41545" lon="6.06451">
        <ele>220.85264587402</ele>
        <time>2015-01-07T15:13:23Z</time>
      </trkpt>
      <trkpt lat="43.41545" lon="6.06456">
        <ele>220.82040405273</ele>
        <time>2015-01-07T15:13:24Z</time>
      </trkpt>
      <trkpt lat="43.41545" lon="6.0646">
        <ele>220.79983520508</ele>
        <time>2015-01-07T15:13:25Z</time>
      </trkpt>
      <trkpt lat="43.41543" lon="6.06465">
        <ele>220.73693847656</ele>
        <time>2015-01-07T15:13:27Z</time>
      </trkpt>
      <trkpt lat="43.41536" lon="6.06469">
        <ele>220.59008789062</ele>
        <time>2015-01-07T15:13:31Z</time>
      </trkpt>
      <trkpt lat="43.41534" lon="6.06473">
        <ele>220.54565429688</ele>
        <time>2015-01-07T15:13:32Z</time>
      </trkpt>
      <trkpt lat="43.41534" lon="6.06479">
        <ele>220.50653076172</ele>
        <time>2015-01-07T15:13:33Z</time>
      </trkpt>
      <trkpt lat="43.41531" lon="6.06491">
        <ele>220.41038513184</ele>
        <time>2015-01-07T15:13:35Z</time>
      </trkpt>
      <trkpt lat="43.41526" lon="6.06509">
        <ele>220.23796081543</ele>
        <time>2015-01-07T15:13:38Z</time>
      </trkpt>
      <trkpt lat="43.41524" lon="6.06527">
        <ele>220.05081176758</ele>
        <time>2015-01-07T15:13:41Z</time>
      </trkpt>
      <trkpt lat="43.41522" lon="6.0654">
        <ele>219.90811157227</ele>
        <time>2015-01-07T15:13:43Z</time>
      </trkpt>
      <trkpt lat="43.41518" lon="6.06566">
        <ele>219.58460998535</ele>
        <time>2015-01-07T15:13:47Z</time>
      </trkpt>
      <trkpt lat="43.41512" lon="6.06606">
        <ele>219.2473449707</ele>
        <time>2015-01-07T15:13:54Z</time>
      </trkpt>
      <trkpt lat="43.41508" lon="6.06637">
        <ele>219.13229370117</ele>
        <time>2015-01-07T15:13:59Z</time>
      </trkpt>
      <trkpt lat="43.41506" lon="6.06649">
        <ele>219.09004211426</ele>
        <time>2015-01-07T15:14:01Z</time>
      </trkpt>
      <trkpt lat="43.41505" lon="6.06655">
        <ele>219.06356811523</ele>
        <time>2015-01-07T15:14:02Z</time>
      </trkpt>
      <trkpt lat="43.41502" lon="6.06682">
        <ele>219.01940917969</ele>
        <time>2015-01-07T15:14:06Z</time>
      </trkpt>
      <trkpt lat="43.41501" lon="6.06696">
        <ele>219.01483154297</ele>
        <time>2015-01-07T15:14:08Z</time>
      </trkpt>
      <trkpt lat="43.41499" lon="6.06723">
        <ele>219.00805664062</ele>
        <time>2015-01-07T15:14:12Z</time>
      </trkpt>
      <trkpt lat="43.41497" lon="6.06752">
        <ele>219.03012084961</ele>
        <time>2015-01-07T15:14:16Z</time>
      </trkpt>
      <trkpt lat="43.41495" lon="6.06775">
        <ele>219.04405212402</ele>
        <time>2015-01-07T15:14:19Z</time>
      </trkpt>
      <trkpt lat="43.41492" lon="6.0679">
        <ele>219.04945373535</ele>
        <time>2015-01-07T15:14:21Z</time>
      </trkpt>
      <trkpt lat="43.41489" lon="6.06805">
        <ele>219.04679870606</ele>
        <time>2015-01-07T15:14:23Z</time>
      </trkpt>
      <trkpt lat="43.41483" lon="6.06827">
        <ele>219.01448059082</ele>
        <time>2015-01-07T15:14:26Z</time>
      </trkpt>
      <trkpt lat="43.41481" lon="6.06833">
        <ele>219.00080871582</ele>
        <time>2015-01-07T15:14:27Z</time>
      </trkpt>
      <trkpt lat="43.41478" lon="6.06848">
        <ele>218.7825012207</ele>
        <time>2015-01-07T15:14:30Z</time>
      </trkpt>
      <trkpt lat="43.41477" lon="6.06853">
        <ele>218.70513916016</ele>
        <time>2015-01-07T15:14:31Z</time>
      </trkpt>
      <trkpt lat="43.41479" lon="6.06878">
        <ele>218.33616638184</ele>
        <time>2015-01-07T15:14:37Z</time>
      </trkpt>
      <trkpt lat="43.41479" lon="6.06878">
        <ele>218.3321685791</ele>
        <time>2015-01-07T15:14:40Z</time>
      </trkpt>
      <trkpt lat="43.41479" lon="6.06885">
        <ele>218.22384643555</ele>
        <time>2015-01-07T15:14:50Z</time>
      </trkpt>
      <trkpt lat="43.41478" lon="6.06895">
        <ele>218.0643157959</ele>
        <time>2015-01-07T15:14:53Z</time>
      </trkpt>
      <trkpt lat="43.41479" lon="6.06903">
        <ele>217.96116638184</ele>
        <time>2015-01-07T15:14:55Z</time>
      </trkpt>
      <trkpt lat="43.41478" lon="6.06911">
        <ele>217.81591796875</ele>
        <time>2015-01-07T15:14:57Z</time>
      </trkpt>
      <trkpt lat="43.41475" lon="6.06919">
        <ele>217.6692199707</ele>
        <time>2015-01-07T15:14:59Z</time>
      </trkpt>
      <trkpt lat="43.41473" lon="6.06931">
        <ele>217.49642944336</ele>
        <time>2015-01-07T15:15:04Z</time>
      </trkpt>
      <trkpt lat="43.41477" lon="6.06939">
        <ele>217.45407104492</ele>
        <time>2015-01-07T15:15:07Z</time>
      </trkpt>
      <trkpt lat="43.41482" lon="6.06945">
        <ele>217.45065307617</ele>
        <time>2015-01-07T15:15:09Z</time>
      </trkpt>
      <trkpt lat="43.41494" lon="6.06959">
        <ele>217.41917419434</ele>
        <time>2015-01-07T15:15:14Z</time>
      </trkpt>
      <trkpt lat="43.41504" lon="6.06968">
        <ele>217.47233581543</ele>
        <time>2015-01-07T15:15:19Z</time>
      </trkpt>
      <trkpt lat="43.41514" lon="6.06973">
        <ele>217.59936523438</ele>
        <time>2015-01-07T15:15:24Z</time>
      </trkpt>
      <trkpt lat="43.41534" lon="6.06972">
        <ele>218.01068115234</ele>
        <time>2015-01-07T15:15:30Z</time>
      </trkpt>
      <trkpt lat="43.41564" lon="6.06966">
        <ele>218.63336181641</ele>
        <time>2015-01-07T15:15:38Z</time>
      </trkpt>
      <trkpt lat="43.41573" lon="6.06968">
        <ele>218.79901123047</ele>
        <time>2015-01-07T15:15:42Z</time>
      </trkpt>
      <trkpt lat="43.41575" lon="6.06983">
        <ele>218.8253326416</ele>
        <time>2015-01-07T15:15:47Z</time>
      </trkpt>
      <trkpt lat="43.41579" lon="6.07016">
        <ele>218.70429992676</ele>
        <time>2015-01-07T15:15:55Z</time>
      </trkpt>
      <trkpt lat="43.4158" lon="6.07032">
        <ele>218.54122924805</ele>
        <time>2015-01-07T15:16:00Z</time>
      </trkpt>
      <trkpt lat="43.4158" lon="6.07036">
        <ele>218.48056030273</ele>
        <time>2015-01-07T15:16:02Z</time>
      </trkpt>
      <trkpt lat="43.4158" lon="6.07037">
        <ele>218.46626281738</ele>
        <time>2015-01-07T15:16:07Z</time>
      </trkpt>
      <trkpt lat="43.4158" lon="6.07037">
        <ele>218.46682739258</ele>
        <time>2015-01-07T15:16:08Z</time>
      </trkpt>
    </trkseg>
  </trk>
</gpx>